<?xml version="1.0" encoding="UTF-8" standalone="no" ?>
<gpx xmlns="http://www.topografix.com/GPX/1/1" xmlns:xsi="http://www.w3.org/2001/XMLSchema-instance" xsi:schemaLocation="http://www.topografix.com/GPX/1/1 http://www.topografix.com/GPX/1/1/gpx.xsd" version="1.1" creator="VisuGPX - https://www.visugpx.com">
  <metadata>
    <name>Angouleme-Gourdon 2</name>
  </metadata>
  <trk>
    <name><![CDATA[Angouleme-Gourdon 2]]></name>
    <trkseg>
      <trkpt lat="45.18745" lon="0.77211">
        <ele>91.80033884201</ele>
        <time>2021-07-11T06:38:58.000Z</time>
      </trkpt>
      <trkpt lat="45.18748" lon="0.77249">
        <ele>91.80102937857</ele>
        <time>2021-07-11T06:38:58.005Z</time>
      </trkpt>
      <trkpt lat="45.18755" lon="0.77291">
        <ele>91.77226802799</ele>
        <time>2021-07-11T06:38:58.016Z</time>
      </trkpt>
      <trkpt lat="45.18763" lon="0.77317">
        <ele>91.74365774541</ele>
        <time>2021-07-11T06:38:58.032Z</time>
      </trkpt>
      <trkpt lat="45.18774" lon="0.77361">
        <ele>91.75220882165</ele>
        <time>2021-07-11T06:38:58.054Z</time>
      </trkpt>
      <trkpt lat="45.18787" lon="0.77401">
        <ele>91.74702798002</ele>
        <time>2021-07-11T06:38:58.082Z</time>
      </trkpt>
      <trkpt lat="45.18814" lon="0.77468">
        <ele>91.86157436685</ele>
        <time>2021-07-11T06:38:58.121Z</time>
      </trkpt>
      <trkpt lat="45.18836" lon="0.77532">
        <ele>91.76610670082</ele>
        <time>2021-07-11T06:38:58.170Z</time>
      </trkpt>
      <trkpt lat="45.18854" lon="0.77601">
        <ele>91.63869287252</ele>
        <time>2021-07-11T06:38:58.230Z</time>
      </trkpt>
      <trkpt lat="45.18862" lon="0.77648">
        <ele>91.48112831249</ele>
        <time>2021-07-11T06:38:58.297Z</time>
      </trkpt>
      <trkpt lat="45.18865" lon="0.77684">
        <ele>91.38679714902</ele>
        <time>2021-07-11T06:38:58.369Z</time>
      </trkpt>
      <trkpt lat="45.18865" lon="0.77706">
        <ele>91.31028181415</ele>
        <time>2021-07-11T06:38:58.444Z</time>
      </trkpt>
      <trkpt lat="45.18855" lon="0.77767">
        <ele>91.17297636513</ele>
        <time>2021-07-11T06:38:58.528Z</time>
      </trkpt>
      <trkpt lat="45.18849" lon="0.77862">
        <ele>91.12075885573</ele>
        <time>2021-07-11T06:38:58.625Z</time>
      </trkpt>
      <trkpt lat="45.18842" lon="0.77872">
        <ele>91.10800509562</ele>
        <time>2021-07-11T06:38:58.724Z</time>
      </trkpt>
      <trkpt lat="45.18836" lon="0.77873">
        <ele>91.11823278661</ele>
        <time>2021-07-11T06:38:58.824Z</time>
      </trkpt>
      <trkpt lat="45.18754" lon="0.77881">
        <ele>91.19938479315</ele>
        <time>2021-07-11T06:38:58.941Z</time>
      </trkpt>
      <trkpt lat="45.18743" lon="0.77882">
        <ele>91.26201382019</ele>
        <time>2021-07-11T06:38:59.060Z</time>
      </trkpt>
      <trkpt lat="45.18732" lon="0.77878">
        <ele>91.32617242218</ele>
        <time>2021-07-11T06:38:59.181Z</time>
      </trkpt>
      <trkpt lat="45.18727" lon="0.77889">
        <ele>91.40503237671</ele>
        <time>2021-07-11T06:38:59.304Z</time>
      </trkpt>
      <trkpt lat="45.18695" lon="0.77924">
        <ele>91.55362993055</ele>
        <time>2021-07-11T06:38:59.435Z</time>
      </trkpt>
      <trkpt lat="45.18675" lon="0.77948">
        <ele>91.7031867556</ele>
        <time>2021-07-11T06:38:59.571Z</time>
      </trkpt>
      <trkpt lat="45.18643" lon="0.78049">
        <ele>91.80871617082</ele>
        <time>2021-07-11T06:38:59.723Z</time>
      </trkpt>
      <trkpt lat="45.18641" lon="0.7806">
        <ele>91.90349089384</ele>
        <time>2021-07-11T06:38:59.877Z</time>
      </trkpt>
      <trkpt lat="45.18642" lon="0.78077">
        <ele>91.9768289944</ele>
        <time>2021-07-11T06:39:00.033Z</time>
      </trkpt>
      <trkpt lat="45.18646" lon="0.78087">
        <ele>92.01349189792</ele>
        <time>2021-07-11T06:39:00.191Z</time>
      </trkpt>
      <trkpt lat="45.18691" lon="0.7814">
        <ele>91.94709990941</ele>
        <time>2021-07-11T06:39:00.361Z</time>
      </trkpt>
      <trkpt lat="45.18705" lon="0.78161">
        <ele>91.92917388304</ele>
        <time>2021-07-11T06:39:00.535Z</time>
      </trkpt>
      <trkpt lat="45.18709" lon="0.78178">
        <ele>91.91051809884</ele>
        <time>2021-07-11T06:39:00.711Z</time>
      </trkpt>
      <trkpt lat="45.18709" lon="0.78198">
        <ele>91.89852701414</ele>
        <time>2021-07-11T06:39:00.890Z</time>
      </trkpt>
      <trkpt lat="45.18718" lon="0.78215">
        <ele>91.86226408498</ele>
        <time>2021-07-11T06:39:01.072Z</time>
      </trkpt>
      <trkpt lat="45.18786" lon="0.78215">
        <ele>91.67158527569</ele>
        <time>2021-07-11T06:39:01.267Z</time>
      </trkpt>
      <trkpt lat="45.18813" lon="0.78219">
        <ele>91.54751649023</ele>
        <time>2021-07-11T06:39:01.468Z</time>
      </trkpt>
      <trkpt lat="45.18978" lon="0.78213">
        <ele>91.51657542775</ele>
        <time>2021-07-11T06:39:01.702Z</time>
      </trkpt>
      <trkpt lat="45.18973" lon="0.78226">
        <ele>91.3876997988</ele>
        <time>2021-07-11T06:39:01.938Z</time>
      </trkpt>
      <trkpt lat="45.18961" lon="0.7823">
        <ele>91.27159804323</ele>
        <time>2021-07-11T06:39:02.177Z</time>
      </trkpt>
      <trkpt lat="45.18956" lon="0.78236">
        <ele>91.13629412409</ele>
        <time>2021-07-11T06:39:02.417Z</time>
      </trkpt>
      <trkpt lat="45.18953" lon="0.78247">
        <ele>90.98889808468</ele>
        <time>2021-07-11T06:39:02.659Z</time>
      </trkpt>
      <trkpt lat="45.18952" lon="0.7828">
        <ele>90.79830843288</ele>
        <time>2021-07-11T06:39:02.905Z</time>
      </trkpt>
      <trkpt lat="45.18956" lon="0.78388">
        <ele>90.62536291087</ele>
        <time>2021-07-11T06:39:03.167Z</time>
      </trkpt>
      <trkpt lat="45.18959" lon="0.78437">
        <ele>90.47836440308</ele>
        <time>2021-07-11T06:39:03.435Z</time>
      </trkpt>
      <trkpt lat="45.18967" lon="0.78498">
        <ele>90.31846653225</ele>
        <time>2021-07-11T06:39:03.712Z</time>
      </trkpt>
      <trkpt lat="45.18991" lon="0.78669">
        <ele>90.23584783553</ele>
        <time>2021-07-11T06:39:04.014Z</time>
      </trkpt>
      <trkpt lat="45.18995" lon="0.78686">
        <ele>90.13440124069</ele>
        <time>2021-07-11T06:39:04.319Z</time>
      </trkpt>
      <trkpt lat="45.18993" lon="0.78714">
        <ele>90.0399429896</ele>
        <time>2021-07-11T06:39:04.628Z</time>
      </trkpt>
      <trkpt lat="45.19008" lon="0.78834">
        <ele>90.0264230587</ele>
        <time>2021-07-11T06:39:04.954Z</time>
      </trkpt>
      <trkpt lat="45.19019" lon="0.78879">
        <ele>89.99658428794</ele>
        <time>2021-07-11T06:39:05.287Z</time>
      </trkpt>
      <trkpt lat="45.19026" lon="0.78896">
        <ele>89.95027751963</ele>
        <time>2021-07-11T06:39:05.622Z</time>
      </trkpt>
      <trkpt lat="45.19034" lon="0.78925">
        <ele>89.87638786456</ele>
        <time>2021-07-11T06:39:05.962Z</time>
      </trkpt>
      <trkpt lat="45.1904" lon="0.78989">
        <ele>89.79925997098</ele>
        <time>2021-07-11T06:39:06.311Z</time>
      </trkpt>
      <trkpt lat="45.19093" lon="0.79264">
        <ele>89.64790059503</ele>
        <time>2021-07-11T06:39:06.700Z</time>
      </trkpt>
      <trkpt lat="45.19108" lon="0.79323">
        <ele>89.59840385591</ele>
        <time>2021-07-11T06:39:07.098Z</time>
      </trkpt>
      <trkpt lat="45.19131" lon="0.79432">
        <ele>89.54364357752</ele>
        <time>2021-07-11T06:39:07.512Z</time>
      </trkpt>
      <trkpt lat="45.19153" lon="0.7952">
        <ele>89.55867884284</ele>
        <time>2021-07-11T06:39:07.939Z</time>
      </trkpt>
      <trkpt lat="45.19168" lon="0.79593">
        <ele>89.59547516882</ele>
        <time>2021-07-11T06:39:08.377Z</time>
      </trkpt>
      <trkpt lat="45.19209" lon="0.79767">
        <ele>89.764146535</ele>
        <time>2021-07-11T06:39:08.841Z</time>
      </trkpt>
      <trkpt lat="45.19229" lon="0.79824">
        <ele>89.83696241544</ele>
        <time>2021-07-11T06:39:09.314Z</time>
      </trkpt>
      <trkpt lat="45.19257" lon="0.79864">
        <ele>89.94958031006</ele>
        <time>2021-07-11T06:39:09.795Z</time>
      </trkpt>
      <trkpt lat="45.1927" lon="0.79888">
        <ele>90.07297461255</ele>
        <time>2021-07-11T06:39:10.280Z</time>
      </trkpt>
      <trkpt lat="45.19284" lon="0.79907">
        <ele>90.12489193018</ele>
        <time>2021-07-11T06:39:10.769Z</time>
      </trkpt>
      <trkpt lat="45.19294" lon="0.79927">
        <ele>90.17769967413</ele>
        <time>2021-07-11T06:39:11.262Z</time>
      </trkpt>
      <trkpt lat="45.19297" lon="0.79943">
        <ele>90.25700216948</ele>
        <time>2021-07-11T06:39:11.757Z</time>
      </trkpt>
      <trkpt lat="45.19298" lon="0.79962">
        <ele>90.3374487025</ele>
        <time>2021-07-11T06:39:12.255Z</time>
      </trkpt>
      <trkpt lat="45.19292" lon="0.79976">
        <ele>90.45644316203</ele>
        <time>2021-07-11T06:39:12.755Z</time>
      </trkpt>
      <trkpt lat="45.19286" lon="0.79983">
        <ele>90.63104686355</ele>
        <time>2021-07-11T06:39:13.257Z</time>
      </trkpt>
      <trkpt lat="45.19277" lon="0.79986">
        <ele>90.82262858654</ele>
        <time>2021-07-11T06:39:13.760Z</time>
      </trkpt>
      <trkpt lat="45.1927" lon="0.79995">
        <ele>91.02669502835</ele>
        <time>2021-07-11T06:39:14.265Z</time>
      </trkpt>
      <trkpt lat="45.19267" lon="0.80006">
        <ele>91.23605956391</ele>
        <time>2021-07-11T06:39:14.772Z</time>
      </trkpt>
      <trkpt lat="45.19268" lon="0.80019">
        <ele>91.42821985301</ele>
        <time>2021-07-11T06:39:15.281Z</time>
      </trkpt>
      <trkpt lat="45.19273" lon="0.80029">
        <ele>91.60273939331</ele>
        <time>2021-07-11T06:39:15.791Z</time>
      </trkpt>
      <trkpt lat="45.19283" lon="0.80042">
        <ele>91.74740243458</ele>
        <time>2021-07-11T06:39:16.304Z</time>
      </trkpt>
      <trkpt lat="45.19306" lon="0.80062">
        <ele>91.88824579554</ele>
        <time>2021-07-11T06:39:16.823Z</time>
      </trkpt>
      <trkpt lat="45.19318" lon="0.8007">
        <ele>92.0557533661</ele>
        <time>2021-07-11T06:39:17.344Z</time>
      </trkpt>
      <trkpt lat="45.19339" lon="0.80076">
        <ele>92.237695103</ele>
        <time>2021-07-11T06:39:17.870Z</time>
      </trkpt>
      <trkpt lat="45.19359" lon="0.80078">
        <ele>92.42432619314</ele>
        <time>2021-07-11T06:39:18.400Z</time>
      </trkpt>
      <trkpt lat="45.19388" lon="0.80074">
        <ele>92.61275930602</ele>
        <time>2021-07-11T06:39:18.935Z</time>
      </trkpt>
      <trkpt lat="45.19438" lon="0.80072">
        <ele>92.71316645442</ele>
        <time>2021-07-11T06:39:19.480Z</time>
      </trkpt>
      <trkpt lat="45.19479" lon="0.80079">
        <ele>92.82879430625</ele>
        <time>2021-07-11T06:39:20.034Z</time>
      </trkpt>
      <trkpt lat="45.19513" lon="0.8008">
        <ele>92.95844593283</ele>
        <time>2021-07-11T06:39:20.594Z</time>
      </trkpt>
      <trkpt lat="45.19549" lon="0.80077">
        <ele>93.08162803679</ele>
        <time>2021-07-11T06:39:21.162Z</time>
      </trkpt>
      <trkpt lat="45.19599" lon="0.80063">
        <ele>93.1935143759</ele>
        <time>2021-07-11T06:39:21.740Z</time>
      </trkpt>
      <trkpt lat="45.1966" lon="0.80066">
        <ele>93.34810850226</ele>
        <time>2021-07-11T06:39:22.330Z</time>
      </trkpt>
      <trkpt lat="45.19696" lon="0.80062">
        <ele>93.55257156297</ele>
        <time>2021-07-11T06:39:22.927Z</time>
      </trkpt>
      <trkpt lat="45.19717" lon="0.8005">
        <ele>93.74771919555</ele>
        <time>2021-07-11T06:39:23.529Z</time>
      </trkpt>
      <trkpt lat="45.19732" lon="0.80028">
        <ele>93.9283499498</ele>
        <time>2021-07-11T06:39:24.135Z</time>
      </trkpt>
      <trkpt lat="45.19748" lon="0.79997">
        <ele>94.13776355813</ele>
        <time>2021-07-11T06:39:24.747Z</time>
      </trkpt>
      <trkpt lat="45.19762" lon="0.79978">
        <ele>94.40308674615</ele>
        <time>2021-07-11T06:39:25.362Z</time>
      </trkpt>
      <trkpt lat="45.1978" lon="0.79961">
        <ele>94.6353512565</ele>
        <time>2021-07-11T06:39:25.982Z</time>
      </trkpt>
      <trkpt lat="45.19802" lon="0.79951">
        <ele>94.86794551371</ele>
        <time>2021-07-11T06:39:26.606Z</time>
      </trkpt>
      <trkpt lat="45.19823" lon="0.79947">
        <ele>94.98107060231</ele>
        <time>2021-07-11T06:39:27.235Z</time>
      </trkpt>
      <trkpt lat="45.19853" lon="0.79946">
        <ele>95.05718650767</ele>
        <time>2021-07-11T06:39:27.870Z</time>
      </trkpt>
      <trkpt lat="45.19874" lon="0.79948">
        <ele>95.09395622549</ele>
        <time>2021-07-11T06:39:28.509Z</time>
      </trkpt>
      <trkpt lat="45.19905" lon="0.79956">
        <ele>95.1191224068</ele>
        <time>2021-07-11T06:39:29.154Z</time>
      </trkpt>
      <trkpt lat="45.19925" lon="0.79963">
        <ele>95.14392899717</ele>
        <time>2021-07-11T06:39:29.803Z</time>
      </trkpt>
      <trkpt lat="45.19935" lon="0.79976">
        <ele>95.16841138747</ele>
        <time>2021-07-11T06:39:30.455Z</time>
      </trkpt>
      <trkpt lat="45.19941" lon="0.80028">
        <ele>95.20902512008</ele>
        <time>2021-07-11T06:39:31.114Z</time>
      </trkpt>
      <trkpt lat="45.19955" lon="0.80083">
        <ele>95.15529017357</ele>
        <time>2021-07-11T06:39:31.782Z</time>
      </trkpt>
      <trkpt lat="45.19959" lon="0.80096">
        <ele>95.12974342462</ele>
        <time>2021-07-11T06:39:32.452Z</time>
      </trkpt>
      <trkpt lat="45.19971" lon="0.80111">
        <ele>95.08785634488</ele>
        <time>2021-07-11T06:39:33.125Z</time>
      </trkpt>
      <trkpt lat="45.20001" lon="0.80124">
        <ele>95.03522233594</ele>
        <time>2021-07-11T06:39:33.804Z</time>
      </trkpt>
      <trkpt lat="45.20067" lon="0.80165">
        <ele>94.99069484785</ele>
        <time>2021-07-11T06:39:34.498Z</time>
      </trkpt>
      <trkpt lat="45.20177" lon="0.80251">
        <ele>94.97840171785</ele>
        <time>2021-07-11T06:39:35.217Z</time>
      </trkpt>
      <trkpt lat="45.2024" lon="0.80311">
        <ele>94.93998675687</ele>
        <time>2021-07-11T06:39:35.951Z</time>
      </trkpt>
      <trkpt lat="45.20268" lon="0.80334">
        <ele>94.88612913998</ele>
        <time>2021-07-11T06:39:36.691Z</time>
      </trkpt>
      <trkpt lat="45.20287" lon="0.80353">
        <ele>94.82235825097</ele>
        <time>2021-07-11T06:39:37.436Z</time>
      </trkpt>
      <trkpt lat="45.203" lon="0.80355">
        <ele>94.76745597019</ele>
        <time>2021-07-11T06:39:38.184Z</time>
      </trkpt>
      <trkpt lat="45.20317" lon="0.80331">
        <ele>94.74332735365</ele>
        <time>2021-07-11T06:39:38.936Z</time>
      </trkpt>
      <trkpt lat="45.20328" lon="0.80319">
        <ele>94.6854554063</ele>
        <time>2021-07-11T06:39:39.691Z</time>
      </trkpt>
      <trkpt lat="45.20333" lon="0.80317">
        <ele>94.61090024305</ele>
        <time>2021-07-11T06:39:40.447Z</time>
      </trkpt>
      <trkpt lat="45.20337" lon="0.80319">
        <ele>94.53155399876</ele>
        <time>2021-07-11T06:39:41.204Z</time>
      </trkpt>
      <trkpt lat="45.20342" lon="0.80324">
        <ele>94.44834315975</ele>
        <time>2021-07-11T06:39:41.962Z</time>
      </trkpt>
      <trkpt lat="45.20347" lon="0.80338">
        <ele>94.36066515331</ele>
        <time>2021-07-11T06:39:42.723Z</time>
      </trkpt>
      <trkpt lat="45.20351" lon="0.80343">
        <ele>94.27018812691</ele>
        <time>2021-07-11T06:39:43.485Z</time>
      </trkpt>
      <trkpt lat="45.2034" lon="0.80361">
        <ele>94.15270974346</ele>
        <time>2021-07-11T06:39:44.250Z</time>
      </trkpt>
      <trkpt lat="45.20328" lon="0.80376">
        <ele>94.02147955708</ele>
        <time>2021-07-11T06:39:45.018Z</time>
      </trkpt>
      <trkpt lat="45.2027" lon="0.80446">
        <ele>93.78527903806</ele>
        <time>2021-07-11T06:39:45.801Z</time>
      </trkpt>
      <trkpt lat="45.20247" lon="0.80469">
        <ele>93.76242221759</ele>
        <time>2021-07-11T06:39:46.590Z</time>
      </trkpt>
      <trkpt lat="45.20281" lon="0.80561">
        <ele>93.68275139545</ele>
        <time>2021-07-11T06:39:47.394Z</time>
      </trkpt>
      <trkpt lat="45.2029" lon="0.80606">
        <ele>93.57809962249</ele>
        <time>2021-07-11T06:39:48.204Z</time>
      </trkpt>
      <trkpt lat="45.20287" lon="0.80655">
        <ele>93.49151883752</ele>
        <time>2021-07-11T06:39:49.021Z</time>
      </trkpt>
      <trkpt lat="45.20283" lon="0.80684">
        <ele>93.44651076764</ele>
        <time>2021-07-11T06:39:49.842Z</time>
      </trkpt>
      <trkpt lat="45.20269" lon="0.80725">
        <ele>93.43013000712</ele>
        <time>2021-07-11T06:39:50.670Z</time>
      </trkpt>
      <trkpt lat="45.20245" lon="0.80761">
        <ele>93.42220383865</ele>
        <time>2021-07-11T06:39:51.505Z</time>
      </trkpt>
      <trkpt lat="45.20229" lon="0.80775">
        <ele>93.41989092629</ele>
        <time>2021-07-11T06:39:52.344Z</time>
      </trkpt>
      <trkpt lat="45.20211" lon="0.80786">
        <ele>93.43936235539</ele>
        <time>2021-07-11T06:39:53.187Z</time>
      </trkpt>
      <trkpt lat="45.20166" lon="0.80807">
        <ele>93.5197842471</ele>
        <time>2021-07-11T06:39:54.039Z</time>
      </trkpt>
      <trkpt lat="45.2021" lon="0.81333">
        <ele>93.6051939928</ele>
        <time>2021-07-11T06:39:54.966Z</time>
      </trkpt>
      <trkpt lat="45.20213" lon="0.81392">
        <ele>93.67780510444</ele>
        <time>2021-07-11T06:39:55.901Z</time>
      </trkpt>
      <trkpt lat="45.20212" lon="0.81415">
        <ele>93.80289688554</ele>
        <time>2021-07-11T06:39:56.840Z</time>
      </trkpt>
      <trkpt lat="45.20209" lon="0.81445">
        <ele>93.95007004318</ele>
        <time>2021-07-11T06:39:57.783Z</time>
      </trkpt>
      <trkpt lat="45.20201" lon="0.81477">
        <ele>94.1344237054</ele>
        <time>2021-07-11T06:39:58.731Z</time>
      </trkpt>
      <trkpt lat="45.20189" lon="0.81508">
        <ele>94.37213896433</ele>
        <time>2021-07-11T06:39:59.684Z</time>
      </trkpt>
      <trkpt lat="45.20164" lon="0.81544">
        <ele>94.62472506444</ele>
        <time>2021-07-11T06:40:00.644Z</time>
      </trkpt>
      <trkpt lat="45.20115" lon="0.816">
        <ele>94.84489333199</ele>
        <time>2021-07-11T06:40:01.616Z</time>
      </trkpt>
      <trkpt lat="45.19863" lon="0.81881">
        <ele>95.12976876619</ele>
        <time>2021-07-11T06:40:02.653Z</time>
      </trkpt>
      <trkpt lat="45.19797" lon="0.81947">
        <ele>95.48179320981</ele>
        <time>2021-07-11T06:40:03.706Z</time>
      </trkpt>
      <trkpt lat="45.19789" lon="0.81957">
        <ele>95.73035427586</ele>
        <time>2021-07-11T06:40:04.761Z</time>
      </trkpt>
      <trkpt lat="45.19755" lon="0.81927">
        <ele>95.9554820363</ele>
        <time>2021-07-11T06:40:05.824Z</time>
      </trkpt>
      <trkpt lat="45.19746" lon="0.81924">
        <ele>96.17457482458</ele>
        <time>2021-07-11T06:40:06.889Z</time>
      </trkpt>
      <trkpt lat="45.19741" lon="0.81925">
        <ele>96.37844258262</ele>
        <time>2021-07-11T06:40:07.955Z</time>
      </trkpt>
      <trkpt lat="45.19736" lon="0.81933">
        <ele>96.57185719104</ele>
        <time>2021-07-11T06:40:09.022Z</time>
      </trkpt>
      <trkpt lat="45.19652" lon="0.82212">
        <ele>96.62602167457</ele>
        <time>2021-07-11T06:40:10.132Z</time>
      </trkpt>
      <trkpt lat="45.19643" lon="0.82236">
        <ele>96.80778793188</ele>
        <time>2021-07-11T06:40:11.246Z</time>
      </trkpt>
      <trkpt lat="45.19632" lon="0.82254">
        <ele>96.95790215444</ele>
        <time>2021-07-11T06:40:12.363Z</time>
      </trkpt>
      <trkpt lat="45.19616" lon="0.82271">
        <ele>97.12163669905</ele>
        <time>2021-07-11T06:40:13.484Z</time>
      </trkpt>
      <trkpt lat="45.19576" lon="0.82306">
        <ele>97.28385145287</ele>
        <time>2021-07-11T06:40:14.615Z</time>
      </trkpt>
      <trkpt lat="45.19568" lon="0.82318">
        <ele>97.42837936858</ele>
        <time>2021-07-11T06:40:15.748Z</time>
      </trkpt>
      <trkpt lat="45.19562" lon="0.82333">
        <ele>97.54919149387</ele>
        <time>2021-07-11T06:40:16.884Z</time>
      </trkpt>
      <trkpt lat="45.19546" lon="0.82384">
        <ele>97.60335155352</ele>
        <time>2021-07-11T06:40:18.027Z</time>
      </trkpt>
      <trkpt lat="45.19521" lon="0.82477">
        <ele>97.77180131168</ele>
        <time>2021-07-11T06:40:19.185Z</time>
      </trkpt>
      <trkpt lat="45.19488" lon="0.82617">
        <ele>97.81288208147</ele>
        <time>2021-07-11T06:40:20.363Z</time>
      </trkpt>
      <trkpt lat="45.19471" lon="0.82662">
        <ele>97.91661833941</ele>
        <time>2021-07-11T06:40:21.549Z</time>
      </trkpt>
      <trkpt lat="45.19393" lon="0.82815">
        <ele>98.09465381361</ele>
        <time>2021-07-11T06:40:22.761Z</time>
      </trkpt>
      <trkpt lat="45.19348" lon="0.82895">
        <ele>98.13594081859</ele>
        <time>2021-07-11T06:40:23.988Z</time>
      </trkpt>
      <trkpt lat="45.19293" lon="0.82982">
        <ele>98.21702372934</ele>
        <time>2021-07-11T06:40:25.231Z</time>
      </trkpt>
      <trkpt lat="45.19283" lon="0.82992">
        <ele>98.29861959102</ele>
        <time>2021-07-11T06:40:26.477Z</time>
      </trkpt>
      <trkpt lat="45.19272" lon="0.82996">
        <ele>98.38176576372</ele>
        <time>2021-07-11T06:40:27.725Z</time>
      </trkpt>
      <trkpt lat="45.19271" lon="0.83038">
        <ele>98.40310673768</ele>
        <time>2021-07-11T06:40:28.979Z</time>
      </trkpt>
      <trkpt lat="45.19268" lon="0.83058">
        <ele>98.46559657851</ele>
        <time>2021-07-11T06:40:30.236Z</time>
      </trkpt>
      <trkpt lat="45.19257" lon="0.83105">
        <ele>98.53999899642</ele>
        <time>2021-07-11T06:40:31.500Z</time>
      </trkpt>
      <trkpt lat="45.19241" lon="0.8315">
        <ele>98.55913128058</ele>
        <time>2021-07-11T06:40:32.771Z</time>
      </trkpt>
      <trkpt lat="45.19197" lon="0.83249">
        <ele>98.616661536</ele>
        <time>2021-07-11T06:40:34.058Z</time>
      </trkpt>
      <trkpt lat="45.19181" lon="0.83303">
        <ele>98.60443695456</ele>
        <time>2021-07-11T06:40:35.354Z</time>
      </trkpt>
      <trkpt lat="45.19171" lon="0.83346">
        <ele>98.61369478972</ele>
        <time>2021-07-11T06:40:36.656Z</time>
      </trkpt>
      <trkpt lat="45.19097" lon="0.83766">
        <ele>98.84503697306</ele>
        <time>2021-07-11T06:40:38.019Z</time>
      </trkpt>
      <trkpt lat="45.1909" lon="0.83827">
        <ele>98.78363642251</ele>
        <time>2021-07-11T06:40:39.391Z</time>
      </trkpt>
      <trkpt lat="45.19089" lon="0.83877">
        <ele>98.69398857772</ele>
        <time>2021-07-11T06:40:40.770Z</time>
      </trkpt>
      <trkpt lat="45.1909" lon="0.83909">
        <ele>98.60734939236</ele>
        <time>2021-07-11T06:40:42.154Z</time>
      </trkpt>
      <trkpt lat="45.19108" lon="0.8406">
        <ele>98.47811775259</ele>
        <time>2021-07-11T06:40:43.559Z</time>
      </trkpt>
      <trkpt lat="45.1913" lon="0.84231">
        <ele>98.41943196757</ele>
        <time>2021-07-11T06:40:44.989Z</time>
      </trkpt>
      <trkpt lat="45.19133" lon="0.84284">
        <ele>98.19467345002</ele>
        <time>2021-07-11T06:40:46.426Z</time>
      </trkpt>
      <trkpt lat="45.19131" lon="0.84321">
        <ele>98.02020138355</ele>
        <time>2021-07-11T06:40:47.869Z</time>
      </trkpt>
      <trkpt lat="45.19125" lon="0.84361">
        <ele>97.87665472658</ele>
        <time>2021-07-11T06:40:49.318Z</time>
      </trkpt>
      <trkpt lat="45.19083" lon="0.84522">
        <ele>97.7206321732</ele>
        <time>2021-07-11T06:40:50.791Z</time>
      </trkpt>
      <trkpt lat="45.19029" lon="0.84713">
        <ele>97.53909676802</ele>
        <time>2021-07-11T06:40:52.293Z</time>
      </trkpt>
      <trkpt lat="45.19006" lon="0.84787">
        <ele>97.29629012528</ele>
        <time>2021-07-11T06:40:53.806Z</time>
      </trkpt>
      <trkpt lat="45.18987" lon="0.84834">
        <ele>97.1112456574</ele>
        <time>2021-07-11T06:40:55.327Z</time>
      </trkpt>
      <trkpt lat="45.18972" lon="0.84863">
        <ele>96.93644338086</ele>
        <time>2021-07-11T06:40:56.853Z</time>
      </trkpt>
      <trkpt lat="45.18957" lon="0.84889">
        <ele>96.744223459</ele>
        <time>2021-07-11T06:40:58.384Z</time>
      </trkpt>
      <trkpt lat="45.18933" lon="0.84926">
        <ele>96.45856398138</ele>
        <time>2021-07-11T06:40:59.922Z</time>
      </trkpt>
      <trkpt lat="45.1879" lon="0.85107">
        <ele>96.30107073719</ele>
        <time>2021-07-11T06:41:01.498Z</time>
      </trkpt>
      <trkpt lat="45.18765" lon="0.85136">
        <ele>96.12835093311</ele>
        <time>2021-07-11T06:41:03.081Z</time>
      </trkpt>
      <trkpt lat="45.18752" lon="0.85147">
        <ele>95.92623105531</ele>
        <time>2021-07-11T06:41:04.667Z</time>
      </trkpt>
      <trkpt lat="45.18745" lon="0.85159">
        <ele>95.70553248579</ele>
        <time>2021-07-11T06:41:06.255Z</time>
      </trkpt>
      <trkpt lat="45.18744" lon="0.85165">
        <ele>95.47548786366</ele>
        <time>2021-07-11T06:41:07.844Z</time>
      </trkpt>
      <trkpt lat="45.18745" lon="0.8518">
        <ele>95.23559620046</ele>
        <time>2021-07-11T06:41:09.435Z</time>
      </trkpt>
      <trkpt lat="45.18737" lon="0.85182">
        <ele>95.02390489576</ele>
        <time>2021-07-11T06:41:11.027Z</time>
      </trkpt>
      <trkpt lat="45.18729" lon="0.85188">
        <ele>94.82365325531</ele>
        <time>2021-07-11T06:41:12.621Z</time>
      </trkpt>
      <trkpt lat="45.1871" lon="0.85209">
        <ele>94.63692697783</ele>
        <time>2021-07-11T06:41:14.220Z</time>
      </trkpt>
      <trkpt lat="45.18691" lon="0.85236">
        <ele>94.44305806021</ele>
        <time>2021-07-11T06:41:15.825Z</time>
      </trkpt>
      <trkpt lat="45.18679" lon="0.85259">
        <ele>94.30086233047</ele>
        <time>2021-07-11T06:41:17.433Z</time>
      </trkpt>
      <trkpt lat="45.18676" lon="0.85282">
        <ele>94.21175839225</ele>
        <time>2021-07-11T06:41:19.045Z</time>
      </trkpt>
      <trkpt lat="45.18676" lon="0.8531">
        <ele>94.17638027665</ele>
        <time>2021-07-11T06:41:20.661Z</time>
      </trkpt>
      <trkpt lat="45.18679" lon="0.85363">
        <ele>94.15156906656</ele>
        <time>2021-07-11T06:41:22.284Z</time>
      </trkpt>
      <trkpt lat="45.1868" lon="0.85399">
        <ele>94.27463969274</ele>
        <time>2021-07-11T06:41:23.912Z</time>
      </trkpt>
      <trkpt lat="45.18675" lon="0.85437">
        <ele>94.45174814859</ele>
        <time>2021-07-11T06:41:25.546Z</time>
      </trkpt>
      <trkpt lat="45.18668" lon="0.85451">
        <ele>94.73829919176</ele>
        <time>2021-07-11T06:41:27.182Z</time>
      </trkpt>
      <trkpt lat="45.18652" lon="0.85475">
        <ele>95.15854533583</ele>
        <time>2021-07-11T06:41:28.823Z</time>
      </trkpt>
      <trkpt lat="45.18637" lon="0.85498">
        <ele>95.6173978643</ele>
        <time>2021-07-11T06:41:30.468Z</time>
      </trkpt>
      <trkpt lat="45.18627" lon="0.85518">
        <ele>96.14770497737</ele>
        <time>2021-07-11T06:41:32.117Z</time>
      </trkpt>
      <trkpt lat="45.18611" lon="0.85556">
        <ele>96.78051392423</ele>
        <time>2021-07-11T06:41:33.772Z</time>
      </trkpt>
      <trkpt lat="45.18597" lon="0.85584">
        <ele>97.55503193899</ele>
        <time>2021-07-11T06:41:35.432Z</time>
      </trkpt>
      <trkpt lat="45.18585" lon="0.856">
        <ele>98.43972337705</ele>
        <time>2021-07-11T06:41:37.095Z</time>
      </trkpt>
      <trkpt lat="45.18571" lon="0.85623">
        <ele>99.37142676703</ele>
        <time>2021-07-11T06:41:38.763Z</time>
      </trkpt>
      <trkpt lat="45.185" lon="0.85816">
        <ele>100.70190095346</ele>
        <time>2021-07-11T06:41:40.461Z</time>
      </trkpt>
      <trkpt lat="45.18492" lon="0.85844">
        <ele>101.9727150007</ele>
        <time>2021-07-11T06:41:42.164Z</time>
      </trkpt>
      <trkpt lat="45.18468" lon="0.85948">
        <ele>103.28614284998</ele>
        <time>2021-07-11T06:41:43.882Z</time>
      </trkpt>
      <trkpt lat="45.18436" lon="0.86045">
        <ele>104.94075442371</ele>
        <time>2021-07-11T06:41:45.615Z</time>
      </trkpt>
      <trkpt lat="45.18415" lon="0.86113">
        <ele>106.80115097071</ele>
        <time>2021-07-11T06:41:47.359Z</time>
      </trkpt>
      <trkpt lat="45.18395" lon="0.86202">
        <ele>108.34897666565</ele>
        <time>2021-07-11T06:41:49.116Z</time>
      </trkpt>
      <trkpt lat="45.18386" lon="0.86258">
        <ele>110.13833814203</ele>
        <time>2021-07-11T06:41:50.881Z</time>
      </trkpt>
      <trkpt lat="45.18349" lon="0.86405">
        <ele>112.45210247075</ele>
        <time>2021-07-11T06:41:52.668Z</time>
      </trkpt>
      <trkpt lat="45.18327" lon="0.86437">
        <ele>114.83046225017</ele>
        <time>2021-07-11T06:41:54.461Z</time>
      </trkpt>
      <trkpt lat="45.18306" lon="0.86464">
        <ele>117.15694051716</ele>
        <time>2021-07-11T06:41:56.260Z</time>
      </trkpt>
      <trkpt lat="45.18271" lon="0.86484">
        <ele>119.96955582099</ele>
        <time>2021-07-11T06:41:58.067Z</time>
      </trkpt>
      <trkpt lat="45.18244" lon="0.86512">
        <ele>122.93496893329</ele>
        <time>2021-07-11T06:41:59.880Z</time>
      </trkpt>
      <trkpt lat="45.18226" lon="0.86528">
        <ele>125.79618620857</ele>
        <time>2021-07-11T06:42:01.698Z</time>
      </trkpt>
      <trkpt lat="45.18165" lon="0.86571">
        <ele>129.18813578086</ele>
        <time>2021-07-11T06:42:03.529Z</time>
      </trkpt>
      <trkpt lat="45.18151" lon="0.86586">
        <ele>132.16080668901</ele>
        <time>2021-07-11T06:42:05.364Z</time>
      </trkpt>
      <trkpt lat="45.18116" lon="0.86638">
        <ele>135.13630416976</ele>
        <time>2021-07-11T06:42:07.209Z</time>
      </trkpt>
      <trkpt lat="45.18094" lon="0.86673">
        <ele>138.25204957807</ele>
        <time>2021-07-11T06:42:09.061Z</time>
      </trkpt>
      <trkpt lat="45.18064" lon="0.86712">
        <ele>140.98055476098</ele>
        <time>2021-07-11T06:42:10.921Z</time>
      </trkpt>
      <trkpt lat="45.18044" lon="0.86726">
        <ele>143.66627119224</ele>
        <time>2021-07-11T06:42:12.785Z</time>
      </trkpt>
      <trkpt lat="45.18001" lon="0.86741">
        <ele>146.74707632009</ele>
        <time>2021-07-11T06:42:14.658Z</time>
      </trkpt>
      <trkpt lat="45.17986" lon="0.86747">
        <ele>149.59135085855</ele>
        <time>2021-07-11T06:42:16.534Z</time>
      </trkpt>
      <trkpt lat="45.17979" lon="0.86754">
        <ele>152.34027203197</ele>
        <time>2021-07-11T06:42:18.412Z</time>
      </trkpt>
      <trkpt lat="45.1798" lon="0.86764">
        <ele>155.0190850241</ele>
        <time>2021-07-11T06:42:20.291Z</time>
      </trkpt>
      <trkpt lat="45.17985" lon="0.86769">
        <ele>157.61277843843</ele>
        <time>2021-07-11T06:42:22.172Z</time>
      </trkpt>
      <trkpt lat="45.18008" lon="0.8679">
        <ele>160.13439470214</ele>
        <time>2021-07-11T06:42:24.058Z</time>
      </trkpt>
      <trkpt lat="45.18018" lon="0.86804">
        <ele>162.63923426225</ele>
        <time>2021-07-11T06:42:25.947Z</time>
      </trkpt>
      <trkpt lat="45.18027" lon="0.86837">
        <ele>165.12450246702</ele>
        <time>2021-07-11T06:42:27.841Z</time>
      </trkpt>
      <trkpt lat="45.1803" lon="0.8686">
        <ele>167.55383009482</ele>
        <time>2021-07-11T06:42:29.738Z</time>
      </trkpt>
      <trkpt lat="45.1803" lon="0.86882">
        <ele>169.94174403194</ele>
        <time>2021-07-11T06:42:31.638Z</time>
      </trkpt>
      <trkpt lat="45.18027" lon="0.86932">
        <ele>172.38052350657</ele>
        <time>2021-07-11T06:42:33.545Z</time>
      </trkpt>
      <trkpt lat="45.18018" lon="0.87008">
        <ele>174.8519918823</ele>
        <time>2021-07-11T06:42:35.463Z</time>
      </trkpt>
      <trkpt lat="45.18011" lon="0.87052">
        <ele>177.05620160602</ele>
        <time>2021-07-11T06:42:37.388Z</time>
      </trkpt>
      <trkpt lat="45.18007" lon="0.87087">
        <ele>179.12944613845</ele>
        <time>2021-07-11T06:42:39.318Z</time>
      </trkpt>
      <trkpt lat="45.18009" lon="0.87169">
        <ele>181.21709889008</ele>
        <time>2021-07-11T06:42:41.259Z</time>
      </trkpt>
      <trkpt lat="45.18005" lon="0.87218">
        <ele>183.22933900874</ele>
        <time>2021-07-11T06:42:43.207Z</time>
      </trkpt>
      <trkpt lat="45.18005" lon="0.87231">
        <ele>185.07018157046</ele>
        <time>2021-07-11T06:42:45.157Z</time>
      </trkpt>
      <trkpt lat="45.18" lon="0.87236">
        <ele>186.82309784718</ele>
        <time>2021-07-11T06:42:47.108Z</time>
      </trkpt>
      <trkpt lat="45.1799" lon="0.87249">
        <ele>188.52455187927</ele>
        <time>2021-07-11T06:42:49.062Z</time>
      </trkpt>
      <trkpt lat="45.17986" lon="0.87261">
        <ele>190.12044612625</ele>
        <time>2021-07-11T06:42:51.018Z</time>
      </trkpt>
      <trkpt lat="45.17985" lon="0.87277">
        <ele>191.63312638049</ele>
        <time>2021-07-11T06:42:52.976Z</time>
      </trkpt>
      <trkpt lat="45.17991" lon="0.87344">
        <ele>193.11150487042</ele>
        <time>2021-07-11T06:42:54.944Z</time>
      </trkpt>
      <trkpt lat="45.1799" lon="0.87372">
        <ele>194.54327688172</ele>
        <time>2021-07-11T06:42:56.916Z</time>
      </trkpt>
      <trkpt lat="45.17997" lon="0.87382">
        <ele>195.76023310243</ele>
        <time>2021-07-11T06:42:58.890Z</time>
      </trkpt>
      <trkpt lat="45.18014" lon="0.87397">
        <ele>196.80685429935</ele>
        <time>2021-07-11T06:43:00.868Z</time>
      </trkpt>
      <trkpt lat="45.18017" lon="0.87407">
        <ele>197.78729411169</ele>
        <time>2021-07-11T06:43:02.847Z</time>
      </trkpt>
      <trkpt lat="45.18017" lon="0.8742">
        <ele>198.68345094784</ele>
        <time>2021-07-11T06:43:04.828Z</time>
      </trkpt>
      <trkpt lat="45.1801" lon="0.87492">
        <ele>199.6270405214</ele>
        <time>2021-07-11T06:43:06.819Z</time>
      </trkpt>
      <trkpt lat="45.18009" lon="0.87531">
        <ele>200.46104312846</ele>
        <time>2021-07-11T06:43:08.816Z</time>
      </trkpt>
      <trkpt lat="45.18" lon="0.87592">
        <ele>201.27674953981</ele>
        <time>2021-07-11T06:43:10.822Z</time>
      </trkpt>
      <trkpt lat="45.17987" lon="0.87638">
        <ele>201.80305075531</ele>
        <time>2021-07-11T06:43:12.835Z</time>
      </trkpt>
      <trkpt lat="45.17973" lon="0.87705">
        <ele>202.3764743527</ele>
        <time>2021-07-11T06:43:14.858Z</time>
      </trkpt>
      <trkpt lat="45.17968" lon="0.87724">
        <ele>202.60976748605</ele>
        <time>2021-07-11T06:43:16.884Z</time>
      </trkpt>
      <trkpt lat="45.17955" lon="0.87757">
        <ele>202.69224551228</ele>
        <time>2021-07-11T06:43:18.915Z</time>
      </trkpt>
      <trkpt lat="45.17948" lon="0.87771">
        <ele>202.56432001896</ele>
        <time>2021-07-11T06:43:20.948Z</time>
      </trkpt>
      <trkpt lat="45.17924" lon="0.87811">
        <ele>202.16693117297</ele>
        <time>2021-07-11T06:43:22.989Z</time>
      </trkpt>
      <trkpt lat="45.1792" lon="0.87823">
        <ele>201.65211347704</ele>
        <time>2021-07-11T06:43:25.032Z</time>
      </trkpt>
      <trkpt lat="45.17919" lon="0.87836">
        <ele>200.9867272623</ele>
        <time>2021-07-11T06:43:27.077Z</time>
      </trkpt>
      <trkpt lat="45.1792" lon="0.8785">
        <ele>200.17963712993</ele>
        <time>2021-07-11T06:43:29.123Z</time>
      </trkpt>
      <trkpt lat="45.17932" lon="0.87919">
        <ele>199.13546661203</ele>
        <time>2021-07-11T06:43:31.180Z</time>
      </trkpt>
      <trkpt lat="45.17933" lon="0.87936">
        <ele>198.01562970004</ele>
        <time>2021-07-11T06:43:33.239Z</time>
      </trkpt>
      <trkpt lat="45.17931" lon="0.87986">
        <ele>196.65709412919</ele>
        <time>2021-07-11T06:43:35.305Z</time>
      </trkpt>
      <trkpt lat="45.17928" lon="0.88">
        <ele>195.30115852036</ele>
        <time>2021-07-11T06:43:37.373Z</time>
      </trkpt>
      <trkpt lat="45.17926" lon="0.88026">
        <ele>193.82532459172</ele>
        <time>2021-07-11T06:43:39.445Z</time>
      </trkpt>
      <trkpt lat="45.17883" lon="0.87999">
        <ele>192.06103044974</ele>
        <time>2021-07-11T06:43:41.526Z</time>
      </trkpt>
      <trkpt lat="45.1784" lon="0.87966">
        <ele>190.17742358702</ele>
        <time>2021-07-11T06:43:43.617Z</time>
      </trkpt>
      <trkpt lat="45.17829" lon="0.87963">
        <ele>188.3923673777</ele>
        <time>2021-07-11T06:43:45.710Z</time>
      </trkpt>
      <trkpt lat="45.17802" lon="0.8796">
        <ele>186.41933479888</ele>
        <time>2021-07-11T06:43:47.809Z</time>
      </trkpt>
      <trkpt lat="45.17781" lon="0.8796">
        <ele>184.49519526735</ele>
        <time>2021-07-11T06:43:49.912Z</time>
      </trkpt>
      <trkpt lat="45.17763" lon="0.87962">
        <ele>182.51850300267</ele>
        <time>2021-07-11T06:43:52.019Z</time>
      </trkpt>
      <trkpt lat="45.1774" lon="0.87969">
        <ele>180.45616158588</ele>
        <time>2021-07-11T06:43:54.130Z</time>
      </trkpt>
      <trkpt lat="45.17722" lon="0.87971">
        <ele>178.43110963243</ele>
        <time>2021-07-11T06:43:56.245Z</time>
      </trkpt>
      <trkpt lat="45.17699" lon="0.8797">
        <ele>176.39828717155</ele>
        <time>2021-07-11T06:43:58.364Z</time>
      </trkpt>
      <trkpt lat="45.17688" lon="0.87968">
        <ele>174.42499504154</ele>
        <time>2021-07-11T06:44:00.486Z</time>
      </trkpt>
      <trkpt lat="45.17658" lon="0.87946">
        <ele>172.48334791242</ele>
        <time>2021-07-11T06:44:02.614Z</time>
      </trkpt>
      <trkpt lat="45.17647" lon="0.87988">
        <ele>170.38740751861</ele>
        <time>2021-07-11T06:44:04.749Z</time>
      </trkpt>
      <trkpt lat="45.17634" lon="0.88022">
        <ele>168.35433750642</ele>
        <time>2021-07-11T06:44:06.889Z</time>
      </trkpt>
      <trkpt lat="45.17619" lon="0.88049">
        <ele>166.41001344255</ele>
        <time>2021-07-11T06:44:09.034Z</time>
      </trkpt>
      <trkpt lat="45.17601" lon="0.88072">
        <ele>164.54578800493</ele>
        <time>2021-07-11T06:44:11.184Z</time>
      </trkpt>
      <trkpt lat="45.17591" lon="0.88081">
        <ele>162.74443645814</ele>
        <time>2021-07-11T06:44:13.336Z</time>
      </trkpt>
      <trkpt lat="45.17573" lon="0.88093">
        <ele>160.90499835817</ele>
        <time>2021-07-11T06:44:15.492Z</time>
      </trkpt>
      <trkpt lat="45.1756" lon="0.88096">
        <ele>158.98425557469</ele>
        <time>2021-07-11T06:44:17.651Z</time>
      </trkpt>
      <trkpt lat="45.17554" lon="0.88101">
        <ele>157.15294361331</ele>
        <time>2021-07-11T06:44:19.811Z</time>
      </trkpt>
      <trkpt lat="45.17548" lon="0.8811">
        <ele>155.33242888646</ele>
        <time>2021-07-11T06:44:21.973Z</time>
      </trkpt>
      <trkpt lat="45.17544" lon="0.8812">
        <ele>153.55867457563</ele>
        <time>2021-07-11T06:44:24.137Z</time>
      </trkpt>
      <trkpt lat="45.17535" lon="0.88178">
        <ele>151.96126029016</ele>
        <time>2021-07-11T06:44:26.309Z</time>
      </trkpt>
      <trkpt lat="45.17529" lon="0.88199">
        <ele>150.3415142215</ele>
        <time>2021-07-11T06:44:28.484Z</time>
      </trkpt>
      <trkpt lat="45.17522" lon="0.88217">
        <ele>148.61819918769</ele>
        <time>2021-07-11T06:44:30.662Z</time>
      </trkpt>
      <trkpt lat="45.17513" lon="0.88235">
        <ele>146.97089556882</ele>
        <time>2021-07-11T06:44:32.843Z</time>
      </trkpt>
      <trkpt lat="45.17495" lon="0.8828">
        <ele>145.39488471016</ele>
        <time>2021-07-11T06:44:35.032Z</time>
      </trkpt>
      <trkpt lat="45.17487" lon="0.88297">
        <ele>143.62409834306</ele>
        <time>2021-07-11T06:44:37.224Z</time>
      </trkpt>
      <trkpt lat="45.1742" lon="0.88394">
        <ele>141.60984847595</ele>
        <time>2021-07-11T06:44:39.435Z</time>
      </trkpt>
      <trkpt lat="45.17414" lon="0.88405">
        <ele>139.92957256315</ele>
        <time>2021-07-11T06:44:41.648Z</time>
      </trkpt>
      <trkpt lat="45.17411" lon="0.8842">
        <ele>138.29297147694</ele>
        <time>2021-07-11T06:44:43.863Z</time>
      </trkpt>
      <trkpt lat="45.1741" lon="0.88437">
        <ele>136.62754309186</ele>
        <time>2021-07-11T06:44:46.080Z</time>
      </trkpt>
      <trkpt lat="45.17412" lon="0.88459">
        <ele>135.00465010976</ele>
        <time>2021-07-11T06:44:48.300Z</time>
      </trkpt>
      <trkpt lat="45.17427" lon="0.88572">
        <ele>133.18639884974</ele>
        <time>2021-07-11T06:44:50.537Z</time>
      </trkpt>
      <trkpt lat="45.17439" lon="0.88626">
        <ele>131.37465064509</ele>
        <time>2021-07-11T06:44:52.782Z</time>
      </trkpt>
      <trkpt lat="45.1745" lon="0.88704">
        <ele>129.49153869105</ele>
        <time>2021-07-11T06:44:55.038Z</time>
      </trkpt>
      <trkpt lat="45.17475" lon="0.88785">
        <ele>127.98456632852</ele>
        <time>2021-07-11T06:44:57.307Z</time>
      </trkpt>
      <trkpt lat="45.17482" lon="0.88799">
        <ele>126.73896874859</ele>
        <time>2021-07-11T06:44:59.578Z</time>
      </trkpt>
      <trkpt lat="45.17507" lon="0.88836">
        <ele>125.49954874101</ele>
        <time>2021-07-11T06:45:01.856Z</time>
      </trkpt>
      <trkpt lat="45.1751" lon="0.88848">
        <ele>124.43073123214</ele>
        <time>2021-07-11T06:45:04.136Z</time>
      </trkpt>
      <trkpt lat="45.17508" lon="0.88865">
        <ele>123.50322821242</ele>
        <time>2021-07-11T06:45:06.418Z</time>
      </trkpt>
      <trkpt lat="45.17496" lon="0.88885">
        <ele>122.75290404292</ele>
        <time>2021-07-11T06:45:08.704Z</time>
      </trkpt>
      <trkpt lat="45.17483" lon="0.88925">
        <ele>122.15806924172</ele>
        <time>2021-07-11T06:45:10.996Z</time>
      </trkpt>
      <trkpt lat="45.17477" lon="0.88962">
        <ele>121.66758697484</ele>
        <time>2021-07-11T06:45:13.294Z</time>
      </trkpt>
      <trkpt lat="45.17476" lon="0.89012">
        <ele>121.39767189113</ele>
        <time>2021-07-11T06:45:15.599Z</time>
      </trkpt>
      <trkpt lat="45.17477" lon="0.89021">
        <ele>121.30069428159</ele>
        <time>2021-07-11T06:45:17.905Z</time>
      </trkpt>
      <trkpt lat="45.17482" lon="0.89029">
        <ele>121.36744581641</ele>
        <time>2021-07-11T06:45:20.213Z</time>
      </trkpt>
      <trkpt lat="45.17501" lon="0.89048">
        <ele>121.61340379486</ele>
        <time>2021-07-11T06:45:22.525Z</time>
      </trkpt>
      <trkpt lat="45.17535" lon="0.89078">
        <ele>122.16849963614</ele>
        <time>2021-07-11T06:45:24.845Z</time>
      </trkpt>
      <trkpt lat="45.1755" lon="0.89088">
        <ele>122.76472247586</ele>
        <time>2021-07-11T06:45:27.169Z</time>
      </trkpt>
      <trkpt lat="45.17573" lon="0.89102">
        <ele>123.56054911102</ele>
        <time>2021-07-11T06:45:29.498Z</time>
      </trkpt>
      <trkpt lat="45.17637" lon="0.89135">
        <ele>124.7391871809</ele>
        <time>2021-07-11T06:45:31.840Z</time>
      </trkpt>
      <trkpt lat="45.17653" lon="0.8914">
        <ele>125.70460044032</ele>
        <time>2021-07-11T06:45:34.186Z</time>
      </trkpt>
      <trkpt lat="45.17673" lon="0.8914">
        <ele>126.74595891596</ele>
        <time>2021-07-11T06:45:36.535Z</time>
      </trkpt>
      <trkpt lat="45.17677" lon="0.89144">
        <ele>127.84045347009</ele>
        <time>2021-07-11T06:45:38.885Z</time>
      </trkpt>
      <trkpt lat="45.17666" lon="0.89149">
        <ele>128.9608860921</ele>
        <time>2021-07-11T06:45:41.238Z</time>
      </trkpt>
      <trkpt lat="45.17623" lon="0.89161">
        <ele>130.09729890234</ele>
        <time>2021-07-11T06:45:43.600Z</time>
      </trkpt>
      <trkpt lat="45.17559" lon="0.89206">
        <ele>131.58389528324</ele>
        <time>2021-07-11T06:45:45.976Z</time>
      </trkpt>
      <trkpt lat="45.17482" lon="0.89249">
        <ele>132.98444283305</ele>
        <time>2021-07-11T06:45:48.369Z</time>
      </trkpt>
      <trkpt lat="45.17456" lon="0.89272">
        <ele>134.42463663418</ele>
        <time>2021-07-11T06:45:50.768Z</time>
      </trkpt>
      <trkpt lat="45.17428" lon="0.89311">
        <ele>135.89840337349</ele>
        <time>2021-07-11T06:45:53.175Z</time>
      </trkpt>
      <trkpt lat="45.17402" lon="0.89354">
        <ele>137.38779066595</ele>
        <time>2021-07-11T06:45:55.589Z</time>
      </trkpt>
      <trkpt lat="45.17372" lon="0.89431">
        <ele>138.96873335245</ele>
        <time>2021-07-11T06:45:58.016Z</time>
      </trkpt>
      <trkpt lat="45.17323" lon="0.89599">
        <ele>140.8306894802</ele>
        <time>2021-07-11T06:46:00.469Z</time>
      </trkpt>
      <trkpt lat="45.17269" lon="0.8977">
        <ele>142.70366827714</ele>
        <time>2021-07-11T06:46:02.948Z</time>
      </trkpt>
      <trkpt lat="45.17267" lon="0.89811">
        <ele>144.58598214184</ele>
        <time>2021-07-11T06:46:05.433Z</time>
      </trkpt>
      <trkpt lat="45.17312" lon="0.9">
        <ele>146.91112608897</ele>
        <time>2021-07-11T06:46:07.946Z</time>
      </trkpt>
      <trkpt lat="45.17312" lon="0.90034">
        <ele>148.9242129779</ele>
        <time>2021-07-11T06:46:10.464Z</time>
      </trkpt>
      <trkpt lat="45.1731" lon="0.90062">
        <ele>150.99716610665</ele>
        <time>2021-07-11T06:46:12.986Z</time>
      </trkpt>
      <trkpt lat="45.17299" lon="0.90096">
        <ele>153.1433368271</ele>
        <time>2021-07-11T06:46:15.513Z</time>
      </trkpt>
      <trkpt lat="45.17286" lon="0.90127">
        <ele>155.42132379757</ele>
        <time>2021-07-11T06:46:18.045Z</time>
      </trkpt>
      <trkpt lat="45.17271" lon="0.90174">
        <ele>157.8104447565</ele>
        <time>2021-07-11T06:46:20.585Z</time>
      </trkpt>
      <trkpt lat="45.17263" lon="0.90223">
        <ele>160.30850137462</ele>
        <time>2021-07-11T06:46:23.132Z</time>
      </trkpt>
      <trkpt lat="45.17256" lon="0.9029">
        <ele>162.83203698855</ele>
        <time>2021-07-11T06:46:25.688Z</time>
      </trkpt>
      <trkpt lat="45.17257" lon="0.90304">
        <ele>165.53938556976</ele>
        <time>2021-07-11T06:46:28.246Z</time>
      </trkpt>
      <trkpt lat="45.17222" lon="0.9033">
        <ele>167.84677288269</ele>
        <time>2021-07-11T06:46:30.812Z</time>
      </trkpt>
      <trkpt lat="45.17155" lon="0.90144">
        <ele>170.91188563266</ele>
        <time>2021-07-11T06:46:33.408Z</time>
      </trkpt>
      <trkpt lat="45.17068" lon="0.90051">
        <ele>173.93989992223</ele>
        <time>2021-07-11T06:46:36.026Z</time>
      </trkpt>
      <trkpt lat="45.16646" lon="0.90122">
        <ele>177.45651854927</ele>
        <time>2021-07-11T06:46:38.729Z</time>
      </trkpt>
      <trkpt lat="45.16435" lon="0.89944">
        <ele>181.63856684875</ele>
        <time>2021-07-11T06:46:41.481Z</time>
      </trkpt>
      <trkpt lat="45.16278" lon="0.89881">
        <ele>185.20537461598</ele>
        <time>2021-07-11T06:46:44.265Z</time>
      </trkpt>
      <trkpt lat="45.16331" lon="0.89803">
        <ele>188.58795896278</ele>
        <time>2021-07-11T06:46:47.064Z</time>
      </trkpt>
      <trkpt lat="45.16188" lon="0.89756">
        <ele>191.72590731159</ele>
        <time>2021-07-11T06:46:49.893Z</time>
      </trkpt>
      <trkpt lat="45.16124" lon="0.8958">
        <ele>194.81702927716</ele>
        <time>2021-07-11T06:46:52.750Z</time>
      </trkpt>
      <trkpt lat="45.15986" lon="0.89588">
        <ele>197.39017962042</ele>
        <time>2021-07-11T06:46:55.635Z</time>
      </trkpt>
      <trkpt lat="45.15845" lon="0.89546">
        <ele>200.18213032834</ele>
        <time>2021-07-11T06:46:58.548Z</time>
      </trkpt>
      <trkpt lat="45.15834" lon="0.89538">
        <ele>202.69795215208</ele>
        <time>2021-07-11T06:47:01.464Z</time>
      </trkpt>
      <trkpt lat="45.15748" lon="0.89463">
        <ele>204.56554821084</ele>
        <time>2021-07-11T06:47:04.400Z</time>
      </trkpt>
      <trkpt lat="45.15737" lon="0.89431">
        <ele>206.69937496069</ele>
        <time>2021-07-11T06:47:07.341Z</time>
      </trkpt>
      <trkpt lat="45.15724" lon="0.89412">
        <ele>208.69575893132</ele>
        <time>2021-07-11T06:47:10.286Z</time>
      </trkpt>
      <trkpt lat="45.15713" lon="0.89412">
        <ele>210.60477894685</ele>
        <time>2021-07-11T06:47:13.233Z</time>
      </trkpt>
      <trkpt lat="45.15709" lon="0.89423">
        <ele>212.49297848977</ele>
        <time>2021-07-11T06:47:16.182Z</time>
      </trkpt>
      <trkpt lat="45.15711" lon="0.89562">
        <ele>214.603418564</ele>
        <time>2021-07-11T06:47:19.150Z</time>
      </trkpt>
      <trkpt lat="45.15636" lon="0.89642">
        <ele>216.33303483048</ele>
        <time>2021-07-11T06:47:22.137Z</time>
      </trkpt>
      <trkpt lat="45.15615" lon="0.89674">
        <ele>217.98049448806</ele>
        <time>2021-07-11T06:47:25.130Z</time>
      </trkpt>
      <trkpt lat="45.15585" lon="0.89736">
        <ele>219.56212652737</ele>
        <time>2021-07-11T06:47:28.134Z</time>
      </trkpt>
      <trkpt lat="45.15559" lon="0.89805">
        <ele>221.0243861902</ele>
        <time>2021-07-11T06:47:31.149Z</time>
      </trkpt>
      <trkpt lat="45.15527" lon="0.89903">
        <ele>222.17727289779</ele>
        <time>2021-07-11T06:47:34.180Z</time>
      </trkpt>
      <trkpt lat="45.15505" lon="0.90008">
        <ele>223.32546970499</ele>
        <time>2021-07-11T06:47:37.226Z</time>
      </trkpt>
      <trkpt lat="45.15417" lon="0.90225">
        <ele>224.44435754657</ele>
        <time>2021-07-11T06:47:40.307Z</time>
      </trkpt>
      <trkpt lat="45.15425" lon="0.90206">
        <ele>225.33221482739</ele>
        <time>2021-07-11T06:47:43.391Z</time>
      </trkpt>
      <trkpt lat="45.15248" lon="0.89993">
        <ele>226.14245290787</ele>
        <time>2021-07-11T06:47:46.522Z</time>
      </trkpt>
      <trkpt lat="45.15042" lon="0.90172">
        <ele>227.55079769552</ele>
        <time>2021-07-11T06:47:49.701Z</time>
      </trkpt>
      <trkpt lat="45.1494" lon="0.9021">
        <ele>227.84024841869</ele>
        <time>2021-07-11T06:47:52.901Z</time>
      </trkpt>
      <trkpt lat="45.14832" lon="0.90203">
        <ele>228.07746369155</ele>
        <time>2021-07-11T06:47:56.123Z</time>
      </trkpt>
      <trkpt lat="45.14788" lon="0.90264">
        <ele>227.93961268286</ele>
        <time>2021-07-11T06:47:59.357Z</time>
      </trkpt>
      <trkpt lat="45.14578" lon="0.90384">
        <ele>227.9272160629</ele>
        <time>2021-07-11T06:48:02.637Z</time>
      </trkpt>
      <trkpt lat="45.14391" lon="0.90388">
        <ele>227.66583122859</ele>
        <time>2021-07-11T06:48:05.954Z</time>
      </trkpt>
      <trkpt lat="45.14221" lon="0.90317">
        <ele>227.01927333603</ele>
        <time>2021-07-11T06:48:09.307Z</time>
      </trkpt>
      <trkpt lat="45.14094" lon="0.90329">
        <ele>226.21940484115</ele>
        <time>2021-07-11T06:48:12.685Z</time>
      </trkpt>
      <trkpt lat="45.13849" lon="0.90479">
        <ele>225.21966012557</ele>
        <time>2021-07-11T06:48:16.117Z</time>
      </trkpt>
      <trkpt lat="45.13879" lon="0.90537">
        <ele>223.85751736324</ele>
        <time>2021-07-11T06:48:19.559Z</time>
      </trkpt>
      <trkpt lat="45.1372" lon="0.90666">
        <ele>222.39183911576</ele>
        <time>2021-07-11T06:48:23.037Z</time>
      </trkpt>
      <trkpt lat="45.13655" lon="0.90624">
        <ele>221.25088243097</ele>
        <time>2021-07-11T06:48:26.530Z</time>
      </trkpt>
      <trkpt lat="45.13524" lon="0.90717">
        <ele>219.36979737452</ele>
        <time>2021-07-11T06:48:30.052Z</time>
      </trkpt>
      <trkpt lat="45.13451" lon="0.90782">
        <ele>217.49424325536</ele>
        <time>2021-07-11T06:48:33.591Z</time>
      </trkpt>
      <trkpt lat="45.13327" lon="0.9093">
        <ele>215.70161082104</ele>
        <time>2021-07-11T06:48:37.163Z</time>
      </trkpt>
      <trkpt lat="45.13307" lon="0.91008">
        <ele>213.65988273356</ele>
        <time>2021-07-11T06:48:40.746Z</time>
      </trkpt>
      <trkpt lat="45.13284" lon="0.91006">
        <ele>211.74459895817</ele>
        <time>2021-07-11T06:48:44.334Z</time>
      </trkpt>
      <trkpt lat="45.13267" lon="0.90957">
        <ele>209.80739198538</ele>
        <time>2021-07-11T06:48:47.930Z</time>
      </trkpt>
      <trkpt lat="45.13212" lon="0.90904">
        <ele>207.80788706815</ele>
        <time>2021-07-11T06:48:51.539Z</time>
      </trkpt>
      <trkpt lat="45.13186" lon="0.90905">
        <ele>205.76476871884</ele>
        <time>2021-07-11T06:48:55.153Z</time>
      </trkpt>
      <trkpt lat="45.1314" lon="0.90999">
        <ele>203.5116645753</ele>
        <time>2021-07-11T06:48:58.783Z</time>
      </trkpt>
      <trkpt lat="45.13062" lon="0.91033">
        <ele>201.39140628344</ele>
        <time>2021-07-11T06:49:02.430Z</time>
      </trkpt>
      <trkpt lat="45.12925" lon="0.91022">
        <ele>199.28837524805</ele>
        <time>2021-07-11T06:49:06.104Z</time>
      </trkpt>
      <trkpt lat="45.12833" lon="0.91072">
        <ele>197.23446873217</ele>
        <time>2021-07-11T06:49:09.798Z</time>
      </trkpt>
      <trkpt lat="45.12769" lon="0.91141">
        <ele>195.37016647878</ele>
        <time>2021-07-11T06:49:13.508Z</time>
      </trkpt>
      <trkpt lat="45.12782" lon="0.91216">
        <ele>194.2734333911</ele>
        <time>2021-07-11T06:49:17.229Z</time>
      </trkpt>
      <trkpt lat="45.12756" lon="0.91228">
        <ele>193.16358398658</ele>
        <time>2021-07-11T06:49:20.955Z</time>
      </trkpt>
      <trkpt lat="45.12721" lon="0.91096">
        <ele>192.59474829747</ele>
        <time>2021-07-11T06:49:24.701Z</time>
      </trkpt>
      <trkpt lat="45.12594" lon="0.91124">
        <ele>191.97757245954</ele>
        <time>2021-07-11T06:49:28.473Z</time>
      </trkpt>
      <trkpt lat="45.12625" lon="0.91186">
        <ele>191.82047366733</ele>
        <time>2021-07-11T06:49:32.256Z</time>
      </trkpt>
      <trkpt lat="45.12517" lon="0.91373">
        <ele>193.39590931819</ele>
        <time>2021-07-11T06:49:36.073Z</time>
      </trkpt>
      <trkpt lat="45.12452" lon="0.9142">
        <ele>194.31335154565</ele>
        <time>2021-07-11T06:49:39.905Z</time>
      </trkpt>
      <trkpt lat="45.12388" lon="0.91509">
        <ele>195.30656595689</ele>
        <time>2021-07-11T06:49:43.754Z</time>
      </trkpt>
      <trkpt lat="45.12324" lon="0.91635">
        <ele>196.58156169866</ele>
        <time>2021-07-11T06:49:47.625Z</time>
      </trkpt>
      <trkpt lat="45.12284" lon="0.91817">
        <ele>197.49039709503</ele>
        <time>2021-07-11T06:49:51.524Z</time>
      </trkpt>
      <trkpt lat="45.12157" lon="0.91863">
        <ele>199.18826345628</ele>
        <time>2021-07-11T06:49:55.449Z</time>
      </trkpt>
      <trkpt lat="45.12106" lon="0.91829">
        <ele>200.83800340287</ele>
        <time>2021-07-11T06:49:59.385Z</time>
      </trkpt>
      <trkpt lat="45.12037" lon="0.91839">
        <ele>202.5354277148</ele>
        <time>2021-07-11T06:50:03.335Z</time>
      </trkpt>
      <trkpt lat="45.11777" lon="0.9205">
        <ele>203.80492618252</ele>
        <time>2021-07-11T06:50:07.345Z</time>
      </trkpt>
      <trkpt lat="45.1168" lon="0.92048">
        <ele>205.52362776052</ele>
        <time>2021-07-11T06:50:11.374Z</time>
      </trkpt>
      <trkpt lat="45.11652" lon="0.92111">
        <ele>207.34540997513</ele>
        <time>2021-07-11T06:50:15.414Z</time>
      </trkpt>
      <trkpt lat="45.11454" lon="0.9217">
        <ele>209.25190213302</ele>
        <time>2021-07-11T06:50:19.494Z</time>
      </trkpt>
      <trkpt lat="45.11295" lon="0.92099">
        <ele>211.29244540188</ele>
        <time>2021-07-11T06:50:23.608Z</time>
      </trkpt>
      <trkpt lat="45.11204" lon="0.92136">
        <ele>213.29359013838</ele>
        <time>2021-07-11T06:50:27.741Z</time>
      </trkpt>
      <trkpt lat="45.11099" lon="0.9201">
        <ele>214.99873637637</ele>
        <time>2021-07-11T06:50:31.901Z</time>
      </trkpt>
      <trkpt lat="45.11012" lon="0.91969">
        <ele>216.51992435797</ele>
        <time>2021-07-11T06:50:36.079Z</time>
      </trkpt>
      <trkpt lat="45.1092" lon="0.91949">
        <ele>218.142179456</ele>
        <time>2021-07-11T06:50:40.276Z</time>
      </trkpt>
      <trkpt lat="45.10813" lon="0.91976">
        <ele>219.64566888766</ele>
        <time>2021-07-11T06:50:44.495Z</time>
      </trkpt>
      <trkpt lat="45.10539" lon="0.9336">
        <ele>221.06369359442</ele>
        <time>2021-07-11T06:50:48.917Z</time>
      </trkpt>
      <trkpt lat="45.10381" lon="0.93457">
        <ele>222.61535449752</ele>
        <time>2021-07-11T06:50:53.374Z</time>
      </trkpt>
      <trkpt lat="45.10151" lon="0.93525">
        <ele>223.25411400724</ele>
        <time>2021-07-11T06:50:57.878Z</time>
      </trkpt>
      <trkpt lat="45.10158" lon="0.93557">
        <ele>224.57439737551</ele>
        <time>2021-07-11T06:51:02.386Z</time>
      </trkpt>
      <trkpt lat="45.10046" lon="0.93656">
        <ele>225.80779092675</ele>
        <time>2021-07-11T06:51:06.921Z</time>
      </trkpt>
      <trkpt lat="45.09695" lon="0.94197">
        <ele>228.61139371872</ele>
        <time>2021-07-11T06:51:11.560Z</time>
      </trkpt>
      <trkpt lat="45.09703" lon="0.94209">
        <ele>229.86240889314</ele>
        <time>2021-07-11T06:51:16.201Z</time>
      </trkpt>
      <trkpt lat="45.09709" lon="0.94268">
        <ele>231.08559862421</ele>
        <time>2021-07-11T06:51:20.851Z</time>
      </trkpt>
      <trkpt lat="45.09705" lon="0.94307">
        <ele>232.24143040089</ele>
        <time>2021-07-11T06:51:25.506Z</time>
      </trkpt>
      <trkpt lat="45.09712" lon="0.94352">
        <ele>233.36292155503</ele>
        <time>2021-07-11T06:51:30.168Z</time>
      </trkpt>
      <trkpt lat="45.09726" lon="0.94399">
        <ele>234.42487273927</ele>
        <time>2021-07-11T06:51:34.837Z</time>
      </trkpt>
      <trkpt lat="45.09714" lon="0.94416">
        <ele>235.37110845123</ele>
        <time>2021-07-11T06:51:39.510Z</time>
      </trkpt>
      <trkpt lat="45.09693" lon="0.94427">
        <ele>236.23764942841</ele>
        <time>2021-07-11T06:51:44.187Z</time>
      </trkpt>
      <trkpt lat="45.0967" lon="0.94468">
        <ele>237.04174835653</ele>
        <time>2021-07-11T06:51:48.872Z</time>
      </trkpt>
      <trkpt lat="45.09632" lon="0.94503">
        <ele>237.76148972423</ele>
        <time>2021-07-11T06:51:53.566Z</time>
      </trkpt>
      <trkpt lat="45.09596" lon="0.94516">
        <ele>238.40407900739</ele>
        <time>2021-07-11T06:51:58.267Z</time>
      </trkpt>
      <trkpt lat="45.0958" lon="0.94516">
        <ele>239.12975516942</ele>
        <time>2021-07-11T06:52:02.971Z</time>
      </trkpt>
      <trkpt lat="45.09513" lon="0.94507">
        <ele>239.76866372103</ele>
        <time>2021-07-11T06:52:07.689Z</time>
      </trkpt>
      <trkpt lat="45.09486" lon="0.9454">
        <ele>240.41701069008</ele>
        <time>2021-07-11T06:52:12.414Z</time>
      </trkpt>
      <trkpt lat="45.09385" lon="0.946">
        <ele>241.22957100254</ele>
        <time>2021-07-11T06:52:17.161Z</time>
      </trkpt>
      <trkpt lat="45.0921" lon="0.9477">
        <ele>241.69728915115</ele>
        <time>2021-07-11T06:52:21.950Z</time>
      </trkpt>
      <trkpt lat="45.09014" lon="0.94873">
        <ele>241.44376775162</ele>
        <time>2021-07-11T06:52:26.781Z</time>
      </trkpt>
      <trkpt lat="45.08978" lon="0.94982">
        <ele>242.16396527435</ele>
        <time>2021-07-11T06:52:31.629Z</time>
      </trkpt>
      <trkpt lat="45.08991" lon="0.95045">
        <ele>243.06235347289</ele>
        <time>2021-07-11T06:52:36.486Z</time>
      </trkpt>
      <trkpt lat="45.08783" lon="0.9526">
        <ele>245.11540447629</ele>
        <time>2021-07-11T06:52:41.395Z</time>
      </trkpt>
      <trkpt lat="45.08712" lon="0.95424">
        <ele>246.34181706421</ele>
        <time>2021-07-11T06:52:46.331Z</time>
      </trkpt>
      <trkpt lat="45.08504" lon="0.95525">
        <ele>247.29642304545</ele>
        <time>2021-07-11T06:52:51.311Z</time>
      </trkpt>
      <trkpt lat="45.08479" lon="0.95688">
        <ele>248.21004772271</ele>
        <time>2021-07-11T06:52:56.315Z</time>
      </trkpt>
      <trkpt lat="45.08437" lon="0.95792">
        <ele>248.67718720817</ele>
        <time>2021-07-11T06:53:01.336Z</time>
      </trkpt>
      <trkpt lat="45.08312" lon="0.95918">
        <ele>249.05296201386</ele>
        <time>2021-07-11T06:53:06.387Z</time>
      </trkpt>
      <trkpt lat="45.08333" lon="0.96017">
        <ele>249.13943494439</ele>
        <time>2021-07-11T06:53:11.453Z</time>
      </trkpt>
      <trkpt lat="45.08266" lon="0.96039">
        <ele>249.26315963206</ele>
        <time>2021-07-11T06:53:16.533Z</time>
      </trkpt>
      <trkpt lat="45.08079" lon="0.96198">
        <ele>249.47236948107</ele>
        <time>2021-07-11T06:53:21.657Z</time>
      </trkpt>
      <trkpt lat="45.08354" lon="0.9717">
        <ele>247.59228863313</ele>
        <time>2021-07-11T06:53:26.929Z</time>
      </trkpt>
      <trkpt lat="45.0835" lon="0.97627">
        <ele>248.44924972184</ele>
        <time>2021-07-11T06:53:32.266Z</time>
      </trkpt>
      <trkpt lat="45.08238" lon="0.98157">
        <ele>248.57241961554</ele>
        <time>2021-07-11T06:53:37.681Z</time>
      </trkpt>
      <trkpt lat="45.08223" lon="0.98766">
        <ele>247.59103115924</ele>
        <time>2021-07-11T06:53:43.182Z</time>
      </trkpt>
      <trkpt lat="45.08242" lon="0.98872">
        <ele>245.97878648552</ele>
        <time>2021-07-11T06:53:48.699Z</time>
      </trkpt>
      <trkpt lat="45.082" lon="0.98981">
        <ele>244.15453228822</ele>
        <time>2021-07-11T06:53:54.234Z</time>
      </trkpt>
      <trkpt lat="45.08162" lon="0.98977">
        <ele>242.1515229362</ele>
        <time>2021-07-11T06:53:59.776Z</time>
      </trkpt>
      <trkpt lat="45.08066" lon="0.99038">
        <ele>239.68597470709</ele>
        <time>2021-07-11T06:54:05.339Z</time>
      </trkpt>
      <trkpt lat="45.07983" lon="0.99013">
        <ele>237.21753515574</ele>
        <time>2021-07-11T06:54:10.919Z</time>
      </trkpt>
      <trkpt lat="45.07944" lon="0.99163">
        <ele>234.19541900712</ele>
        <time>2021-07-11T06:54:16.522Z</time>
      </trkpt>
      <trkpt lat="45.07962" lon="0.9923">
        <ele>231.16172922179</ele>
        <time>2021-07-11T06:54:22.135Z</time>
      </trkpt>
      <trkpt lat="45.07948" lon="0.99313">
        <ele>227.70414277915</ele>
        <time>2021-07-11T06:54:27.760Z</time>
      </trkpt>
      <trkpt lat="45.07742" lon="0.9963">
        <ele>222.62632227229</ele>
        <time>2021-07-11T06:54:33.446Z</time>
      </trkpt>
      <trkpt lat="45.07617" lon="0.99737">
        <ele>218.84534932272</ele>
        <time>2021-07-11T06:54:39.161Z</time>
      </trkpt>
      <trkpt lat="45.07561" lon="0.99856">
        <ele>215.37357874449</ele>
        <time>2021-07-11T06:54:44.896Z</time>
      </trkpt>
      <trkpt lat="45.07147" lon="1.0031">
        <ele>210.72433076451</ele>
        <time>2021-07-11T06:54:50.736Z</time>
      </trkpt>
      <trkpt lat="45.07008" lon="1.0057">
        <ele>207.70818838698</ele>
        <time>2021-07-11T06:54:56.622Z</time>
      </trkpt>
      <trkpt lat="45.06928" lon="1.00897">
        <ele>204.0884901412</ele>
        <time>2021-07-11T06:55:02.557Z</time>
      </trkpt>
      <trkpt lat="45.06865" lon="1.00942">
        <ele>200.41588373287</ele>
        <time>2021-07-11T06:55:08.506Z</time>
      </trkpt>
      <trkpt lat="45.06867" lon="1.00928">
        <ele>197.54353810568</ele>
        <time>2021-07-11T06:55:14.457Z</time>
      </trkpt>
      <trkpt lat="45.06854" lon="1.0093">
        <ele>194.98805794532</ele>
        <time>2021-07-11T06:55:20.411Z</time>
      </trkpt>
      <trkpt lat="45.06798" lon="1.00997">
        <ele>192.69778517706</ele>
        <time>2021-07-11T06:55:26.380Z</time>
      </trkpt>
      <trkpt lat="45.06779" lon="1.01025">
        <ele>190.60919693377</ele>
        <time>2021-07-11T06:55:32.354Z</time>
      </trkpt>
      <trkpt lat="45.06774" lon="1.01012">
        <ele>188.73073447811</ele>
        <time>2021-07-11T06:55:38.330Z</time>
      </trkpt>
      <trkpt lat="45.06768" lon="1.00975">
        <ele>187.13317331842</ele>
        <time>2021-07-11T06:55:44.312Z</time>
      </trkpt>
      <trkpt lat="45.0676" lon="1.00951">
        <ele>185.82928231371</ele>
        <time>2021-07-11T06:55:50.297Z</time>
      </trkpt>
      <trkpt lat="45.06751" lon="1.00934">
        <ele>184.72879372058</ele>
        <time>2021-07-11T06:55:56.286Z</time>
      </trkpt>
      <trkpt lat="45.06738" lon="1.00974">
        <ele>183.57936437684</ele>
        <time>2021-07-11T06:56:02.281Z</time>
      </trkpt>
      <trkpt lat="45.06734" lon="1.00984">
        <ele>182.70058393631</ele>
        <time>2021-07-11T06:56:08.277Z</time>
      </trkpt>
      <trkpt lat="45.0673" lon="1.00989">
        <ele>182.0099734309</ele>
        <time>2021-07-11T06:56:14.275Z</time>
      </trkpt>
      <trkpt lat="45.0672" lon="1.00992">
        <ele>181.5323029057</ele>
        <time>2021-07-11T06:56:20.274Z</time>
      </trkpt>
      <trkpt lat="45.06679" lon="1.00987">
        <ele>181.53350739468</ele>
        <time>2021-07-11T06:56:26.282Z</time>
      </trkpt>
      <trkpt lat="45.06663" lon="1.00984">
        <ele>181.40596169701</ele>
        <time>2021-07-11T06:56:32.293Z</time>
      </trkpt>
      <trkpt lat="45.06639" lon="1.00976">
        <ele>181.47453343765</ele>
        <time>2021-07-11T06:56:38.309Z</time>
      </trkpt>
      <trkpt lat="45.06637" lon="1.00987">
        <ele>181.32474035684</ele>
        <time>2021-07-11T06:56:44.327Z</time>
      </trkpt>
      <trkpt lat="45.06636" lon="1.01029">
        <ele>181.17607200782</ele>
        <time>2021-07-11T06:56:50.351Z</time>
      </trkpt>
      <trkpt lat="45.06621" lon="1.01006">
        <ele>181.3144173724</ele>
        <time>2021-07-11T06:56:56.379Z</time>
      </trkpt>
      <trkpt lat="45.0661" lon="1.00983">
        <ele>181.34154265025</ele>
        <time>2021-07-11T06:57:02.411Z</time>
      </trkpt>
      <trkpt lat="45.06585" lon="1.00903">
        <ele>181.25413203825</ele>
        <time>2021-07-11T06:57:08.455Z</time>
      </trkpt>
      <trkpt lat="45.06571" lon="1.00848">
        <ele>181.16924024972</ele>
        <time>2021-07-11T06:57:14.508Z</time>
      </trkpt>
      <trkpt lat="45.06567" lon="1.00814">
        <ele>181.33603279501</ele>
        <time>2021-07-11T06:57:20.566Z</time>
      </trkpt>
      <trkpt lat="45.06565" lon="1.00774">
        <ele>181.52747254786</ele>
        <time>2021-07-11T06:57:26.629Z</time>
      </trkpt>
      <trkpt lat="45.06565" lon="1.0067">
        <ele>181.53200490123</ele>
        <time>2021-07-11T06:57:32.707Z</time>
      </trkpt>
      <trkpt lat="45.06563" lon="1.00663">
        <ele>181.89715057711</ele>
        <time>2021-07-11T06:57:38.786Z</time>
      </trkpt>
      <trkpt lat="45.06551" lon="1.00646">
        <ele>182.1645811691</ele>
        <time>2021-07-11T06:57:44.868Z</time>
      </trkpt>
      <trkpt lat="45.06535" lon="1.00637">
        <ele>182.62658117585</ele>
        <time>2021-07-11T06:57:50.954Z</time>
      </trkpt>
      <trkpt lat="45.06528" lon="1.00635">
        <ele>183.292624783</ele>
        <time>2021-07-11T06:57:57.041Z</time>
      </trkpt>
      <trkpt lat="45.06515" lon="1.00643">
        <ele>184.04583268252</ele>
        <time>2021-07-11T06:58:03.131Z</time>
      </trkpt>
      <trkpt lat="45.06507" lon="1.00646">
        <ele>184.92037220942</ele>
        <time>2021-07-11T06:58:09.223Z</time>
      </trkpt>
      <trkpt lat="45.06501" lon="1.00646">
        <ele>185.88994490149</ele>
        <time>2021-07-11T06:58:15.316Z</time>
      </trkpt>
      <trkpt lat="45.06498" lon="1.00649">
        <ele>186.97302773414</ele>
        <time>2021-07-11T06:58:21.410Z</time>
      </trkpt>
      <trkpt lat="45.06468" lon="1.00708">
        <ele>188.1046628232</ele>
        <time>2021-07-11T06:58:27.514Z</time>
      </trkpt>
      <trkpt lat="45.06457" lon="1.00735">
        <ele>189.33145219871</ele>
        <time>2021-07-11T06:58:33.623Z</time>
      </trkpt>
      <trkpt lat="45.06447" lon="1.00767">
        <ele>190.71803415054</ele>
        <time>2021-07-11T06:58:39.736Z</time>
      </trkpt>
      <trkpt lat="45.06437" lon="1.00788">
        <ele>192.20749068507</ele>
        <time>2021-07-11T06:58:45.853Z</time>
      </trkpt>
      <trkpt lat="45.06409" lon="1.00822">
        <ele>193.90925497253</ele>
        <time>2021-07-11T06:58:51.977Z</time>
      </trkpt>
      <trkpt lat="45.06395" lon="1.00843">
        <ele>195.49138218272</ele>
        <time>2021-07-11T06:58:58.105Z</time>
      </trkpt>
      <trkpt lat="45.06377" lon="1.00864">
        <ele>197.05639934232</ele>
        <time>2021-07-11T06:59:04.238Z</time>
      </trkpt>
      <trkpt lat="45.06331" lon="1.00909">
        <ele>198.88498566898</ele>
        <time>2021-07-11T06:59:10.382Z</time>
      </trkpt>
      <trkpt lat="45.06312" lon="1.00935">
        <ele>200.49480478532</ele>
        <time>2021-07-11T06:59:16.532Z</time>
      </trkpt>
      <trkpt lat="45.0628" lon="1.00989">
        <ele>202.06581430186</ele>
        <time>2021-07-11T06:59:22.692Z</time>
      </trkpt>
      <trkpt lat="45.06223" lon="1.01065">
        <ele>203.89732012739</ele>
        <time>2021-07-11T06:59:28.867Z</time>
      </trkpt>
      <trkpt lat="45.06212" lon="1.01074">
        <ele>205.30366522698</ele>
        <time>2021-07-11T06:59:35.045Z</time>
      </trkpt>
      <trkpt lat="45.06188" lon="1.00962">
        <ele>206.81609526425</ele>
        <time>2021-07-11T06:59:41.240Z</time>
      </trkpt>
      <trkpt lat="45.06185" lon="1.00934">
        <ele>207.88234570655</ele>
        <time>2021-07-11T06:59:47.439Z</time>
      </trkpt>
      <trkpt lat="45.06181" lon="1.00924">
        <ele>208.76833579768</ele>
        <time>2021-07-11T06:59:53.639Z</time>
      </trkpt>
      <trkpt lat="45.0617" lon="1.00909">
        <ele>209.47551660602</ele>
        <time>2021-07-11T06:59:59.842Z</time>
      </trkpt>
      <trkpt lat="45.06155" lon="1.00892">
        <ele>209.98442234545</ele>
        <time>2021-07-11T07:00:06.049Z</time>
      </trkpt>
      <trkpt lat="45.06144" lon="1.00872">
        <ele>210.23486742691</ele>
        <time>2021-07-11T07:00:12.260Z</time>
      </trkpt>
      <trkpt lat="45.06132" lon="1.00823">
        <ele>210.22599340387</ele>
        <time>2021-07-11T07:00:18.478Z</time>
      </trkpt>
      <trkpt lat="45.06084" lon="1.00907">
        <ele>209.94808365893</ele>
        <time>2021-07-11T07:00:24.711Z</time>
      </trkpt>
      <trkpt lat="45.06045" lon="1.00967">
        <ele>209.45450405298</ele>
        <time>2021-07-11T07:00:30.956Z</time>
      </trkpt>
      <trkpt lat="45.06021" lon="1.01034">
        <ele>208.76398124438</ele>
        <time>2021-07-11T07:00:37.211Z</time>
      </trkpt>
      <trkpt lat="45.06009" lon="1.01073">
        <ele>207.82548695296</ele>
        <time>2021-07-11T07:00:43.472Z</time>
      </trkpt>
      <trkpt lat="45.06001" lon="1.01118">
        <ele>206.696301584</ele>
        <time>2021-07-11T07:00:49.740Z</time>
      </trkpt>
      <trkpt lat="45.05992" lon="1.01139">
        <ele>205.26750426351</ele>
        <time>2021-07-11T07:00:56.012Z</time>
      </trkpt>
      <trkpt lat="45.05966" lon="1.01221">
        <ele>203.47626159337</ele>
        <time>2021-07-11T07:01:02.296Z</time>
      </trkpt>
      <trkpt lat="45.05958" lon="1.01239">
        <ele>201.62874258066</ele>
        <time>2021-07-11T07:01:08.583Z</time>
      </trkpt>
      <trkpt lat="45.05942" lon="1.0127">
        <ele>199.57957194023</ele>
        <time>2021-07-11T07:01:14.876Z</time>
      </trkpt>
      <trkpt lat="45.05914" lon="1.01305">
        <ele>197.09700969521</ele>
        <time>2021-07-11T07:01:21.176Z</time>
      </trkpt>
      <trkpt lat="45.05862" lon="1.01365">
        <ele>191.59280840012</ele>
        <time>2021-07-11T07:01:27.490Z</time>
      </trkpt>
      <trkpt lat="45.05858" lon="1.01373">
        <ele>188.797937946</ele>
        <time>2021-07-11T07:01:33.805Z</time>
      </trkpt>
      <trkpt lat="45.05848" lon="1.01411">
        <ele>185.79456049009</ele>
        <time>2021-07-11T07:01:40.126Z</time>
      </trkpt>
      <trkpt lat="45.05802" lon="1.01548">
        <ele>182.27654415906</ele>
        <time>2021-07-11T07:01:46.468Z</time>
      </trkpt>
      <trkpt lat="45.05791" lon="1.01577">
        <ele>179.06301368959</ele>
        <time>2021-07-11T07:01:52.815Z</time>
      </trkpt>
      <trkpt lat="45.0578" lon="1.01597">
        <ele>175.74822224381</ele>
        <time>2021-07-11T07:01:59.165Z</time>
      </trkpt>
      <trkpt lat="45.05766" lon="1.01649">
        <ele>172.37532873509</ele>
        <time>2021-07-11T07:02:05.523Z</time>
      </trkpt>
      <trkpt lat="45.05764" lon="1.01725">
        <ele>169.1965672108</ele>
        <time>2021-07-11T07:02:11.892Z</time>
      </trkpt>
      <trkpt lat="45.05762" lon="1.01748">
        <ele>165.92928077692</ele>
        <time>2021-07-11T07:02:18.265Z</time>
      </trkpt>
      <trkpt lat="45.05751" lon="1.01798">
        <ele>162.50859694756</ele>
        <time>2021-07-11T07:02:24.645Z</time>
      </trkpt>
      <trkpt lat="45.05749" lon="1.018">
        <ele>159.23810310871</ele>
        <time>2021-07-11T07:02:31.026Z</time>
      </trkpt>
      <trkpt lat="45.05746" lon="1.01811">
        <ele>155.987362461</ele>
        <time>2021-07-11T07:02:37.408Z</time>
      </trkpt>
      <trkpt lat="45.05742" lon="1.01844">
        <ele>152.59174472256</ele>
        <time>2021-07-11T07:02:43.795Z</time>
      </trkpt>
      <trkpt lat="45.05738" lon="1.0191">
        <ele>149.2651162078</ele>
        <time>2021-07-11T07:02:50.191Z</time>
      </trkpt>
      <trkpt lat="45.05739" lon="1.01942">
        <ele>146.16178144671</ele>
        <time>2021-07-11T07:02:56.592Z</time>
      </trkpt>
      <trkpt lat="45.05735" lon="1.01964">
        <ele>143.18878967771</ele>
        <time>2021-07-11T07:03:02.996Z</time>
      </trkpt>
      <trkpt lat="45.05729" lon="1.01974">
        <ele>140.3640365886</ele>
        <time>2021-07-11T07:03:09.402Z</time>
      </trkpt>
      <trkpt lat="45.05698" lon="1.02006">
        <ele>137.40202607079</ele>
        <time>2021-07-11T07:03:15.816Z</time>
      </trkpt>
      <trkpt lat="45.05676" lon="1.02021">
        <ele>134.85308363901</ele>
        <time>2021-07-11T07:03:22.234Z</time>
      </trkpt>
      <trkpt lat="45.05665" lon="1.02022">
        <ele>132.55595520524</ele>
        <time>2021-07-11T07:03:28.655Z</time>
      </trkpt>
      <trkpt lat="45.0564" lon="1.02014">
        <ele>130.42157471189</ele>
        <time>2021-07-11T07:03:35.081Z</time>
      </trkpt>
      <trkpt lat="45.05635" lon="1.02016">
        <ele>128.46864907989</ele>
        <time>2021-07-11T07:03:41.508Z</time>
      </trkpt>
      <trkpt lat="45.05633" lon="1.02022">
        <ele>126.68002548721</ele>
        <time>2021-07-11T07:03:47.936Z</time>
      </trkpt>
      <trkpt lat="45.05626" lon="1.02094">
        <ele>124.93217806571</ele>
        <time>2021-07-11T07:03:54.374Z</time>
      </trkpt>
      <trkpt lat="45.05622" lon="1.02106">
        <ele>123.52691008998</ele>
        <time>2021-07-11T07:04:00.814Z</time>
      </trkpt>
      <trkpt lat="45.0561" lon="1.02126">
        <ele>122.35808970755</ele>
        <time>2021-07-11T07:04:07.258Z</time>
      </trkpt>
      <trkpt lat="45.05576" lon="1.02169">
        <ele>121.38551604741</ele>
        <time>2021-07-11T07:04:13.711Z</time>
      </trkpt>
      <trkpt lat="45.05542" lon="1.02206">
        <ele>120.23867942772</ele>
        <time>2021-07-11T07:04:20.173Z</time>
      </trkpt>
      <trkpt lat="45.05515" lon="1.02228">
        <ele>119.41527522588</ele>
        <time>2021-07-11T07:04:26.641Z</time>
      </trkpt>
      <trkpt lat="45.05473" lon="1.02272">
        <ele>118.69582850267</ele>
        <time>2021-07-11T07:04:33.119Z</time>
      </trkpt>
      <trkpt lat="45.05461" lon="1.02282">
        <ele>118.096744046</ele>
        <time>2021-07-11T07:04:39.600Z</time>
      </trkpt>
      <trkpt lat="45.05449" lon="1.02282">
        <ele>117.60706968937</ele>
        <time>2021-07-11T07:04:46.083Z</time>
      </trkpt>
      <trkpt lat="45.05425" lon="1.02273">
        <ele>117.21545830141</ele>
        <time>2021-07-11T07:04:52.571Z</time>
      </trkpt>
      <trkpt lat="45.05415" lon="1.0229">
        <ele>116.95833449023</ele>
        <time>2021-07-11T07:04:59.062Z</time>
      </trkpt>
      <trkpt lat="45.05405" lon="1.02302">
        <ele>116.82536913691</ele>
        <time>2021-07-11T07:05:05.556Z</time>
      </trkpt>
      <trkpt lat="45.05391" lon="1.02315">
        <ele>116.78562473511</ele>
        <time>2021-07-11T07:05:12.053Z</time>
      </trkpt>
      <trkpt lat="45.05251" lon="1.02421">
        <ele>116.88947530748</ele>
        <time>2021-07-11T07:05:18.582Z</time>
      </trkpt>
      <trkpt lat="45.05218" lon="1.02448">
        <ele>117.05271649036</ele>
        <time>2021-07-11T07:05:25.119Z</time>
      </trkpt>
      <trkpt lat="45.05043" lon="1.02604">
        <ele>117.0690218149</ele>
        <time>2021-07-11T07:05:31.697Z</time>
      </trkpt>
      <trkpt lat="45.04892" lon="1.02735">
        <ele>117.79781613633</ele>
        <time>2021-07-11T07:05:38.311Z</time>
      </trkpt>
      <trkpt lat="45.04834" lon="1.02787">
        <ele>118.3682110974</ele>
        <time>2021-07-11T07:05:44.939Z</time>
      </trkpt>
      <trkpt lat="45.04719" lon="1.02885">
        <ele>118.61570222</ele>
        <time>2021-07-11T07:05:51.593Z</time>
      </trkpt>
      <trkpt lat="45.04707" lon="1.02901">
        <ele>119.04860977399</ele>
        <time>2021-07-11T07:05:58.251Z</time>
      </trkpt>
      <trkpt lat="45.04694" lon="1.02923">
        <ele>119.49482327428</ele>
        <time>2021-07-11T07:06:04.913Z</time>
      </trkpt>
      <trkpt lat="45.04684" lon="1.0295">
        <ele>120.00269063339</ele>
        <time>2021-07-11T07:06:11.579Z</time>
      </trkpt>
      <trkpt lat="45.04678" lon="1.02982">
        <ele>120.44950999755</ele>
        <time>2021-07-11T07:06:18.250Z</time>
      </trkpt>
      <trkpt lat="45.04673" lon="1.03037">
        <ele>120.58348883995</ele>
        <time>2021-07-11T07:06:24.929Z</time>
      </trkpt>
      <trkpt lat="45.0467" lon="1.03058">
        <ele>121.11247881211</ele>
        <time>2021-07-11T07:06:31.611Z</time>
      </trkpt>
      <trkpt lat="45.04664" lon="1.0308">
        <ele>121.67894183067</ele>
        <time>2021-07-11T07:06:38.296Z</time>
      </trkpt>
      <trkpt lat="45.04656" lon="1.03096">
        <ele>122.26618774572</ele>
        <time>2021-07-11T07:06:44.984Z</time>
      </trkpt>
      <trkpt lat="45.04642" lon="1.0312">
        <ele>122.94726260743</ele>
        <time>2021-07-11T07:06:51.676Z</time>
      </trkpt>
      <trkpt lat="45.04637" lon="1.03125">
        <ele>123.52217055349</ele>
        <time>2021-07-11T07:06:58.369Z</time>
      </trkpt>
      <trkpt lat="45.04624" lon="1.03136">
        <ele>124.09402766648</ele>
        <time>2021-07-11T07:07:05.065Z</time>
      </trkpt>
      <trkpt lat="45.04608" lon="1.03147">
        <ele>124.68517643909</ele>
        <time>2021-07-11T07:07:11.765Z</time>
      </trkpt>
      <trkpt lat="45.04472" lon="1.032">
        <ele>125.62385207579</ele>
        <time>2021-07-11T07:07:18.493Z</time>
      </trkpt>
      <trkpt lat="45.04427" lon="1.03221">
        <ele>126.05637256146</ele>
        <time>2021-07-11T07:07:25.231Z</time>
      </trkpt>
      <trkpt lat="45.04321" lon="1.03279">
        <ele>126.42882681617</ele>
        <time>2021-07-11T07:07:31.991Z</time>
      </trkpt>
      <trkpt lat="45.04278" lon="1.03306">
        <ele>126.55324259335</ele>
        <time>2021-07-11T07:07:38.761Z</time>
      </trkpt>
      <trkpt lat="45.04203" lon="1.03363">
        <ele>126.76667616737</ele>
        <time>2021-07-11T07:07:45.548Z</time>
      </trkpt>
      <trkpt lat="45.04118" lon="1.03422">
        <ele>126.56211684941</ele>
        <time>2021-07-11T07:07:52.354Z</time>
      </trkpt>
      <trkpt lat="45.04012" lon="1.03499">
        <ele>126.30597142706</ele>
        <time>2021-07-11T07:07:59.184Z</time>
      </trkpt>
      <trkpt lat="45.03933" lon="1.03559">
        <ele>125.83743571974</ele>
        <time>2021-07-11T07:08:06.032Z</time>
      </trkpt>
      <trkpt lat="45.03904" lon="1.03584">
        <ele>125.36832990683</ele>
        <time>2021-07-11T07:08:12.886Z</time>
      </trkpt>
      <trkpt lat="45.0389" lon="1.03604">
        <ele>124.82732344376</ele>
        <time>2021-07-11T07:08:19.744Z</time>
      </trkpt>
      <trkpt lat="45.03865" lon="1.03656">
        <ele>124.17984954585</ele>
        <time>2021-07-11T07:08:26.611Z</time>
      </trkpt>
      <trkpt lat="45.03853" lon="1.03674">
        <ele>123.43959456018</ele>
        <time>2021-07-11T07:08:33.482Z</time>
      </trkpt>
      <trkpt lat="45.03841" lon="1.03689">
        <ele>122.59814957703</ele>
        <time>2021-07-11T07:08:40.356Z</time>
      </trkpt>
      <trkpt lat="45.03831" lon="1.03698">
        <ele>121.78684389255</ele>
        <time>2021-07-11T07:08:47.233Z</time>
      </trkpt>
      <trkpt lat="45.03817" lon="1.03705">
        <ele>120.8844766916</ele>
        <time>2021-07-11T07:08:54.112Z</time>
      </trkpt>
      <trkpt lat="45.03764" lon="1.0372">
        <ele>119.85350736101</ele>
        <time>2021-07-11T07:09:01.002Z</time>
      </trkpt>
      <trkpt lat="45.03734" lon="1.03737">
        <ele>118.75246951112</ele>
        <time>2021-07-11T07:09:07.899Z</time>
      </trkpt>
      <trkpt lat="45.03605" lon="1.03843">
        <ele>117.85166976844</ele>
        <time>2021-07-11T07:09:14.826Z</time>
      </trkpt>
      <trkpt lat="45.0355" lon="1.03892">
        <ele>116.54045854164</ele>
        <time>2021-07-11T07:09:21.766Z</time>
      </trkpt>
      <trkpt lat="45.03453" lon="1.03991">
        <ele>115.31137259677</ele>
        <time>2021-07-11T07:09:28.729Z</time>
      </trkpt>
      <trkpt lat="45.03383" lon="1.04059">
        <ele>113.84247031777</ele>
        <time>2021-07-11T07:09:35.709Z</time>
      </trkpt>
      <trkpt lat="45.03364" lon="1.04025">
        <ele>112.23845310739</ele>
        <time>2021-07-11T07:09:42.696Z</time>
      </trkpt>
      <trkpt lat="45.03317" lon="1.03957">
        <ele>110.35524034486</ele>
        <time>2021-07-11T07:09:49.696Z</time>
      </trkpt>
      <trkpt lat="45.03306" lon="1.03941">
        <ele>108.84247774561</ele>
        <time>2021-07-11T07:09:56.699Z</time>
      </trkpt>
      <trkpt lat="45.03271" lon="1.03905">
        <ele>107.27575649557</ele>
        <time>2021-07-11T07:10:03.711Z</time>
      </trkpt>
      <trkpt lat="45.03267" lon="1.03897">
        <ele>105.86139568568</ele>
        <time>2021-07-11T07:10:10.724Z</time>
      </trkpt>
      <trkpt lat="45.03263" lon="1.03884">
        <ele>104.47748936338</ele>
        <time>2021-07-11T07:10:17.739Z</time>
      </trkpt>
      <trkpt lat="45.03257" lon="1.03853">
        <ele>103.1238107427</ele>
        <time>2021-07-11T07:10:24.759Z</time>
      </trkpt>
      <trkpt lat="45.03256" lon="1.03844">
        <ele>101.83234054625</ele>
        <time>2021-07-11T07:10:31.780Z</time>
      </trkpt>
      <trkpt lat="45.0325" lon="1.03844">
        <ele>100.60855820417</ele>
        <time>2021-07-11T07:10:38.802Z</time>
      </trkpt>
      <trkpt lat="45.0324" lon="1.03848">
        <ele>99.44925904466</ele>
        <time>2021-07-11T07:10:45.826Z</time>
      </trkpt>
      <trkpt lat="45.03228" lon="1.03859">
        <ele>98.36024327236</ele>
        <time>2021-07-11T07:10:52.853Z</time>
      </trkpt>
      <trkpt lat="45.03175" lon="1.03924">
        <ele>97.31688218935</ele>
        <time>2021-07-11T07:10:59.894Z</time>
      </trkpt>
      <trkpt lat="45.03159" lon="1.03945">
        <ele>96.38243318021</ele>
        <time>2021-07-11T07:11:06.940Z</time>
      </trkpt>
      <trkpt lat="45.03132" lon="1.03969">
        <ele>95.54270757089</ele>
        <time>2021-07-11T07:11:13.992Z</time>
      </trkpt>
      <trkpt lat="45.03107" lon="1.03993">
        <ele>94.76783400378</ele>
        <time>2021-07-11T07:11:21.050Z</time>
      </trkpt>
      <trkpt lat="45.03093" lon="1.04002">
        <ele>94.10327319292</ele>
        <time>2021-07-11T07:11:28.111Z</time>
      </trkpt>
      <trkpt lat="45.03064" lon="1.04007">
        <ele>93.53841379699</ele>
        <time>2021-07-11T07:11:35.178Z</time>
      </trkpt>
      <trkpt lat="45.03037" lon="1.04029">
        <ele>93.12990380358</ele>
        <time>2021-07-11T07:11:42.251Z</time>
      </trkpt>
      <trkpt lat="45.03017" lon="1.04054">
        <ele>92.76621611128</ele>
        <time>2021-07-11T07:11:49.330Z</time>
      </trkpt>
      <trkpt lat="45.02967" lon="1.04109">
        <ele>92.44023020752</ele>
        <time>2021-07-11T07:11:56.421Z</time>
      </trkpt>
      <trkpt lat="45.02885" lon="1.04195">
        <ele>92.32128745379</ele>
        <time>2021-07-11T07:12:03.533Z</time>
      </trkpt>
      <trkpt lat="45.02816" lon="1.04266">
        <ele>92.47078581176</ele>
        <time>2021-07-11T07:12:10.662Z</time>
      </trkpt>
      <trkpt lat="45.02804" lon="1.04296">
        <ele>92.75097042379</ele>
        <time>2021-07-11T07:12:17.796Z</time>
      </trkpt>
      <trkpt lat="45.02795" lon="1.04311">
        <ele>93.10700047783</ele>
        <time>2021-07-11T07:12:24.933Z</time>
      </trkpt>
      <trkpt lat="45.02709" lon="1.04432">
        <ele>93.42769383216</ele>
        <time>2021-07-11T07:12:32.094Z</time>
      </trkpt>
      <trkpt lat="45.02691" lon="1.04455">
        <ele>93.95781060101</ele>
        <time>2021-07-11T07:12:39.260Z</time>
      </trkpt>
      <trkpt lat="45.0264" lon="1.04493">
        <ele>94.66940267227</ele>
        <time>2021-07-11T07:12:46.437Z</time>
      </trkpt>
      <trkpt lat="45.02638" lon="1.04492">
        <ele>95.4548091718</ele>
        <time>2021-07-11T07:12:53.615Z</time>
      </trkpt>
      <trkpt lat="45.02586" lon="1.04491">
        <ele>96.27586269692</ele>
        <time>2021-07-11T07:13:00.803Z</time>
      </trkpt>
      <trkpt lat="45.0255" lon="1.04486">
        <ele>97.24868851423</ele>
        <time>2021-07-11T07:13:07.998Z</time>
      </trkpt>
      <trkpt lat="45.02521" lon="1.04477">
        <ele>98.36051197918</ele>
        <time>2021-07-11T07:13:15.199Z</time>
      </trkpt>
      <trkpt lat="45.02508" lon="1.04469">
        <ele>99.61666007086</ele>
        <time>2021-07-11T07:13:22.403Z</time>
      </trkpt>
      <trkpt lat="45.02499" lon="1.04459">
        <ele>100.99342090676</ele>
        <time>2021-07-11T07:13:29.609Z</time>
      </trkpt>
      <trkpt lat="45.02495" lon="1.04448">
        <ele>102.47429297127</ele>
        <time>2021-07-11T07:13:36.817Z</time>
      </trkpt>
      <trkpt lat="45.02459" lon="1.0435">
        <ele>104.34719033816</ele>
        <time>2021-07-11T07:13:44.041Z</time>
      </trkpt>
      <trkpt lat="45.02443" lon="1.04313">
        <ele>106.14196318694</ele>
        <time>2021-07-11T07:13:51.271Z</time>
      </trkpt>
      <trkpt lat="45.02433" lon="1.04299">
        <ele>107.88716912966</ele>
        <time>2021-07-11T07:13:58.504Z</time>
      </trkpt>
      <trkpt lat="45.02412" lon="1.04276">
        <ele>109.74922823334</ele>
        <time>2021-07-11T07:14:05.742Z</time>
      </trkpt>
      <trkpt lat="45.02402" lon="1.0427">
        <ele>111.52353364449</ele>
        <time>2021-07-11T07:14:12.982Z</time>
      </trkpt>
      <trkpt lat="45.02382" lon="1.04272">
        <ele>113.29522305289</ele>
        <time>2021-07-11T07:14:20.226Z</time>
      </trkpt>
      <trkpt lat="45.02353" lon="1.0429">
        <ele>115.18052039833</ele>
        <time>2021-07-11T07:14:27.477Z</time>
      </trkpt>
      <trkpt lat="45.02326" lon="1.043">
        <ele>117.13342752981</ele>
        <time>2021-07-11T07:14:34.733Z</time>
      </trkpt>
      <trkpt lat="45.02312" lon="1.043">
        <ele>118.97305211337</ele>
        <time>2021-07-11T07:14:41.992Z</time>
      </trkpt>
      <trkpt lat="45.02299" lon="1.04298">
        <ele>120.76111645931</ele>
        <time>2021-07-11T07:14:49.254Z</time>
      </trkpt>
      <trkpt lat="45.02288" lon="1.04301">
        <ele>122.45382485165</ele>
        <time>2021-07-11T07:14:56.518Z</time>
      </trkpt>
      <trkpt lat="45.02277" lon="1.04309">
        <ele>123.99291963332</ele>
        <time>2021-07-11T07:15:03.784Z</time>
      </trkpt>
      <trkpt lat="45.02263" lon="1.04314">
        <ele>125.46850806384</ele>
        <time>2021-07-11T07:15:11.053Z</time>
      </trkpt>
      <trkpt lat="45.02247" lon="1.04315">
        <ele>126.91463919117</ele>
        <time>2021-07-11T07:15:18.325Z</time>
      </trkpt>
      <trkpt lat="45.02197" lon="1.04336">
        <ele>128.3184562371</ele>
        <time>2021-07-11T07:15:25.608Z</time>
      </trkpt>
      <trkpt lat="45.02165" lon="1.04345">
        <ele>129.66499999909</ele>
        <time>2021-07-11T07:15:32.897Z</time>
      </trkpt>
      <trkpt lat="45.02123" lon="1.04351">
        <ele>130.91492945757</ele>
        <time>2021-07-11T07:15:40.195Z</time>
      </trkpt>
      <trkpt lat="45.02107" lon="1.04363">
        <ele>131.97612292662</ele>
        <time>2021-07-11T07:15:47.496Z</time>
      </trkpt>
      <trkpt lat="45.02093" lon="1.04387">
        <ele>132.83343017678</ele>
        <time>2021-07-11T07:15:54.802Z</time>
      </trkpt>
      <trkpt lat="45.02083" lon="1.04412">
        <ele>133.5703680387</ele>
        <time>2021-07-11T07:16:02.112Z</time>
      </trkpt>
      <trkpt lat="45.02079" lon="1.04425">
        <ele>134.29759770786</ele>
        <time>2021-07-11T07:16:09.424Z</time>
      </trkpt>
      <trkpt lat="45.02067" lon="1.04447">
        <ele>134.9020787933</ele>
        <time>2021-07-11T07:16:16.740Z</time>
      </trkpt>
      <trkpt lat="45.02048" lon="1.04468">
        <ele>135.50563821591</ele>
        <time>2021-07-11T07:16:24.061Z</time>
      </trkpt>
      <trkpt lat="45.02039" lon="1.04481">
        <ele>136.09692613999</ele>
        <time>2021-07-11T07:16:31.384Z</time>
      </trkpt>
      <trkpt lat="45.02025" lon="1.04495">
        <ele>136.77666159984</ele>
        <time>2021-07-11T07:16:38.711Z</time>
      </trkpt>
      <trkpt lat="45.02023" lon="1.045">
        <ele>137.32362985716</ele>
        <time>2021-07-11T07:16:46.039Z</time>
      </trkpt>
      <trkpt lat="45.02022" lon="1.04515">
        <ele>137.67640819163</ele>
        <time>2021-07-11T07:16:53.369Z</time>
      </trkpt>
      <trkpt lat="45.02019" lon="1.04526">
        <ele>138.08977635489</ele>
        <time>2021-07-11T07:17:00.701Z</time>
      </trkpt>
      <trkpt lat="45.02003" lon="1.0455">
        <ele>138.57065880053</ele>
        <time>2021-07-11T07:17:08.037Z</time>
      </trkpt>
      <trkpt lat="45.01981" lon="1.04596">
        <ele>138.93801830461</ele>
        <time>2021-07-11T07:17:15.381Z</time>
      </trkpt>
      <trkpt lat="45.01972" lon="1.04606">
        <ele>139.24706774602</ele>
        <time>2021-07-11T07:17:22.727Z</time>
      </trkpt>
      <trkpt lat="45.01936" lon="1.04636">
        <ele>139.58013807705</ele>
        <time>2021-07-11T07:17:30.082Z</time>
      </trkpt>
      <trkpt lat="45.01919" lon="1.04647">
        <ele>139.9367869816</ele>
        <time>2021-07-11T07:17:37.440Z</time>
      </trkpt>
      <trkpt lat="45.01883" lon="1.04661">
        <ele>140.40388954568</ele>
        <time>2021-07-11T07:17:44.806Z</time>
      </trkpt>
      <trkpt lat="45.0188" lon="1.04661">
        <ele>140.52225297803</ele>
        <time>2021-07-11T07:17:52.173Z</time>
      </trkpt>
      <trkpt lat="45.01849" lon="1.04652">
        <ele>140.90830394046</ele>
        <time>2021-07-11T07:17:59.546Z</time>
      </trkpt>
      <trkpt lat="45.01827" lon="1.04648">
        <ele>141.03271423204</ele>
        <time>2021-07-11T07:18:06.923Z</time>
      </trkpt>
      <trkpt lat="45.01799" lon="1.04635">
        <ele>141.16451965298</ele>
        <time>2021-07-11T07:18:14.306Z</time>
      </trkpt>
      <trkpt lat="45.01793" lon="1.04634">
        <ele>140.81740602134</ele>
        <time>2021-07-11T07:18:21.690Z</time>
      </trkpt>
      <trkpt lat="45.01784" lon="1.04635">
        <ele>140.20432094448</ele>
        <time>2021-07-11T07:18:29.076Z</time>
      </trkpt>
      <trkpt lat="45.01773" lon="1.04645">
        <ele>139.41347782664</ele>
        <time>2021-07-11T07:18:36.465Z</time>
      </trkpt>
      <trkpt lat="45.01772" lon="1.04651">
        <ele>138.42175510036</ele>
        <time>2021-07-11T07:18:43.855Z</time>
      </trkpt>
      <trkpt lat="45.01751" lon="1.04677">
        <ele>137.02016746642</ele>
        <time>2021-07-11T07:18:51.250Z</time>
      </trkpt>
      <trkpt lat="45.01726" lon="1.04712">
        <ele>135.71557091346</ele>
        <time>2021-07-11T07:18:58.652Z</time>
      </trkpt>
      <trkpt lat="45.01643" lon="1.04804">
        <ele>133.73677087191</ele>
        <time>2021-07-11T07:19:06.075Z</time>
      </trkpt>
      <trkpt lat="45.01629" lon="1.04816">
        <ele>132.21861819824</ele>
        <time>2021-07-11T07:19:13.502Z</time>
      </trkpt>
      <trkpt lat="45.01623" lon="1.04818">
        <ele>130.57730197874</ele>
        <time>2021-07-11T07:19:20.930Z</time>
      </trkpt>
      <trkpt lat="45.01604" lon="1.0482">
        <ele>128.80930573903</ele>
        <time>2021-07-11T07:19:28.362Z</time>
      </trkpt>
      <trkpt lat="45.01597" lon="1.04824">
        <ele>126.90311586518</ele>
        <time>2021-07-11T07:19:35.795Z</time>
      </trkpt>
      <trkpt lat="45.01595" lon="1.04832">
        <ele>124.83847050093</ele>
        <time>2021-07-11T07:19:43.230Z</time>
      </trkpt>
      <trkpt lat="45.01597" lon="1.04837">
        <ele>122.74576449763</ele>
        <time>2021-07-11T07:19:50.665Z</time>
      </trkpt>
      <trkpt lat="45.016" lon="1.04841">
        <ele>120.60068242294</ele>
        <time>2021-07-11T07:19:58.101Z</time>
      </trkpt>
      <trkpt lat="45.01603" lon="1.04842">
        <ele>118.45172472008</ele>
        <time>2021-07-11T07:20:05.538Z</time>
      </trkpt>
      <trkpt lat="45.0167" lon="1.04816">
        <ele>116.29551873422</ele>
        <time>2021-07-11T07:20:12.989Z</time>
      </trkpt>
      <trkpt lat="45.01705" lon="1.04812">
        <ele>113.86682988271</ele>
        <time>2021-07-11T07:20:20.447Z</time>
      </trkpt>
      <trkpt lat="45.01751" lon="1.04798">
        <ele>111.50290097974</ele>
        <time>2021-07-11T07:20:27.914Z</time>
      </trkpt>
      <trkpt lat="45.0181" lon="1.04793">
        <ele>108.94964210957</ele>
        <time>2021-07-11T07:20:35.393Z</time>
      </trkpt>
      <trkpt lat="45.01816" lon="1.04797">
        <ele>106.69632105899</ele>
        <time>2021-07-11T07:20:42.873Z</time>
      </trkpt>
      <trkpt lat="45.01727" lon="1.04887">
        <ele>104.12485213928</ele>
        <time>2021-07-11T07:20:50.375Z</time>
      </trkpt>
      <trkpt lat="45.01707" lon="1.04905">
        <ele>101.99682476193</ele>
        <time>2021-07-11T07:20:57.882Z</time>
      </trkpt>
      <trkpt lat="45.01663" lon="1.04937">
        <ele>100.0445121056</ele>
        <time>2021-07-11T07:21:05.399Z</time>
      </trkpt>
      <trkpt lat="45.01614" lon="1.04966">
        <ele>98.13716543317</ele>
        <time>2021-07-11T07:21:12.926Z</time>
      </trkpt>
      <trkpt lat="45.01597" lon="1.04973">
        <ele>96.31347725077</ele>
        <time>2021-07-11T07:21:20.457Z</time>
      </trkpt>
      <trkpt lat="45.01583" lon="1.04983">
        <ele>94.62712023532</ele>
        <time>2021-07-11T07:21:27.991Z</time>
      </trkpt>
      <trkpt lat="45.01567" lon="1.04996">
        <ele>93.07406027566</ele>
        <time>2021-07-11T07:21:35.529Z</time>
      </trkpt>
      <trkpt lat="45.01554" lon="1.05014">
        <ele>91.54978987006</ele>
        <time>2021-07-11T07:21:43.070Z</time>
      </trkpt>
      <trkpt lat="45.01561" lon="1.05019">
        <ele>90.23109549557</ele>
        <time>2021-07-11T07:21:50.613Z</time>
      </trkpt>
      <trkpt lat="45.01572" lon="1.05034">
        <ele>89.00336230491</ele>
        <time>2021-07-11T07:21:58.159Z</time>
      </trkpt>
      <trkpt lat="45.01583" lon="1.05042">
        <ele>87.9478189154</ele>
        <time>2021-07-11T07:22:05.708Z</time>
      </trkpt>
      <trkpt lat="45.01596" lon="1.05047">
        <ele>87.05806509377</ele>
        <time>2021-07-11T07:22:13.259Z</time>
      </trkpt>
      <trkpt lat="45.01633" lon="1.05052">
        <ele>86.29271956781</ele>
        <time>2021-07-11T07:22:20.818Z</time>
      </trkpt>
      <trkpt lat="45.01649" lon="1.05058">
        <ele>85.6629626764</ele>
        <time>2021-07-11T07:22:28.380Z</time>
      </trkpt>
      <trkpt lat="45.0167" lon="1.05071">
        <ele>85.19460542751</ele>
        <time>2021-07-11T07:22:35.947Z</time>
      </trkpt>
      <trkpt lat="45.01688" lon="1.05087">
        <ele>84.86931014758</ele>
        <time>2021-07-11T07:22:43.518Z</time>
      </trkpt>
      <trkpt lat="45.01701" lon="1.05106">
        <ele>84.68142206341</ele>
        <time>2021-07-11T07:22:51.093Z</time>
      </trkpt>
      <trkpt lat="45.01713" lon="1.05129">
        <ele>84.61859418291</ele>
        <time>2021-07-11T07:22:58.672Z</time>
      </trkpt>
      <trkpt lat="45.0173" lon="1.05169">
        <ele>84.6687045604</ele>
        <time>2021-07-11T07:23:06.257Z</time>
      </trkpt>
      <trkpt lat="45.01785" lon="1.05315">
        <ele>85.07342688532</ele>
        <time>2021-07-11T07:23:13.866Z</time>
      </trkpt>
      <trkpt lat="45.01795" lon="1.05336">
        <ele>85.42117382021</ele>
        <time>2021-07-11T07:23:21.478Z</time>
      </trkpt>
      <trkpt lat="45.01807" lon="1.05354">
        <ele>85.97229457542</ele>
        <time>2021-07-11T07:23:29.094Z</time>
      </trkpt>
      <trkpt lat="45.01823" lon="1.05388">
        <ele>86.67875563957</ele>
        <time>2021-07-11T07:23:36.716Z</time>
      </trkpt>
      <trkpt lat="45.01864" lon="1.05455">
        <ele>87.41607467179</ele>
        <time>2021-07-11T07:23:44.350Z</time>
      </trkpt>
      <trkpt lat="45.01922" lon="1.05556">
        <ele>88.24448203413</ele>
        <time>2021-07-11T07:23:52.003Z</time>
      </trkpt>
      <trkpt lat="45.01949" lon="1.05597">
        <ele>88.90638346927</ele>
        <time>2021-07-11T07:23:59.664Z</time>
      </trkpt>
      <trkpt lat="45.01951" lon="1.0561">
        <ele>89.60741996567</ele>
        <time>2021-07-11T07:24:07.326Z</time>
      </trkpt>
      <trkpt lat="45.01949" lon="1.05618">
        <ele>90.39828759654</ele>
        <time>2021-07-11T07:24:14.989Z</time>
      </trkpt>
      <trkpt lat="45.01934" lon="1.05653">
        <ele>91.1672821113</ele>
        <time>2021-07-11T07:24:22.658Z</time>
      </trkpt>
      <trkpt lat="45.01912" lon="1.05711">
        <ele>92.22910295222</ele>
        <time>2021-07-11T07:24:30.337Z</time>
      </trkpt>
      <trkpt lat="45.01959" lon="1.05775">
        <ele>93.51543127947</ele>
        <time>2021-07-11T07:24:38.029Z</time>
      </trkpt>
      <trkpt lat="45.01971" lon="1.05787">
        <ele>94.90221027342</ele>
        <time>2021-07-11T07:24:45.724Z</time>
      </trkpt>
      <trkpt lat="45.01998" lon="1.05809">
        <ele>96.48030237984</ele>
        <time>2021-07-11T07:24:53.425Z</time>
      </trkpt>
      <trkpt lat="45.02031" lon="1.05842">
        <ele>98.09996915807</ele>
        <time>2021-07-11T07:25:01.134Z</time>
      </trkpt>
      <trkpt lat="45.02043" lon="1.05856">
        <ele>99.86622835578</ele>
        <time>2021-07-11T07:25:08.846Z</time>
      </trkpt>
      <trkpt lat="45.02056" lon="1.05875">
        <ele>101.84099742744</ele>
        <time>2021-07-11T07:25:16.562Z</time>
      </trkpt>
      <trkpt lat="45.02069" lon="1.05898">
        <ele>103.97703246823</ele>
        <time>2021-07-11T07:25:24.282Z</time>
      </trkpt>
      <trkpt lat="45.02077" lon="1.05915">
        <ele>106.25376871046</ele>
        <time>2021-07-11T07:25:32.005Z</time>
      </trkpt>
      <trkpt lat="45.02081" lon="1.05931">
        <ele>108.71721054304</ele>
        <time>2021-07-11T07:25:39.730Z</time>
      </trkpt>
      <trkpt lat="45.02093" lon="1.05953">
        <ele>111.46102315649</ele>
        <time>2021-07-11T07:25:47.459Z</time>
      </trkpt>
      <trkpt lat="45.0212" lon="1.05995">
        <ele>114.49759560941</ele>
        <time>2021-07-11T07:25:55.196Z</time>
      </trkpt>
      <trkpt lat="45.02171" lon="1.06065">
        <ele>117.76629205729</ele>
        <time>2021-07-11T07:26:02.948Z</time>
      </trkpt>
      <trkpt lat="45.02198" lon="1.06096">
        <ele>121.16373617386</ele>
        <time>2021-07-11T07:26:10.706Z</time>
      </trkpt>
      <trkpt lat="45.02254" lon="1.06158">
        <ele>124.78985985762</ele>
        <time>2021-07-11T07:26:18.479Z</time>
      </trkpt>
      <trkpt lat="45.02276" lon="1.06189">
        <ele>128.49705872972</ele>
        <time>2021-07-11T07:26:26.258Z</time>
      </trkpt>
      <trkpt lat="45.02291" lon="1.06218">
        <ele>132.44185822932</ele>
        <time>2021-07-11T07:26:34.042Z</time>
      </trkpt>
      <trkpt lat="45.02296" lon="1.06233">
        <ele>136.65058348702</ele>
        <time>2021-07-11T07:26:41.828Z</time>
      </trkpt>
      <trkpt lat="45.023" lon="1.06258">
        <ele>141.09460213327</ele>
        <time>2021-07-11T07:26:49.618Z</time>
      </trkpt>
      <trkpt lat="45.0231" lon="1.06436">
        <ele>146.21278750304</ele>
        <time>2021-07-11T07:26:57.433Z</time>
      </trkpt>
      <trkpt lat="45.02307" lon="1.06467">
        <ele>151.07249111234</ele>
        <time>2021-07-11T07:27:05.253Z</time>
      </trkpt>
      <trkpt lat="45.02272" lon="1.06554">
        <ele>156.43334950605</ele>
        <time>2021-07-11T07:27:13.087Z</time>
      </trkpt>
      <trkpt lat="45.02215" lon="1.06614">
        <ele>162.0196788522</ele>
        <time>2021-07-11T07:27:20.935Z</time>
      </trkpt>
      <trkpt lat="45.02153" lon="1.06698">
        <ele>167.45998962466</ele>
        <time>2021-07-11T07:27:28.800Z</time>
      </trkpt>
      <trkpt lat="45.02053" lon="1.06769">
        <ele>173.12916814133</ele>
        <time>2021-07-11T07:27:36.688Z</time>
      </trkpt>
      <trkpt lat="45.02035" lon="1.06786">
        <ele>178.20412176597</ele>
        <time>2021-07-11T07:27:44.580Z</time>
      </trkpt>
      <trkpt lat="45.02013" lon="1.06826">
        <ele>183.30996302648</ele>
        <time>2021-07-11T07:27:52.479Z</time>
      </trkpt>
      <trkpt lat="45.02002" lon="1.06859">
        <ele>188.24806812156</ele>
        <time>2021-07-11T07:28:00.383Z</time>
      </trkpt>
      <trkpt lat="45.01996" lon="1.06871">
        <ele>192.98250971531</ele>
        <time>2021-07-11T07:28:08.290Z</time>
      </trkpt>
      <trkpt lat="45.01962" lon="1.06885">
        <ele>197.83548074147</ele>
        <time>2021-07-11T07:28:16.204Z</time>
      </trkpt>
      <trkpt lat="45.01937" lon="1.06885">
        <ele>202.47217012106</ele>
        <time>2021-07-11T07:28:24.123Z</time>
      </trkpt>
      <trkpt lat="45.01917" lon="1.06879">
        <ele>206.88210950124</ele>
        <time>2021-07-11T07:28:32.046Z</time>
      </trkpt>
      <trkpt lat="45.01897" lon="1.0686">
        <ele>211.05460688461</ele>
        <time>2021-07-11T07:28:39.974Z</time>
      </trkpt>
      <trkpt lat="45.01872" lon="1.06899">
        <ele>215.05538705808</ele>
        <time>2021-07-11T07:28:47.909Z</time>
      </trkpt>
      <trkpt lat="45.01857" lon="1.06932">
        <ele>218.61180504754</ele>
        <time>2021-07-11T07:28:55.850Z</time>
      </trkpt>
      <trkpt lat="45.01837" lon="1.06988">
        <ele>221.95601939171</ele>
        <time>2021-07-11T07:29:03.800Z</time>
      </trkpt>
      <trkpt lat="45.01827" lon="1.07029">
        <ele>224.94784193027</ele>
        <time>2021-07-11T07:29:11.756Z</time>
      </trkpt>
      <trkpt lat="45.01823" lon="1.07096">
        <ele>227.6781641666</ele>
        <time>2021-07-11T07:29:19.721Z</time>
      </trkpt>
      <trkpt lat="45.01821" lon="1.07143">
        <ele>229.83762613167</ele>
        <time>2021-07-11T07:29:27.693Z</time>
      </trkpt>
      <trkpt lat="45.01804" lon="1.07126">
        <ele>231.81776300489</ele>
        <time>2021-07-11T07:29:35.669Z</time>
      </trkpt>
      <trkpt lat="45.01792" lon="1.07118">
        <ele>233.44573173419</ele>
        <time>2021-07-11T07:29:43.648Z</time>
      </trkpt>
      <trkpt lat="45.01837" lon="1.07176">
        <ele>234.60301417864</ele>
        <time>2021-07-11T07:29:51.639Z</time>
      </trkpt>
      <trkpt lat="45.0187" lon="1.07232">
        <ele>235.44276175694</ele>
        <time>2021-07-11T07:29:59.640Z</time>
      </trkpt>
      <trkpt lat="45.01885" lon="1.07252">
        <ele>236.05224269617</ele>
        <time>2021-07-11T07:30:07.646Z</time>
      </trkpt>
      <trkpt lat="45.01982" lon="1.07422">
        <ele>236.21192376771</ele>
        <time>2021-07-11T07:30:15.683Z</time>
      </trkpt>
      <trkpt lat="45.0201" lon="1.07461">
        <ele>236.23395774065</ele>
        <time>2021-07-11T07:30:23.727Z</time>
      </trkpt>
      <trkpt lat="45.02038" lon="1.07512">
        <ele>236.04405456332</ele>
        <time>2021-07-11T07:30:31.780Z</time>
      </trkpt>
      <trkpt lat="45.02053" lon="1.07493">
        <ele>235.50943171919</ele>
        <time>2021-07-11T07:30:39.838Z</time>
      </trkpt>
      <trkpt lat="45.02095" lon="1.07556">
        <ele>234.62528271766</ele>
        <time>2021-07-11T07:30:47.908Z</time>
      </trkpt>
      <trkpt lat="45.02239" lon="1.07752">
        <ele>233.85761543633</ele>
        <time>2021-07-11T07:30:56.018Z</time>
      </trkpt>
      <trkpt lat="45.02229" lon="1.07796">
        <ele>232.36797106478</ele>
        <time>2021-07-11T07:31:04.135Z</time>
      </trkpt>
      <trkpt lat="45.0222" lon="1.07841">
        <ele>230.60793543709</ele>
        <time>2021-07-11T07:31:12.258Z</time>
      </trkpt>
      <trkpt lat="45.02173" lon="1.08034">
        <ele>227.8293436912</ele>
        <time>2021-07-11T07:31:20.410Z</time>
      </trkpt>
      <trkpt lat="45.02164" lon="1.08101">
        <ele>225.48124837622</ele>
        <time>2021-07-11T07:31:28.572Z</time>
      </trkpt>
      <trkpt lat="45.02164" lon="1.08122">
        <ele>223.09250760582</ele>
        <time>2021-07-11T07:31:36.737Z</time>
      </trkpt>
      <trkpt lat="45.02167" lon="1.08156">
        <ele>220.4464658005</ele>
        <time>2021-07-11T07:31:44.907Z</time>
      </trkpt>
      <trkpt lat="45.02178" lon="1.08171">
        <ele>217.68950607808</ele>
        <time>2021-07-11T07:31:53.080Z</time>
      </trkpt>
      <trkpt lat="45.02193" lon="1.08184">
        <ele>214.79691911816</ele>
        <time>2021-07-11T07:32:01.256Z</time>
      </trkpt>
      <trkpt lat="45.02201" lon="1.08197">
        <ele>211.73831263963</ele>
        <time>2021-07-11T07:32:09.435Z</time>
      </trkpt>
      <trkpt lat="45.02205" lon="1.0822">
        <ele>208.47661037843</ele>
        <time>2021-07-11T07:32:17.617Z</time>
      </trkpt>
      <trkpt lat="45.02205" lon="1.0823">
        <ele>205.15697834939</ele>
        <time>2021-07-11T07:32:25.801Z</time>
      </trkpt>
      <trkpt lat="45.02202" lon="1.08244">
        <ele>201.69165757928</ele>
        <time>2021-07-11T07:32:33.987Z</time>
      </trkpt>
      <trkpt lat="45.02197" lon="1.0826">
        <ele>198.10024417233</ele>
        <time>2021-07-11T07:32:42.175Z</time>
      </trkpt>
      <trkpt lat="45.0219" lon="1.08271">
        <ele>194.44240491983</ele>
        <time>2021-07-11T07:32:50.365Z</time>
      </trkpt>
      <trkpt lat="45.02164" lon="1.083">
        <ele>190.65033716945</ele>
        <time>2021-07-11T07:32:58.562Z</time>
      </trkpt>
      <trkpt lat="45.02154" lon="1.08307">
        <ele>186.90107904793</ele>
        <time>2021-07-11T07:33:06.761Z</time>
      </trkpt>
      <trkpt lat="45.02131" lon="1.08314">
        <ele>183.09426244168</ele>
        <time>2021-07-11T07:33:14.965Z</time>
      </trkpt>
      <trkpt lat="45.02123" lon="1.0832">
        <ele>179.17264695532</ele>
        <time>2021-07-11T07:33:23.170Z</time>
      </trkpt>
      <trkpt lat="45.02114" lon="1.08329">
        <ele>175.0919837567</ele>
        <time>2021-07-11T07:33:31.378Z</time>
      </trkpt>
      <trkpt lat="45.02063" lon="1.08407">
        <ele>170.42159424866</ele>
        <time>2021-07-11T07:33:39.601Z</time>
      </trkpt>
      <trkpt lat="45.02049" lon="1.08445">
        <ele>166.22686130738</ele>
        <time>2021-07-11T07:33:47.830Z</time>
      </trkpt>
      <trkpt lat="45.02047" lon="1.08481">
        <ele>162.08079445808</ele>
        <time>2021-07-11T07:33:56.064Z</time>
      </trkpt>
      <trkpt lat="45.02034" lon="1.08541">
        <ele>157.6639719294</ele>
        <time>2021-07-11T07:34:04.307Z</time>
      </trkpt>
      <trkpt lat="45.02034" lon="1.08559">
        <ele>153.6832337797</ele>
        <time>2021-07-11T07:34:12.552Z</time>
      </trkpt>
      <trkpt lat="45.02037" lon="1.08568">
        <ele>149.79136126568</ele>
        <time>2021-07-11T07:34:20.799Z</time>
      </trkpt>
      <trkpt lat="45.0204" lon="1.08571">
        <ele>145.97819314868</ele>
        <time>2021-07-11T07:34:29.046Z</time>
      </trkpt>
      <trkpt lat="45.02045" lon="1.08572">
        <ele>142.22671378989</ele>
        <time>2021-07-11T07:34:37.294Z</time>
      </trkpt>
      <trkpt lat="45.02033" lon="1.08584">
        <ele>138.34893986739</ele>
        <time>2021-07-11T07:34:45.546Z</time>
      </trkpt>
      <trkpt lat="45.0203" lon="1.08591">
        <ele>134.64015870349</ele>
        <time>2021-07-11T07:34:53.799Z</time>
      </trkpt>
      <trkpt lat="45.02029" lon="1.08612">
        <ele>130.93086912173</ele>
        <time>2021-07-11T07:35:02.055Z</time>
      </trkpt>
      <trkpt lat="45.02032" lon="1.08652">
        <ele>127.24547051649</ele>
        <time>2021-07-11T07:35:10.316Z</time>
      </trkpt>
      <trkpt lat="45.02031" lon="1.08669">
        <ele>123.70698932747</ele>
        <time>2021-07-11T07:35:18.580Z</time>
      </trkpt>
      <trkpt lat="45.02027" lon="1.08693">
        <ele>120.18613798643</ele>
        <time>2021-07-11T07:35:26.847Z</time>
      </trkpt>
      <trkpt lat="45.01996" lon="1.08786">
        <ele>116.46803887552</ele>
        <time>2021-07-11T07:35:35.129Z</time>
      </trkpt>
      <trkpt lat="45.01955" lon="1.08878">
        <ele>112.84908603705</ele>
        <time>2021-07-11T07:35:43.426Z</time>
      </trkpt>
      <trkpt lat="45.01941" lon="1.08905">
        <ele>109.75835394349</ele>
        <time>2021-07-11T07:35:51.728Z</time>
      </trkpt>
      <trkpt lat="45.01935" lon="1.08921">
        <ele>106.88831611443</ele>
        <time>2021-07-11T07:36:00.033Z</time>
      </trkpt>
      <trkpt lat="45.01917" lon="1.08954">
        <ele>104.12316286793</ele>
        <time>2021-07-11T07:36:08.343Z</time>
      </trkpt>
      <trkpt lat="45.01908" lon="1.08967">
        <ele>101.57632329077</ele>
        <time>2021-07-11T07:36:16.656Z</time>
      </trkpt>
      <trkpt lat="45.01877" lon="1.09006">
        <ele>99.10637121975</ele>
        <time>2021-07-11T07:36:24.977Z</time>
      </trkpt>
      <trkpt lat="45.01859" lon="1.09022">
        <ele>96.721936376</ele>
        <time>2021-07-11T07:36:33.303Z</time>
      </trkpt>
      <trkpt lat="45.01848" lon="1.09027">
        <ele>94.53960801763</ele>
        <time>2021-07-11T07:36:41.631Z</time>
      </trkpt>
      <trkpt lat="45.01834" lon="1.09031">
        <ele>92.54191657874</ele>
        <time>2021-07-11T07:36:49.962Z</time>
      </trkpt>
      <trkpt lat="45.0181" lon="1.09047">
        <ele>90.69378894084</ele>
        <time>2021-07-11T07:36:58.298Z</time>
      </trkpt>
      <trkpt lat="45.01799" lon="1.09057">
        <ele>88.96996352014</ele>
        <time>2021-07-11T07:37:06.637Z</time>
      </trkpt>
      <trkpt lat="45.01784" lon="1.09076">
        <ele>87.31303262983</ele>
        <time>2021-07-11T07:37:14.980Z</time>
      </trkpt>
      <trkpt lat="45.01768" lon="1.09101">
        <ele>85.72345819928</ele>
        <time>2021-07-11T07:37:23.328Z</time>
      </trkpt>
      <trkpt lat="45.01749" lon="1.09122">
        <ele>84.25067181403</ele>
        <time>2021-07-11T07:37:31.680Z</time>
      </trkpt>
      <trkpt lat="45.01737" lon="1.09131">
        <ele>82.90287364266</ele>
        <time>2021-07-11T07:37:40.035Z</time>
      </trkpt>
      <trkpt lat="45.01708" lon="1.09138">
        <ele>81.58530604515</ele>
        <time>2021-07-11T07:37:48.396Z</time>
      </trkpt>
      <trkpt lat="45.01703" lon="1.09146">
        <ele>80.43390605874</ele>
        <time>2021-07-11T07:37:56.758Z</time>
      </trkpt>
      <trkpt lat="45.01697" lon="1.0916">
        <ele>79.42915013892</ele>
        <time>2021-07-11T07:38:05.123Z</time>
      </trkpt>
      <trkpt lat="45.01689" lon="1.09201">
        <ele>78.64973574468</ele>
        <time>2021-07-11T07:38:13.494Z</time>
      </trkpt>
      <trkpt lat="45.01683" lon="1.09208">
        <ele>77.70837492025</ele>
        <time>2021-07-11T07:38:21.866Z</time>
      </trkpt>
      <trkpt lat="45.01667" lon="1.09199">
        <ele>76.67975090049</ele>
        <time>2021-07-11T07:38:30.242Z</time>
      </trkpt>
      <trkpt lat="45.01648" lon="1.09184">
        <ele>75.65273015611</ele>
        <time>2021-07-11T07:38:38.622Z</time>
      </trkpt>
      <trkpt lat="45.01614" lon="1.09154">
        <ele>74.53544957934</ele>
        <time>2021-07-11T07:38:47.010Z</time>
      </trkpt>
      <trkpt lat="45.016" lon="1.09138">
        <ele>73.630855482</ele>
        <time>2021-07-11T07:38:55.402Z</time>
      </trkpt>
      <trkpt lat="45.01593" lon="1.09138">
        <ele>72.89167251875</ele>
        <time>2021-07-11T07:39:03.795Z</time>
      </trkpt>
      <trkpt lat="45.01564" lon="1.09105">
        <ele>72.07451640423</ele>
        <time>2021-07-11T07:39:12.196Z</time>
      </trkpt>
      <trkpt lat="45.01488" lon="1.09032">
        <ele>71.17074511322</ele>
        <time>2021-07-11T07:39:20.615Z</time>
      </trkpt>
      <trkpt lat="45.01464" lon="1.09011">
        <ele>70.58534033411</ele>
        <time>2021-07-11T07:39:29.040Z</time>
      </trkpt>
      <trkpt lat="45.01447" lon="1.08999">
        <ele>70.12961675203</ele>
        <time>2021-07-11T07:39:37.468Z</time>
      </trkpt>
      <trkpt lat="45.01405" lon="1.08977">
        <ele>69.75977726741</ele>
        <time>2021-07-11T07:39:45.905Z</time>
      </trkpt>
      <trkpt lat="45.01383" lon="1.08968">
        <ele>69.49370153964</ele>
        <time>2021-07-11T07:39:54.347Z</time>
      </trkpt>
      <trkpt lat="45.01357" lon="1.0896">
        <ele>69.32667854849</ele>
        <time>2021-07-11T07:40:02.794Z</time>
      </trkpt>
      <trkpt lat="45.01326" lon="1.08955">
        <ele>69.23453091016</ele>
        <time>2021-07-11T07:40:11.247Z</time>
      </trkpt>
      <trkpt lat="45.01272" lon="1.08954">
        <ele>69.24420647667</ele>
        <time>2021-07-11T07:40:19.711Z</time>
      </trkpt>
      <trkpt lat="45.01249" lon="1.08951">
        <ele>69.40009120864</ele>
        <time>2021-07-11T07:40:28.180Z</time>
      </trkpt>
      <trkpt lat="45.01231" lon="1.08947">
        <ele>69.66043940514</ele>
        <time>2021-07-11T07:40:36.653Z</time>
      </trkpt>
      <trkpt lat="45.01131" lon="1.08905">
        <ele>70.08981419224</ele>
        <time>2021-07-11T07:40:45.147Z</time>
      </trkpt>
      <trkpt lat="45.01114" lon="1.089">
        <ele>70.576909854</ele>
        <time>2021-07-11T07:40:53.644Z</time>
      </trkpt>
      <trkpt lat="45.01083" lon="1.08904">
        <ele>71.18215419306</ele>
        <time>2021-07-11T07:41:02.147Z</time>
      </trkpt>
      <trkpt lat="45.01086" lon="1.0889">
        <ele>71.8460259042</ele>
        <time>2021-07-11T07:41:10.652Z</time>
      </trkpt>
      <trkpt lat="45.01109" lon="1.08755">
        <ele>72.63828619879</ele>
        <time>2021-07-11T07:41:19.177Z</time>
      </trkpt>
      <trkpt lat="45.0112" lon="1.08683">
        <ele>73.68179638642</ele>
        <time>2021-07-11T07:41:27.712Z</time>
      </trkpt>
      <trkpt lat="45.0112" lon="1.08651">
        <ele>74.71635734429</ele>
        <time>2021-07-11T07:41:36.252Z</time>
      </trkpt>
      <trkpt lat="45.01118" lon="1.0864">
        <ele>75.74484315484</ele>
        <time>2021-07-11T07:41:44.794Z</time>
      </trkpt>
      <trkpt lat="45.01104" lon="1.08596">
        <ele>76.92365892091</ele>
        <time>2021-07-11T07:41:53.343Z</time>
      </trkpt>
      <trkpt lat="45.00978" lon="1.08231">
        <ele>78.31024371627</ele>
        <time>2021-07-11T07:42:01.949Z</time>
      </trkpt>
      <trkpt lat="45.00926" lon="1.08252">
        <ele>79.63048582589</ele>
        <time>2021-07-11T07:42:10.566Z</time>
      </trkpt>
      <trkpt lat="45.0089" lon="1.08263">
        <ele>80.88788356745</ele>
        <time>2021-07-11T07:42:19.190Z</time>
      </trkpt>
      <trkpt lat="45.00802" lon="1.0828">
        <ele>82.29025987328</ele>
        <time>2021-07-11T07:42:27.832Z</time>
      </trkpt>
      <trkpt lat="45.00793" lon="1.0828">
        <ele>83.55607769796</ele>
        <time>2021-07-11T07:42:36.476Z</time>
      </trkpt>
      <trkpt lat="45.0078" lon="1.08278">
        <ele>84.85638000567</ele>
        <time>2021-07-11T07:42:45.123Z</time>
      </trkpt>
      <trkpt lat="45.0077" lon="1.0828">
        <ele>86.16370171867</ele>
        <time>2021-07-11T07:42:53.772Z</time>
      </trkpt>
      <trkpt lat="45.0076" lon="1.08287">
        <ele>87.49996074139</ele>
        <time>2021-07-11T07:43:02.423Z</time>
      </trkpt>
      <trkpt lat="45.00748" lon="1.083">
        <ele>88.86853335752</ele>
        <time>2021-07-11T07:43:11.077Z</time>
      </trkpt>
      <trkpt lat="45.00725" lon="1.08353">
        <ele>90.2434806335</ele>
        <time>2021-07-11T07:43:19.740Z</time>
      </trkpt>
      <trkpt lat="45.00709" lon="1.08384">
        <ele>91.64900154474</ele>
        <time>2021-07-11T07:43:28.408Z</time>
      </trkpt>
      <trkpt lat="45.00702" lon="1.08392">
        <ele>93.12624335637</ele>
        <time>2021-07-11T07:43:37.078Z</time>
      </trkpt>
      <trkpt lat="45.00694" lon="1.08395">
        <ele>94.67102907866</ele>
        <time>2021-07-11T07:43:45.749Z</time>
      </trkpt>
      <trkpt lat="45.0064" lon="1.0838">
        <ele>96.45432485125</ele>
        <time>2021-07-11T07:43:54.432Z</time>
      </trkpt>
      <trkpt lat="45.00628" lon="1.08379">
        <ele>98.13278208265</ele>
        <time>2021-07-11T07:44:03.117Z</time>
      </trkpt>
      <trkpt lat="45.00623" lon="1.08383">
        <ele>99.84796537853</ele>
        <time>2021-07-11T07:44:11.803Z</time>
      </trkpt>
      <trkpt lat="45.00608" lon="1.08399">
        <ele>101.66165773106</ele>
        <time>2021-07-11T07:44:20.493Z</time>
      </trkpt>
      <trkpt lat="45.00583" lon="1.08434">
        <ele>103.60123570296</ele>
        <time>2021-07-11T07:44:29.190Z</time>
      </trkpt>
      <trkpt lat="45.00575" lon="1.08437">
        <ele>105.55600225845</ele>
        <time>2021-07-11T07:44:37.889Z</time>
      </trkpt>
      <trkpt lat="45.00554" lon="1.08433">
        <ele>107.62270514724</ele>
        <time>2021-07-11T07:44:46.592Z</time>
      </trkpt>
      <trkpt lat="45.00521" lon="1.08458">
        <ele>109.87525365378</ele>
        <time>2021-07-11T07:44:55.302Z</time>
      </trkpt>
      <trkpt lat="45.0051" lon="1.08465">
        <ele>112.133177994</ele>
        <time>2021-07-11T07:45:04.015Z</time>
      </trkpt>
      <trkpt lat="45.00486" lon="1.08461">
        <ele>114.55062274896</ele>
        <time>2021-07-11T07:45:12.732Z</time>
      </trkpt>
      <trkpt lat="45.00477" lon="1.08462">
        <ele>116.99804338403</ele>
        <time>2021-07-11T07:45:21.451Z</time>
      </trkpt>
      <trkpt lat="45.00449" lon="1.08471">
        <ele>119.64373756474</ele>
        <time>2021-07-11T07:45:30.176Z</time>
      </trkpt>
      <trkpt lat="45.00417" lon="1.08485">
        <ele>122.43836483251</ele>
        <time>2021-07-11T07:45:38.908Z</time>
      </trkpt>
      <trkpt lat="45.00369" lon="1.08516">
        <ele>125.3412806346</ele>
        <time>2021-07-11T07:45:47.650Z</time>
      </trkpt>
      <trkpt lat="45.00354" lon="1.08524">
        <ele>128.20620758348</ele>
        <time>2021-07-11T07:45:56.395Z</time>
      </trkpt>
      <trkpt lat="45.00288" lon="1.08547">
        <ele>131.27859111363</ele>
        <time>2021-07-11T07:46:05.154Z</time>
      </trkpt>
      <trkpt lat="45.00271" lon="1.08559">
        <ele>134.22942856054</ele>
        <time>2021-07-11T07:46:13.917Z</time>
      </trkpt>
      <trkpt lat="45.00254" lon="1.08575">
        <ele>137.302470525</ele>
        <time>2021-07-11T07:46:22.684Z</time>
      </trkpt>
      <trkpt lat="45.00243" lon="1.08581">
        <ele>140.36742270622</ele>
        <time>2021-07-11T07:46:31.453Z</time>
      </trkpt>
      <trkpt lat="45.00228" lon="1.08586">
        <ele>143.48673752893</ele>
        <time>2021-07-11T07:46:40.225Z</time>
      </trkpt>
      <trkpt lat="45.00195" lon="1.08589">
        <ele>146.75249091416</ele>
        <time>2021-07-11T07:46:49.004Z</time>
      </trkpt>
      <trkpt lat="45.00094" lon="1.08592">
        <ele>150.48504819755</ele>
        <time>2021-07-11T07:46:57.803Z</time>
      </trkpt>
      <trkpt lat="45.00075" lon="1.08591">
        <ele>153.61853252351</ele>
        <time>2021-07-11T07:47:06.606Z</time>
      </trkpt>
      <trkpt lat="45.00062" lon="1.08588">
        <ele>156.73853670679</ele>
        <time>2021-07-11T07:47:15.412Z</time>
      </trkpt>
      <trkpt lat="45.0005" lon="1.0858">
        <ele>159.83264494568</ele>
        <time>2021-07-11T07:47:24.220Z</time>
      </trkpt>
      <trkpt lat="45.00042" lon="1.08579">
        <ele>162.83090027591</ele>
        <time>2021-07-11T07:47:33.030Z</time>
      </trkpt>
      <trkpt lat="45.00037" lon="1.08581">
        <ele>166.26942878655</ele>
        <time>2021-07-11T07:47:41.841Z</time>
      </trkpt>
      <trkpt lat="45.00031" lon="1.08588">
        <ele>169.16319680965</ele>
        <time>2021-07-11T07:47:50.653Z</time>
      </trkpt>
      <trkpt lat="45.00028" lon="1.08598">
        <ele>171.97760812923</ele>
        <time>2021-07-11T07:47:59.467Z</time>
      </trkpt>
      <trkpt lat="45.00028" lon="1.08612">
        <ele>174.68450020748</ele>
        <time>2021-07-11T07:48:08.283Z</time>
      </trkpt>
      <trkpt lat="45.00038" lon="1.08678">
        <ele>177.3305101161</ele>
        <time>2021-07-11T07:48:17.109Z</time>
      </trkpt>
      <trkpt lat="45.00039" lon="1.08698">
        <ele>179.80370940056</ele>
        <time>2021-07-11T07:48:25.938Z</time>
      </trkpt>
      <trkpt lat="45.00035" lon="1.08715">
        <ele>182.21338796546</ele>
        <time>2021-07-11T07:48:34.769Z</time>
      </trkpt>
      <trkpt lat="45.00029" lon="1.08728">
        <ele>184.53570035682</ele>
        <time>2021-07-11T07:48:43.602Z</time>
      </trkpt>
      <trkpt lat="45.00022" lon="1.08738">
        <ele>186.75041639882</ele>
        <time>2021-07-11T07:48:52.437Z</time>
      </trkpt>
      <trkpt lat="45.00003" lon="1.08756">
        <ele>188.97445043633</ele>
        <time>2021-07-11T07:49:01.277Z</time>
      </trkpt>
      <trkpt lat="44.99983" lon="1.0877">
        <ele>191.02887177698</ele>
        <time>2021-07-11T07:49:10.121Z</time>
      </trkpt>
      <trkpt lat="44.99965" lon="1.08779">
        <ele>192.94416634305</ele>
        <time>2021-07-11T07:49:18.969Z</time>
      </trkpt>
      <trkpt lat="44.99947" lon="1.08784">
        <ele>194.73824627898</ele>
        <time>2021-07-11T07:49:27.821Z</time>
      </trkpt>
      <trkpt lat="44.99936" lon="1.08785">
        <ele>196.4144470124</ele>
        <time>2021-07-11T07:49:36.675Z</time>
      </trkpt>
      <trkpt lat="44.99903" lon="1.08782">
        <ele>198.1892024769</ele>
        <time>2021-07-11T07:49:45.536Z</time>
      </trkpt>
      <trkpt lat="44.99879" lon="1.08786">
        <ele>199.82938968422</ele>
        <time>2021-07-11T07:49:54.401Z</time>
      </trkpt>
      <trkpt lat="44.99861" lon="1.08791">
        <ele>201.20045433827</ele>
        <time>2021-07-11T07:50:03.270Z</time>
      </trkpt>
      <trkpt lat="44.99826" lon="1.08808">
        <ele>202.59104497199</ele>
        <time>2021-07-11T07:50:12.147Z</time>
      </trkpt>
      <trkpt lat="44.99802" lon="1.08828">
        <ele>203.80538880767</ele>
        <time>2021-07-11T07:50:21.029Z</time>
      </trkpt>
      <trkpt lat="44.99773" lon="1.08857">
        <ele>204.92346764872</ele>
        <time>2021-07-11T07:50:29.918Z</time>
      </trkpt>
      <trkpt lat="44.99744" lon="1.08881">
        <ele>206.08190007423</ele>
        <time>2021-07-11T07:50:38.814Z</time>
      </trkpt>
      <trkpt lat="44.99719" lon="1.08896">
        <ele>207.18265888043</ele>
        <time>2021-07-11T07:50:47.716Z</time>
      </trkpt>
      <trkpt lat="44.99706" lon="1.089">
        <ele>208.1661915083</ele>
        <time>2021-07-11T07:50:56.620Z</time>
      </trkpt>
      <trkpt lat="44.9969" lon="1.08901">
        <ele>209.00371897783</ele>
        <time>2021-07-11T07:51:05.527Z</time>
      </trkpt>
      <trkpt lat="44.99685" lon="1.08899">
        <ele>209.84374471964</ele>
        <time>2021-07-11T07:51:14.435Z</time>
      </trkpt>
      <trkpt lat="44.99677" lon="1.0891">
        <ele>210.61808332549</ele>
        <time>2021-07-11T07:51:23.346Z</time>
      </trkpt>
      <trkpt lat="44.99651" lon="1.08933">
        <ele>211.35464814667</ele>
        <time>2021-07-11T07:51:32.263Z</time>
      </trkpt>
      <trkpt lat="44.99624" lon="1.08948">
        <ele>212.24238127021</ele>
        <time>2021-07-11T07:51:41.186Z</time>
      </trkpt>
      <trkpt lat="44.99594" lon="1.08968">
        <ele>213.01800581457</ele>
        <time>2021-07-11T07:51:50.115Z</time>
      </trkpt>
      <trkpt lat="44.99574" lon="1.08983">
        <ele>213.67310113392</ele>
        <time>2021-07-11T07:51:59.049Z</time>
      </trkpt>
      <trkpt lat="44.99544" lon="1.09011">
        <ele>214.33587420032</ele>
        <time>2021-07-11T07:52:07.990Z</time>
      </trkpt>
      <trkpt lat="44.99519" lon="1.09037">
        <ele>214.92801987478</ele>
        <time>2021-07-11T07:52:16.937Z</time>
      </trkpt>
      <trkpt lat="44.99472" lon="1.0908">
        <ele>215.56981739892</ele>
        <time>2021-07-11T07:52:25.895Z</time>
      </trkpt>
      <trkpt lat="44.99459" lon="1.09096">
        <ele>216.04802258674</ele>
        <time>2021-07-11T07:52:34.857Z</time>
      </trkpt>
      <trkpt lat="44.99418" lon="1.09167">
        <ele>216.4558554959</ele>
        <time>2021-07-11T07:52:43.832Z</time>
      </trkpt>
      <trkpt lat="44.99377" lon="1.09233">
        <ele>216.90694634894</ele>
        <time>2021-07-11T07:52:52.819Z</time>
      </trkpt>
      <trkpt lat="44.99325" lon="1.09308">
        <ele>217.35949941694</ele>
        <time>2021-07-11T07:53:01.821Z</time>
      </trkpt>
      <trkpt lat="44.9932" lon="1.09293">
        <ele>217.385438125</ele>
        <time>2021-07-11T07:53:10.826Z</time>
      </trkpt>
      <trkpt lat="44.99303" lon="1.09259">
        <ele>217.20394693853</ele>
        <time>2021-07-11T07:53:19.836Z</time>
      </trkpt>
      <trkpt lat="44.99293" lon="1.09252">
        <ele>217.09706565621</ele>
        <time>2021-07-11T07:53:28.849Z</time>
      </trkpt>
      <trkpt lat="44.99287" lon="1.09252">
        <ele>216.93264075228</ele>
        <time>2021-07-11T07:53:37.863Z</time>
      </trkpt>
      <trkpt lat="44.9928" lon="1.09256">
        <ele>216.68783629581</ele>
        <time>2021-07-11T07:53:46.878Z</time>
      </trkpt>
      <trkpt lat="44.99195" lon="1.09319">
        <ele>216.75848135202</ele>
        <time>2021-07-11T07:53:55.913Z</time>
      </trkpt>
      <trkpt lat="44.99172" lon="1.09331">
        <ele>216.42055297788</ele>
        <time>2021-07-11T07:54:04.953Z</time>
      </trkpt>
      <trkpt lat="44.99162" lon="1.09335">
        <ele>215.89299753988</ele>
        <time>2021-07-11T07:54:13.995Z</time>
      </trkpt>
      <trkpt lat="44.99151" lon="1.09334">
        <ele>215.22501732405</ele>
        <time>2021-07-11T07:54:23.039Z</time>
      </trkpt>
      <trkpt lat="44.99145" lon="1.0933">
        <ele>214.43309883474</ele>
        <time>2021-07-11T07:54:32.084Z</time>
      </trkpt>
      <trkpt lat="44.99123" lon="1.09311">
        <ele>213.43477637313</ele>
        <time>2021-07-11T07:54:41.134Z</time>
      </trkpt>
      <trkpt lat="44.99112" lon="1.09294">
        <ele>212.3788182297</ele>
        <time>2021-07-11T07:54:50.188Z</time>
      </trkpt>
      <trkpt lat="44.99109" lon="1.09284">
        <ele>211.29505655048</ele>
        <time>2021-07-11T07:54:59.243Z</time>
      </trkpt>
      <trkpt lat="44.99111" lon="1.09246">
        <ele>209.98184662985</ele>
        <time>2021-07-11T07:55:08.303Z</time>
      </trkpt>
      <trkpt lat="44.99108" lon="1.09229">
        <ele>208.75216661988</ele>
        <time>2021-07-11T07:55:17.366Z</time>
      </trkpt>
      <trkpt lat="44.99096" lon="1.09173">
        <ele>207.24520418719</ele>
        <time>2021-07-11T07:55:26.437Z</time>
      </trkpt>
      <trkpt lat="44.99092" lon="1.09163">
        <ele>206.02451562274</ele>
        <time>2021-07-11T07:55:35.510Z</time>
      </trkpt>
      <trkpt lat="44.99086" lon="1.09155">
        <ele>204.81757229247</ele>
        <time>2021-07-11T07:55:44.585Z</time>
      </trkpt>
      <trkpt lat="44.99061" lon="1.09145">
        <ele>203.62228719767</ele>
        <time>2021-07-11T07:55:53.665Z</time>
      </trkpt>
      <trkpt lat="44.99054" lon="1.09139">
        <ele>202.49246285531</ele>
        <time>2021-07-11T07:56:02.746Z</time>
      </trkpt>
      <trkpt lat="44.99045" lon="1.09135">
        <ele>201.42947137152</ele>
        <time>2021-07-11T07:56:11.829Z</time>
      </trkpt>
      <trkpt lat="44.99021" lon="1.09129">
        <ele>200.28970713073</ele>
        <time>2021-07-11T07:56:20.917Z</time>
      </trkpt>
      <trkpt lat="44.99015" lon="1.09129">
        <ele>199.35104374282</ele>
        <time>2021-07-11T07:56:30.006Z</time>
      </trkpt>
      <trkpt lat="44.99002" lon="1.09136">
        <ele>198.45549953587</ele>
        <time>2021-07-11T07:56:39.098Z</time>
      </trkpt>
      <trkpt lat="44.98992" lon="1.09136">
        <ele>197.66421482788</ele>
        <time>2021-07-11T07:56:48.192Z</time>
      </trkpt>
      <trkpt lat="44.98964" lon="1.09135">
        <ele>196.8244305418</ele>
        <time>2021-07-11T07:56:57.292Z</time>
      </trkpt>
      <trkpt lat="44.98937" lon="1.09128">
        <ele>196.28533569293</ele>
        <time>2021-07-11T07:57:06.397Z</time>
      </trkpt>
      <trkpt lat="44.98928" lon="1.09132">
        <ele>195.89275334167</ele>
        <time>2021-07-11T07:57:15.504Z</time>
      </trkpt>
      <trkpt lat="44.98917" lon="1.09153">
        <ele>195.66949951411</ele>
        <time>2021-07-11T07:57:24.615Z</time>
      </trkpt>
      <trkpt lat="44.98903" lon="1.09197">
        <ele>195.65138591618</ele>
        <time>2021-07-11T07:57:33.733Z</time>
      </trkpt>
      <trkpt lat="44.98892" lon="1.09237">
        <ele>195.64302217759</ele>
        <time>2021-07-11T07:57:42.857Z</time>
      </trkpt>
      <trkpt lat="44.98887" lon="1.09248">
        <ele>195.69419650256</ele>
        <time>2021-07-11T07:57:51.983Z</time>
      </trkpt>
      <trkpt lat="44.98873" lon="1.09268">
        <ele>195.81118193797</ele>
        <time>2021-07-11T07:58:01.113Z</time>
      </trkpt>
      <trkpt lat="44.98865" lon="1.09285">
        <ele>196.14405025994</ele>
        <time>2021-07-11T07:58:10.246Z</time>
      </trkpt>
      <trkpt lat="44.98858" lon="1.0931">
        <ele>196.52587464672</ele>
        <time>2021-07-11T07:58:19.382Z</time>
      </trkpt>
      <trkpt lat="44.98852" lon="1.09301">
        <ele>196.86240868434</ele>
        <time>2021-07-11T07:58:28.520Z</time>
      </trkpt>
      <trkpt lat="44.98849" lon="1.0929">
        <ele>197.19293411733</ele>
        <time>2021-07-11T07:58:37.660Z</time>
      </trkpt>
      <trkpt lat="44.98845" lon="1.09282">
        <ele>197.54528625838</ele>
        <time>2021-07-11T07:58:46.801Z</time>
      </trkpt>
      <trkpt lat="44.98831" lon="1.09274">
        <ele>197.9771277425</ele>
        <time>2021-07-11T07:58:55.945Z</time>
      </trkpt>
      <trkpt lat="44.98824" lon="1.09267">
        <ele>198.32068254973</ele>
        <time>2021-07-11T07:59:05.091Z</time>
      </trkpt>
      <trkpt lat="44.98818" lon="1.09229">
        <ele>198.52271663941</ele>
        <time>2021-07-11T07:59:14.242Z</time>
      </trkpt>
      <trkpt lat="44.98813" lon="1.09217">
        <ele>198.75805848208</ele>
        <time>2021-07-11T07:59:23.395Z</time>
      </trkpt>
      <trkpt lat="44.98807" lon="1.09209">
        <ele>198.94497011299</ele>
        <time>2021-07-11T07:59:32.550Z</time>
      </trkpt>
      <trkpt lat="44.9879" lon="1.09203">
        <ele>199.15130311213</ele>
        <time>2021-07-11T07:59:41.709Z</time>
      </trkpt>
      <trkpt lat="44.98788" lon="1.09201">
        <ele>199.08498127385</ele>
        <time>2021-07-11T07:59:50.868Z</time>
      </trkpt>
      <trkpt lat="44.98788" lon="1.0919">
        <ele>198.88180174383</ele>
        <time>2021-07-11T08:00:00.029Z</time>
      </trkpt>
      <trkpt lat="44.98794" lon="1.09174">
        <ele>198.48036634146</ele>
        <time>2021-07-11T08:00:09.192Z</time>
      </trkpt>
      <trkpt lat="44.98795" lon="1.09152">
        <ele>198.01139101863</ele>
        <time>2021-07-11T08:00:18.358Z</time>
      </trkpt>
      <trkpt lat="44.98796" lon="1.09148">
        <ele>197.38499219622</ele>
        <time>2021-07-11T08:00:27.525Z</time>
      </trkpt>
      <trkpt lat="44.98801" lon="1.09142">
        <ele>196.53782663285</ele>
        <time>2021-07-11T08:00:36.693Z</time>
      </trkpt>
      <trkpt lat="44.98809" lon="1.09115">
        <ele>195.54315065285</ele>
        <time>2021-07-11T08:00:45.865Z</time>
      </trkpt>
      <trkpt lat="44.98821" lon="1.09082">
        <ele>194.34318118279</ele>
        <time>2021-07-11T08:00:55.043Z</time>
      </trkpt>
      <trkpt lat="44.98848" lon="1.09037">
        <ele>192.83988545155</ele>
        <time>2021-07-11T08:01:04.229Z</time>
      </trkpt>
      <trkpt lat="44.98856" lon="1.09014">
        <ele>191.44265936886</ele>
        <time>2021-07-11T08:01:13.419Z</time>
      </trkpt>
      <trkpt lat="44.9887" lon="1.09">
        <ele>189.83700739225</ele>
        <time>2021-07-11T08:01:22.612Z</time>
      </trkpt>
      <trkpt lat="44.989" lon="1.08963">
        <ele>188.1311666588</ele>
        <time>2021-07-11T08:01:31.813Z</time>
      </trkpt>
      <trkpt lat="44.98917" lon="1.08928">
        <ele>186.42168031338</ele>
        <time>2021-07-11T08:01:41.020Z</time>
      </trkpt>
      <trkpt lat="44.98928" lon="1.08913">
        <ele>184.46834377544</ele>
        <time>2021-07-11T08:01:50.230Z</time>
      </trkpt>
      <trkpt lat="44.9894" lon="1.08885">
        <ele>182.42409512404</ele>
        <time>2021-07-11T08:01:59.445Z</time>
      </trkpt>
      <trkpt lat="44.98947" lon="1.08856">
        <ele>180.47816054432</ele>
        <time>2021-07-11T08:02:08.664Z</time>
      </trkpt>
      <trkpt lat="44.98952" lon="1.08852">
        <ele>178.39633741476</ele>
        <time>2021-07-11T08:02:17.884Z</time>
      </trkpt>
      <trkpt lat="44.98961" lon="1.08855">
        <ele>176.20874080312</ele>
        <time>2021-07-11T08:02:27.106Z</time>
      </trkpt>
      <trkpt lat="44.98967" lon="1.08854">
        <ele>174.04871806289</ele>
        <time>2021-07-11T08:02:36.329Z</time>
      </trkpt>
      <trkpt lat="44.98979" lon="1.08849">
        <ele>171.84361649115</ele>
        <time>2021-07-11T08:02:45.555Z</time>
      </trkpt>
      <trkpt lat="44.99021" lon="1.088">
        <ele>169.26350817372</ele>
        <time>2021-07-11T08:02:54.792Z</time>
      </trkpt>
      <trkpt lat="44.99035" lon="1.08793">
        <ele>166.98037738438</ele>
        <time>2021-07-11T08:03:04.032Z</time>
      </trkpt>
      <trkpt lat="44.99077" lon="1.08765">
        <ele>164.91048734064</ele>
        <time>2021-07-11T08:03:13.281Z</time>
      </trkpt>
      <trkpt lat="44.99103" lon="1.08751">
        <ele>162.48203280894</ele>
        <time>2021-07-11T08:03:22.536Z</time>
      </trkpt>
      <trkpt lat="44.99112" lon="1.08747">
        <ele>160.24196020394</ele>
        <time>2021-07-11T08:03:31.792Z</time>
      </trkpt>
      <trkpt lat="44.99127" lon="1.08745">
        <ele>157.98696598434</ele>
        <time>2021-07-11T08:03:41.052Z</time>
      </trkpt>
      <trkpt lat="44.99158" lon="1.08743">
        <ele>155.76515125609</ele>
        <time>2021-07-11T08:03:50.318Z</time>
      </trkpt>
      <trkpt lat="44.99178" lon="1.08735">
        <ele>153.59301616114</ele>
        <time>2021-07-11T08:03:59.588Z</time>
      </trkpt>
      <trkpt lat="44.99185" lon="1.08735">
        <ele>151.62987437816</ele>
        <time>2021-07-11T08:04:08.859Z</time>
      </trkpt>
      <trkpt lat="44.99213" lon="1.08707">
        <ele>149.73877204884</ele>
        <time>2021-07-11T08:04:18.137Z</time>
      </trkpt>
      <trkpt lat="44.99262" lon="1.08665">
        <ele>148.01915796719</ele>
        <time>2021-07-11T08:04:27.427Z</time>
      </trkpt>
      <trkpt lat="44.99325" lon="1.08615">
        <ele>146.3417804617</ele>
        <time>2021-07-11T08:04:36.731Z</time>
      </trkpt>
      <trkpt lat="44.99376" lon="1.08578">
        <ele>144.68312965348</ele>
        <time>2021-07-11T08:04:46.046Z</time>
      </trkpt>
      <trkpt lat="44.99399" lon="1.08554">
        <ele>143.24101295866</ele>
        <time>2021-07-11T08:04:55.367Z</time>
      </trkpt>
      <trkpt lat="44.99419" lon="1.0852">
        <ele>142.21139807511</ele>
        <time>2021-07-11T08:05:04.695Z</time>
      </trkpt>
      <trkpt lat="44.99446" lon="1.08462">
        <ele>141.06508469373</ele>
        <time>2021-07-11T08:05:14.032Z</time>
      </trkpt>
      <trkpt lat="44.99462" lon="1.08432">
        <ele>139.98957401365</ele>
        <time>2021-07-11T08:05:23.375Z</time>
      </trkpt>
      <trkpt lat="44.9949" lon="1.08385">
        <ele>138.86333210341</ele>
        <time>2021-07-11T08:05:32.726Z</time>
      </trkpt>
      <trkpt lat="44.9951" lon="1.08341">
        <ele>137.80730383404</ele>
        <time>2021-07-11T08:05:42.085Z</time>
      </trkpt>
      <trkpt lat="44.99522" lon="1.08285">
        <ele>136.94228616677</ele>
        <time>2021-07-11T08:05:51.452Z</time>
      </trkpt>
      <trkpt lat="44.99531" lon="1.08212">
        <ele>136.36327768661</ele>
        <time>2021-07-11T08:06:00.830Z</time>
      </trkpt>
      <trkpt lat="44.99529" lon="1.08201">
        <ele>135.87380454221</ele>
        <time>2021-07-11T08:06:10.209Z</time>
      </trkpt>
      <trkpt lat="44.99523" lon="1.08189">
        <ele>135.49914370925</ele>
        <time>2021-07-11T08:06:19.590Z</time>
      </trkpt>
      <trkpt lat="44.99518" lon="1.08182">
        <ele>135.25420569416</ele>
        <time>2021-07-11T08:06:28.973Z</time>
      </trkpt>
      <trkpt lat="44.99504" lon="1.0817">
        <ele>135.11202233973</ele>
        <time>2021-07-11T08:06:38.359Z</time>
      </trkpt>
      <trkpt lat="44.99478" lon="1.08156">
        <ele>135.07800439717</ele>
        <time>2021-07-11T08:06:47.751Z</time>
      </trkpt>
      <trkpt lat="44.99447" lon="1.08144">
        <ele>135.16145195507</ele>
        <time>2021-07-11T08:06:57.149Z</time>
      </trkpt>
      <trkpt lat="44.9942" lon="1.08136">
        <ele>135.33240293626</ele>
        <time>2021-07-11T08:07:06.553Z</time>
      </trkpt>
      <trkpt lat="44.99387" lon="1.08132">
        <ele>135.61236075994</ele>
        <time>2021-07-11T08:07:15.963Z</time>
      </trkpt>
      <trkpt lat="44.99365" lon="1.08137">
        <ele>136.02176362041</ele>
        <time>2021-07-11T08:07:25.378Z</time>
      </trkpt>
      <trkpt lat="44.99339" lon="1.0814">
        <ele>136.54638578735</ele>
        <time>2021-07-11T08:07:34.798Z</time>
      </trkpt>
      <trkpt lat="44.99291" lon="1.08128">
        <ele>137.12134522648</ele>
        <time>2021-07-11T08:07:44.228Z</time>
      </trkpt>
      <trkpt lat="44.99245" lon="1.08107">
        <ele>137.59463422662</ele>
        <time>2021-07-11T08:07:53.667Z</time>
      </trkpt>
      <trkpt lat="44.99209" lon="1.08087">
        <ele>138.63664943443</ele>
        <time>2021-07-11T08:08:03.114Z</time>
      </trkpt>
      <trkpt lat="44.99184" lon="1.08077">
        <ele>139.13258169247</ele>
        <time>2021-07-11T08:08:12.566Z</time>
      </trkpt>
      <trkpt lat="44.99173" lon="1.08065">
        <ele>139.59424597977</ele>
        <time>2021-07-11T08:08:22.021Z</time>
      </trkpt>
      <trkpt lat="44.99169" lon="1.08063">
        <ele>140.12843262252</ele>
        <time>2021-07-11T08:08:31.477Z</time>
      </trkpt>
      <trkpt lat="44.99148" lon="1.08062">
        <ele>140.67499524672</ele>
        <time>2021-07-11T08:08:40.937Z</time>
      </trkpt>
      <trkpt lat="44.99119" lon="1.08072">
        <ele>141.34920949813</ele>
        <time>2021-07-11T08:08:50.403Z</time>
      </trkpt>
      <trkpt lat="44.99095" lon="1.08077">
        <ele>142.11100714485</ele>
        <time>2021-07-11T08:08:59.874Z</time>
      </trkpt>
      <trkpt lat="44.99064" lon="1.08064">
        <ele>142.75825849536</ele>
        <time>2021-07-11T08:09:09.351Z</time>
      </trkpt>
      <trkpt lat="44.99042" lon="1.08038">
        <ele>143.11312741975</ele>
        <time>2021-07-11T08:09:18.834Z</time>
      </trkpt>
      <trkpt lat="44.99051" lon="1.08003">
        <ele>142.99799289057</ele>
        <time>2021-07-11T08:09:28.322Z</time>
      </trkpt>
      <trkpt lat="44.99056" lon="1.07941">
        <ele>142.75684020372</ele>
        <time>2021-07-11T08:09:37.819Z</time>
      </trkpt>
      <trkpt lat="44.99034" lon="1.07929">
        <ele>143.0587565561</ele>
        <time>2021-07-11T08:09:47.321Z</time>
      </trkpt>
      <trkpt lat="44.99006" lon="1.07888">
        <ele>143.23732402633</ele>
        <time>2021-07-11T08:09:56.831Z</time>
      </trkpt>
      <trkpt lat="44.98993" lon="1.07871">
        <ele>143.34498251596</ele>
        <time>2021-07-11T08:10:06.345Z</time>
      </trkpt>
      <trkpt lat="44.98985" lon="1.07865">
        <ele>143.38627439277</ele>
        <time>2021-07-11T08:10:15.860Z</time>
      </trkpt>
      <trkpt lat="44.98978" lon="1.07848">
        <ele>143.26704082297</ele>
        <time>2021-07-11T08:10:25.378Z</time>
      </trkpt>
      <trkpt lat="44.98977" lon="1.07837">
        <ele>143.04554006852</ele>
        <time>2021-07-11T08:10:34.898Z</time>
      </trkpt>
      <trkpt lat="44.98956" lon="1.07817">
        <ele>142.89638450862</ele>
        <time>2021-07-11T08:10:44.423Z</time>
      </trkpt>
      <trkpt lat="44.98922" lon="1.0777">
        <ele>142.54401914425</ele>
        <time>2021-07-11T08:10:53.957Z</time>
      </trkpt>
      <trkpt lat="44.98909" lon="1.07757">
        <ele>142.12838604286</ele>
        <time>2021-07-11T08:11:03.495Z</time>
      </trkpt>
      <trkpt lat="44.98901" lon="1.07752">
        <ele>141.62310763249</ele>
        <time>2021-07-11T08:11:13.034Z</time>
      </trkpt>
      <trkpt lat="44.98893" lon="1.07753">
        <ele>141.0290664182</ele>
        <time>2021-07-11T08:11:22.575Z</time>
      </trkpt>
      <trkpt lat="44.98883" lon="1.0776">
        <ele>140.35108050576</ele>
        <time>2021-07-11T08:11:32.118Z</time>
      </trkpt>
      <trkpt lat="44.98875" lon="1.0777">
        <ele>139.57516038955</ele>
        <time>2021-07-11T08:11:41.663Z</time>
      </trkpt>
      <trkpt lat="44.98869" lon="1.07781">
        <ele>138.67180726234</ele>
        <time>2021-07-11T08:11:51.210Z</time>
      </trkpt>
      <trkpt lat="44.98867" lon="1.07789">
        <ele>137.67975791352</ele>
        <time>2021-07-11T08:12:00.758Z</time>
      </trkpt>
      <trkpt lat="44.98863" lon="1.07782">
        <ele>136.57347766248</ele>
        <time>2021-07-11T08:12:10.308Z</time>
      </trkpt>
      <trkpt lat="44.98861" lon="1.07774">
        <ele>135.38910208297</ele>
        <time>2021-07-11T08:12:19.859Z</time>
      </trkpt>
      <trkpt lat="44.98863" lon="1.07763">
        <ele>134.1299557406</ele>
        <time>2021-07-11T08:12:29.411Z</time>
      </trkpt>
      <trkpt lat="44.98854" lon="1.07758">
        <ele>132.7845768777</ele>
        <time>2021-07-11T08:12:38.965Z</time>
      </trkpt>
      <trkpt lat="44.98847" lon="1.07757">
        <ele>131.38916110929</ele>
        <time>2021-07-11T08:12:48.521Z</time>
      </trkpt>
      <trkpt lat="44.9884" lon="1.07758">
        <ele>129.95297156259</ele>
        <time>2021-07-11T08:12:58.078Z</time>
      </trkpt>
      <trkpt lat="44.98807" lon="1.07732">
        <ele>128.38530115051</ele>
        <time>2021-07-11T08:13:07.643Z</time>
      </trkpt>
      <trkpt lat="44.98795" lon="1.0772">
        <ele>126.86458007381</ele>
        <time>2021-07-11T08:13:17.211Z</time>
      </trkpt>
      <trkpt lat="44.98787" lon="1.07708">
        <ele>125.38224084198</ele>
        <time>2021-07-11T08:13:26.781Z</time>
      </trkpt>
      <trkpt lat="44.98771" lon="1.07691">
        <ele>123.97114765687</ele>
        <time>2021-07-11T08:13:36.355Z</time>
      </trkpt>
      <trkpt lat="44.98759" lon="1.0767">
        <ele>122.57078019668</ele>
        <time>2021-07-11T08:13:45.933Z</time>
      </trkpt>
      <trkpt lat="44.98737" lon="1.07639">
        <ele>121.23706871085</ele>
        <time>2021-07-11T08:13:55.517Z</time>
      </trkpt>
      <trkpt lat="44.98709" lon="1.07596">
        <ele>119.73829292804</ele>
        <time>2021-07-11T08:14:05.109Z</time>
      </trkpt>
      <trkpt lat="44.98689" lon="1.07568">
        <ele>118.48146617772</ele>
        <time>2021-07-11T08:14:14.707Z</time>
      </trkpt>
      <trkpt lat="44.98664" lon="1.07525">
        <ele>117.12459847379</ele>
        <time>2021-07-11T08:14:24.313Z</time>
      </trkpt>
      <trkpt lat="44.9865" lon="1.07477">
        <ele>116.01459202451</ele>
        <time>2021-07-11T08:14:33.926Z</time>
      </trkpt>
      <trkpt lat="44.98641" lon="1.07457">
        <ele>115.17502824739</ele>
        <time>2021-07-11T08:14:43.543Z</time>
      </trkpt>
      <trkpt lat="44.9863" lon="1.07426">
        <ele>114.45960824255</ele>
        <time>2021-07-11T08:14:53.165Z</time>
      </trkpt>
      <trkpt lat="44.98623" lon="1.07399">
        <ele>114.06779299405</ele>
        <time>2021-07-11T08:15:02.791Z</time>
      </trkpt>
      <trkpt lat="44.98617" lon="1.07365">
        <ele>114.24310945469</ele>
        <time>2021-07-11T08:15:12.422Z</time>
      </trkpt>
      <trkpt lat="44.9859" lon="1.07338">
        <ele>115.08031170147</ele>
        <time>2021-07-11T08:15:22.059Z</time>
      </trkpt>
      <trkpt lat="44.9857" lon="1.07321">
        <ele>116.06854395205</ele>
        <time>2021-07-11T08:15:31.701Z</time>
      </trkpt>
      <trkpt lat="44.98565" lon="1.07325">
        <ele>117.08062491085</ele>
        <time>2021-07-11T08:15:41.344Z</time>
      </trkpt>
      <trkpt lat="44.98539" lon="1.07366">
        <ele>118.16695803662</ele>
        <time>2021-07-11T08:15:50.995Z</time>
      </trkpt>
      <trkpt lat="44.98501" lon="1.07431">
        <ele>119.92063457895</ele>
        <time>2021-07-11T08:16:00.658Z</time>
      </trkpt>
      <trkpt lat="44.98449" lon="1.0749">
        <ele>121.70455330446</ele>
        <time>2021-07-11T08:16:10.334Z</time>
      </trkpt>
      <trkpt lat="44.98406" lon="1.07557">
        <ele>123.91983018911</ele>
        <time>2021-07-11T08:16:20.023Z</time>
      </trkpt>
      <trkpt lat="44.98396" lon="1.07582">
        <ele>126.47304457653</ele>
        <time>2021-07-11T08:16:29.716Z</time>
      </trkpt>
      <trkpt lat="44.98371" lon="1.07618">
        <ele>128.92555086279</ele>
        <time>2021-07-11T08:16:39.416Z</time>
      </trkpt>
      <trkpt lat="44.98357" lon="1.07641">
        <ele>131.79482880318</ele>
        <time>2021-07-11T08:16:49.121Z</time>
      </trkpt>
      <trkpt lat="44.98355" lon="1.07648">
        <ele>135.02583150406</ele>
        <time>2021-07-11T08:16:58.827Z</time>
      </trkpt>
      <trkpt lat="44.98288" lon="1.07681">
        <ele>139.00079856099</ele>
        <time>2021-07-11T08:17:08.547Z</time>
      </trkpt>
      <trkpt lat="44.98243" lon="1.07696">
        <ele>143.3407789999</ele>
        <time>2021-07-11T08:17:18.276Z</time>
      </trkpt>
      <trkpt lat="44.98223" lon="1.07714">
        <ele>147.32440636833</ele>
        <time>2021-07-11T08:17:28.010Z</time>
      </trkpt>
      <trkpt lat="44.98171" lon="1.07749">
        <ele>152.13013857772</ele>
        <time>2021-07-11T08:17:37.755Z</time>
      </trkpt>
      <trkpt lat="44.98151" lon="1.07756">
        <ele>156.68432574055</ele>
        <time>2021-07-11T08:17:47.504Z</time>
      </trkpt>
      <trkpt lat="44.98119" lon="1.078">
        <ele>161.05235745916</ele>
        <time>2021-07-11T08:17:57.262Z</time>
      </trkpt>
      <trkpt lat="44.9809" lon="1.07834">
        <ele>166.0436921972</ele>
        <time>2021-07-11T08:18:07.028Z</time>
      </trkpt>
      <trkpt lat="44.98075" lon="1.07861">
        <ele>170.83811848546</ele>
        <time>2021-07-11T08:18:16.799Z</time>
      </trkpt>
      <trkpt lat="44.98071" lon="1.07875">
        <ele>175.43784055057</ele>
        <time>2021-07-11T08:18:26.572Z</time>
      </trkpt>
      <trkpt lat="44.9806" lon="1.07894">
        <ele>180.11164305221</ele>
        <time>2021-07-11T08:18:36.348Z</time>
      </trkpt>
      <trkpt lat="44.97995" lon="1.08041">
        <ele>185.56040780688</ele>
        <time>2021-07-11T08:18:46.149Z</time>
      </trkpt>
      <trkpt lat="44.97984" lon="1.0805">
        <ele>190.21775747472</ele>
        <time>2021-07-11T08:18:55.953Z</time>
      </trkpt>
      <trkpt lat="44.9797" lon="1.08032">
        <ele>194.81153681822</ele>
        <time>2021-07-11T08:19:05.760Z</time>
      </trkpt>
      <trkpt lat="44.97952" lon="1.0802">
        <ele>199.37340118138</ele>
        <time>2021-07-11T08:19:15.571Z</time>
      </trkpt>
      <trkpt lat="44.97937" lon="1.07982">
        <ele>203.80211941446</ele>
        <time>2021-07-11T08:19:25.388Z</time>
      </trkpt>
      <trkpt lat="44.97912" lon="1.07943">
        <ele>208.23294822468</ele>
        <time>2021-07-11T08:19:35.213Z</time>
      </trkpt>
      <trkpt lat="44.97903" lon="1.07936">
        <ele>212.33942647533</ele>
        <time>2021-07-11T08:19:45.040Z</time>
      </trkpt>
      <trkpt lat="44.97891" lon="1.07859">
        <ele>216.34392858845</ele>
        <time>2021-07-11T08:19:54.878Z</time>
      </trkpt>
      <trkpt lat="44.97884" lon="1.07823">
        <ele>220.08762887799</ele>
        <time>2021-07-11T08:20:04.721Z</time>
      </trkpt>
      <trkpt lat="44.97877" lon="1.07798">
        <ele>223.62687359842</ele>
        <time>2021-07-11T08:20:14.568Z</time>
      </trkpt>
      <trkpt lat="44.97867" lon="1.07772">
        <ele>226.86642573098</ele>
        <time>2021-07-11T08:20:24.419Z</time>
      </trkpt>
      <trkpt lat="44.97858" lon="1.07758">
        <ele>229.93281543101</ele>
        <time>2021-07-11T08:20:34.273Z</time>
      </trkpt>
      <trkpt lat="44.97847" lon="1.07777">
        <ele>232.8847597411</ele>
        <time>2021-07-11T08:20:44.131Z</time>
      </trkpt>
      <trkpt lat="44.97835" lon="1.07805">
        <ele>235.85672552882</ele>
        <time>2021-07-11T08:20:53.993Z</time>
      </trkpt>
      <trkpt lat="44.97813" lon="1.0784">
        <ele>238.55878170125</ele>
        <time>2021-07-11T08:21:03.862Z</time>
      </trkpt>
      <trkpt lat="44.97808" lon="1.07852">
        <ele>241.02970277501</ele>
        <time>2021-07-11T08:21:13.733Z</time>
      </trkpt>
      <trkpt lat="44.97802" lon="1.07872">
        <ele>243.34913372816</ele>
        <time>2021-07-11T08:21:23.607Z</time>
      </trkpt>
      <trkpt lat="44.97768" lon="1.08021">
        <ele>245.97973287334</ele>
        <time>2021-07-11T08:21:33.503Z</time>
      </trkpt>
      <trkpt lat="44.97759" lon="1.08088">
        <ele>247.7239623072</ele>
        <time>2021-07-11T08:21:43.409Z</time>
      </trkpt>
      <trkpt lat="44.97749" lon="1.08119">
        <ele>249.24108864945</ele>
        <time>2021-07-11T08:21:53.320Z</time>
      </trkpt>
      <trkpt lat="44.97741" lon="1.08131">
        <ele>250.55450427133</ele>
        <time>2021-07-11T08:22:03.233Z</time>
      </trkpt>
      <trkpt lat="44.97733" lon="1.08152">
        <ele>251.6700147555</ele>
        <time>2021-07-11T08:22:13.149Z</time>
      </trkpt>
      <trkpt lat="44.97721" lon="1.08192">
        <ele>252.67590206824</ele>
        <time>2021-07-11T08:22:23.072Z</time>
      </trkpt>
      <trkpt lat="44.97703" lon="1.08263">
        <ele>253.49934111147</ele>
        <time>2021-07-11T08:22:33.005Z</time>
      </trkpt>
      <trkpt lat="44.97684" lon="1.08293">
        <ele>253.97935138915</ele>
        <time>2021-07-11T08:22:42.944Z</time>
      </trkpt>
      <trkpt lat="44.9765" lon="1.08368">
        <ele>254.32924184339</ele>
        <time>2021-07-11T08:22:52.896Z</time>
      </trkpt>
      <trkpt lat="44.97631" lon="1.08385">
        <ele>254.57091623537</ele>
        <time>2021-07-11T08:23:02.852Z</time>
      </trkpt>
      <trkpt lat="44.97624" lon="1.08397">
        <ele>254.63817911021</ele>
        <time>2021-07-11T08:23:12.810Z</time>
      </trkpt>
      <trkpt lat="44.97609" lon="1.08399">
        <ele>254.53515492492</ele>
        <time>2021-07-11T08:23:22.771Z</time>
      </trkpt>
      <trkpt lat="44.97537" lon="1.08414">
        <ele>254.18900508881</ele>
        <time>2021-07-11T08:23:32.747Z</time>
      </trkpt>
      <trkpt lat="44.97515" lon="1.08413">
        <ele>253.81739324458</ele>
        <time>2021-07-11T08:23:42.727Z</time>
      </trkpt>
      <trkpt lat="44.97491" lon="1.08406">
        <ele>253.33683922462</ele>
        <time>2021-07-11T08:23:52.712Z</time>
      </trkpt>
      <trkpt lat="44.97465" lon="1.08393">
        <ele>252.75589182289</ele>
        <time>2021-07-11T08:24:02.703Z</time>
      </trkpt>
      <trkpt lat="44.97439" lon="1.08373">
        <ele>252.06543967076</ele>
        <time>2021-07-11T08:24:12.700Z</time>
      </trkpt>
      <trkpt lat="44.97353" lon="1.0829">
        <ele>251.270804346</ele>
        <time>2021-07-11T08:24:22.717Z</time>
      </trkpt>
      <trkpt lat="44.97276" lon="1.0822">
        <ele>250.41112041107</ele>
        <time>2021-07-11T08:24:32.753Z</time>
      </trkpt>
      <trkpt lat="44.97246" lon="1.08189">
        <ele>249.52738265402</ele>
        <time>2021-07-11T08:24:42.796Z</time>
      </trkpt>
      <trkpt lat="44.97237" lon="1.08178">
        <ele>248.51797119435</ele>
        <time>2021-07-11T08:24:52.842Z</time>
      </trkpt>
      <trkpt lat="44.97194" lon="1.0819">
        <ele>247.27738298192</ele>
        <time>2021-07-11T08:25:02.896Z</time>
      </trkpt>
      <trkpt lat="44.97184" lon="1.08197">
        <ele>246.05000820973</ele>
        <time>2021-07-11T08:25:12.953Z</time>
      </trkpt>
      <trkpt lat="44.97161" lon="1.08188">
        <ele>244.82388876662</ele>
        <time>2021-07-11T08:25:23.014Z</time>
      </trkpt>
      <trkpt lat="44.97131" lon="1.08222">
        <ele>243.48135844497</ele>
        <time>2021-07-11T08:25:33.083Z</time>
      </trkpt>
      <trkpt lat="44.9712" lon="1.08237">
        <ele>242.03248244906</ele>
        <time>2021-07-11T08:25:43.155Z</time>
      </trkpt>
      <trkpt lat="44.97094" lon="1.08283">
        <ele>240.26203596348</ele>
        <time>2021-07-11T08:25:53.235Z</time>
      </trkpt>
      <trkpt lat="44.97071" lon="1.08331">
        <ele>238.55216903121</ele>
        <time>2021-07-11T08:26:03.324Z</time>
      </trkpt>
      <trkpt lat="44.97064" lon="1.0834">
        <ele>237.01673597792</ele>
        <time>2021-07-11T08:26:13.414Z</time>
      </trkpt>
      <trkpt lat="44.97053" lon="1.08353">
        <ele>235.5068268153</ele>
        <time>2021-07-11T08:26:23.507Z</time>
      </trkpt>
      <trkpt lat="44.97035" lon="1.08364">
        <ele>233.92483473195</ele>
        <time>2021-07-11T08:26:33.604Z</time>
      </trkpt>
      <trkpt lat="44.97016" lon="1.08371">
        <ele>232.20993966186</ele>
        <time>2021-07-11T08:26:43.705Z</time>
      </trkpt>
      <trkpt lat="44.96996" lon="1.08376">
        <ele>230.56377597522</ele>
        <time>2021-07-11T08:26:53.810Z</time>
      </trkpt>
      <trkpt lat="44.96905" lon="1.0841">
        <ele>228.89556671743</ele>
        <time>2021-07-11T08:27:03.934Z</time>
      </trkpt>
      <trkpt lat="44.96875" lon="1.08417">
        <ele>227.19214216757</ele>
        <time>2021-07-11T08:27:14.064Z</time>
      </trkpt>
      <trkpt lat="44.96856" lon="1.08418">
        <ele>225.40817051316</ele>
        <time>2021-07-11T08:27:24.198Z</time>
      </trkpt>
      <trkpt lat="44.96831" lon="1.08417">
        <ele>223.56750685419</ele>
        <time>2021-07-11T08:27:34.337Z</time>
      </trkpt>
      <trkpt lat="44.96825" lon="1.08414">
        <ele>221.72183196686</ele>
        <time>2021-07-11T08:27:44.477Z</time>
      </trkpt>
      <trkpt lat="44.9682" lon="1.08409">
        <ele>219.83255876619</ele>
        <time>2021-07-11T08:27:54.619Z</time>
      </trkpt>
      <trkpt lat="44.96817" lon="1.084">
        <ele>217.90389448945</ele>
        <time>2021-07-11T08:28:04.762Z</time>
      </trkpt>
      <trkpt lat="44.96811" lon="1.08361">
        <ele>215.80101465009</ele>
        <time>2021-07-11T08:28:14.911Z</time>
      </trkpt>
      <trkpt lat="44.96806" lon="1.08354">
        <ele>213.7864521106</ele>
        <time>2021-07-11T08:28:25.061Z</time>
      </trkpt>
      <trkpt lat="44.96798" lon="1.08349">
        <ele>211.7422648822</ele>
        <time>2021-07-11T08:28:35.213Z</time>
      </trkpt>
      <trkpt lat="44.96739" lon="1.0834">
        <ele>209.4741821663</ele>
        <time>2021-07-11T08:28:45.377Z</time>
      </trkpt>
      <trkpt lat="44.96701" lon="1.08327">
        <ele>207.19342076974</ele>
        <time>2021-07-11T08:28:55.548Z</time>
      </trkpt>
      <trkpt lat="44.96682" lon="1.08323">
        <ele>205.06233452816</ele>
        <time>2021-07-11T08:29:05.723Z</time>
      </trkpt>
      <trkpt lat="44.96662" lon="1.0832">
        <ele>202.93451133011</ele>
        <time>2021-07-11T08:29:15.902Z</time>
      </trkpt>
      <trkpt lat="44.96637" lon="1.08321">
        <ele>200.80605632213</ele>
        <time>2021-07-11T08:29:26.086Z</time>
      </trkpt>
      <trkpt lat="44.96622" lon="1.08327">
        <ele>198.68017089948</ele>
        <time>2021-07-11T08:29:36.273Z</time>
      </trkpt>
      <trkpt lat="44.96582" lon="1.08344">
        <ele>196.60327063512</ele>
        <time>2021-07-11T08:29:46.469Z</time>
      </trkpt>
      <trkpt lat="44.96553" lon="1.08349">
        <ele>194.5304596166</ele>
        <time>2021-07-11T08:29:56.671Z</time>
      </trkpt>
      <trkpt lat="44.96532" lon="1.0835">
        <ele>192.48694126905</ele>
        <time>2021-07-11T08:30:06.877Z</time>
      </trkpt>
      <trkpt lat="44.96519" lon="1.08355">
        <ele>190.49683758232</ele>
        <time>2021-07-11T08:30:17.085Z</time>
      </trkpt>
      <trkpt lat="44.9649" lon="1.08372">
        <ele>188.50415936305</ele>
        <time>2021-07-11T08:30:27.300Z</time>
      </trkpt>
      <trkpt lat="44.96466" lon="1.08393">
        <ele>186.67867394578</ele>
        <time>2021-07-11T08:30:37.520Z</time>
      </trkpt>
      <trkpt lat="44.96441" lon="1.08442">
        <ele>184.78043100797</ele>
        <time>2021-07-11T08:30:47.749Z</time>
      </trkpt>
      <trkpt lat="44.96433" lon="1.08454">
        <ele>183.16926182324</ele>
        <time>2021-07-11T08:30:57.980Z</time>
      </trkpt>
      <trkpt lat="44.96413" lon="1.08473">
        <ele>181.72418902961</ele>
        <time>2021-07-11T08:31:08.216Z</time>
      </trkpt>
      <trkpt lat="44.9641" lon="1.08471">
        <ele>180.37189250676</ele>
        <time>2021-07-11T08:31:18.453Z</time>
      </trkpt>
      <trkpt lat="44.96406" lon="1.08466">
        <ele>179.12178030216</ele>
        <time>2021-07-11T08:31:28.691Z</time>
      </trkpt>
      <trkpt lat="44.96404" lon="1.08454">
        <ele>177.97339029292</ele>
        <time>2021-07-11T08:31:38.931Z</time>
      </trkpt>
      <trkpt lat="44.96407" lon="1.08396">
        <ele>176.99068878119</ele>
        <time>2021-07-11T08:31:49.179Z</time>
      </trkpt>
      <trkpt lat="44.96407" lon="1.08337">
        <ele>175.97557509061</ele>
        <time>2021-07-11T08:31:59.435Z</time>
      </trkpt>
      <trkpt lat="44.96414" lon="1.0829">
        <ele>175.24477385045</ele>
        <time>2021-07-11T08:32:09.698Z</time>
      </trkpt>
      <trkpt lat="44.96414" lon="1.08276">
        <ele>174.57228302937</ele>
        <time>2021-07-11T08:32:19.963Z</time>
      </trkpt>
      <trkpt lat="44.96411" lon="1.08255">
        <ele>173.97295116702</ele>
        <time>2021-07-11T08:32:30.231Z</time>
      </trkpt>
      <trkpt lat="44.96388" lon="1.08187">
        <ele>173.26529612575</ele>
        <time>2021-07-11T08:32:40.510Z</time>
      </trkpt>
      <trkpt lat="44.96366" lon="1.08151">
        <ele>172.76078315373</ele>
        <time>2021-07-11T08:32:50.796Z</time>
      </trkpt>
      <trkpt lat="44.96358" lon="1.08134">
        <ele>172.53141720276</ele>
        <time>2021-07-11T08:33:01.085Z</time>
      </trkpt>
      <trkpt lat="44.96341" lon="1.08075">
        <ele>172.40902330589</ele>
        <time>2021-07-11T08:33:11.383Z</time>
      </trkpt>
      <trkpt lat="44.96333" lon="1.08036">
        <ele>172.45308523877</ele>
        <time>2021-07-11T08:33:21.686Z</time>
      </trkpt>
      <trkpt lat="44.96327" lon="1.08025">
        <ele>172.5636401936</ele>
        <time>2021-07-11T08:33:31.991Z</time>
      </trkpt>
      <trkpt lat="44.96311" lon="1.08008">
        <ele>172.79717521981</ele>
        <time>2021-07-11T08:33:42.300Z</time>
      </trkpt>
      <trkpt lat="44.9629" lon="1.07993">
        <ele>173.1168534636</ele>
        <time>2021-07-11T08:33:52.614Z</time>
      </trkpt>
      <trkpt lat="44.96272" lon="1.07972">
        <ele>173.51336118511</ele>
        <time>2021-07-11T08:34:02.933Z</time>
      </trkpt>
      <trkpt lat="44.96234" lon="1.07891">
        <ele>173.971252389</ele>
        <time>2021-07-11T08:34:13.265Z</time>
      </trkpt>
      <trkpt lat="44.96231" lon="1.07889">
        <ele>174.36329261635</ele>
        <time>2021-07-11T08:34:23.598Z</time>
      </trkpt>
      <trkpt lat="44.96222" lon="1.0789">
        <ele>174.8163927586</ele>
        <time>2021-07-11T08:34:33.933Z</time>
      </trkpt>
      <trkpt lat="44.96211" lon="1.07903">
        <ele>175.31186002047</ele>
        <time>2021-07-11T08:34:44.271Z</time>
      </trkpt>
      <trkpt lat="44.96162" lon="1.07999">
        <ele>175.74477041374</ele>
        <time>2021-07-11T08:34:54.626Z</time>
      </trkpt>
      <trkpt lat="44.96152" lon="1.08014">
        <ele>176.18938710667</ele>
        <time>2021-07-11T08:35:04.984Z</time>
      </trkpt>
      <trkpt lat="44.96138" lon="1.08023">
        <ele>176.6742183757</ele>
        <time>2021-07-11T08:35:15.345Z</time>
      </trkpt>
      <trkpt lat="44.96116" lon="1.08031">
        <ele>177.14716979362</ele>
        <time>2021-07-11T08:35:25.710Z</time>
      </trkpt>
      <trkpt lat="44.96102" lon="1.08041">
        <ele>177.58170717231</ele>
        <time>2021-07-11T08:35:36.078Z</time>
      </trkpt>
      <trkpt lat="44.96097" lon="1.08041">
        <ele>178.07431008307</ele>
        <time>2021-07-11T08:35:46.447Z</time>
      </trkpt>
      <trkpt lat="44.96093" lon="1.08039">
        <ele>178.57796118066</ele>
        <time>2021-07-11T08:35:56.817Z</time>
      </trkpt>
      <trkpt lat="44.96085" lon="1.08032">
        <ele>179.08204861265</ele>
        <time>2021-07-11T08:36:07.189Z</time>
      </trkpt>
      <trkpt lat="44.96075" lon="1.08019">
        <ele>179.59146302801</ele>
        <time>2021-07-11T08:36:17.564Z</time>
      </trkpt>
      <trkpt lat="44.96056" lon="1.07983">
        <ele>180.12841094208</ele>
        <time>2021-07-11T08:36:27.945Z</time>
      </trkpt>
      <trkpt lat="44.96052" lon="1.07977">
        <ele>180.63553527605</ele>
        <time>2021-07-11T08:36:38.327Z</time>
      </trkpt>
      <trkpt lat="44.96046" lon="1.07972">
        <ele>181.14463460485</ele>
        <time>2021-07-11T08:36:48.711Z</time>
      </trkpt>
      <trkpt lat="44.96018" lon="1.07966">
        <ele>181.63946792792</ele>
        <time>2021-07-11T08:36:59.100Z</time>
      </trkpt>
      <trkpt lat="44.95951" lon="1.07961">
        <ele>182.02249463187</ele>
        <time>2021-07-11T08:37:09.503Z</time>
      </trkpt>
      <trkpt lat="44.95937" lon="1.07957">
        <ele>182.48078451624</ele>
        <time>2021-07-11T08:37:19.909Z</time>
      </trkpt>
      <trkpt lat="44.95926" lon="1.07944">
        <ele>182.99529874089</ele>
        <time>2021-07-11T08:37:30.317Z</time>
      </trkpt>
      <trkpt lat="44.95909" lon="1.07911">
        <ele>183.63345513471</ele>
        <time>2021-07-11T08:37:40.731Z</time>
      </trkpt>
      <trkpt lat="44.959" lon="1.07896">
        <ele>184.15572258286</ele>
        <time>2021-07-11T08:37:51.148Z</time>
      </trkpt>
      <trkpt lat="44.95889" lon="1.07886">
        <ele>184.62815428051</ele>
        <time>2021-07-11T08:38:01.568Z</time>
      </trkpt>
      <trkpt lat="44.95874" lon="1.07882">
        <ele>185.01086902471</ele>
        <time>2021-07-11T08:38:11.991Z</time>
      </trkpt>
      <trkpt lat="44.95862" lon="1.07875">
        <ele>185.42943487871</ele>
        <time>2021-07-11T08:38:22.416Z</time>
      </trkpt>
      <trkpt lat="44.95856" lon="1.07869">
        <ele>185.82965533935</ele>
        <time>2021-07-11T08:38:32.843Z</time>
      </trkpt>
      <trkpt lat="44.95835" lon="1.07837">
        <ele>186.39524331322</ele>
        <time>2021-07-11T08:38:43.276Z</time>
      </trkpt>
      <trkpt lat="44.95821" lon="1.07821">
        <ele>186.80792523008</ele>
        <time>2021-07-11T08:38:53.713Z</time>
      </trkpt>
      <trkpt lat="44.95803" lon="1.07802">
        <ele>187.16967144565</ele>
        <time>2021-07-11T08:39:04.154Z</time>
      </trkpt>
      <trkpt lat="44.95795" lon="1.07796">
        <ele>187.41414508094</ele>
        <time>2021-07-11T08:39:14.597Z</time>
      </trkpt>
      <trkpt lat="44.95773" lon="1.07791">
        <ele>187.48300488639</ele>
        <time>2021-07-11T08:39:25.044Z</time>
      </trkpt>
      <trkpt lat="44.95763" lon="1.07785">
        <ele>187.60931560384</ele>
        <time>2021-07-11T08:39:35.494Z</time>
      </trkpt>
      <trkpt lat="44.95759" lon="1.07783">
        <ele>187.74166995749</ele>
        <time>2021-07-11T08:39:45.944Z</time>
      </trkpt>
      <trkpt lat="44.9575" lon="1.07768">
        <ele>187.84931380619</ele>
        <time>2021-07-11T08:39:56.397Z</time>
      </trkpt>
      <trkpt lat="44.95732" lon="1.07735">
        <ele>187.99863333625</ele>
        <time>2021-07-11T08:40:06.856Z</time>
      </trkpt>
      <trkpt lat="44.95716" lon="1.0769">
        <ele>187.95597234658</ele>
        <time>2021-07-11T08:40:17.322Z</time>
      </trkpt>
      <trkpt lat="44.95698" lon="1.07657">
        <ele>187.83842226299</ele>
        <time>2021-07-11T08:40:27.794Z</time>
      </trkpt>
      <trkpt lat="44.95694" lon="1.07629">
        <ele>187.86941913552</ele>
        <time>2021-07-11T08:40:38.270Z</time>
      </trkpt>
      <trkpt lat="44.95688" lon="1.07606">
        <ele>187.8472506026</ele>
        <time>2021-07-11T08:40:48.750Z</time>
      </trkpt>
      <trkpt lat="44.95687" lon="1.07522">
        <ele>187.85024919902</ele>
        <time>2021-07-11T08:40:59.242Z</time>
      </trkpt>
      <trkpt lat="44.95685" lon="1.07517">
        <ele>187.96479369386</ele>
        <time>2021-07-11T08:41:09.734Z</time>
      </trkpt>
      <trkpt lat="44.95667" lon="1.07499">
        <ele>188.12186700349</ele>
        <time>2021-07-11T08:41:20.231Z</time>
      </trkpt>
      <trkpt lat="44.95657" lon="1.07485">
        <ele>188.28037242819</ele>
        <time>2021-07-11T08:41:30.731Z</time>
      </trkpt>
      <trkpt lat="44.95655" lon="1.0746">
        <ele>188.55270221964</ele>
        <time>2021-07-11T08:41:41.234Z</time>
      </trkpt>
      <trkpt lat="44.95652" lon="1.07458">
        <ele>188.77965855451</ele>
        <time>2021-07-11T08:41:51.738Z</time>
      </trkpt>
      <trkpt lat="44.95624" lon="1.07461">
        <ele>189.07868061904</ele>
        <time>2021-07-11T08:42:02.247Z</time>
      </trkpt>
      <trkpt lat="44.95611" lon="1.0746">
        <ele>189.32053019674</ele>
        <time>2021-07-11T08:42:12.759Z</time>
      </trkpt>
      <trkpt lat="44.95596" lon="1.07458">
        <ele>189.5748466475</ele>
        <time>2021-07-11T08:42:23.274Z</time>
      </trkpt>
      <trkpt lat="44.95566" lon="1.0745">
        <ele>189.86729278323</ele>
        <time>2021-07-11T08:42:33.795Z</time>
      </trkpt>
      <trkpt lat="44.95552" lon="1.07443">
        <ele>190.12641254396</ele>
        <time>2021-07-11T08:42:44.319Z</time>
      </trkpt>
      <trkpt lat="44.95541" lon="1.07431">
        <ele>190.39196988545</ele>
        <time>2021-07-11T08:42:54.846Z</time>
      </trkpt>
      <trkpt lat="44.95511" lon="1.07414">
        <ele>190.59818059416</ele>
        <time>2021-07-11T08:43:05.379Z</time>
      </trkpt>
      <trkpt lat="44.95506" lon="1.07415">
        <ele>190.6994860025</ele>
        <time>2021-07-11T08:43:15.913Z</time>
      </trkpt>
      <trkpt lat="44.95474" lon="1.07433">
        <ele>190.61333464295</ele>
        <time>2021-07-11T08:43:26.454Z</time>
      </trkpt>
      <trkpt lat="44.95458" lon="1.0744">
        <ele>190.56379397062</ele>
        <time>2021-07-11T08:43:36.999Z</time>
      </trkpt>
      <trkpt lat="44.95443" lon="1.07438">
        <ele>190.47505672437</ele>
        <time>2021-07-11T08:43:47.547Z</time>
      </trkpt>
      <trkpt lat="44.95413" lon="1.07424">
        <ele>190.33501832993</ele>
        <time>2021-07-11T08:43:58.101Z</time>
      </trkpt>
      <trkpt lat="44.95405" lon="1.07413">
        <ele>190.1558477714</ele>
        <time>2021-07-11T08:44:08.657Z</time>
      </trkpt>
      <trkpt lat="44.95409" lon="1.07403">
        <ele>189.92446146785</ele>
        <time>2021-07-11T08:44:19.215Z</time>
      </trkpt>
      <trkpt lat="44.95411" lon="1.07367">
        <ele>189.51570710679</ele>
        <time>2021-07-11T08:44:29.778Z</time>
      </trkpt>
      <trkpt lat="44.95413" lon="1.07352">
        <ele>188.97275671307</ele>
        <time>2021-07-11T08:44:40.343Z</time>
      </trkpt>
      <trkpt lat="44.95426" lon="1.07329">
        <ele>188.43748538424</ele>
        <time>2021-07-11T08:44:50.912Z</time>
      </trkpt>
      <trkpt lat="44.95429" lon="1.07317">
        <ele>187.70860654188</ele>
        <time>2021-07-11T08:45:01.483Z</time>
      </trkpt>
      <trkpt lat="44.95425" lon="1.07313">
        <ele>186.78020365681</ele>
        <time>2021-07-11T08:45:12.055Z</time>
      </trkpt>
      <trkpt lat="44.95415" lon="1.07295">
        <ele>185.66448920032</ele>
        <time>2021-07-11T08:45:22.630Z</time>
      </trkpt>
      <trkpt lat="44.95395" lon="1.07253">
        <ele>184.31670870685</ele>
        <time>2021-07-11T08:45:33.213Z</time>
      </trkpt>
      <trkpt lat="44.95388" lon="1.07242">
        <ele>182.92511072087</ele>
        <time>2021-07-11T08:45:43.798Z</time>
      </trkpt>
      <trkpt lat="44.95379" lon="1.07236">
        <ele>181.37405376773</ele>
        <time>2021-07-11T08:45:54.385Z</time>
      </trkpt>
      <trkpt lat="44.95362" lon="1.07234">
        <ele>179.6149331247</ele>
        <time>2021-07-11T08:46:04.975Z</time>
      </trkpt>
      <trkpt lat="44.95349" lon="1.07237">
        <ele>177.73654602312</ele>
        <time>2021-07-11T08:46:15.568Z</time>
      </trkpt>
      <trkpt lat="44.9531" lon="1.07268">
        <ele>175.63996839236</ele>
        <time>2021-07-11T08:46:26.170Z</time>
      </trkpt>
      <trkpt lat="44.95296" lon="1.07274">
        <ele>173.55592407121</ele>
        <time>2021-07-11T08:46:36.775Z</time>
      </trkpt>
      <trkpt lat="44.95281" lon="1.07274">
        <ele>171.33490348629</ele>
        <time>2021-07-11T08:46:47.383Z</time>
      </trkpt>
      <trkpt lat="44.95269" lon="1.0727">
        <ele>168.97887293519</ele>
        <time>2021-07-11T08:46:57.993Z</time>
      </trkpt>
      <trkpt lat="44.95255" lon="1.07263">
        <ele>166.48299494573</ele>
        <time>2021-07-11T08:47:08.606Z</time>
      </trkpt>
      <trkpt lat="44.95244" lon="1.07252">
        <ele>163.85636872862</ele>
        <time>2021-07-11T08:47:19.222Z</time>
      </trkpt>
      <trkpt lat="44.95233" lon="1.07231">
        <ele>161.06715482442</ele>
        <time>2021-07-11T08:47:29.841Z</time>
      </trkpt>
      <trkpt lat="44.95227" lon="1.07214">
        <ele>158.18560169599</ele>
        <time>2021-07-11T08:47:40.463Z</time>
      </trkpt>
      <trkpt lat="44.95228" lon="1.07195">
        <ele>155.19800379826</ele>
        <time>2021-07-11T08:47:51.088Z</time>
      </trkpt>
      <trkpt lat="44.95239" lon="1.07159">
        <ele>152.07619301694</ele>
        <time>2021-07-11T08:48:01.718Z</time>
      </trkpt>
      <trkpt lat="44.95241" lon="1.07135">
        <ele>149.00059361713</ele>
        <time>2021-07-11T08:48:12.352Z</time>
      </trkpt>
      <trkpt lat="44.95239" lon="1.07123">
        <ele>145.93088898475</ele>
        <time>2021-07-11T08:48:22.988Z</time>
      </trkpt>
      <trkpt lat="44.9523" lon="1.07094">
        <ele>142.73674341547</ele>
        <time>2021-07-11T08:48:33.628Z</time>
      </trkpt>
      <trkpt lat="44.95218" lon="1.07067">
        <ele>139.5886798463</ele>
        <time>2021-07-11T08:48:44.273Z</time>
      </trkpt>
      <trkpt lat="44.95202" lon="1.07037">
        <ele>136.57313207356</ele>
        <time>2021-07-11T08:48:54.923Z</time>
      </trkpt>
      <trkpt lat="44.95193" lon="1.07025">
        <ele>133.65103749724</ele>
        <time>2021-07-11T08:49:05.575Z</time>
      </trkpt>
      <trkpt lat="44.95167" lon="1.07004">
        <ele>130.69932089352</ele>
        <time>2021-07-11T08:49:16.233Z</time>
      </trkpt>
      <trkpt lat="44.95126" lon="1.06979">
        <ele>127.73347765356</ele>
        <time>2021-07-11T08:49:26.900Z</time>
      </trkpt>
      <trkpt lat="44.95111" lon="1.06972">
        <ele>125.18875406192</ele>
        <time>2021-07-11T08:49:37.570Z</time>
      </trkpt>
      <trkpt lat="44.951" lon="1.06967">
        <ele>122.83146869528</ele>
        <time>2021-07-11T08:49:48.243Z</time>
      </trkpt>
      <trkpt lat="44.95065" lon="1.06962">
        <ele>120.6510765601</ele>
        <time>2021-07-11T08:49:58.923Z</time>
      </trkpt>
      <trkpt lat="44.95011" lon="1.06948">
        <ele>118.59180674307</ele>
        <time>2021-07-11T08:50:09.614Z</time>
      </trkpt>
      <trkpt lat="44.94987" lon="1.06931">
        <ele>116.8130042022</ele>
        <time>2021-07-11T08:50:20.310Z</time>
      </trkpt>
      <trkpt lat="44.94964" lon="1.06926">
        <ele>115.34328607249</ele>
        <time>2021-07-11T08:50:31.011Z</time>
      </trkpt>
      <trkpt lat="44.94946" lon="1.06917">
        <ele>114.11073286483</ele>
        <time>2021-07-11T08:50:41.716Z</time>
      </trkpt>
      <trkpt lat="44.94921" lon="1.06901">
        <ele>113.10367617233</ele>
        <time>2021-07-11T08:50:52.426Z</time>
      </trkpt>
      <trkpt lat="44.94899" lon="1.06879">
        <ele>112.46637291601</ele>
        <time>2021-07-11T08:51:03.141Z</time>
      </trkpt>
      <trkpt lat="44.94891" lon="1.06875">
        <ele>112.28008726143</ele>
        <time>2021-07-11T08:51:13.858Z</time>
      </trkpt>
      <trkpt lat="44.9488" lon="1.06871">
        <ele>112.44599120503</ele>
        <time>2021-07-11T08:51:24.578Z</time>
      </trkpt>
      <trkpt lat="44.94822" lon="1.06858">
        <ele>112.54884186962</ele>
        <time>2021-07-11T08:51:35.309Z</time>
      </trkpt>
      <trkpt lat="44.94783" lon="1.06855">
        <ele>113.22943533279</ele>
        <time>2021-07-11T08:51:46.048Z</time>
      </trkpt>
      <trkpt lat="44.94778" lon="1.06857">
        <ele>114.60540972444</ele>
        <time>2021-07-11T08:51:56.788Z</time>
      </trkpt>
      <trkpt lat="44.9475" lon="1.06852">
        <ele>116.23570296445</ele>
        <time>2021-07-11T08:52:07.534Z</time>
      </trkpt>
      <trkpt lat="44.94714" lon="1.06859">
        <ele>118.25497029313</ele>
        <time>2021-07-11T08:52:18.287Z</time>
      </trkpt>
      <trkpt lat="44.94658" lon="1.06872">
        <ele>120.91851460763</ele>
        <time>2021-07-11T08:52:29.051Z</time>
      </trkpt>
      <trkpt lat="44.94617" lon="1.06879">
        <ele>124.1319365685</ele>
        <time>2021-07-11T08:52:39.824Z</time>
      </trkpt>
      <trkpt lat="44.94566" lon="1.06895">
        <ele>128.31711680241</ele>
        <time>2021-07-11T08:52:50.607Z</time>
      </trkpt>
      <trkpt lat="44.94555" lon="1.06914">
        <ele>132.10328374378</ele>
        <time>2021-07-11T08:53:01.394Z</time>
      </trkpt>
      <trkpt lat="44.94516" lon="1.0696">
        <ele>136.71513239751</ele>
        <time>2021-07-11T08:53:12.191Z</time>
      </trkpt>
      <trkpt lat="44.94431" lon="1.07056">
        <ele>141.93253297029</ele>
        <time>2021-07-11T08:53:23.010Z</time>
      </trkpt>
      <trkpt lat="44.94417" lon="1.07077">
        <ele>146.35371562588</ele>
        <time>2021-07-11T08:53:33.833Z</time>
      </trkpt>
      <trkpt lat="44.94401" lon="1.07144">
        <ele>150.9000430402</ele>
        <time>2021-07-11T08:53:44.666Z</time>
      </trkpt>
      <trkpt lat="44.94389" lon="1.0718">
        <ele>155.46858459752</ele>
        <time>2021-07-11T08:53:55.504Z</time>
      </trkpt>
      <trkpt lat="44.9437" lon="1.07224">
        <ele>160.10223339566</ele>
        <time>2021-07-11T08:54:06.350Z</time>
      </trkpt>
      <trkpt lat="44.94361" lon="1.07239">
        <ele>164.45510941688</ele>
        <time>2021-07-11T08:54:17.198Z</time>
      </trkpt>
      <trkpt lat="44.94355" lon="1.07261">
        <ele>168.69854144829</ele>
        <time>2021-07-11T08:54:28.050Z</time>
      </trkpt>
      <trkpt lat="44.94346" lon="1.0728">
        <ele>172.87632781112</ele>
        <time>2021-07-11T08:54:38.905Z</time>
      </trkpt>
      <trkpt lat="44.94322" lon="1.07342">
        <ele>176.88109201271</ele>
        <time>2021-07-11T08:54:49.770Z</time>
      </trkpt>
      <trkpt lat="44.94314" lon="1.07355">
        <ele>180.77860164913</ele>
        <time>2021-07-11T08:55:00.638Z</time>
      </trkpt>
      <trkpt lat="44.94256" lon="1.07397">
        <ele>184.75098738143</ele>
        <time>2021-07-11T08:55:11.519Z</time>
      </trkpt>
      <trkpt lat="44.94243" lon="1.07404">
        <ele>188.32454872789</ele>
        <time>2021-07-11T08:55:22.402Z</time>
      </trkpt>
      <trkpt lat="44.94234" lon="1.07407">
        <ele>191.69785204907</ele>
        <time>2021-07-11T08:55:33.287Z</time>
      </trkpt>
      <trkpt lat="44.94222" lon="1.07407">
        <ele>194.89001018315</ele>
        <time>2021-07-11T08:55:44.175Z</time>
      </trkpt>
      <trkpt lat="44.94198" lon="1.07398">
        <ele>197.96338011604</ele>
        <time>2021-07-11T08:55:55.067Z</time>
      </trkpt>
      <trkpt lat="44.94186" lon="1.07396">
        <ele>200.69108526906</ele>
        <time>2021-07-11T08:56:05.962Z</time>
      </trkpt>
      <trkpt lat="44.94151" lon="1.07405">
        <ele>203.1949167038</ele>
        <time>2021-07-11T08:56:16.864Z</time>
      </trkpt>
      <trkpt lat="44.94127" lon="1.07413">
        <ele>205.46289857818</ele>
        <time>2021-07-11T08:56:27.771Z</time>
      </trkpt>
      <trkpt lat="44.94048" lon="1.07443">
        <ele>207.760249258</ele>
        <time>2021-07-11T08:56:38.694Z</time>
      </trkpt>
      <trkpt lat="44.94034" lon="1.07453">
        <ele>209.45686996368</ele>
        <time>2021-07-11T08:56:49.620Z</time>
      </trkpt>
      <trkpt lat="44.94011" lon="1.07485">
        <ele>210.87944987661</ele>
        <time>2021-07-11T08:57:00.553Z</time>
      </trkpt>
      <trkpt lat="44.94" lon="1.07467">
        <ele>212.0167069985</ele>
        <time>2021-07-11T08:57:11.489Z</time>
      </trkpt>
      <trkpt lat="44.93993" lon="1.07459">
        <ele>212.9133614721</ele>
        <time>2021-07-11T08:57:22.427Z</time>
      </trkpt>
      <trkpt lat="44.93975" lon="1.07452">
        <ele>213.59184181508</ele>
        <time>2021-07-11T08:57:33.369Z</time>
      </trkpt>
      <trkpt lat="44.93967" lon="1.07445">
        <ele>214.03910957932</ele>
        <time>2021-07-11T08:57:44.313Z</time>
      </trkpt>
      <trkpt lat="44.9391" lon="1.0751">
        <ele>214.04185432959</ele>
        <time>2021-07-11T08:57:55.271Z</time>
      </trkpt>
      <trkpt lat="44.93902" lon="1.07532">
        <ele>214.12879639352</ele>
        <time>2021-07-11T08:58:06.233Z</time>
      </trkpt>
      <trkpt lat="44.9387" lon="1.07602">
        <ele>214.05761777678</ele>
        <time>2021-07-11T08:58:17.207Z</time>
      </trkpt>
      <trkpt lat="44.93861" lon="1.07628">
        <ele>213.79347861175</ele>
        <time>2021-07-11T08:58:28.185Z</time>
      </trkpt>
      <trkpt lat="44.93853" lon="1.07656">
        <ele>213.38624754225</ele>
        <time>2021-07-11T08:58:39.167Z</time>
      </trkpt>
      <trkpt lat="44.93847" lon="1.07696">
        <ele>212.77764974552</ele>
        <time>2021-07-11T08:58:50.155Z</time>
      </trkpt>
      <trkpt lat="44.93845" lon="1.07699">
        <ele>212.16328157725</ele>
        <time>2021-07-11T08:59:01.143Z</time>
      </trkpt>
      <trkpt lat="44.93839" lon="1.07703">
        <ele>211.47625798252</ele>
        <time>2021-07-11T08:59:12.133Z</time>
      </trkpt>
      <trkpt lat="44.9381" lon="1.07715">
        <ele>210.67282466031</ele>
        <time>2021-07-11T08:59:23.129Z</time>
      </trkpt>
      <trkpt lat="44.93805" lon="1.0772">
        <ele>209.90643863862</ele>
        <time>2021-07-11T08:59:34.126Z</time>
      </trkpt>
      <trkpt lat="44.93796" lon="1.07738">
        <ele>209.057295342</ele>
        <time>2021-07-11T08:59:45.126Z</time>
      </trkpt>
      <trkpt lat="44.93795" lon="1.07745">
        <ele>208.23690354208</ele>
        <time>2021-07-11T08:59:56.127Z</time>
      </trkpt>
      <trkpt lat="44.93799" lon="1.07756">
        <ele>207.44773655134</ele>
        <time>2021-07-11T09:00:07.130Z</time>
      </trkpt>
      <trkpt lat="44.93808" lon="1.07776">
        <ele>206.67762143589</ele>
        <time>2021-07-11T09:00:18.136Z</time>
      </trkpt>
      <trkpt lat="44.93814" lon="1.07792">
        <ele>205.96310943684</ele>
        <time>2021-07-11T09:00:29.145Z</time>
      </trkpt>
      <trkpt lat="44.93834" lon="1.07987">
        <ele>204.79233091807</ele>
        <time>2021-07-11T09:00:40.182Z</time>
      </trkpt>
      <trkpt lat="44.93833" lon="1.08009">
        <ele>204.42381601868</ele>
        <time>2021-07-11T09:00:51.222Z</time>
      </trkpt>
      <trkpt lat="44.93825" lon="1.08024">
        <ele>204.10752819801</ele>
        <time>2021-07-11T09:01:02.265Z</time>
      </trkpt>
      <trkpt lat="44.9381" lon="1.08042">
        <ele>203.90703853119</ele>
        <time>2021-07-11T09:01:13.312Z</time>
      </trkpt>
      <trkpt lat="44.93807" lon="1.08051">
        <ele>203.79949813666</ele>
        <time>2021-07-11T09:01:24.360Z</time>
      </trkpt>
      <trkpt lat="44.93784" lon="1.08082">
        <ele>203.83237854403</ele>
        <time>2021-07-11T09:01:35.414Z</time>
      </trkpt>
      <trkpt lat="44.93771" lon="1.08106">
        <ele>203.95895857694</ele>
        <time>2021-07-11T09:01:46.473Z</time>
      </trkpt>
      <trkpt lat="44.93767" lon="1.08143">
        <ele>204.31490226658</ele>
        <time>2021-07-11T09:01:57.537Z</time>
      </trkpt>
      <trkpt lat="44.93754" lon="1.08161">
        <ele>204.57814804093</ele>
        <time>2021-07-11T09:02:08.605Z</time>
      </trkpt>
      <trkpt lat="44.93731" lon="1.08168">
        <ele>204.80394976611</ele>
        <time>2021-07-11T09:02:19.677Z</time>
      </trkpt>
      <trkpt lat="44.93764" lon="1.08267">
        <ele>205.66920725761</ele>
        <time>2021-07-11T09:02:30.765Z</time>
      </trkpt>
      <trkpt lat="44.93749" lon="1.08285">
        <ele>206.02325179649</ele>
        <time>2021-07-11T09:02:41.857Z</time>
      </trkpt>
      <trkpt lat="44.93734" lon="1.08312">
        <ele>206.45198057191</ele>
        <time>2021-07-11T09:02:52.954Z</time>
      </trkpt>
      <trkpt lat="44.93729" lon="1.08326">
        <ele>206.81685541572</ele>
        <time>2021-07-11T09:03:04.053Z</time>
      </trkpt>
      <trkpt lat="44.93711" lon="1.08417">
        <ele>207.27490469984</ele>
        <time>2021-07-11T09:03:15.165Z</time>
      </trkpt>
      <trkpt lat="44.93709" lon="1.08429">
        <ele>207.61216075721</ele>
        <time>2021-07-11T09:03:26.279Z</time>
      </trkpt>
      <trkpt lat="44.9371" lon="1.08445">
        <ele>207.92657888772</ele>
        <time>2021-07-11T09:03:37.395Z</time>
      </trkpt>
      <trkpt lat="44.93724" lon="1.08484">
        <ele>208.17565876717</ele>
        <time>2021-07-11T09:03:48.517Z</time>
      </trkpt>
      <trkpt lat="44.93725" lon="1.08492">
        <ele>208.38461669318</ele>
        <time>2021-07-11T09:03:59.641Z</time>
      </trkpt>
      <trkpt lat="44.93722" lon="1.08502">
        <ele>208.56288806431</ele>
        <time>2021-07-11T09:04:10.766Z</time>
      </trkpt>
      <trkpt lat="44.93716" lon="1.08513">
        <ele>208.70203585776</ele>
        <time>2021-07-11T09:04:21.893Z</time>
      </trkpt>
      <trkpt lat="44.93695" lon="1.08541">
        <ele>208.70184707728</ele>
        <time>2021-07-11T09:04:33.026Z</time>
      </trkpt>
      <trkpt lat="44.93652" lon="1.08575">
        <ele>208.66074732611</ele>
        <time>2021-07-11T09:04:44.169Z</time>
      </trkpt>
      <trkpt lat="44.93635" lon="1.08591">
        <ele>208.65700044857</ele>
        <time>2021-07-11T09:04:55.316Z</time>
      </trkpt>
      <trkpt lat="44.9362" lon="1.08608">
        <ele>208.62374611106</ele>
        <time>2021-07-11T09:05:06.467Z</time>
      </trkpt>
      <trkpt lat="44.93605" lon="1.08628">
        <ele>208.44924921142</ele>
        <time>2021-07-11T09:05:17.622Z</time>
      </trkpt>
      <trkpt lat="44.93589" lon="1.08655">
        <ele>208.25224457934</ele>
        <time>2021-07-11T09:05:28.782Z</time>
      </trkpt>
      <trkpt lat="44.93563" lon="1.087">
        <ele>207.91553320363</ele>
        <time>2021-07-11T09:05:39.950Z</time>
      </trkpt>
      <trkpt lat="44.93548" lon="1.08734">
        <ele>207.57327517616</ele>
        <time>2021-07-11T09:05:51.124Z</time>
      </trkpt>
      <trkpt lat="44.93538" lon="1.08762">
        <ele>207.26110735723</ele>
        <time>2021-07-11T09:06:02.302Z</time>
      </trkpt>
      <trkpt lat="44.93497" lon="1.08922">
        <ele>206.99062345716</ele>
        <time>2021-07-11T09:06:13.504Z</time>
      </trkpt>
      <trkpt lat="44.93492" lon="1.08937">
        <ele>206.61585802897</ele>
        <time>2021-07-11T09:06:24.709Z</time>
      </trkpt>
      <trkpt lat="44.9348" lon="1.08968">
        <ele>206.19126490852</ele>
        <time>2021-07-11T09:06:35.919Z</time>
      </trkpt>
      <trkpt lat="44.93488" lon="1.0899">
        <ele>205.70724548521</ele>
        <time>2021-07-11T09:06:47.132Z</time>
      </trkpt>
      <trkpt lat="44.93488" lon="1.09013">
        <ele>205.15388498304</ele>
        <time>2021-07-11T09:06:58.349Z</time>
      </trkpt>
      <trkpt lat="44.93494" lon="1.09027">
        <ele>204.5138163067</ele>
        <time>2021-07-11T09:07:09.568Z</time>
      </trkpt>
      <trkpt lat="44.93495" lon="1.09043">
        <ele>203.79846443348</ele>
        <time>2021-07-11T09:07:20.789Z</time>
      </trkpt>
      <trkpt lat="44.93501" lon="1.09086">
        <ele>203.02099926483</ele>
        <time>2021-07-11T09:07:32.016Z</time>
      </trkpt>
      <trkpt lat="44.93496" lon="1.09106">
        <ele>202.13476074162</ele>
        <time>2021-07-11T09:07:43.246Z</time>
      </trkpt>
      <trkpt lat="44.93489" lon="1.09122">
        <ele>201.19648427169</ele>
        <time>2021-07-11T09:07:54.479Z</time>
      </trkpt>
      <trkpt lat="44.93482" lon="1.09129">
        <ele>200.17994029986</ele>
        <time>2021-07-11T09:08:05.714Z</time>
      </trkpt>
      <trkpt lat="44.93477" lon="1.09183">
        <ele>199.11983034564</ele>
        <time>2021-07-11T09:08:16.956Z</time>
      </trkpt>
      <trkpt lat="44.93495" lon="1.09214">
        <ele>197.9808994772</ele>
        <time>2021-07-11T09:08:28.204Z</time>
      </trkpt>
      <trkpt lat="44.9351" lon="1.09231">
        <ele>196.72217289952</ele>
        <time>2021-07-11T09:08:39.456Z</time>
      </trkpt>
      <trkpt lat="44.93517" lon="1.09246">
        <ele>195.37140976749</ele>
        <time>2021-07-11T09:08:50.711Z</time>
      </trkpt>
      <trkpt lat="44.93521" lon="1.09272">
        <ele>193.96281689711</ele>
        <time>2021-07-11T09:09:01.969Z</time>
      </trkpt>
      <trkpt lat="44.93516" lon="1.09306">
        <ele>192.57428953601</ele>
        <time>2021-07-11T09:09:13.232Z</time>
      </trkpt>
      <trkpt lat="44.93515" lon="1.09332">
        <ele>191.2634066352</ele>
        <time>2021-07-11T09:09:24.499Z</time>
      </trkpt>
      <trkpt lat="44.93533" lon="1.09397">
        <ele>189.78672310884</ele>
        <time>2021-07-11T09:09:35.776Z</time>
      </trkpt>
      <trkpt lat="44.9355" lon="1.09442">
        <ele>188.40716671754</ele>
        <time>2021-07-11T09:09:47.060Z</time>
      </trkpt>
      <trkpt lat="44.93561" lon="1.09496">
        <ele>187.10909142007</ele>
        <time>2021-07-11T09:09:58.352Z</time>
      </trkpt>
      <trkpt lat="44.93564" lon="1.09525">
        <ele>185.95975420853</ele>
        <time>2021-07-11T09:10:09.648Z</time>
      </trkpt>
      <trkpt lat="44.93574" lon="1.09542">
        <ele>184.91566802471</ele>
        <time>2021-07-11T09:10:20.947Z</time>
      </trkpt>
      <trkpt lat="44.93583" lon="1.09548">
        <ele>184.02057554638</ele>
        <time>2021-07-11T09:10:32.248Z</time>
      </trkpt>
      <trkpt lat="44.93601" lon="1.09556">
        <ele>183.19609917016</ele>
        <time>2021-07-11T09:10:43.553Z</time>
      </trkpt>
      <trkpt lat="44.93615" lon="1.09558">
        <ele>182.55214805515</ele>
        <time>2021-07-11T09:10:54.861Z</time>
      </trkpt>
      <trkpt lat="44.93631" lon="1.09555">
        <ele>182.03575216203</ele>
        <time>2021-07-11T09:11:06.172Z</time>
      </trkpt>
      <trkpt lat="44.93636" lon="1.09556">
        <ele>181.71999261953</ele>
        <time>2021-07-11T09:11:17.484Z</time>
      </trkpt>
      <trkpt lat="44.93637" lon="1.09561">
        <ele>181.57126266141</ele>
        <time>2021-07-11T09:11:28.797Z</time>
      </trkpt>
      <trkpt lat="44.93635" lon="1.0957">
        <ele>181.62107922199</ele>
        <time>2021-07-11T09:11:40.111Z</time>
      </trkpt>
      <trkpt lat="44.93602" lon="1.0959">
        <ele>181.84189321612</ele>
        <time>2021-07-11T09:11:51.432Z</time>
      </trkpt>
      <trkpt lat="44.93588" lon="1.09607">
        <ele>182.13855208463</ele>
        <time>2021-07-11T09:12:02.757Z</time>
      </trkpt>
      <trkpt lat="44.93583" lon="1.0963">
        <ele>182.46719132546</ele>
        <time>2021-07-11T09:12:14.085Z</time>
      </trkpt>
      <trkpt lat="44.93583" lon="1.09663">
        <ele>183.01498949663</ele>
        <time>2021-07-11T09:12:25.418Z</time>
      </trkpt>
      <trkpt lat="44.93589" lon="1.09702">
        <ele>183.76205753034</ele>
        <time>2021-07-11T09:12:36.757Z</time>
      </trkpt>
      <trkpt lat="44.93596" lon="1.09746">
        <ele>184.60008957482</ele>
        <time>2021-07-11T09:12:48.102Z</time>
      </trkpt>
      <trkpt lat="44.93605" lon="1.09786">
        <ele>185.51951835337</ele>
        <time>2021-07-11T09:12:59.453Z</time>
      </trkpt>
      <trkpt lat="44.93641" lon="1.0983">
        <ele>186.4384744469</ele>
        <time>2021-07-11T09:13:10.814Z</time>
      </trkpt>
      <trkpt lat="44.93658" lon="1.09863">
        <ele>187.37418876277</ele>
        <time>2021-07-11T09:13:22.180Z</time>
      </trkpt>
      <trkpt lat="44.93682" lon="1.0992">
        <ele>188.32559281561</ele>
        <time>2021-07-11T09:13:33.556Z</time>
      </trkpt>
      <trkpt lat="44.93697" lon="1.09949">
        <ele>189.05382840222</ele>
        <time>2021-07-11T09:13:44.937Z</time>
      </trkpt>
      <trkpt lat="44.93681" lon="1.09976">
        <ele>189.77554878364</ele>
        <time>2021-07-11T09:13:56.323Z</time>
      </trkpt>
      <trkpt lat="44.93678" lon="1.09979">
        <ele>190.32459309141</ele>
        <time>2021-07-11T09:14:07.710Z</time>
      </trkpt>
      <trkpt lat="44.93663" lon="1.09983">
        <ele>190.78720414211</ele>
        <time>2021-07-11T09:14:19.100Z</time>
      </trkpt>
      <trkpt lat="44.93657" lon="1.09986">
        <ele>191.11867072802</ele>
        <time>2021-07-11T09:14:30.491Z</time>
      </trkpt>
      <trkpt lat="44.93635" lon="1.10006">
        <ele>191.33272656778</ele>
        <time>2021-07-11T09:14:41.888Z</time>
      </trkpt>
      <trkpt lat="44.93629" lon="1.10009">
        <ele>191.4092752965</ele>
        <time>2021-07-11T09:14:53.286Z</time>
      </trkpt>
      <trkpt lat="44.93607" lon="1.10008">
        <ele>191.38898765689</ele>
        <time>2021-07-11T09:15:04.688Z</time>
      </trkpt>
      <trkpt lat="44.93609" lon="1.10033">
        <ele>191.10016422525</ele>
        <time>2021-07-11T09:15:16.094Z</time>
      </trkpt>
      <trkpt lat="44.93617" lon="1.10045">
        <ele>190.64744305255</ele>
        <time>2021-07-11T09:15:27.502Z</time>
      </trkpt>
      <trkpt lat="44.93654" lon="1.10067">
        <ele>189.87494543051</ele>
        <time>2021-07-11T09:15:38.918Z</time>
      </trkpt>
      <trkpt lat="44.93701" lon="1.10066">
        <ele>188.97153804262</ele>
        <time>2021-07-11T09:15:50.344Z</time>
      </trkpt>
      <trkpt lat="44.93738" lon="1.10062">
        <ele>188.06752045395</ele>
        <time>2021-07-11T09:16:01.777Z</time>
      </trkpt>
      <trkpt lat="44.9381" lon="1.1004">
        <ele>187.05803818595</ele>
        <time>2021-07-11T09:16:13.225Z</time>
      </trkpt>
      <trkpt lat="44.93844" lon="1.10027">
        <ele>185.82346098161</ele>
        <time>2021-07-11T09:16:24.680Z</time>
      </trkpt>
      <trkpt lat="44.93939" lon="1.1002">
        <ele>184.19029867421</ele>
        <time>2021-07-11T09:16:36.154Z</time>
      </trkpt>
      <trkpt lat="44.93963" lon="1.10032">
        <ele>182.58828615355</ele>
        <time>2021-07-11T09:16:47.633Z</time>
      </trkpt>
      <trkpt lat="44.93986" lon="1.10032">
        <ele>180.97070975735</ele>
        <time>2021-07-11T09:16:59.116Z</time>
      </trkpt>
      <trkpt lat="44.94005" lon="1.10054">
        <ele>179.09488306479</ele>
        <time>2021-07-11T09:17:10.604Z</time>
      </trkpt>
      <trkpt lat="44.94006" lon="1.1008">
        <ele>177.18523918336</ele>
        <time>2021-07-11T09:17:22.096Z</time>
      </trkpt>
      <trkpt lat="44.94004" lon="1.10092">
        <ele>175.30888985086</ele>
        <time>2021-07-11T09:17:33.590Z</time>
      </trkpt>
      <trkpt lat="44.93994" lon="1.10108">
        <ele>173.392375344</ele>
        <time>2021-07-11T09:17:45.087Z</time>
      </trkpt>
      <trkpt lat="44.93946" lon="1.10151">
        <ele>171.52274947083</ele>
        <time>2021-07-11T09:17:56.595Z</time>
      </trkpt>
      <trkpt lat="44.93933" lon="1.10177">
        <ele>169.5667565602</ele>
        <time>2021-07-11T09:18:08.108Z</time>
      </trkpt>
      <trkpt lat="44.93922" lon="1.10191">
        <ele>167.62069713515</ele>
        <time>2021-07-11T09:18:19.624Z</time>
      </trkpt>
      <trkpt lat="44.93923" lon="1.10207">
        <ele>165.57212480504</ele>
        <time>2021-07-11T09:18:31.142Z</time>
      </trkpt>
      <trkpt lat="44.93917" lon="1.10232">
        <ele>163.49835104365</ele>
        <time>2021-07-11T09:18:42.664Z</time>
      </trkpt>
      <trkpt lat="44.93911" lon="1.10243">
        <ele>161.52197675134</ele>
        <time>2021-07-11T09:18:54.188Z</time>
      </trkpt>
      <trkpt lat="44.93898" lon="1.10257">
        <ele>159.58327786908</ele>
        <time>2021-07-11T09:19:05.715Z</time>
      </trkpt>
      <trkpt lat="44.93896" lon="1.10264">
        <ele>157.68525442866</ele>
        <time>2021-07-11T09:19:17.243Z</time>
      </trkpt>
      <trkpt lat="44.93899" lon="1.10269">
        <ele>155.85733536247</ele>
        <time>2021-07-11T09:19:28.772Z</time>
      </trkpt>
      <trkpt lat="44.93921" lon="1.10279">
        <ele>154.01774123299</ele>
        <time>2021-07-11T09:19:40.306Z</time>
      </trkpt>
      <trkpt lat="44.93945" lon="1.10285">
        <ele>152.27965839901</ele>
        <time>2021-07-11T09:19:51.844Z</time>
      </trkpt>
      <trkpt lat="44.93953" lon="1.10293">
        <ele>150.67982843811</ele>
        <time>2021-07-11T09:20:03.385Z</time>
      </trkpt>
      <trkpt lat="44.93953" lon="1.10309">
        <ele>149.18015059593</ele>
        <time>2021-07-11T09:20:14.928Z</time>
      </trkpt>
      <trkpt lat="44.93947" lon="1.10325">
        <ele>147.79943070687</ele>
        <time>2021-07-11T09:20:26.473Z</time>
      </trkpt>
      <trkpt lat="44.93931" lon="1.10359">
        <ele>146.44891154205</ele>
        <time>2021-07-11T09:20:38.024Z</time>
      </trkpt>
      <trkpt lat="44.93904" lon="1.10388">
        <ele>145.28640191979</ele>
        <time>2021-07-11T09:20:49.582Z</time>
      </trkpt>
      <trkpt lat="44.93871" lon="1.10411">
        <ele>144.53070033279</ele>
        <time>2021-07-11T09:21:01.147Z</time>
      </trkpt>
      <trkpt lat="44.93854" lon="1.10417">
        <ele>143.94499752206</ele>
        <time>2021-07-11T09:21:12.716Z</time>
      </trkpt>
      <trkpt lat="44.93872" lon="1.10421">
        <ele>143.47035153677</ele>
        <time>2021-07-11T09:21:24.289Z</time>
      </trkpt>
      <trkpt lat="44.9393" lon="1.10448">
        <ele>143.04863970498</ele>
        <time>2021-07-11T09:21:35.874Z</time>
      </trkpt>
      <trkpt lat="44.93973" lon="1.10457">
        <ele>142.88830860418</ele>
        <time>2021-07-11T09:21:47.467Z</time>
      </trkpt>
      <trkpt lat="44.93972" lon="1.10494">
        <ele>143.05262986664</ele>
        <time>2021-07-11T09:21:59.066Z</time>
      </trkpt>
      <trkpt lat="44.93966" lon="1.10527">
        <ele>143.3988444746</ele>
        <time>2021-07-11T09:22:10.669Z</time>
      </trkpt>
      <trkpt lat="44.93965" lon="1.10565">
        <ele>143.93498693093</ele>
        <time>2021-07-11T09:22:22.278Z</time>
      </trkpt>
      <trkpt lat="44.93969" lon="1.1061">
        <ele>144.65612472796</ele>
        <time>2021-07-11T09:22:33.893Z</time>
      </trkpt>
      <trkpt lat="44.93961" lon="1.10636">
        <ele>145.48168608749</ele>
        <time>2021-07-11T09:22:45.512Z</time>
      </trkpt>
      <trkpt lat="44.9394" lon="1.10646">
        <ele>146.58439841671</ele>
        <time>2021-07-11T09:22:57.136Z</time>
      </trkpt>
      <trkpt lat="44.93915" lon="1.10661">
        <ele>147.94111455785</ele>
        <time>2021-07-11T09:23:08.765Z</time>
      </trkpt>
      <trkpt lat="44.93909" lon="1.10661">
        <ele>149.17674850009</ele>
        <time>2021-07-11T09:23:20.395Z</time>
      </trkpt>
      <trkpt lat="44.93903" lon="1.10658">
        <ele>150.51062375073</ele>
        <time>2021-07-11T09:23:32.027Z</time>
      </trkpt>
      <trkpt lat="44.93868" lon="1.10629">
        <ele>152.0304666449</ele>
        <time>2021-07-11T09:23:43.667Z</time>
      </trkpt>
      <trkpt lat="44.93854" lon="1.10612">
        <ele>153.46777079235</ele>
        <time>2021-07-11T09:23:55.310Z</time>
      </trkpt>
      <trkpt lat="44.93835" lon="1.106">
        <ele>154.99429264695</ele>
        <time>2021-07-11T09:24:06.958Z</time>
      </trkpt>
      <trkpt lat="44.93827" lon="1.106">
        <ele>156.58899136663</ele>
        <time>2021-07-11T09:24:18.607Z</time>
      </trkpt>
      <trkpt lat="44.93824" lon="1.10602">
        <ele>158.2199121727</ele>
        <time>2021-07-11T09:24:30.257Z</time>
      </trkpt>
      <trkpt lat="44.93818" lon="1.10617">
        <ele>159.95982475351</ele>
        <time>2021-07-11T09:24:41.909Z</time>
      </trkpt>
      <trkpt lat="44.93816" lon="1.1064">
        <ele>161.72884733065</ele>
        <time>2021-07-11T09:24:53.565Z</time>
      </trkpt>
      <trkpt lat="44.93815" lon="1.10645">
        <ele>163.39018384754</ele>
        <time>2021-07-11T09:25:05.221Z</time>
      </trkpt>
      <trkpt lat="44.93812" lon="1.10649">
        <ele>165.012274425</ele>
        <time>2021-07-11T09:25:16.878Z</time>
      </trkpt>
      <trkpt lat="44.93778" lon="1.10678">
        <ele>166.74396801477</ele>
        <time>2021-07-11T09:25:28.543Z</time>
      </trkpt>
      <trkpt lat="44.93758" lon="1.10701">
        <ele>168.31070300501</ele>
        <time>2021-07-11T09:25:40.213Z</time>
      </trkpt>
      <trkpt lat="44.93751" lon="1.1071">
        <ele>169.86768135589</ele>
        <time>2021-07-11T09:25:51.885Z</time>
      </trkpt>
      <trkpt lat="44.9373" lon="1.10756">
        <ele>171.3670406322</ele>
        <time>2021-07-11T09:26:03.565Z</time>
      </trkpt>
      <trkpt lat="44.93718" lon="1.10771">
        <ele>172.83834944329</ele>
        <time>2021-07-11T09:26:15.248Z</time>
      </trkpt>
      <trkpt lat="44.93694" lon="1.10814">
        <ele>174.31268506597</ele>
        <time>2021-07-11T09:26:26.939Z</time>
      </trkpt>
      <trkpt lat="44.93658" lon="1.10854">
        <ele>175.51685205325</ele>
        <time>2021-07-11T09:26:38.639Z</time>
      </trkpt>
      <trkpt lat="44.9365" lon="1.10858">
        <ele>176.68967481244</ele>
        <time>2021-07-11T09:26:50.341Z</time>
      </trkpt>
      <trkpt lat="44.93611" lon="1.10854">
        <ele>177.95243649273</ele>
        <time>2021-07-11T09:27:02.051Z</time>
      </trkpt>
      <trkpt lat="44.93601" lon="1.10856">
        <ele>178.8809133362</ele>
        <time>2021-07-11T09:27:13.763Z</time>
      </trkpt>
      <trkpt lat="44.93599" lon="1.10861">
        <ele>179.67178158257</ele>
        <time>2021-07-11T09:27:25.475Z</time>
      </trkpt>
      <trkpt lat="44.9357" lon="1.109">
        <ele>180.30301743061</ele>
        <time>2021-07-11T09:27:37.195Z</time>
      </trkpt>
      <trkpt lat="44.93555" lon="1.10912">
        <ele>180.8260495691</ele>
        <time>2021-07-11T09:27:48.919Z</time>
      </trkpt>
      <trkpt lat="44.93539" lon="1.10919">
        <ele>181.32686954564</ele>
        <time>2021-07-11T09:28:00.646Z</time>
      </trkpt>
      <trkpt lat="44.93489" lon="1.10927">
        <ele>181.87977977747</ele>
        <time>2021-07-11T09:28:12.383Z</time>
      </trkpt>
      <trkpt lat="44.93457" lon="1.10936">
        <ele>182.22478889116</ele>
        <time>2021-07-11T09:28:24.127Z</time>
      </trkpt>
      <trkpt lat="44.93422" lon="1.10951">
        <ele>182.47821322085</ele>
        <time>2021-07-11T09:28:35.878Z</time>
      </trkpt>
      <trkpt lat="44.93422" lon="1.10961">
        <ele>182.48661510653</ele>
        <time>2021-07-11T09:28:47.631Z</time>
      </trkpt>
      <trkpt lat="44.9339" lon="1.11013">
        <ele>182.52282102827</ele>
        <time>2021-07-11T09:28:59.393Z</time>
      </trkpt>
      <trkpt lat="44.93384" lon="1.11026">
        <ele>182.3508311877</ele>
        <time>2021-07-11T09:29:11.157Z</time>
      </trkpt>
      <trkpt lat="44.93384" lon="1.11036">
        <ele>182.09931295744</ele>
        <time>2021-07-11T09:29:22.923Z</time>
      </trkpt>
      <trkpt lat="44.93385" lon="1.11044">
        <ele>181.79204036393</ele>
        <time>2021-07-11T09:29:34.690Z</time>
      </trkpt>
      <trkpt lat="44.93388" lon="1.1105">
        <ele>181.44679414824</ele>
        <time>2021-07-11T09:29:46.458Z</time>
      </trkpt>
      <trkpt lat="44.93395" lon="1.11056">
        <ele>181.06426889331</ele>
        <time>2021-07-11T09:29:58.228Z</time>
      </trkpt>
      <trkpt lat="44.93403" lon="1.11057">
        <ele>180.68626513443</ele>
        <time>2021-07-11T09:30:09.999Z</time>
      </trkpt>
      <trkpt lat="44.93449" lon="1.1104">
        <ele>180.21208325941</ele>
        <time>2021-07-11T09:30:21.780Z</time>
      </trkpt>
      <trkpt lat="44.93607" lon="1.11042">
        <ele>179.2772136132</ele>
        <time>2021-07-11T09:30:33.592Z</time>
      </trkpt>
      <trkpt lat="44.93624" lon="1.11044">
        <ele>178.95115395204</ele>
        <time>2021-07-11T09:30:45.408Z</time>
      </trkpt>
      <trkpt lat="44.93631" lon="1.11049">
        <ele>178.76497553438</ele>
        <time>2021-07-11T09:30:57.225Z</time>
      </trkpt>
      <trkpt lat="44.93636" lon="1.11055">
        <ele>178.67561933221</ele>
        <time>2021-07-11T09:31:09.044Z</time>
      </trkpt>
      <trkpt lat="44.93646" lon="1.11086">
        <ele>178.79557175596</ele>
        <time>2021-07-11T09:31:20.867Z</time>
      </trkpt>
      <trkpt lat="44.93651" lon="1.111">
        <ele>178.96054517023</ele>
        <time>2021-07-11T09:31:32.693Z</time>
      </trkpt>
      <trkpt lat="44.93656" lon="1.11104">
        <ele>179.20411230674</ele>
        <time>2021-07-11T09:31:44.520Z</time>
      </trkpt>
      <trkpt lat="44.93661" lon="1.11107">
        <ele>179.55427257243</ele>
        <time>2021-07-11T09:31:56.348Z</time>
      </trkpt>
      <trkpt lat="44.93668" lon="1.11107">
        <ele>180.01256525434</ele>
        <time>2021-07-11T09:32:08.177Z</time>
      </trkpt>
      <trkpt lat="44.93675" lon="1.11103">
        <ele>180.5703911318</ele>
        <time>2021-07-11T09:32:20.008Z</time>
      </trkpt>
      <trkpt lat="44.93686" lon="1.11092">
        <ele>181.20471554733</ele>
        <time>2021-07-11T09:32:31.841Z</time>
      </trkpt>
      <trkpt lat="44.9369" lon="1.11091">
        <ele>182.01254332808</ele>
        <time>2021-07-11T09:32:43.675Z</time>
      </trkpt>
      <trkpt lat="44.93648" lon="1.11187">
        <ele>183.45189688753</ele>
        <time>2021-07-11T09:32:55.525Z</time>
      </trkpt>
      <trkpt lat="44.93611" lon="1.11267">
        <ele>184.63080766092</ele>
        <time>2021-07-11T09:33:07.389Z</time>
      </trkpt>
      <trkpt lat="44.93591" lon="1.11299">
        <ele>185.85318631917</ele>
        <time>2021-07-11T09:33:19.259Z</time>
      </trkpt>
      <trkpt lat="44.93566" lon="1.11332">
        <ele>187.23030767384</ele>
        <time>2021-07-11T09:33:31.136Z</time>
      </trkpt>
      <trkpt lat="44.93544" lon="1.11355">
        <ele>188.52512480754</ele>
        <time>2021-07-11T09:33:43.018Z</time>
      </trkpt>
      <trkpt lat="44.93539" lon="1.11371">
        <ele>189.80807466541</ele>
        <time>2021-07-11T09:33:54.903Z</time>
      </trkpt>
      <trkpt lat="44.93534" lon="1.11393">
        <ele>191.12143349829</ele>
        <time>2021-07-11T09:34:06.791Z</time>
      </trkpt>
      <trkpt lat="44.9352" lon="1.11428">
        <ele>192.63202783668</ele>
        <time>2021-07-11T09:34:18.685Z</time>
      </trkpt>
      <trkpt lat="44.93499" lon="1.11465">
        <ele>194.06475146194</ele>
        <time>2021-07-11T09:34:30.586Z</time>
      </trkpt>
      <trkpt lat="44.93483" lon="1.11487">
        <ele>195.35186497598</ele>
        <time>2021-07-11T09:34:42.491Z</time>
      </trkpt>
      <trkpt lat="44.93462" lon="1.11524">
        <ele>196.63704859841</ele>
        <time>2021-07-11T09:34:54.403Z</time>
      </trkpt>
      <trkpt lat="44.93455" lon="1.11525">
        <ele>197.75371548536</ele>
        <time>2021-07-11T09:35:06.316Z</time>
      </trkpt>
      <trkpt lat="44.93463" lon="1.11539">
        <ele>198.76647222357</ele>
        <time>2021-07-11T09:35:18.232Z</time>
      </trkpt>
      <trkpt lat="44.9347" lon="1.11557">
        <ele>199.71937330212</ele>
        <time>2021-07-11T09:35:30.151Z</time>
      </trkpt>
      <trkpt lat="44.93476" lon="1.11597">
        <ele>200.65597096158</ele>
        <time>2021-07-11T09:35:42.075Z</time>
      </trkpt>
      <trkpt lat="44.93494" lon="1.11634">
        <ele>201.46796055763</ele>
        <time>2021-07-11T09:35:54.006Z</time>
      </trkpt>
      <trkpt lat="44.93545" lon="1.117">
        <ele>202.21892754985</ele>
        <time>2021-07-11T09:36:05.951Z</time>
      </trkpt>
      <trkpt lat="44.93581" lon="1.11827">
        <ele>203.16178872594</ele>
        <time>2021-07-11T09:36:17.915Z</time>
      </trkpt>
      <trkpt lat="44.93568" lon="1.11846">
        <ele>203.62934312479</ele>
        <time>2021-07-11T09:36:29.883Z</time>
      </trkpt>
      <trkpt lat="44.93616" lon="1.11877">
        <ele>203.85707010044</ele>
        <time>2021-07-11T09:36:41.861Z</time>
      </trkpt>
      <trkpt lat="44.93687" lon="1.11934">
        <ele>203.64522536783</ele>
        <time>2021-07-11T09:36:53.856Z</time>
      </trkpt>
      <trkpt lat="44.93711" lon="1.11963">
        <ele>203.71672326821</ele>
        <time>2021-07-11T09:37:05.857Z</time>
      </trkpt>
      <trkpt lat="44.93728" lon="1.11997">
        <ele>203.78577417858</ele>
        <time>2021-07-11T09:37:17.864Z</time>
      </trkpt>
      <trkpt lat="44.9373" lon="1.12021">
        <ele>203.90440202467</ele>
        <time>2021-07-11T09:37:29.874Z</time>
      </trkpt>
      <trkpt lat="44.93775" lon="1.12133">
        <ele>203.77780397216</ele>
        <time>2021-07-11T09:37:41.903Z</time>
      </trkpt>
      <trkpt lat="44.93805" lon="1.12223">
        <ele>203.93144331976</ele>
        <time>2021-07-11T09:37:53.946Z</time>
      </trkpt>
      <trkpt lat="44.93816" lon="1.1224">
        <ele>204.14133922338</ele>
        <time>2021-07-11T09:38:05.992Z</time>
      </trkpt>
      <trkpt lat="44.93895" lon="1.1235">
        <ele>204.87391802825</ele>
        <time>2021-07-11T09:38:18.060Z</time>
      </trkpt>
      <trkpt lat="44.9393" lon="1.12382">
        <ele>205.21989505317</ele>
        <time>2021-07-11T09:38:30.137Z</time>
      </trkpt>
      <trkpt lat="44.93927" lon="1.12397">
        <ele>205.41884886359</ele>
        <time>2021-07-11T09:38:42.216Z</time>
      </trkpt>
      <trkpt lat="44.93915" lon="1.12419">
        <ele>205.55603238734</ele>
        <time>2021-07-11T09:38:54.299Z</time>
      </trkpt>
      <trkpt lat="44.9389" lon="1.12441">
        <ele>205.75737987654</ele>
        <time>2021-07-11T09:39:06.388Z</time>
      </trkpt>
      <trkpt lat="44.93914" lon="1.12497">
        <ele>205.98218978471</ele>
        <time>2021-07-11T09:39:18.486Z</time>
      </trkpt>
      <trkpt lat="44.93946" lon="1.12588">
        <ele>206.11076710191</ele>
        <time>2021-07-11T09:39:30.599Z</time>
      </trkpt>
      <trkpt lat="44.93962" lon="1.12677">
        <ele>206.06577296155</ele>
        <time>2021-07-11T09:39:42.725Z</time>
      </trkpt>
      <trkpt lat="44.93989" lon="1.12759">
        <ele>205.95274729759</ele>
        <time>2021-07-11T09:39:54.864Z</time>
      </trkpt>
      <trkpt lat="44.94007" lon="1.12786">
        <ele>206.00254082023</ele>
        <time>2021-07-11T09:40:07.008Z</time>
      </trkpt>
      <trkpt lat="44.94002" lon="1.12802">
        <ele>206.14139269687</ele>
        <time>2021-07-11T09:40:19.154Z</time>
      </trkpt>
      <trkpt lat="44.94033" lon="1.12793">
        <ele>206.32634120739</ele>
        <time>2021-07-11T09:40:31.307Z</time>
      </trkpt>
      <trkpt lat="44.94068" lon="1.12868">
        <ele>206.59750719141</ele>
        <time>2021-07-11T09:40:43.472Z</time>
      </trkpt>
      <trkpt lat="44.94075" lon="1.12895">
        <ele>206.91386128102</ele>
        <time>2021-07-11T09:40:55.642Z</time>
      </trkpt>
      <trkpt lat="44.9409" lon="1.12918">
        <ele>207.32836966141</ele>
        <time>2021-07-11T09:41:07.816Z</time>
      </trkpt>
      <trkpt lat="44.94095" lon="1.1293">
        <ele>207.73862780913</ele>
        <time>2021-07-11T09:41:19.992Z</time>
      </trkpt>
      <trkpt lat="44.94103" lon="1.12961">
        <ele>208.25459884045</ele>
        <time>2021-07-11T09:41:32.173Z</time>
      </trkpt>
      <trkpt lat="44.94103" lon="1.12979">
        <ele>208.7734834411</ele>
        <time>2021-07-11T09:41:44.356Z</time>
      </trkpt>
      <trkpt lat="44.94109" lon="1.13001">
        <ele>209.2787589491</ele>
        <time>2021-07-11T09:41:56.542Z</time>
      </trkpt>
      <trkpt lat="44.94119" lon="1.13027">
        <ele>209.81576630065</ele>
        <time>2021-07-11T09:42:08.733Z</time>
      </trkpt>
      <trkpt lat="44.94114" lon="1.13034">
        <ele>210.35402254289</ele>
        <time>2021-07-11T09:42:20.925Z</time>
      </trkpt>
      <trkpt lat="44.94123" lon="1.13087">
        <ele>210.9764834679</ele>
        <time>2021-07-11T09:42:33.125Z</time>
      </trkpt>
      <trkpt lat="44.9412" lon="1.13103">
        <ele>211.56408452207</ele>
        <time>2021-07-11T09:42:45.327Z</time>
      </trkpt>
      <trkpt lat="44.94128" lon="1.13113">
        <ele>212.12470705204</ele>
        <time>2021-07-11T09:42:57.531Z</time>
      </trkpt>
      <trkpt lat="44.9414" lon="1.1312">
        <ele>212.69127654418</ele>
        <time>2021-07-11T09:43:09.738Z</time>
      </trkpt>
      <trkpt lat="44.94207" lon="1.13142">
        <ele>213.1819896951</ele>
        <time>2021-07-11T09:43:21.959Z</time>
      </trkpt>
      <trkpt lat="44.94229" lon="1.1316">
        <ele>213.94202710897</ele>
        <time>2021-07-11T09:43:34.185Z</time>
      </trkpt>
      <trkpt lat="44.94243" lon="1.13164">
        <ele>214.60551023871</ele>
        <time>2021-07-11T09:43:46.414Z</time>
      </trkpt>
      <trkpt lat="44.94255" lon="1.13165">
        <ele>215.23749507851</ele>
        <time>2021-07-11T09:43:58.645Z</time>
      </trkpt>
      <trkpt lat="44.9426" lon="1.13178">
        <ele>215.88625201351</ele>
        <time>2021-07-11T09:44:10.878Z</time>
      </trkpt>
      <trkpt lat="44.94265" lon="1.13186">
        <ele>216.50517110902</ele>
        <time>2021-07-11T09:44:23.113Z</time>
      </trkpt>
      <trkpt lat="44.94281" lon="1.1318">
        <ele>217.05510439012</ele>
        <time>2021-07-11T09:44:35.351Z</time>
      </trkpt>
      <trkpt lat="44.94299" lon="1.13178">
        <ele>217.58365217793</ele>
        <time>2021-07-11T09:44:47.592Z</time>
      </trkpt>
      <trkpt lat="44.94314" lon="1.13182">
        <ele>218.09227678486</ele>
        <time>2021-07-11T09:44:59.837Z</time>
      </trkpt>
      <trkpt lat="44.94328" lon="1.13193">
        <ele>218.60176450704</ele>
        <time>2021-07-11T09:45:12.085Z</time>
      </trkpt>
      <trkpt lat="44.94347" lon="1.13212">
        <ele>219.12818838911</ele>
        <time>2021-07-11T09:45:24.337Z</time>
      </trkpt>
      <trkpt lat="44.9436" lon="1.13232">
        <ele>219.60751923943</ele>
        <time>2021-07-11T09:45:36.593Z</time>
      </trkpt>
      <trkpt lat="44.94412" lon="1.13326">
        <ele>220.09538593119</ele>
        <time>2021-07-11T09:45:48.866Z</time>
      </trkpt>
      <trkpt lat="44.94419" lon="1.13346">
        <ele>220.42109929828</ele>
        <time>2021-07-11T09:46:01.142Z</time>
      </trkpt>
      <trkpt lat="44.94426" lon="1.13375">
        <ele>220.74250619378</ele>
        <time>2021-07-11T09:46:13.423Z</time>
      </trkpt>
      <trkpt lat="44.94427" lon="1.13411">
        <ele>220.99553253609</ele>
        <time>2021-07-11T09:46:25.709Z</time>
      </trkpt>
      <trkpt lat="44.94425" lon="1.13431">
        <ele>221.1900878247</ele>
        <time>2021-07-11T09:46:37.998Z</time>
      </trkpt>
      <trkpt lat="44.94415" lon="1.13474">
        <ele>221.33992275501</ele>
        <time>2021-07-11T09:46:50.293Z</time>
      </trkpt>
      <trkpt lat="44.94404" lon="1.13495">
        <ele>221.46404931097</ele>
        <time>2021-07-11T09:47:02.592Z</time>
      </trkpt>
      <trkpt lat="44.9439" lon="1.13511">
        <ele>221.58638392488</ele>
        <time>2021-07-11T09:47:14.895Z</time>
      </trkpt>
      <trkpt lat="44.94371" lon="1.13523">
        <ele>221.74739267497</ele>
        <time>2021-07-11T09:47:27.202Z</time>
      </trkpt>
      <trkpt lat="44.94356" lon="1.13526">
        <ele>222.00725896572</ele>
        <time>2021-07-11T09:47:39.512Z</time>
      </trkpt>
      <trkpt lat="44.94227" lon="1.13547">
        <ele>222.40600778024</ele>
        <time>2021-07-11T09:47:51.848Z</time>
      </trkpt>
      <trkpt lat="44.94199" lon="1.13556">
        <ele>222.82494280805</ele>
        <time>2021-07-11T09:48:04.189Z</time>
      </trkpt>
      <trkpt lat="44.94167" lon="1.13575">
        <ele>223.370594861</ele>
        <time>2021-07-11T09:48:16.537Z</time>
      </trkpt>
      <trkpt lat="44.94158" lon="1.13583">
        <ele>223.91663395787</ele>
        <time>2021-07-11T09:48:28.888Z</time>
      </trkpt>
      <trkpt lat="44.9414" lon="1.13601">
        <ele>224.55818023509</ele>
        <time>2021-07-11T09:48:41.243Z</time>
      </trkpt>
      <trkpt lat="44.94127" lon="1.13621">
        <ele>225.27395101696</ele>
        <time>2021-07-11T09:48:53.602Z</time>
      </trkpt>
      <trkpt lat="44.94108" lon="1.13666">
        <ele>225.97924633897</ele>
        <time>2021-07-11T09:49:05.968Z</time>
      </trkpt>
      <trkpt lat="44.94093" lon="1.13694">
        <ele>226.86726737477</ele>
        <time>2021-07-11T09:49:18.339Z</time>
      </trkpt>
      <trkpt lat="44.94029" lon="1.138">
        <ele>227.65025719994</ele>
        <time>2021-07-11T09:49:30.730Z</time>
      </trkpt>
      <trkpt lat="44.94029" lon="1.13844">
        <ele>228.78805831639</ele>
        <time>2021-07-11T09:49:43.127Z</time>
      </trkpt>
      <trkpt lat="44.94047" lon="1.13969">
        <ele>230.27431806122</ele>
        <time>2021-07-11T09:49:55.542Z</time>
      </trkpt>
      <trkpt lat="44.94052" lon="1.14027">
        <ele>231.84598547931</ele>
        <time>2021-07-11T09:50:07.965Z</time>
      </trkpt>
      <trkpt lat="44.94051" lon="1.14056">
        <ele>233.49739195028</ele>
        <time>2021-07-11T09:50:20.393Z</time>
      </trkpt>
      <trkpt lat="44.94042" lon="1.14137">
        <ele>235.32793821758</ele>
        <time>2021-07-11T09:50:32.832Z</time>
      </trkpt>
      <trkpt lat="44.94042" lon="1.14256">
        <ele>237.52159284691</ele>
        <time>2021-07-11T09:50:45.288Z</time>
      </trkpt>
      <trkpt lat="44.94037" lon="1.14307">
        <ele>239.71193979602</ele>
        <time>2021-07-11T09:50:57.752Z</time>
      </trkpt>
      <trkpt lat="44.94027" lon="1.14347">
        <ele>242.06374262883</ele>
        <time>2021-07-11T09:51:10.222Z</time>
      </trkpt>
      <trkpt lat="44.94015" lon="1.1438">
        <ele>244.45060762033</ele>
        <time>2021-07-11T09:51:22.697Z</time>
      </trkpt>
      <trkpt lat="44.94013" lon="1.14407">
        <ele>246.74467485836</ele>
        <time>2021-07-11T09:51:35.176Z</time>
      </trkpt>
      <trkpt lat="44.93998" lon="1.14438">
        <ele>249.06946108483</ele>
        <time>2021-07-11T09:51:47.660Z</time>
      </trkpt>
      <trkpt lat="44.93936" lon="1.14532">
        <ele>251.90018237699</ele>
        <time>2021-07-11T09:52:00.162Z</time>
      </trkpt>
      <trkpt lat="44.93919" lon="1.14549">
        <ele>254.26035316424</ele>
        <time>2021-07-11T09:52:12.668Z</time>
      </trkpt>
      <trkpt lat="44.93903" lon="1.1458">
        <ele>256.52218949706</ele>
        <time>2021-07-11T09:52:25.180Z</time>
      </trkpt>
      <trkpt lat="44.93892" lon="1.14578">
        <ele>258.71612895891</ele>
        <time>2021-07-11T09:52:37.694Z</time>
      </trkpt>
      <trkpt lat="44.93879" lon="1.14631">
        <ele>261.05853698012</ele>
        <time>2021-07-11T09:52:50.216Z</time>
      </trkpt>
      <trkpt lat="44.93844" lon="1.14694">
        <ele>263.01398761859</ele>
        <time>2021-07-11T09:53:02.749Z</time>
      </trkpt>
      <trkpt lat="44.93815" lon="1.14854">
        <ele>264.41652854094</ele>
        <time>2021-07-11T09:53:15.306Z</time>
      </trkpt>
      <trkpt lat="44.93818" lon="1.14899">
        <ele>266.31324745742</ele>
        <time>2021-07-11T09:53:27.869Z</time>
      </trkpt>
      <trkpt lat="44.93825" lon="1.14937">
        <ele>268.34167087973</ele>
        <time>2021-07-11T09:53:40.438Z</time>
      </trkpt>
      <trkpt lat="44.93818" lon="1.14973">
        <ele>270.32177247145</ele>
        <time>2021-07-11T09:53:53.012Z</time>
      </trkpt>
      <trkpt lat="44.93819" lon="1.15091">
        <ele>273.91589673349</ele>
        <time>2021-07-11T09:54:05.603Z</time>
      </trkpt>
      <trkpt lat="44.93813" lon="1.15118">
        <ele>275.24068794364</ele>
        <time>2021-07-11T09:54:18.198Z</time>
      </trkpt>
      <trkpt lat="44.93817" lon="1.15216">
        <ele>276.31998623041</ele>
        <time>2021-07-11T09:54:30.807Z</time>
      </trkpt>
      <trkpt lat="44.93829" lon="1.15268">
        <ele>277.65530489124</ele>
        <time>2021-07-11T09:54:43.424Z</time>
      </trkpt>
      <trkpt lat="44.93845" lon="1.15376">
        <ele>279.16801222169</ele>
        <time>2021-07-11T09:54:56.056Z</time>
      </trkpt>
      <trkpt lat="44.93857" lon="1.15445">
        <ele>280.6598340712</ele>
        <time>2021-07-11T09:55:08.698Z</time>
      </trkpt>
      <trkpt lat="44.93863" lon="1.15504">
        <ele>282.01879582181</ele>
        <time>2021-07-11T09:55:21.349Z</time>
      </trkpt>
      <trkpt lat="44.93862" lon="1.15545">
        <ele>283.21327574809</ele>
        <time>2021-07-11T09:55:34.006Z</time>
      </trkpt>
      <trkpt lat="44.93858" lon="1.15596">
        <ele>284.30447790739</ele>
        <time>2021-07-11T09:55:46.670Z</time>
      </trkpt>
      <trkpt lat="44.93838" lon="1.15667">
        <ele>285.18030774139</ele>
        <time>2021-07-11T09:55:59.345Z</time>
      </trkpt>
      <trkpt lat="44.93806" lon="1.15723">
        <ele>286.0163821874</ele>
        <time>2021-07-11T09:56:12.030Z</time>
      </trkpt>
      <trkpt lat="44.93784" lon="1.15766">
        <ele>286.80944594604</ele>
        <time>2021-07-11T09:56:24.723Z</time>
      </trkpt>
      <trkpt lat="44.93771" lon="1.15805">
        <ele>287.55348847473</ele>
        <time>2021-07-11T09:56:37.422Z</time>
      </trkpt>
      <trkpt lat="44.93761" lon="1.15841">
        <ele>288.26504867119</ele>
        <time>2021-07-11T09:56:50.126Z</time>
      </trkpt>
      <trkpt lat="44.93742" lon="1.15891">
        <ele>288.9288481432</ele>
        <time>2021-07-11T09:57:02.838Z</time>
      </trkpt>
      <trkpt lat="44.93723" lon="1.15929">
        <ele>289.46805656541</ele>
        <time>2021-07-11T09:57:15.557Z</time>
      </trkpt>
      <trkpt lat="44.93714" lon="1.15965">
        <ele>290.1052500933</ele>
        <time>2021-07-11T09:57:28.281Z</time>
      </trkpt>
      <trkpt lat="44.937" lon="1.16053">
        <ele>290.52206019748</ele>
        <time>2021-07-11T09:57:41.018Z</time>
      </trkpt>
      <trkpt lat="44.93716" lon="1.16073">
        <ele>290.61453995326</ele>
        <time>2021-07-11T09:57:53.759Z</time>
      </trkpt>
      <trkpt lat="44.93742" lon="1.16114">
        <ele>290.34275400869</ele>
        <time>2021-07-11T09:58:06.508Z</time>
      </trkpt>
      <trkpt lat="44.93752" lon="1.1614">
        <ele>290.14461440124</ele>
        <time>2021-07-11T09:58:19.261Z</time>
      </trkpt>
      <trkpt lat="44.93751" lon="1.16167">
        <ele>290.00993951136</ele>
        <time>2021-07-11T09:58:32.018Z</time>
      </trkpt>
      <trkpt lat="44.93752" lon="1.16177">
        <ele>289.82495007624</ele>
        <time>2021-07-11T09:58:44.777Z</time>
      </trkpt>
      <trkpt lat="44.93775" lon="1.16195">
        <ele>289.42483215393</ele>
        <time>2021-07-11T09:58:57.541Z</time>
      </trkpt>
      <trkpt lat="44.93771" lon="1.16219">
        <ele>289.10212133266</ele>
        <time>2021-07-11T09:59:10.308Z</time>
      </trkpt>
      <trkpt lat="44.93764" lon="1.16236">
        <ele>288.73362523352</ele>
        <time>2021-07-11T09:59:23.078Z</time>
      </trkpt>
      <trkpt lat="44.9376" lon="1.16251">
        <ele>288.23990065201</ele>
        <time>2021-07-11T09:59:35.850Z</time>
      </trkpt>
      <trkpt lat="44.93752" lon="1.16266">
        <ele>287.68744801298</ele>
        <time>2021-07-11T09:59:48.625Z</time>
      </trkpt>
      <trkpt lat="44.9374" lon="1.16303">
        <ele>287.08261641994</ele>
        <time>2021-07-11T10:00:01.406Z</time>
      </trkpt>
      <trkpt lat="44.93737" lon="1.16338">
        <ele>286.30440154256</ele>
        <time>2021-07-11T10:00:14.192Z</time>
      </trkpt>
      <trkpt lat="44.93737" lon="1.16359">
        <ele>285.37721722559</ele>
        <time>2021-07-11T10:00:26.981Z</time>
      </trkpt>
      <trkpt lat="44.93747" lon="1.16415">
        <ele>284.26362837504</ele>
        <time>2021-07-11T10:00:39.778Z</time>
      </trkpt>
      <trkpt lat="44.93748" lon="1.16446">
        <ele>283.15232633408</ele>
        <time>2021-07-11T10:00:52.579Z</time>
      </trkpt>
      <trkpt lat="44.93746" lon="1.16479">
        <ele>281.91087277642</ele>
        <time>2021-07-11T10:01:05.385Z</time>
      </trkpt>
      <trkpt lat="44.93753" lon="1.16538">
        <ele>280.68330953561</ele>
        <time>2021-07-11T10:01:18.200Z</time>
      </trkpt>
      <trkpt lat="44.93751" lon="1.16562">
        <ele>279.12749940696</ele>
        <time>2021-07-11T10:01:31.018Z</time>
      </trkpt>
      <trkpt lat="44.93737" lon="1.16593">
        <ele>277.49789104636</ele>
        <time>2021-07-11T10:01:43.841Z</time>
      </trkpt>
      <trkpt lat="44.93741" lon="1.16626">
        <ele>275.56632136245</ele>
        <time>2021-07-11T10:01:56.669Z</time>
      </trkpt>
      <trkpt lat="44.93739" lon="1.1665">
        <ele>273.53312744162</ele>
        <time>2021-07-11T10:02:09.500Z</time>
      </trkpt>
      <trkpt lat="44.9373" lon="1.16655">
        <ele>271.37290584886</ele>
        <time>2021-07-11T10:02:22.333Z</time>
      </trkpt>
      <trkpt lat="44.93707" lon="1.16661">
        <ele>268.94653082455</ele>
        <time>2021-07-11T10:02:35.171Z</time>
      </trkpt>
      <trkpt lat="44.93686" lon="1.16658">
        <ele>266.18666759395</ele>
        <time>2021-07-11T10:02:48.013Z</time>
      </trkpt>
      <trkpt lat="44.93672" lon="1.16638">
        <ele>263.45612642835</ele>
        <time>2021-07-11T10:03:00.859Z</time>
      </trkpt>
      <trkpt lat="44.93635" lon="1.16596">
        <ele>260.63345619194</ele>
        <time>2021-07-11T10:03:13.715Z</time>
      </trkpt>
      <trkpt lat="44.93625" lon="1.16577">
        <ele>257.85546448369</ele>
        <time>2021-07-11T10:03:26.574Z</time>
      </trkpt>
      <trkpt lat="44.93623" lon="1.16595">
        <ele>254.75205321796</ele>
        <time>2021-07-11T10:03:39.436Z</time>
      </trkpt>
      <trkpt lat="44.93626" lon="1.16622">
        <ele>251.52613638311</ele>
        <time>2021-07-11T10:03:52.301Z</time>
      </trkpt>
      <trkpt lat="44.93637" lon="1.16673">
        <ele>248.40807647124</ele>
        <time>2021-07-11T10:04:05.174Z</time>
      </trkpt>
      <trkpt lat="44.93638" lon="1.16714">
        <ele>245.28090172636</ele>
        <time>2021-07-11T10:04:18.053Z</time>
      </trkpt>
      <trkpt lat="44.93632" lon="1.1673">
        <ele>241.98455351174</ele>
        <time>2021-07-11T10:04:30.934Z</time>
      </trkpt>
      <trkpt lat="44.9362" lon="1.16745">
        <ele>238.72202950541</ele>
        <time>2021-07-11T10:04:43.819Z</time>
      </trkpt>
      <trkpt lat="44.93611" lon="1.16752">
        <ele>235.4250330216</ele>
        <time>2021-07-11T10:04:56.706Z</time>
      </trkpt>
      <trkpt lat="44.93602" lon="1.16754">
        <ele>232.08709418806</ele>
        <time>2021-07-11T10:05:09.594Z</time>
      </trkpt>
      <trkpt lat="44.93584" lon="1.16763">
        <ele>228.72107466527</ele>
        <time>2021-07-11T10:05:22.486Z</time>
      </trkpt>
      <trkpt lat="44.93522" lon="1.16796">
        <ele>225.13959224716</ele>
        <time>2021-07-11T10:05:35.392Z</time>
      </trkpt>
      <trkpt lat="44.93461" lon="1.16842">
        <ele>221.35255722523</ele>
        <time>2021-07-11T10:05:48.311Z</time>
      </trkpt>
      <trkpt lat="44.93435" lon="1.16886">
        <ele>217.8910359951</ele>
        <time>2021-07-11T10:06:01.239Z</time>
      </trkpt>
      <trkpt lat="44.93421" lon="1.16914">
        <ele>214.60034755326</ele>
        <time>2021-07-11T10:06:14.171Z</time>
      </trkpt>
      <trkpt lat="44.9342" lon="1.16949">
        <ele>211.66311533597</ele>
        <time>2021-07-11T10:06:27.108Z</time>
      </trkpt>
      <trkpt lat="44.93421" lon="1.16963">
        <ele>209.09379953351</ele>
        <time>2021-07-11T10:06:40.047Z</time>
      </trkpt>
      <trkpt lat="44.93433" lon="1.17009">
        <ele>206.65735614516</ele>
        <time>2021-07-11T10:06:52.993Z</time>
      </trkpt>
      <trkpt lat="44.93435" lon="1.17038">
        <ele>204.34471122391</ele>
        <time>2021-07-11T10:07:05.943Z</time>
      </trkpt>
      <trkpt lat="44.93433" lon="1.17066">
        <ele>202.38419975133</ele>
        <time>2021-07-11T10:07:18.897Z</time>
      </trkpt>
      <trkpt lat="44.93437" lon="1.17088">
        <ele>200.62716556338</ele>
        <time>2021-07-11T10:07:31.855Z</time>
      </trkpt>
      <trkpt lat="44.93435" lon="1.17116">
        <ele>199.04892429262</ele>
        <time>2021-07-11T10:07:44.817Z</time>
      </trkpt>
      <trkpt lat="44.93432" lon="1.17127">
        <ele>197.87437289692</ele>
        <time>2021-07-11T10:07:57.780Z</time>
      </trkpt>
      <trkpt lat="44.93413" lon="1.17112">
        <ele>196.95546735105</ele>
        <time>2021-07-11T10:08:10.748Z</time>
      </trkpt>
      <trkpt lat="44.93414" lon="1.17134">
        <ele>196.36648235387</ele>
        <time>2021-07-11T10:08:23.719Z</time>
      </trkpt>
      <trkpt lat="44.93406" lon="1.17145">
        <ele>196.00122997151</ele>
        <time>2021-07-11T10:08:36.692Z</time>
      </trkpt>
      <trkpt lat="44.9337" lon="1.17206">
        <ele>196.28768842737</ele>
        <time>2021-07-11T10:08:49.677Z</time>
      </trkpt>
      <trkpt lat="44.93369" lon="1.1722">
        <ele>196.42381658394</ele>
        <time>2021-07-11T10:09:02.664Z</time>
      </trkpt>
      <trkpt lat="44.93393" lon="1.17237">
        <ele>196.61096314425</ele>
        <time>2021-07-11T10:09:15.656Z</time>
      </trkpt>
      <trkpt lat="44.93395" lon="1.1725">
        <ele>197.08263647633</ele>
        <time>2021-07-11T10:09:28.650Z</time>
      </trkpt>
      <trkpt lat="44.93384" lon="1.17254">
        <ele>197.72937456331</ele>
        <time>2021-07-11T10:09:41.646Z</time>
      </trkpt>
      <trkpt lat="44.93367" lon="1.1725">
        <ele>198.53848475647</ele>
        <time>2021-07-11T10:09:54.646Z</time>
      </trkpt>
      <trkpt lat="44.93333" lon="1.1723">
        <ele>199.51859738589</ele>
        <time>2021-07-11T10:10:07.653Z</time>
      </trkpt>
      <trkpt lat="44.93324" lon="1.17227">
        <ele>200.57951378661</ele>
        <time>2021-07-11T10:10:20.662Z</time>
      </trkpt>
      <trkpt lat="44.93293" lon="1.17225">
        <ele>201.83129432597</ele>
        <time>2021-07-11T10:10:33.677Z</time>
      </trkpt>
      <trkpt lat="44.93279" lon="1.17215">
        <ele>203.15307732205</ele>
        <time>2021-07-11T10:10:46.695Z</time>
      </trkpt>
      <trkpt lat="44.93273" lon="1.17216">
        <ele>204.51371623843</ele>
        <time>2021-07-11T10:10:59.714Z</time>
      </trkpt>
      <trkpt lat="44.93251" lon="1.17237">
        <ele>206.05902564832</ele>
        <time>2021-07-11T10:11:12.739Z</time>
      </trkpt>
      <trkpt lat="44.93238" lon="1.17245">
        <ele>207.58765340407</ele>
        <time>2021-07-11T10:11:25.767Z</time>
      </trkpt>
      <trkpt lat="44.9322" lon="1.17251">
        <ele>209.17642188928</ele>
        <time>2021-07-11T10:11:38.798Z</time>
      </trkpt>
      <trkpt lat="44.93215" lon="1.17259">
        <ele>210.70433733155</ele>
        <time>2021-07-11T10:11:51.831Z</time>
      </trkpt>
      <trkpt lat="44.93216" lon="1.17272">
        <ele>212.21352735641</ele>
        <time>2021-07-11T10:12:04.866Z</time>
      </trkpt>
      <trkpt lat="44.93226" lon="1.17288">
        <ele>213.67379584704</ele>
        <time>2021-07-11T10:12:17.904Z</time>
      </trkpt>
      <trkpt lat="44.93229" lon="1.17296">
        <ele>215.18230060015</ele>
        <time>2021-07-11T10:12:30.943Z</time>
      </trkpt>
      <trkpt lat="44.93228" lon="1.17305">
        <ele>216.7077804316</ele>
        <time>2021-07-11T10:12:43.983Z</time>
      </trkpt>
      <trkpt lat="44.93226" lon="1.1731">
        <ele>218.23759201386</ele>
        <time>2021-07-11T10:12:57.024Z</time>
      </trkpt>
      <trkpt lat="44.9321" lon="1.17328">
        <ele>219.79669413486</ele>
        <time>2021-07-11T10:13:10.069Z</time>
      </trkpt>
      <trkpt lat="44.93194" lon="1.17343">
        <ele>221.33183214407</ele>
        <time>2021-07-11T10:13:23.118Z</time>
      </trkpt>
      <trkpt lat="44.9316" lon="1.17366">
        <ele>222.90759328003</ele>
        <time>2021-07-11T10:13:36.175Z</time>
      </trkpt>
      <trkpt lat="44.93143" lon="1.17387">
        <ele>224.38450689777</ele>
        <time>2021-07-11T10:13:49.236Z</time>
      </trkpt>
      <trkpt lat="44.93135" lon="1.17395">
        <ele>225.82980818157</ele>
        <time>2021-07-11T10:14:02.299Z</time>
      </trkpt>
      <trkpt lat="44.93128" lon="1.17397">
        <ele>227.25932096175</ele>
        <time>2021-07-11T10:14:15.364Z</time>
      </trkpt>
      <trkpt lat="44.93102" lon="1.17394">
        <ele>228.81475099041</ele>
        <time>2021-07-11T10:14:28.434Z</time>
      </trkpt>
      <trkpt lat="44.93066" lon="1.1741">
        <ele>230.38305198951</ele>
        <time>2021-07-11T10:14:41.511Z</time>
      </trkpt>
      <trkpt lat="44.93058" lon="1.17416">
        <ele>231.73203962458</ele>
        <time>2021-07-11T10:14:54.590Z</time>
      </trkpt>
      <trkpt lat="44.93051" lon="1.17426">
        <ele>233.04535518746</ele>
        <time>2021-07-11T10:15:07.671Z</time>
      </trkpt>
      <trkpt lat="44.93043" lon="1.17443">
        <ele>234.3297195289</ele>
        <time>2021-07-11T10:15:20.755Z</time>
      </trkpt>
      <trkpt lat="44.93025" lon="1.175">
        <ele>235.58246449543</ele>
        <time>2021-07-11T10:15:33.848Z</time>
      </trkpt>
      <trkpt lat="44.9301" lon="1.17535">
        <ele>236.80123902017</ele>
        <time>2021-07-11T10:15:46.947Z</time>
      </trkpt>
      <trkpt lat="44.93" lon="1.17568">
        <ele>238.00040142839</ele>
        <time>2021-07-11T10:16:00.051Z</time>
      </trkpt>
      <trkpt lat="44.92994" lon="1.17597">
        <ele>239.20530370964</ele>
        <time>2021-07-11T10:16:13.159Z</time>
      </trkpt>
      <trkpt lat="44.93013" lon="1.17651">
        <ele>240.2001287041</ele>
        <time>2021-07-11T10:16:26.275Z</time>
      </trkpt>
      <trkpt lat="44.93019" lon="1.17673">
        <ele>241.26297647885</ele>
        <time>2021-07-11T10:16:39.395Z</time>
      </trkpt>
      <trkpt lat="44.93026" lon="1.17687">
        <ele>242.30908930233</ele>
        <time>2021-07-11T10:16:52.517Z</time>
      </trkpt>
      <trkpt lat="44.93023" lon="1.17695">
        <ele>243.41103721969</ele>
        <time>2021-07-11T10:17:05.641Z</time>
      </trkpt>
      <trkpt lat="44.93015" lon="1.17697">
        <ele>244.54350462683</ele>
        <time>2021-07-11T10:17:18.766Z</time>
      </trkpt>
      <trkpt lat="44.92973" lon="1.17678">
        <ele>245.84770806554</ele>
        <time>2021-07-11T10:17:31.900Z</time>
      </trkpt>
      <trkpt lat="44.92901" lon="1.17622">
        <ele>247.29679522514</ele>
        <time>2021-07-11T10:17:45.050Z</time>
      </trkpt>
      <trkpt lat="44.92892" lon="1.17613">
        <ele>248.48963454302</ele>
        <time>2021-07-11T10:17:58.203Z</time>
      </trkpt>
      <trkpt lat="44.92889" lon="1.17599">
        <ele>249.69655702057</ele>
        <time>2021-07-11T10:18:11.358Z</time>
      </trkpt>
      <trkpt lat="44.92896" lon="1.17581">
        <ele>250.9055810167</ele>
        <time>2021-07-11T10:18:24.516Z</time>
      </trkpt>
      <trkpt lat="44.92896" lon="1.17571">
        <ele>252.16001512461</ele>
        <time>2021-07-11T10:18:37.675Z</time>
      </trkpt>
      <trkpt lat="44.92895" lon="1.17562">
        <ele>253.47238655805</ele>
        <time>2021-07-11T10:18:50.835Z</time>
      </trkpt>
      <trkpt lat="44.92889" lon="1.17546">
        <ele>254.83645784951</ele>
        <time>2021-07-11T10:19:03.998Z</time>
      </trkpt>
      <trkpt lat="44.92882" lon="1.17532">
        <ele>256.26759294442</ele>
        <time>2021-07-11T10:19:17.163Z</time>
      </trkpt>
      <trkpt lat="44.92874" lon="1.17525">
        <ele>257.78606397788</ele>
        <time>2021-07-11T10:19:30.330Z</time>
      </trkpt>
      <trkpt lat="44.92853" lon="1.17513">
        <ele>259.28319216876</ele>
        <time>2021-07-11T10:19:43.502Z</time>
      </trkpt>
      <trkpt lat="44.92794" lon="1.17571">
        <ele>261.12777696518</ele>
        <time>2021-07-11T10:19:56.688Z</time>
      </trkpt>
      <trkpt lat="44.92771" lon="1.17585">
        <ele>262.87311579418</ele>
        <time>2021-07-11T10:20:09.879Z</time>
      </trkpt>
      <trkpt lat="44.92733" lon="1.17603">
        <ele>264.71706919887</ele>
        <time>2021-07-11T10:20:23.078Z</time>
      </trkpt>
      <trkpt lat="44.92687" lon="1.17638">
        <ele>266.89629290325</ele>
        <time>2021-07-11T10:20:36.288Z</time>
      </trkpt>
      <trkpt lat="44.92679" lon="1.17635">
        <ele>268.85216581109</ele>
        <time>2021-07-11T10:20:49.499Z</time>
      </trkpt>
      <trkpt lat="44.92646" lon="1.17633">
        <ele>270.95019722602</ele>
        <time>2021-07-11T10:21:02.717Z</time>
      </trkpt>
      <trkpt lat="44.92607" lon="1.17639">
        <ele>273.18255155429</ele>
        <time>2021-07-11T10:21:15.943Z</time>
      </trkpt>
      <trkpt lat="44.92554" lon="1.17636">
        <ele>275.45720273028</ele>
        <time>2021-07-11T10:21:29.179Z</time>
      </trkpt>
      <trkpt lat="44.92455" lon="1.17637">
        <ele>277.85995247337</ele>
        <time>2021-07-11T10:21:42.435Z</time>
      </trkpt>
      <trkpt lat="44.92446" lon="1.1764">
        <ele>279.98838380496</ele>
        <time>2021-07-11T10:21:55.693Z</time>
      </trkpt>
      <trkpt lat="44.92442" lon="1.17646">
        <ele>282.17894919276</ele>
        <time>2021-07-11T10:22:08.952Z</time>
      </trkpt>
      <trkpt lat="44.92443" lon="1.17658">
        <ele>284.44141082685</ele>
        <time>2021-07-11T10:22:22.213Z</time>
      </trkpt>
      <trkpt lat="44.92435" lon="1.17684">
        <ele>286.67535470718</ele>
        <time>2021-07-11T10:22:35.478Z</time>
      </trkpt>
      <trkpt lat="44.92432" lon="1.17726">
        <ele>288.98905444635</ele>
        <time>2021-07-11T10:22:48.749Z</time>
      </trkpt>
      <trkpt lat="44.92432" lon="1.17739">
        <ele>291.28512652494</ele>
        <time>2021-07-11T10:23:02.022Z</time>
      </trkpt>
      <trkpt lat="44.92437" lon="1.17762">
        <ele>293.65313473819</ele>
        <time>2021-07-11T10:23:15.298Z</time>
      </trkpt>
      <trkpt lat="44.92438" lon="1.17811">
        <ele>296.14643622195</ele>
        <time>2021-07-11T10:23:28.581Z</time>
      </trkpt>
      <trkpt lat="44.92434" lon="1.17873">
        <ele>298.670514321</ele>
        <time>2021-07-11T10:23:41.873Z</time>
      </trkpt>
      <trkpt lat="44.92437" lon="1.17915">
        <ele>300.81677883428</ele>
        <time>2021-07-11T10:23:55.171Z</time>
      </trkpt>
      <trkpt lat="44.92437" lon="1.17956">
        <ele>302.76345132008</ele>
        <time>2021-07-11T10:24:08.475Z</time>
      </trkpt>
      <trkpt lat="44.92439" lon="1.17986">
        <ele>304.55691083413</ele>
        <time>2021-07-11T10:24:21.783Z</time>
      </trkpt>
      <trkpt lat="44.92449" lon="1.18055">
        <ele>306.10856498536</ele>
        <time>2021-07-11T10:24:35.101Z</time>
      </trkpt>
      <trkpt lat="44.92455" lon="1.18073">
        <ele>307.49144328247</ele>
        <time>2021-07-11T10:24:48.422Z</time>
      </trkpt>
      <trkpt lat="44.92462" lon="1.18088">
        <ele>308.71950104097</ele>
        <time>2021-07-11T10:25:01.745Z</time>
      </trkpt>
      <trkpt lat="44.92469" lon="1.18095">
        <ele>309.81606247678</ele>
        <time>2021-07-11T10:25:15.070Z</time>
      </trkpt>
      <trkpt lat="44.9248" lon="1.18103">
        <ele>310.75913063971</ele>
        <time>2021-07-11T10:25:28.398Z</time>
      </trkpt>
      <trkpt lat="44.92503" lon="1.18128">
        <ele>311.49660059027</ele>
        <time>2021-07-11T10:25:41.731Z</time>
      </trkpt>
      <trkpt lat="44.92519" lon="1.18138">
        <ele>312.09531758333</ele>
        <time>2021-07-11T10:25:55.068Z</time>
      </trkpt>
      <trkpt lat="44.92521" lon="1.18148">
        <ele>312.43184101378</ele>
        <time>2021-07-11T10:26:08.406Z</time>
      </trkpt>
      <trkpt lat="44.92517" lon="1.182">
        <ele>312.49523703082</ele>
        <time>2021-07-11T10:26:21.752Z</time>
      </trkpt>
      <trkpt lat="44.92511" lon="1.18254">
        <ele>312.34030097813</ele>
        <time>2021-07-11T10:26:35.106Z</time>
      </trkpt>
      <trkpt lat="44.92503" lon="1.18302">
        <ele>312.0803770951</ele>
        <time>2021-07-11T10:26:48.467Z</time>
      </trkpt>
      <trkpt lat="44.92501" lon="1.18334">
        <ele>311.66903232626</ele>
        <time>2021-07-11T10:27:01.832Z</time>
      </trkpt>
      <trkpt lat="44.92473" lon="1.18474">
        <ele>311.39681541018</ele>
        <time>2021-07-11T10:27:15.218Z</time>
      </trkpt>
      <trkpt lat="44.92468" lon="1.18503">
        <ele>310.61380657639</ele>
        <time>2021-07-11T10:27:28.608Z</time>
      </trkpt>
      <trkpt lat="44.92466" lon="1.18547">
        <ele>309.73189958021</ele>
        <time>2021-07-11T10:27:42.004Z</time>
      </trkpt>
      <trkpt lat="44.92455" lon="1.18588">
        <ele>308.58952143651</ele>
        <time>2021-07-11T10:27:55.407Z</time>
      </trkpt>
      <trkpt lat="44.9245" lon="1.18616">
        <ele>307.15255107754</ele>
        <time>2021-07-11T10:28:08.814Z</time>
      </trkpt>
      <trkpt lat="44.92449" lon="1.18628">
        <ele>305.53774101967</ele>
        <time>2021-07-11T10:28:22.222Z</time>
      </trkpt>
      <trkpt lat="44.92452" lon="1.18664">
        <ele>303.73742145805</ele>
        <time>2021-07-11T10:28:35.635Z</time>
      </trkpt>
      <trkpt lat="44.92447" lon="1.18696">
        <ele>301.67819702278</ele>
        <time>2021-07-11T10:28:49.053Z</time>
      </trkpt>
      <trkpt lat="44.92446" lon="1.18735">
        <ele>299.40143005773</ele>
        <time>2021-07-11T10:29:02.477Z</time>
      </trkpt>
      <trkpt lat="44.92436" lon="1.18767">
        <ele>296.80646436629</ele>
        <time>2021-07-11T10:29:15.906Z</time>
      </trkpt>
      <trkpt lat="44.9243" lon="1.18787">
        <ele>294.19221423649</ele>
        <time>2021-07-11T10:29:29.338Z</time>
      </trkpt>
      <trkpt lat="44.9243" lon="1.18794">
        <ele>291.58128881588</ele>
        <time>2021-07-11T10:29:42.771Z</time>
      </trkpt>
      <trkpt lat="44.92408" lon="1.18857">
        <ele>288.60403449261</ele>
        <time>2021-07-11T10:29:56.214Z</time>
      </trkpt>
      <trkpt lat="44.92389" lon="1.18851">
        <ele>285.80959698439</ele>
        <time>2021-07-11T10:30:09.660Z</time>
      </trkpt>
      <trkpt lat="44.9236" lon="1.18847">
        <ele>282.90389388272</ele>
        <time>2021-07-11T10:30:23.112Z</time>
      </trkpt>
      <trkpt lat="44.9235" lon="1.1893">
        <ele>280.03669728429</ele>
        <time>2021-07-11T10:30:36.576Z</time>
      </trkpt>
      <trkpt lat="44.92343" lon="1.18946">
        <ele>277.20761852237</ele>
        <time>2021-07-11T10:30:50.043Z</time>
      </trkpt>
      <trkpt lat="44.92331" lon="1.18958">
        <ele>274.34335189732</ele>
        <time>2021-07-11T10:31:03.513Z</time>
      </trkpt>
      <trkpt lat="44.92221" lon="1.19056">
        <ele>271.25693584473</ele>
        <time>2021-07-11T10:31:17.009Z</time>
      </trkpt>
      <trkpt lat="44.92215" lon="1.1906">
        <ele>268.53129768055</ele>
        <time>2021-07-11T10:31:30.506Z</time>
      </trkpt>
      <trkpt lat="44.92176" lon="1.19064">
        <ele>265.59741279102</ele>
        <time>2021-07-11T10:31:44.011Z</time>
      </trkpt>
      <trkpt lat="44.92131" lon="1.19068">
        <ele>262.67195209283</ele>
        <time>2021-07-11T10:31:57.525Z</time>
      </trkpt>
      <trkpt lat="44.92018" lon="1.19081">
        <ele>258.99782609285</ele>
        <time>2021-07-11T10:32:11.062Z</time>
      </trkpt>
      <trkpt lat="44.91999" lon="1.19082">
        <ele>256.66247350593</ele>
        <time>2021-07-11T10:32:24.603Z</time>
      </trkpt>
      <trkpt lat="44.91991" lon="1.1908">
        <ele>254.6200663682</ele>
        <time>2021-07-11T10:32:38.145Z</time>
      </trkpt>
      <trkpt lat="44.91983" lon="1.19094">
        <ele>252.78869845296</ele>
        <time>2021-07-11T10:32:51.690Z</time>
      </trkpt>
      <trkpt lat="44.91979" lon="1.19105">
        <ele>251.26487541152</ele>
        <time>2021-07-11T10:33:05.237Z</time>
      </trkpt>
      <trkpt lat="44.9198" lon="1.19157">
        <ele>250.0488145248</ele>
        <time>2021-07-11T10:33:18.791Z</time>
      </trkpt>
      <trkpt lat="44.91974" lon="1.19169">
        <ele>248.93793191817</ele>
        <time>2021-07-11T10:33:32.347Z</time>
      </trkpt>
      <trkpt lat="44.91946" lon="1.19182">
        <ele>248.18273613439</ele>
        <time>2021-07-11T10:33:45.909Z</time>
      </trkpt>
      <trkpt lat="44.91942" lon="1.1919">
        <ele>247.52491247794</ele>
        <time>2021-07-11T10:33:59.472Z</time>
      </trkpt>
      <trkpt lat="44.91944" lon="1.19196">
        <ele>247.00798104735</ele>
        <time>2021-07-11T10:34:13.036Z</time>
      </trkpt>
      <trkpt lat="44.91956" lon="1.1922">
        <ele>246.60571799126</ele>
        <time>2021-07-11T10:34:26.604Z</time>
      </trkpt>
      <trkpt lat="44.91964" lon="1.19243">
        <ele>246.42286626659</ele>
        <time>2021-07-11T10:34:40.176Z</time>
      </trkpt>
      <trkpt lat="44.91966" lon="1.19261">
        <ele>246.35835411505</ele>
        <time>2021-07-11T10:34:53.751Z</time>
      </trkpt>
      <trkpt lat="44.9197" lon="1.19323">
        <ele>246.51580489798</ele>
        <time>2021-07-11T10:35:07.334Z</time>
      </trkpt>
      <trkpt lat="44.91965" lon="1.19355">
        <ele>246.74326918885</ele>
        <time>2021-07-11T10:35:20.922Z</time>
      </trkpt>
      <trkpt lat="44.91937" lon="1.1943">
        <ele>247.43853256277</ele>
        <time>2021-07-11T10:35:34.522Z</time>
      </trkpt>
      <trkpt lat="44.91892" lon="1.19531">
        <ele>247.86594274658</ele>
        <time>2021-07-11T10:35:48.139Z</time>
      </trkpt>
      <trkpt lat="44.91854" lon="1.19623">
        <ele>247.96722901045</ele>
        <time>2021-07-11T10:36:01.771Z</time>
      </trkpt>
      <trkpt lat="44.91796" lon="1.19792">
        <ele>247.09992159242</ele>
        <time>2021-07-11T10:36:15.430Z</time>
      </trkpt>
      <trkpt lat="44.91776" lon="1.19877">
        <ele>246.61352251768</ele>
        <time>2021-07-11T10:36:29.102Z</time>
      </trkpt>
      <trkpt lat="44.91752" lon="1.19961">
        <ele>246.50118174983</ele>
        <time>2021-07-11T10:36:42.786Z</time>
      </trkpt>
      <trkpt lat="44.91743" lon="1.19987">
        <ele>246.2381122543</ele>
        <time>2021-07-11T10:36:56.474Z</time>
      </trkpt>
      <trkpt lat="44.91743" lon="1.19996">
        <ele>245.60531076997</ele>
        <time>2021-07-11T10:37:10.164Z</time>
      </trkpt>
      <trkpt lat="44.91749" lon="1.20009">
        <ele>244.76360933517</ele>
        <time>2021-07-11T10:37:23.856Z</time>
      </trkpt>
      <trkpt lat="44.91743" lon="1.20033">
        <ele>243.88407101873</ele>
        <time>2021-07-11T10:37:37.552Z</time>
      </trkpt>
      <trkpt lat="44.91739" lon="1.20098">
        <ele>242.70815272226</ele>
        <time>2021-07-11T10:37:51.257Z</time>
      </trkpt>
      <trkpt lat="44.91735" lon="1.2014">
        <ele>241.21148751216</ele>
        <time>2021-07-11T10:38:04.968Z</time>
      </trkpt>
      <trkpt lat="44.91729" lon="1.20169">
        <ele>239.61864230997</ele>
        <time>2021-07-11T10:38:18.683Z</time>
      </trkpt>
      <trkpt lat="44.91718" lon="1.20195">
        <ele>237.83230102057</ele>
        <time>2021-07-11T10:38:32.403Z</time>
      </trkpt>
      <trkpt lat="44.91707" lon="1.20215">
        <ele>235.96853999011</ele>
        <time>2021-07-11T10:38:46.126Z</time>
      </trkpt>
      <trkpt lat="44.91694" lon="1.20233">
        <ele>233.84142954852</ele>
        <time>2021-07-11T10:38:59.853Z</time>
      </trkpt>
      <trkpt lat="44.91672" lon="1.20253">
        <ele>231.49163783802</ele>
        <time>2021-07-11T10:39:13.585Z</time>
      </trkpt>
      <trkpt lat="44.91648" lon="1.20268">
        <ele>229.12925318078</ele>
        <time>2021-07-11T10:39:27.322Z</time>
      </trkpt>
      <trkpt lat="44.91635" lon="1.20274">
        <ele>226.83224291745</ele>
        <time>2021-07-11T10:39:41.062Z</time>
      </trkpt>
      <trkpt lat="44.91579" lon="1.20288">
        <ele>224.18423440995</ele>
        <time>2021-07-11T10:39:54.813Z</time>
      </trkpt>
      <trkpt lat="44.91563" lon="1.20294">
        <ele>221.71387535297</ele>
        <time>2021-07-11T10:40:08.568Z</time>
      </trkpt>
      <trkpt lat="44.91534" lon="1.20305">
        <ele>219.09127041595</ele>
        <time>2021-07-11T10:40:22.329Z</time>
      </trkpt>
      <trkpt lat="44.91518" lon="1.20317">
        <ele>216.57009398882</ele>
        <time>2021-07-11T10:40:36.093Z</time>
      </trkpt>
      <trkpt lat="44.9151" lon="1.20321">
        <ele>214.08789184452</ele>
        <time>2021-07-11T10:40:49.859Z</time>
      </trkpt>
      <trkpt lat="44.91505" lon="1.20321">
        <ele>211.61681602056</ele>
        <time>2021-07-11T10:41:03.626Z</time>
      </trkpt>
      <trkpt lat="44.91499" lon="1.20331">
        <ele>209.11056879933</ele>
        <time>2021-07-11T10:41:17.395Z</time>
      </trkpt>
      <trkpt lat="44.9149" lon="1.20338">
        <ele>206.63123824931</ele>
        <time>2021-07-11T10:41:31.166Z</time>
      </trkpt>
      <trkpt lat="44.91432" lon="1.20372">
        <ele>203.93603501807</ele>
        <time>2021-07-11T10:41:44.949Z</time>
      </trkpt>
      <trkpt lat="44.91414" lon="1.20385">
        <ele>201.47877656647</ele>
        <time>2021-07-11T10:41:58.736Z</time>
      </trkpt>
      <trkpt lat="44.91388" lon="1.20424">
        <ele>198.92480287652</ele>
        <time>2021-07-11T10:42:12.531Z</time>
      </trkpt>
      <trkpt lat="44.91386" lon="1.20435">
        <ele>196.59780156375</ele>
        <time>2021-07-11T10:42:26.328Z</time>
      </trkpt>
      <trkpt lat="44.91381" lon="1.20437">
        <ele>194.37950220276</ele>
        <time>2021-07-11T10:42:40.126Z</time>
      </trkpt>
      <trkpt lat="44.91352" lon="1.20458">
        <ele>192.19243911106</ele>
        <time>2021-07-11T10:42:53.930Z</time>
      </trkpt>
      <trkpt lat="44.91307" lon="1.20484">
        <ele>190.14732899642</ele>
        <time>2021-07-11T10:43:07.744Z</time>
      </trkpt>
      <trkpt lat="44.91262" lon="1.20492">
        <ele>188.15613771969</ele>
        <time>2021-07-11T10:43:21.567Z</time>
      </trkpt>
      <trkpt lat="44.91197" lon="1.20509">
        <ele>186.13781931768</ele>
        <time>2021-07-11T10:43:35.403Z</time>
      </trkpt>
      <trkpt lat="44.91089" lon="1.20557">
        <ele>184.13745285183</ele>
        <time>2021-07-11T10:43:49.262Z</time>
      </trkpt>
      <trkpt lat="44.91065" lon="1.20564">
        <ele>182.49328959181</ele>
        <time>2021-07-11T10:44:03.126Z</time>
      </trkpt>
      <trkpt lat="44.91043" lon="1.20568">
        <ele>180.95419401976</ele>
        <time>2021-07-11T10:44:16.994Z</time>
      </trkpt>
      <trkpt lat="44.91024" lon="1.20569">
        <ele>179.51779748501</ele>
        <time>2021-07-11T10:44:30.866Z</time>
      </trkpt>
      <trkpt lat="44.90996" lon="1.20568">
        <ele>178.17824860853</ele>
        <time>2021-07-11T10:44:44.744Z</time>
      </trkpt>
      <trkpt lat="44.90974" lon="1.20566">
        <ele>176.94175106525</ele>
        <time>2021-07-11T10:44:58.626Z</time>
      </trkpt>
      <trkpt lat="44.9095" lon="1.2056">
        <ele>175.78451059796</ele>
        <time>2021-07-11T10:45:12.513Z</time>
      </trkpt>
      <trkpt lat="44.90937" lon="1.20563">
        <ele>174.72539412634</ele>
        <time>2021-07-11T10:45:26.403Z</time>
      </trkpt>
      <trkpt lat="44.90928" lon="1.20574">
        <ele>173.82087176275</ele>
        <time>2021-07-11T10:45:40.295Z</time>
      </trkpt>
      <trkpt lat="44.90893" lon="1.20577">
        <ele>172.88295542209</ele>
        <time>2021-07-11T10:45:54.194Z</time>
      </trkpt>
      <trkpt lat="44.9072" lon="1.20652">
        <ele>171.89983217137</ele>
        <time>2021-07-11T10:46:08.129Z</time>
      </trkpt>
      <trkpt lat="44.9069" lon="1.20667">
        <ele>171.17846154486</ele>
        <time>2021-07-11T10:46:22.071Z</time>
      </trkpt>
      <trkpt lat="44.90629" lon="1.20693">
        <ele>170.57568648478</ele>
        <time>2021-07-11T10:46:36.025Z</time>
      </trkpt>
      <trkpt lat="44.9061" lon="1.20704">
        <ele>170.05002872557</ele>
        <time>2021-07-11T10:46:49.983Z</time>
      </trkpt>
      <trkpt lat="44.90595" lon="1.20714">
        <ele>169.59765370686</ele>
        <time>2021-07-11T10:47:03.945Z</time>
      </trkpt>
      <trkpt lat="44.9055" lon="1.20755">
        <ele>169.2374017168</ele>
        <time>2021-07-11T10:47:17.918Z</time>
      </trkpt>
      <trkpt lat="44.90451" lon="1.2085">
        <ele>168.79879567128</ele>
        <time>2021-07-11T10:47:31.914Z</time>
      </trkpt>
      <trkpt lat="44.90432" lon="1.20878">
        <ele>168.49847068579</ele>
        <time>2021-07-11T10:47:45.916Z</time>
      </trkpt>
      <trkpt lat="44.90413" lon="1.20912">
        <ele>168.30022090953</ele>
        <time>2021-07-11T10:47:59.924Z</time>
      </trkpt>
      <trkpt lat="44.90389" lon="1.20948">
        <ele>168.10680456973</ele>
        <time>2021-07-11T10:48:13.939Z</time>
      </trkpt>
      <trkpt lat="44.90374" lon="1.20968">
        <ele>167.90930192934</ele>
        <time>2021-07-11T10:48:27.958Z</time>
      </trkpt>
      <trkpt lat="44.90228" lon="1.21047">
        <ele>167.69952738323</ele>
        <time>2021-07-11T10:48:42.009Z</time>
      </trkpt>
      <trkpt lat="44.90155" lon="1.21083">
        <ele>167.44786414155</ele>
        <time>2021-07-11T10:48:56.075Z</time>
      </trkpt>
      <trkpt lat="44.90144" lon="1.21088">
        <ele>167.28489206049</ele>
        <time>2021-07-11T10:49:10.143Z</time>
      </trkpt>
      <trkpt lat="44.9014" lon="1.21083">
        <ele>167.1538893405</ele>
        <time>2021-07-11T10:49:24.212Z</time>
      </trkpt>
      <trkpt lat="44.90134" lon="1.21086">
        <ele>167.00611054171</ele>
        <time>2021-07-11T10:49:38.283Z</time>
      </trkpt>
      <trkpt lat="44.90121" lon="1.21103">
        <ele>166.81709545648</ele>
        <time>2021-07-11T10:49:52.357Z</time>
      </trkpt>
      <trkpt lat="44.9011" lon="1.21111">
        <ele>166.67912765128</ele>
        <time>2021-07-11T10:50:06.434Z</time>
      </trkpt>
      <trkpt lat="44.89928" lon="1.2121">
        <ele>166.28708343568</ele>
        <time>2021-07-11T10:50:20.550Z</time>
      </trkpt>
      <trkpt lat="44.89917" lon="1.21217">
        <ele>166.09118882998</ele>
        <time>2021-07-11T10:50:34.668Z</time>
      </trkpt>
      <trkpt lat="44.89908" lon="1.21225">
        <ele>165.88407960204</ele>
        <time>2021-07-11T10:50:48.788Z</time>
      </trkpt>
      <trkpt lat="44.89814" lon="1.21277">
        <ele>165.53786777369</ele>
        <time>2021-07-11T10:51:02.928Z</time>
      </trkpt>
      <trkpt lat="44.89793" lon="1.21285">
        <ele>165.36401052004</ele>
        <time>2021-07-11T10:51:17.073Z</time>
      </trkpt>
      <trkpt lat="44.8975" lon="1.21294">
        <ele>165.25035377083</ele>
        <time>2021-07-11T10:51:31.227Z</time>
      </trkpt>
      <trkpt lat="44.89739" lon="1.21294">
        <ele>165.07285920503</ele>
        <time>2021-07-11T10:51:45.383Z</time>
      </trkpt>
      <trkpt lat="44.8973" lon="1.21287">
        <ele>164.88678176787</ele>
        <time>2021-07-11T10:51:59.541Z</time>
      </trkpt>
      <trkpt lat="44.89707" lon="1.21296">
        <ele>164.65472744363</ele>
        <time>2021-07-11T10:52:13.704Z</time>
      </trkpt>
      <trkpt lat="44.89617" lon="1.21283">
        <ele>164.40086838603</ele>
        <time>2021-07-11T10:52:27.885Z</time>
      </trkpt>
      <trkpt lat="44.89606" lon="1.21285">
        <ele>164.08535998833</ele>
        <time>2021-07-11T10:52:42.068Z</time>
      </trkpt>
      <trkpt lat="44.89574" lon="1.21279">
        <ele>163.78746208396</ele>
        <time>2021-07-11T10:52:56.257Z</time>
      </trkpt>
      <trkpt lat="44.89374" lon="1.21253">
        <ele>163.34534824802</ele>
        <time>2021-07-11T10:53:10.486Z</time>
      </trkpt>
      <trkpt lat="44.89342" lon="1.21253">
        <ele>162.90846182424</ele>
        <time>2021-07-11T10:53:24.722Z</time>
      </trkpt>
      <trkpt lat="44.89329" lon="1.21255">
        <ele>162.37892713789</ele>
        <time>2021-07-11T10:53:38.960Z</time>
      </trkpt>
      <trkpt lat="44.89226" lon="1.21307">
        <ele>161.93223550571</ele>
        <time>2021-07-11T10:53:53.220Z</time>
      </trkpt>
      <trkpt lat="44.89172" lon="1.21326">
        <ele>161.25905209245</ele>
        <time>2021-07-11T10:54:07.491Z</time>
      </trkpt>
      <trkpt lat="44.89108" lon="1.21345">
        <ele>160.44393675808</ele>
        <time>2021-07-11T10:54:21.776Z</time>
      </trkpt>
      <trkpt lat="44.89091" lon="1.21354">
        <ele>159.56455201539</ele>
        <time>2021-07-11T10:54:36.064Z</time>
      </trkpt>
      <trkpt lat="44.89074" lon="1.21367">
        <ele>158.56615344505</ele>
        <time>2021-07-11T10:54:50.356Z</time>
      </trkpt>
      <trkpt lat="44.89027" lon="1.21412">
        <ele>157.32357100583</ele>
        <time>2021-07-11T10:55:04.660Z</time>
      </trkpt>
      <trkpt lat="44.88992" lon="1.2144">
        <ele>156.12464114146</ele>
        <time>2021-07-11T10:55:18.971Z</time>
      </trkpt>
      <trkpt lat="44.88966" lon="1.21455">
        <ele>154.92853558701</ele>
        <time>2021-07-11T10:55:33.288Z</time>
      </trkpt>
      <trkpt lat="44.88949" lon="1.21461">
        <ele>153.70204326195</ele>
        <time>2021-07-11T10:55:47.609Z</time>
      </trkpt>
      <trkpt lat="44.8893" lon="1.21461">
        <ele>152.42549931574</ele>
        <time>2021-07-11T10:56:01.933Z</time>
      </trkpt>
      <trkpt lat="44.88921" lon="1.21459">
        <ele>151.11019502471</ele>
        <time>2021-07-11T10:56:16.259Z</time>
      </trkpt>
      <trkpt lat="44.88874" lon="1.21433">
        <ele>149.78314288762</ele>
        <time>2021-07-11T10:56:30.595Z</time>
      </trkpt>
      <trkpt lat="44.88853" lon="1.21433">
        <ele>148.44622587215</ele>
        <time>2021-07-11T10:56:44.936Z</time>
      </trkpt>
      <trkpt lat="44.88846" lon="1.21435">
        <ele>147.04221249867</ele>
        <time>2021-07-11T10:56:59.278Z</time>
      </trkpt>
      <trkpt lat="44.8884" lon="1.2144">
        <ele>145.61343880586</ele>
        <time>2021-07-11T10:57:13.621Z</time>
      </trkpt>
      <trkpt lat="44.88829" lon="1.2145">
        <ele>144.11552158276</ele>
        <time>2021-07-11T10:57:27.967Z</time>
      </trkpt>
      <trkpt lat="44.88818" lon="1.2147">
        <ele>142.54797718612</ele>
        <time>2021-07-11T10:57:42.316Z</time>
      </trkpt>
      <trkpt lat="44.88791" lon="1.2153">
        <ele>140.85576609189</ele>
        <time>2021-07-11T10:57:56.676Z</time>
      </trkpt>
      <trkpt lat="44.88782" lon="1.21543">
        <ele>139.46538323488</ele>
        <time>2021-07-11T10:58:11.038Z</time>
      </trkpt>
      <trkpt lat="44.88728" lon="1.21611">
        <ele>138.03950674424</ele>
        <time>2021-07-11T10:58:25.415Z</time>
      </trkpt>
      <trkpt lat="44.88679" lon="1.21626">
        <ele>136.76507375675</ele>
        <time>2021-07-11T10:58:39.802Z</time>
      </trkpt>
      <trkpt lat="44.88675" lon="1.21626">
        <ele>135.64620579496</ele>
        <time>2021-07-11T10:58:54.190Z</time>
      </trkpt>
      <trkpt lat="44.88615" lon="1.21644">
        <ele>134.47859212321</ele>
        <time>2021-07-11T10:59:08.590Z</time>
      </trkpt>
      <trkpt lat="44.88593" lon="1.21648">
        <ele>133.60966411306</ele>
        <time>2021-07-11T10:59:22.994Z</time>
      </trkpt>
      <trkpt lat="44.88572" lon="1.21648">
        <ele>132.8946659734</ele>
        <time>2021-07-11T10:59:37.403Z</time>
      </trkpt>
      <trkpt lat="44.88542" lon="1.21641">
        <ele>132.36766102857</ele>
        <time>2021-07-11T10:59:51.818Z</time>
      </trkpt>
      <trkpt lat="44.88529" lon="1.21641">
        <ele>131.9547210568</ele>
        <time>2021-07-11T11:00:06.235Z</time>
      </trkpt>
      <trkpt lat="44.88421" lon="1.21618">
        <ele>131.77750143173</ele>
        <time>2021-07-11T11:00:20.674Z</time>
      </trkpt>
      <trkpt lat="44.88357" lon="1.21607">
        <ele>131.62522716597</ele>
        <time>2021-07-11T11:00:35.126Z</time>
      </trkpt>
      <trkpt lat="44.88348" lon="1.21603">
        <ele>131.78637875697</ele>
        <time>2021-07-11T11:00:49.580Z</time>
      </trkpt>
      <trkpt lat="44.8834" lon="1.2162">
        <ele>132.07906181415</ele>
        <time>2021-07-11T11:01:04.037Z</time>
      </trkpt>
      <trkpt lat="44.88333" lon="1.21639">
        <ele>132.58728354075</ele>
        <time>2021-07-11T11:01:18.497Z</time>
      </trkpt>
      <trkpt lat="44.8831" lon="1.21774">
        <ele>133.65435443015</ele>
        <time>2021-07-11T11:01:32.977Z</time>
      </trkpt>
      <trkpt lat="44.88321" lon="1.21777">
        <ele>134.65575186177</ele>
        <time>2021-07-11T11:01:47.459Z</time>
      </trkpt>
      <trkpt lat="44.8834" lon="1.21774">
        <ele>135.8251364331</ele>
        <time>2021-07-11T11:02:01.945Z</time>
      </trkpt>
      <trkpt lat="44.88387" lon="1.21759">
        <ele>137.2316908942</ele>
        <time>2021-07-11T11:02:16.440Z</time>
      </trkpt>
      <trkpt lat="44.88398" lon="1.2183">
        <ele>139.20280770899</ele>
        <time>2021-07-11T11:02:30.946Z</time>
      </trkpt>
      <trkpt lat="44.88417" lon="1.21848">
        <ele>141.22562641843</ele>
        <time>2021-07-11T11:02:45.456Z</time>
      </trkpt>
      <trkpt lat="44.88425" lon="1.21848">
        <ele>143.38277579232</ele>
        <time>2021-07-11T11:02:59.968Z</time>
      </trkpt>
      <trkpt lat="44.8841" lon="1.21906">
        <ele>146.20056774993</ele>
        <time>2021-07-11T11:03:14.489Z</time>
      </trkpt>
      <trkpt lat="44.88405" lon="1.21897">
        <ele>148.75419823975</ele>
        <time>2021-07-11T11:03:29.011Z</time>
      </trkpt>
      <trkpt lat="44.88405" lon="1.21888">
        <ele>151.39720230806</ele>
        <time>2021-07-11T11:03:43.534Z</time>
      </trkpt>
      <trkpt lat="44.88401" lon="1.21883">
        <ele>154.24877631457</ele>
        <time>2021-07-11T11:03:58.059Z</time>
      </trkpt>
      <trkpt lat="44.88395" lon="1.21885">
        <ele>157.30937879086</ele>
        <time>2021-07-11T11:04:12.585Z</time>
      </trkpt>
      <trkpt lat="44.88377" lon="1.21899">
        <ele>160.62545291704</ele>
        <time>2021-07-11T11:04:27.115Z</time>
      </trkpt>
      <trkpt lat="44.88361" lon="1.21919">
        <ele>164.00157176632</ele>
        <time>2021-07-11T11:04:41.649Z</time>
      </trkpt>
      <trkpt lat="44.88349" lon="1.21929">
        <ele>167.37733159125</ele>
        <time>2021-07-11T11:04:56.186Z</time>
      </trkpt>
      <trkpt lat="44.88338" lon="1.21941">
        <ele>170.80169070449</ele>
        <time>2021-07-11T11:05:10.726Z</time>
      </trkpt>
      <trkpt lat="44.88294" lon="1.21976">
        <ele>174.91956676961</ele>
        <time>2021-07-11T11:05:25.276Z</time>
      </trkpt>
      <trkpt lat="44.88265" lon="1.22001">
        <ele>178.61870763459</ele>
        <time>2021-07-11T11:05:39.833Z</time>
      </trkpt>
      <trkpt lat="44.88239" lon="1.22014">
        <ele>182.16103270072</ele>
        <time>2021-07-11T11:05:54.395Z</time>
      </trkpt>
      <trkpt lat="44.88219" lon="1.22011">
        <ele>185.50730238158</ele>
        <time>2021-07-11T11:06:08.961Z</time>
      </trkpt>
      <trkpt lat="44.88193" lon="1.2201">
        <ele>188.6764656538</ele>
        <time>2021-07-11T11:06:23.532Z</time>
      </trkpt>
      <trkpt lat="44.88186" lon="1.22023">
        <ele>191.63000761285</ele>
        <time>2021-07-11T11:06:38.106Z</time>
      </trkpt>
      <trkpt lat="44.8817" lon="1.22038">
        <ele>194.44135788926</ele>
        <time>2021-07-11T11:06:52.684Z</time>
      </trkpt>
      <trkpt lat="44.88158" lon="1.22043">
        <ele>196.98707470006</ele>
        <time>2021-07-11T11:07:07.264Z</time>
      </trkpt>
      <trkpt lat="44.88131" lon="1.22048">
        <ele>199.35633310787</ele>
        <time>2021-07-11T11:07:21.850Z</time>
      </trkpt>
      <trkpt lat="44.88103" lon="1.22076">
        <ele>201.47751059704</ele>
        <time>2021-07-11T11:07:36.442Z</time>
      </trkpt>
      <trkpt lat="44.88091" lon="1.22091">
        <ele>203.28832652464</ele>
        <time>2021-07-11T11:07:51.038Z</time>
      </trkpt>
      <trkpt lat="44.88089" lon="1.22113">
        <ele>204.95203891749</ele>
        <time>2021-07-11T11:08:05.637Z</time>
      </trkpt>
      <trkpt lat="44.88081" lon="1.22112">
        <ele>206.15790800394</ele>
        <time>2021-07-11T11:08:20.237Z</time>
      </trkpt>
      <trkpt lat="44.88069" lon="1.22115">
        <ele>207.12661622649</ele>
        <time>2021-07-11T11:08:34.840Z</time>
      </trkpt>
      <trkpt lat="44.88054" lon="1.2212">
        <ele>207.83645113844</ele>
        <time>2021-07-11T11:08:49.446Z</time>
      </trkpt>
      <trkpt lat="44.88024" lon="1.22135">
        <ele>208.30792231005</ele>
        <time>2021-07-11T11:09:04.058Z</time>
      </trkpt>
      <trkpt lat="44.88006" lon="1.22142">
        <ele>208.40821149743</ele>
        <time>2021-07-11T11:09:18.674Z</time>
      </trkpt>
      <trkpt lat="44.87996" lon="1.22144">
        <ele>208.24417849602</ele>
        <time>2021-07-11T11:09:33.292Z</time>
      </trkpt>
      <trkpt lat="44.87986" lon="1.22144">
        <ele>207.80624143674</ele>
        <time>2021-07-11T11:09:47.912Z</time>
      </trkpt>
      <trkpt lat="44.87957" lon="1.22136">
        <ele>206.95625266027</ele>
        <time>2021-07-11T11:10:02.538Z</time>
      </trkpt>
      <trkpt lat="44.87927" lon="1.22132">
        <ele>205.81079237185</ele>
        <time>2021-07-11T11:10:17.170Z</time>
      </trkpt>
      <trkpt lat="44.87899" lon="1.2213">
        <ele>204.45433473752</ele>
        <time>2021-07-11T11:10:31.808Z</time>
      </trkpt>
      <trkpt lat="44.87891" lon="1.22131">
        <ele>203.12296542774</ele>
        <time>2021-07-11T11:10:46.447Z</time>
      </trkpt>
      <trkpt lat="44.87884" lon="1.22135">
        <ele>201.64618138357</ele>
        <time>2021-07-11T11:11:01.088Z</time>
      </trkpt>
      <trkpt lat="44.87878" lon="1.22155">
        <ele>200.09347209172</ele>
        <time>2021-07-11T11:11:15.732Z</time>
      </trkpt>
      <trkpt lat="44.87877" lon="1.22198">
        <ele>198.6198748781</ele>
        <time>2021-07-11T11:11:30.382Z</time>
      </trkpt>
      <trkpt lat="44.87872" lon="1.22218">
        <ele>196.84412954232</ele>
        <time>2021-07-11T11:11:45.035Z</time>
      </trkpt>
      <trkpt lat="44.87865" lon="1.22232">
        <ele>194.88208855014</ele>
        <time>2021-07-11T11:11:59.690Z</time>
      </trkpt>
      <trkpt lat="44.87862" lon="1.22235">
        <ele>192.80344540526</ele>
        <time>2021-07-11T11:12:14.346Z</time>
      </trkpt>
      <trkpt lat="44.87856" lon="1.22238">
        <ele>190.61283496774</ele>
        <time>2021-07-11T11:12:29.003Z</time>
      </trkpt>
      <trkpt lat="44.87844" lon="1.2224">
        <ele>188.26361583359</ele>
        <time>2021-07-11T11:12:43.663Z</time>
      </trkpt>
      <trkpt lat="44.8782" lon="1.22231">
        <ele>185.62788131231</ele>
        <time>2021-07-11T11:12:58.328Z</time>
      </trkpt>
      <trkpt lat="44.87808" lon="1.22229">
        <ele>183.17718937444</ele>
        <time>2021-07-11T11:13:12.995Z</time>
      </trkpt>
      <trkpt lat="44.87782" lon="1.22234">
        <ele>180.61409112148</ele>
        <time>2021-07-11T11:13:27.667Z</time>
      </trkpt>
      <trkpt lat="44.87752" lon="1.22249">
        <ele>178.10899851206</ele>
        <time>2021-07-11T11:13:42.346Z</time>
      </trkpt>
      <trkpt lat="44.8773" lon="1.22271">
        <ele>175.74313344806</ele>
        <time>2021-07-11T11:13:57.030Z</time>
      </trkpt>
      <trkpt lat="44.87706" lon="1.22314">
        <ele>173.46394134129</ele>
        <time>2021-07-11T11:14:11.722Z</time>
      </trkpt>
      <trkpt lat="44.87682" lon="1.22345">
        <ele>171.30894471736</ele>
        <time>2021-07-11T11:14:26.420Z</time>
      </trkpt>
      <trkpt lat="44.87671" lon="1.22356">
        <ele>169.2871151938</ele>
        <time>2021-07-11T11:14:41.121Z</time>
      </trkpt>
      <trkpt lat="44.8766" lon="1.22371">
        <ele>167.30009186195</ele>
        <time>2021-07-11T11:14:55.825Z</time>
      </trkpt>
      <trkpt lat="44.87654" lon="1.22389">
        <ele>165.46126145703</ele>
        <time>2021-07-11T11:15:10.532Z</time>
      </trkpt>
      <trkpt lat="44.87651" lon="1.22408">
        <ele>163.81746576229</ele>
        <time>2021-07-11T11:15:25.242Z</time>
      </trkpt>
      <trkpt lat="44.87653" lon="1.22458">
        <ele>162.38486598305</ele>
        <time>2021-07-11T11:15:39.959Z</time>
      </trkpt>
      <trkpt lat="44.87653" lon="1.22465">
        <ele>160.99329942546</ele>
        <time>2021-07-11T11:15:54.677Z</time>
      </trkpt>
      <trkpt lat="44.87644" lon="1.22474">
        <ele>159.61268846162</ele>
        <time>2021-07-11T11:16:09.397Z</time>
      </trkpt>
      <trkpt lat="44.87647" lon="1.22527">
        <ele>158.58798708664</ele>
        <time>2021-07-11T11:16:24.125Z</time>
      </trkpt>
      <trkpt lat="44.87646" lon="1.22541">
        <ele>157.5893747505</ele>
        <time>2021-07-11T11:16:38.855Z</time>
      </trkpt>
      <trkpt lat="44.87643" lon="1.22551">
        <ele>156.66612537232</ele>
        <time>2021-07-11T11:16:53.586Z</time>
      </trkpt>
      <trkpt lat="44.87636" lon="1.22562">
        <ele>155.80754246607</ele>
        <time>2021-07-11T11:17:08.319Z</time>
      </trkpt>
      <trkpt lat="44.87627" lon="1.22573">
        <ele>155.00426461347</ele>
        <time>2021-07-11T11:17:23.055Z</time>
      </trkpt>
      <trkpt lat="44.87602" lon="1.22595">
        <ele>154.3820544508</ele>
        <time>2021-07-11T11:17:37.797Z</time>
      </trkpt>
      <trkpt lat="44.87591" lon="1.22607">
        <ele>153.87947384792</ele>
        <time>2021-07-11T11:17:52.541Z</time>
      </trkpt>
      <trkpt lat="44.87583" lon="1.22619">
        <ele>153.43387591825</ele>
        <time>2021-07-11T11:18:07.288Z</time>
      </trkpt>
      <trkpt lat="44.87574" lon="1.22636">
        <ele>153.03912677805</ele>
        <time>2021-07-11T11:18:22.038Z</time>
      </trkpt>
      <trkpt lat="44.87564" lon="1.2266">
        <ele>152.68592734014</ele>
        <time>2021-07-11T11:18:36.792Z</time>
      </trkpt>
      <trkpt lat="44.87539" lon="1.22733">
        <ele>152.3846120276</ele>
        <time>2021-07-11T11:18:51.557Z</time>
      </trkpt>
      <trkpt lat="44.87533" lon="1.22761">
        <ele>152.11277379903</ele>
        <time>2021-07-11T11:19:06.326Z</time>
      </trkpt>
      <trkpt lat="44.87524" lon="1.22904">
        <ele>151.95621398106</ele>
        <time>2021-07-11T11:19:21.116Z</time>
      </trkpt>
      <trkpt lat="44.8752" lon="1.22931">
        <ele>151.70459434122</ele>
        <time>2021-07-11T11:19:35.910Z</time>
      </trkpt>
      <trkpt lat="44.87503" lon="1.23006">
        <ele>151.39527314066</ele>
        <time>2021-07-11T11:19:50.715Z</time>
      </trkpt>
      <trkpt lat="44.87497" lon="1.23049">
        <ele>151.04836638191</ele>
        <time>2021-07-11T11:20:05.526Z</time>
      </trkpt>
      <trkpt lat="44.87488" lon="1.23067">
        <ele>150.65904956415</ele>
        <time>2021-07-11T11:20:20.340Z</time>
      </trkpt>
      <trkpt lat="44.87484" lon="1.23078">
        <ele>150.22430418993</ele>
        <time>2021-07-11T11:20:35.156Z</time>
      </trkpt>
      <trkpt lat="44.8748" lon="1.23098">
        <ele>149.71868117248</ele>
        <time>2021-07-11T11:20:49.975Z</time>
      </trkpt>
      <trkpt lat="44.87477" lon="1.23143">
        <ele>149.11774249292</ele>
        <time>2021-07-11T11:21:04.800Z</time>
      </trkpt>
      <trkpt lat="44.87473" lon="1.23168">
        <ele>148.4802719326</ele>
        <time>2021-07-11T11:21:19.629Z</time>
      </trkpt>
      <trkpt lat="44.87459" lon="1.23164">
        <ele>147.73161575901</ele>
        <time>2021-07-11T11:21:34.461Z</time>
      </trkpt>
      <trkpt lat="44.87456" lon="1.23166">
        <ele>146.93524190202</ele>
        <time>2021-07-11T11:21:49.294Z</time>
      </trkpt>
      <trkpt lat="44.87411" lon="1.23294">
        <ele>146.15585014576</ele>
        <time>2021-07-11T11:22:04.147Z</time>
      </trkpt>
      <trkpt lat="44.87083" lon="1.24067">
        <ele>144.67987883619</ele>
        <time>2021-07-11T11:22:19.128Z</time>
      </trkpt>
      <trkpt lat="44.87052" lon="1.24135">
        <ele>143.63434256232</ele>
        <time>2021-07-11T11:22:34.120Z</time>
      </trkpt>
      <trkpt lat="44.87033" lon="1.24168">
        <ele>142.6047369486</ele>
        <time>2021-07-11T11:22:49.118Z</time>
      </trkpt>
      <trkpt lat="44.87013" lon="1.24199">
        <ele>141.5396812714</ele>
        <time>2021-07-11T11:23:04.122Z</time>
      </trkpt>
      <trkpt lat="44.86615" lon="1.24759">
        <ele>139.89746229101</ele>
        <time>2021-07-11T11:23:19.239Z</time>
      </trkpt>
      <trkpt lat="44.86569" lon="1.24815">
        <ele>138.48860679378</ele>
        <time>2021-07-11T11:23:34.368Z</time>
      </trkpt>
      <trkpt lat="44.86536" lon="1.24849">
        <ele>137.24349659404</ele>
        <time>2021-07-11T11:23:49.505Z</time>
      </trkpt>
      <trkpt lat="44.86498" lon="1.24883">
        <ele>135.96342786473</ele>
        <time>2021-07-11T11:24:04.651Z</time>
      </trkpt>
      <trkpt lat="44.86448" lon="1.2492">
        <ele>134.64549351653</ele>
        <time>2021-07-11T11:24:19.809Z</time>
      </trkpt>
      <trkpt lat="44.86408" lon="1.24946">
        <ele>133.34955424318</ele>
        <time>2021-07-11T11:24:34.976Z</time>
      </trkpt>
      <trkpt lat="44.86355" lon="1.24975">
        <ele>132.20918178646</ele>
        <time>2021-07-11T11:24:50.154Z</time>
      </trkpt>
      <trkpt lat="44.86031" lon="1.25135">
        <ele>130.64752910307</ele>
        <time>2021-07-11T11:25:05.401Z</time>
      </trkpt>
      <trkpt lat="44.86008" lon="1.25147">
        <ele>129.41048999751</ele>
        <time>2021-07-11T11:25:20.652Z</time>
      </trkpt>
      <trkpt lat="44.85979" lon="1.25166">
        <ele>128.40543779973</ele>
        <time>2021-07-11T11:25:35.910Z</time>
      </trkpt>
      <trkpt lat="44.85938" lon="1.252">
        <ele>127.45953108438</ele>
        <time>2021-07-11T11:25:51.177Z</time>
      </trkpt>
      <trkpt lat="44.85906" lon="1.25232">
        <ele>126.10726195894</ele>
        <time>2021-07-11T11:26:06.452Z</time>
      </trkpt>
      <trkpt lat="44.85874" lon="1.25271">
        <ele>124.90118550076</ele>
        <time>2021-07-11T11:26:21.736Z</time>
      </trkpt>
      <trkpt lat="44.8579" lon="1.25394">
        <ele>124.14899748349</ele>
        <time>2021-07-11T11:26:37.044Z</time>
      </trkpt>
      <trkpt lat="44.85652" lon="1.25603">
        <ele>123.01245141912</ele>
        <time>2021-07-11T11:26:52.393Z</time>
      </trkpt>
      <trkpt lat="44.85625" lon="1.25646">
        <ele>121.98088431584</ele>
        <time>2021-07-11T11:27:07.750Z</time>
      </trkpt>
      <trkpt lat="44.85431" lon="1.25935">
        <ele>120.95530829136</ele>
        <time>2021-07-11T11:27:23.163Z</time>
      </trkpt>
      <trkpt lat="44.85366" lon="1.26038">
        <ele>120.0377281206</ele>
        <time>2021-07-11T11:27:38.596Z</time>
      </trkpt>
      <trkpt lat="44.85338" lon="1.26104">
        <ele>118.95948396324</ele>
        <time>2021-07-11T11:27:54.040Z</time>
      </trkpt>
      <trkpt lat="44.85314" lon="1.26181">
        <ele>118.27250731653</ele>
        <time>2021-07-11T11:28:09.496Z</time>
      </trkpt>
      <trkpt lat="44.85298" lon="1.26253">
        <ele>117.54537581766</ele>
        <time>2021-07-11T11:28:24.962Z</time>
      </trkpt>
      <trkpt lat="44.85288" lon="1.26336">
        <ele>116.57101951002</ele>
        <time>2021-07-11T11:28:40.441Z</time>
      </trkpt>
      <trkpt lat="44.85286" lon="1.26401">
        <ele>115.36726261104</ele>
        <time>2021-07-11T11:28:55.929Z</time>
      </trkpt>
      <trkpt lat="44.85287" lon="1.26449">
        <ele>114.35000962079</ele>
        <time>2021-07-11T11:29:11.424Z</time>
      </trkpt>
      <trkpt lat="44.85311" lon="1.26702">
        <ele>113.0885735378</ele>
        <time>2021-07-11T11:29:26.955Z</time>
      </trkpt>
      <trkpt lat="44.85313" lon="1.26761">
        <ele>112.18203742061</ele>
        <time>2021-07-11T11:29:42.494Z</time>
      </trkpt>
      <trkpt lat="44.8531" lon="1.26808">
        <ele>111.35995177052</ele>
        <time>2021-07-11T11:29:58.040Z</time>
      </trkpt>
      <trkpt lat="44.85294" lon="1.26904">
        <ele>110.66834544714</ele>
        <time>2021-07-11T11:30:13.600Z</time>
      </trkpt>
      <trkpt lat="44.85289" lon="1.26945">
        <ele>109.69570971377</ele>
        <time>2021-07-11T11:30:29.166Z</time>
      </trkpt>
      <trkpt lat="44.85279" lon="1.26975">
        <ele>108.70683955633</ele>
        <time>2021-07-11T11:30:44.737Z</time>
      </trkpt>
      <trkpt lat="44.85244" lon="1.27053">
        <ele>107.5166592048</ele>
        <time>2021-07-11T11:31:00.321Z</time>
      </trkpt>
      <trkpt lat="44.85236" lon="1.27069">
        <ele>106.55502231226</ele>
        <time>2021-07-11T11:31:15.908Z</time>
      </trkpt>
      <trkpt lat="44.852" lon="1.27124">
        <ele>105.27040542852</ele>
        <time>2021-07-11T11:31:31.505Z</time>
      </trkpt>
      <trkpt lat="44.85177" lon="1.27153">
        <ele>104.34628186885</ele>
        <time>2021-07-11T11:31:47.108Z</time>
      </trkpt>
      <trkpt lat="44.8516" lon="1.27171">
        <ele>103.59773205128</ele>
        <time>2021-07-11T11:32:02.716Z</time>
      </trkpt>
      <trkpt lat="44.85144" lon="1.27186">
        <ele>102.86249672714</ele>
        <time>2021-07-11T11:32:18.327Z</time>
      </trkpt>
      <trkpt lat="44.85115" lon="1.27207">
        <ele>102.15327029767</ele>
        <time>2021-07-11T11:32:33.945Z</time>
      </trkpt>
      <trkpt lat="44.85095" lon="1.2722">
        <ele>101.47633030513</ele>
        <time>2021-07-11T11:32:49.567Z</time>
      </trkpt>
      <trkpt lat="44.8507" lon="1.27232">
        <ele>100.84549286481</ele>
        <time>2021-07-11T11:33:05.195Z</time>
      </trkpt>
      <trkpt lat="44.84855" lon="1.27319">
        <ele>99.94940250433</ele>
        <time>2021-07-11T11:33:20.867Z</time>
      </trkpt>
      <trkpt lat="44.84795" lon="1.27345">
        <ele>99.68957588404</ele>
        <time>2021-07-11T11:33:36.552Z</time>
      </trkpt>
      <trkpt lat="44.84751" lon="1.27373">
        <ele>99.44576648244</ele>
        <time>2021-07-11T11:33:52.247Z</time>
      </trkpt>
      <trkpt lat="44.84629" lon="1.2747">
        <ele>98.99864277191</ele>
        <time>2021-07-11T11:34:07.970Z</time>
      </trkpt>
      <trkpt lat="44.84574" lon="1.27503">
        <ele>98.98323232128</ele>
        <time>2021-07-11T11:34:23.705Z</time>
      </trkpt>
      <trkpt lat="44.8454" lon="1.27518">
        <ele>98.96939900431</ele>
        <time>2021-07-11T11:34:39.447Z</time>
      </trkpt>
      <trkpt lat="44.84507" lon="1.27528">
        <ele>99.07878264444</ele>
        <time>2021-07-11T11:34:55.195Z</time>
      </trkpt>
      <trkpt lat="44.84469" lon="1.27536">
        <ele>99.05457409078</ele>
        <time>2021-07-11T11:35:10.951Z</time>
      </trkpt>
      <trkpt lat="44.84438" lon="1.27537">
        <ele>98.9879601366</ele>
        <time>2021-07-11T11:35:26.713Z</time>
      </trkpt>
      <trkpt lat="44.84286" lon="1.27531">
        <ele>98.6783619424</ele>
        <time>2021-07-11T11:35:42.506Z</time>
      </trkpt>
      <trkpt lat="44.84262" lon="1.27534">
        <ele>98.64321559323</ele>
        <time>2021-07-11T11:35:58.304Z</time>
      </trkpt>
      <trkpt lat="44.84239" lon="1.27539">
        <ele>98.50237804697</ele>
        <time>2021-07-11T11:36:14.106Z</time>
      </trkpt>
      <trkpt lat="44.8421" lon="1.27548">
        <ele>98.35229621829</ele>
        <time>2021-07-11T11:36:29.914Z</time>
      </trkpt>
      <trkpt lat="44.84104" lon="1.27588">
        <ele>98.20326167259</ele>
        <time>2021-07-11T11:36:45.744Z</time>
      </trkpt>
      <trkpt lat="44.84077" lon="1.27593">
        <ele>98.11718090765</ele>
        <time>2021-07-11T11:37:01.580Z</time>
      </trkpt>
      <trkpt lat="44.84029" lon="1.27596">
        <ele>97.98008545757</ele>
        <time>2021-07-11T11:37:17.425Z</time>
      </trkpt>
      <trkpt lat="44.84007" lon="1.276">
        <ele>97.88681861672</ele>
        <time>2021-07-11T11:37:33.275Z</time>
      </trkpt>
      <trkpt lat="44.83965" lon="1.27596">
        <ele>97.63199803709</ele>
        <time>2021-07-11T11:37:49.133Z</time>
      </trkpt>
      <trkpt lat="44.83913" lon="1.27581">
        <ele>97.5475394537</ele>
        <time>2021-07-11T11:38:05.002Z</time>
      </trkpt>
      <trkpt lat="44.83723" lon="1.27503">
        <ele>98.0342113485</ele>
        <time>2021-07-11T11:38:20.910Z</time>
      </trkpt>
      <trkpt lat="44.83506" lon="1.2741">
        <ele>97.64079792901</ele>
        <time>2021-07-11T11:38:36.864Z</time>
      </trkpt>
      <trkpt lat="44.83386" lon="1.27361">
        <ele>97.40884387818</ele>
        <time>2021-07-11T11:38:52.843Z</time>
      </trkpt>
      <trkpt lat="44.83315" lon="1.27333">
        <ele>97.06444185499</ele>
        <time>2021-07-11T11:39:08.836Z</time>
      </trkpt>
      <trkpt lat="44.83293" lon="1.27326">
        <ele>96.74360927386</ele>
        <time>2021-07-11T11:39:24.834Z</time>
      </trkpt>
      <trkpt lat="44.83269" lon="1.27322">
        <ele>96.4367352322</ele>
        <time>2021-07-11T11:39:40.837Z</time>
      </trkpt>
      <trkpt lat="44.83232" lon="1.27321">
        <ele>96.11723157548</ele>
        <time>2021-07-11T11:39:56.847Z</time>
      </trkpt>
      <trkpt lat="44.83201" lon="1.27325">
        <ele>95.73997514835</ele>
        <time>2021-07-11T11:40:12.864Z</time>
      </trkpt>
      <trkpt lat="44.83158" lon="1.2734">
        <ele>95.30126425827</ele>
        <time>2021-07-11T11:40:28.889Z</time>
      </trkpt>
      <trkpt lat="44.83129" lon="1.27357">
        <ele>94.86442745865</ele>
        <time>2021-07-11T11:40:44.921Z</time>
      </trkpt>
      <trkpt lat="44.83096" lon="1.27384">
        <ele>94.40891354314</ele>
        <time>2021-07-11T11:41:00.960Z</time>
      </trkpt>
      <trkpt lat="44.83065" lon="1.27417">
        <ele>93.99098603849</ele>
        <time>2021-07-11T11:41:17.007Z</time>
      </trkpt>
      <trkpt lat="44.83037" lon="1.27458">
        <ele>93.52349474668</ele>
        <time>2021-07-11T11:41:33.062Z</time>
      </trkpt>
      <trkpt lat="44.83015" lon="1.27501">
        <ele>93.04342670551</ele>
        <time>2021-07-11T11:41:49.125Z</time>
      </trkpt>
      <trkpt lat="44.82862" lon="1.27835">
        <ele>92.50053001177</ele>
        <time>2021-07-11T11:42:05.244Z</time>
      </trkpt>
      <trkpt lat="44.82857" lon="1.27843">
        <ele>91.97420901127</ele>
        <time>2021-07-11T11:42:21.365Z</time>
      </trkpt>
      <trkpt lat="44.82833" lon="1.27896">
        <ele>91.35678765517</ele>
        <time>2021-07-11T11:42:37.495Z</time>
      </trkpt>
      <trkpt lat="44.82797" lon="1.27962">
        <ele>90.60909107022</ele>
        <time>2021-07-11T11:42:53.637Z</time>
      </trkpt>
      <trkpt lat="44.82785" lon="1.27988">
        <ele>90.07021589441</ele>
        <time>2021-07-11T11:43:09.783Z</time>
      </trkpt>
      <trkpt lat="44.82772" lon="1.28027">
        <ele>89.5846631851</ele>
        <time>2021-07-11T11:43:25.935Z</time>
      </trkpt>
      <trkpt lat="44.82756" lon="1.28066">
        <ele>89.14817050921</ele>
        <time>2021-07-11T11:43:42.093Z</time>
      </trkpt>
      <trkpt lat="44.82719" lon="1.2813">
        <ele>88.65419584595</ele>
        <time>2021-07-11T11:43:58.263Z</time>
      </trkpt>
      <trkpt lat="44.82694" lon="1.28165">
        <ele>88.40788915432</ele>
        <time>2021-07-11T11:44:14.440Z</time>
      </trkpt>
      <trkpt lat="44.82673" lon="1.28189">
        <ele>88.24183836072</ele>
        <time>2021-07-11T11:44:30.623Z</time>
      </trkpt>
      <trkpt lat="44.8262" lon="1.28235">
        <ele>88.24349327053</ele>
        <time>2021-07-11T11:44:46.818Z</time>
      </trkpt>
      <trkpt lat="44.8259" lon="1.28258">
        <ele>88.25335236207</ele>
        <time>2021-07-11T11:45:03.020Z</time>
      </trkpt>
      <trkpt lat="44.82566" lon="1.28273">
        <ele>88.38062026532</ele>
        <time>2021-07-11T11:45:19.227Z</time>
      </trkpt>
      <trkpt lat="44.82528" lon="1.28287">
        <ele>88.61349062925</ele>
        <time>2021-07-11T11:45:35.442Z</time>
      </trkpt>
      <trkpt lat="44.82478" lon="1.28307">
        <ele>88.87257071435</ele>
        <time>2021-07-11T11:45:51.667Z</time>
      </trkpt>
      <trkpt lat="44.82322" lon="1.28356">
        <ele>89.72572854631</ele>
        <time>2021-07-11T11:46:07.924Z</time>
      </trkpt>
      <trkpt lat="44.82309" lon="1.28361">
        <ele>90.22770662359</ele>
        <time>2021-07-11T11:46:24.184Z</time>
      </trkpt>
      <trkpt lat="44.82269" lon="1.28374">
        <ele>90.92074874374</ele>
        <time>2021-07-11T11:46:40.452Z</time>
      </trkpt>
      <trkpt lat="44.82227" lon="1.28392">
        <ele>91.52434563354</ele>
        <time>2021-07-11T11:46:56.729Z</time>
      </trkpt>
      <trkpt lat="44.82197" lon="1.28409">
        <ele>92.15723993419</ele>
        <time>2021-07-11T11:47:13.013Z</time>
      </trkpt>
      <trkpt lat="44.82174" lon="1.28425">
        <ele>92.81059266447</ele>
        <time>2021-07-11T11:47:29.302Z</time>
      </trkpt>
      <trkpt lat="44.8216" lon="1.28438">
        <ele>93.4078589306</ele>
        <time>2021-07-11T11:47:45.594Z</time>
      </trkpt>
      <trkpt lat="44.82129" lon="1.28469">
        <ele>93.99771335991</ele>
        <time>2021-07-11T11:48:01.894Z</time>
      </trkpt>
      <trkpt lat="44.82102" lon="1.28502">
        <ele>94.70829887866</ele>
        <time>2021-07-11T11:48:18.201Z</time>
      </trkpt>
      <trkpt lat="44.82086" lon="1.28525">
        <ele>95.30909642073</ele>
        <time>2021-07-11T11:48:34.512Z</time>
      </trkpt>
      <trkpt lat="44.82073" lon="1.28546">
        <ele>95.74168692182</ele>
        <time>2021-07-11T11:48:50.827Z</time>
      </trkpt>
      <trkpt lat="44.82064" lon="1.28566">
        <ele>96.09619527795</ele>
        <time>2021-07-11T11:49:07.146Z</time>
      </trkpt>
      <trkpt lat="44.82058" lon="1.2859">
        <ele>96.39715940612</ele>
        <time>2021-07-11T11:49:23.468Z</time>
      </trkpt>
      <trkpt lat="44.82057" lon="1.28626">
        <ele>96.49394906962</ele>
        <time>2021-07-11T11:49:39.796Z</time>
      </trkpt>
      <trkpt lat="44.82039" lon="1.28717">
        <ele>96.48842118872</ele>
        <time>2021-07-11T11:49:56.137Z</time>
      </trkpt>
      <trkpt lat="44.82028" lon="1.28752">
        <ele>96.68419998692</ele>
        <time>2021-07-11T11:50:12.483Z</time>
      </trkpt>
      <trkpt lat="44.82016" lon="1.28775">
        <ele>96.91137186661</ele>
        <time>2021-07-11T11:50:28.833Z</time>
      </trkpt>
      <trkpt lat="44.81967" lon="1.28859">
        <ele>96.82435074617</ele>
        <time>2021-07-11T11:50:45.199Z</time>
      </trkpt>
      <trkpt lat="44.81947" lon="1.28882">
        <ele>96.69053783597</ele>
        <time>2021-07-11T11:51:01.570Z</time>
      </trkpt>
      <trkpt lat="44.81904" lon="1.2892">
        <ele>96.78376918256</ele>
        <time>2021-07-11T11:51:17.951Z</time>
      </trkpt>
      <trkpt lat="44.81876" lon="1.28948">
        <ele>96.90272868727</ele>
        <time>2021-07-11T11:51:34.339Z</time>
      </trkpt>
      <trkpt lat="44.81864" lon="1.28967">
        <ele>96.97548411578</ele>
        <time>2021-07-11T11:51:50.731Z</time>
      </trkpt>
      <trkpt lat="44.81827" lon="1.29037">
        <ele>96.84219991615</ele>
        <time>2021-07-11T11:52:07.135Z</time>
      </trkpt>
      <trkpt lat="44.81817" lon="1.29049">
        <ele>96.97773014974</ele>
        <time>2021-07-11T11:52:23.542Z</time>
      </trkpt>
      <trkpt lat="44.81805" lon="1.29057">
        <ele>97.17378988822</ele>
        <time>2021-07-11T11:52:39.951Z</time>
      </trkpt>
      <trkpt lat="44.81787" lon="1.29062">
        <ele>97.45558050662</ele>
        <time>2021-07-11T11:52:56.364Z</time>
      </trkpt>
      <trkpt lat="44.81773" lon="1.29065">
        <ele>97.75756443302</ele>
        <time>2021-07-11T11:53:12.780Z</time>
      </trkpt>
      <trkpt lat="44.81765" lon="1.29068">
        <ele>98.07525206995</ele>
        <time>2021-07-11T11:53:29.198Z</time>
      </trkpt>
      <trkpt lat="44.8176" lon="1.29076">
        <ele>98.41388717597</ele>
        <time>2021-07-11T11:53:45.617Z</time>
      </trkpt>
      <trkpt lat="44.8173" lon="1.29028">
        <ele>98.9694403045</ele>
        <time>2021-07-11T11:54:02.045Z</time>
      </trkpt>
      <trkpt lat="44.81722" lon="1.29042">
        <ele>99.41886849128</ele>
        <time>2021-07-11T11:54:18.476Z</time>
      </trkpt>
      <trkpt lat="44.81709" lon="1.29059">
        <ele>99.91862356341</ele>
        <time>2021-07-11T11:54:34.910Z</time>
      </trkpt>
      <trkpt lat="44.81668" lon="1.29102">
        <ele>100.51963121117</ele>
        <time>2021-07-11T11:54:51.355Z</time>
      </trkpt>
      <trkpt lat="44.81661" lon="1.29108">
        <ele>101.05670562882</ele>
        <time>2021-07-11T11:55:07.801Z</time>
      </trkpt>
      <trkpt lat="44.81648" lon="1.29115">
        <ele>101.61018164293</ele>
        <time>2021-07-11T11:55:24.250Z</time>
      </trkpt>
      <trkpt lat="44.81622" lon="1.29111">
        <ele>102.20825930545</ele>
        <time>2021-07-11T11:55:40.704Z</time>
      </trkpt>
      <trkpt lat="44.81607" lon="1.29105">
        <ele>102.78071070591</ele>
        <time>2021-07-11T11:55:57.161Z</time>
      </trkpt>
      <trkpt lat="44.81577" lon="1.29093">
        <ele>103.36059190921</ele>
        <time>2021-07-11T11:56:13.625Z</time>
      </trkpt>
      <trkpt lat="44.81537" lon="1.29081">
        <ele>103.89169322506</ele>
        <time>2021-07-11T11:56:30.097Z</time>
      </trkpt>
      <trkpt lat="44.81507" lon="1.29068">
        <ele>104.54923707625</ele>
        <time>2021-07-11T11:56:46.575Z</time>
      </trkpt>
      <trkpt lat="44.81482" lon="1.29056">
        <ele>105.14977050397</ele>
        <time>2021-07-11T11:57:03.058Z</time>
      </trkpt>
      <trkpt lat="44.81463" lon="1.29051">
        <ele>105.675758561</ele>
        <time>2021-07-11T11:57:19.545Z</time>
      </trkpt>
      <trkpt lat="44.81446" lon="1.29049">
        <ele>106.15078200482</ele>
        <time>2021-07-11T11:57:36.036Z</time>
      </trkpt>
      <trkpt lat="44.81424" lon="1.29049">
        <ele>106.56026350612</ele>
        <time>2021-07-11T11:57:52.531Z</time>
      </trkpt>
      <trkpt lat="44.81375" lon="1.29055">
        <ele>106.93048551772</ele>
        <time>2021-07-11T11:58:09.036Z</time>
      </trkpt>
      <trkpt lat="44.81335" lon="1.29056">
        <ele>107.25493102443</ele>
        <time>2021-07-11T11:58:25.549Z</time>
      </trkpt>
      <trkpt lat="44.81321" lon="1.29061">
        <ele>107.40551292066</ele>
        <time>2021-07-11T11:58:42.065Z</time>
      </trkpt>
      <trkpt lat="44.81314" lon="1.29067">
        <ele>107.45534621457</ele>
        <time>2021-07-11T11:58:58.582Z</time>
      </trkpt>
      <trkpt lat="44.81303" lon="1.29079">
        <ele>107.40818929857</ele>
        <time>2021-07-11T11:59:15.102Z</time>
      </trkpt>
      <trkpt lat="44.81284" lon="1.29092">
        <ele>107.28697694965</ele>
        <time>2021-07-11T11:59:31.626Z</time>
      </trkpt>
      <trkpt lat="44.81267" lon="1.29097">
        <ele>107.04601335402</ele>
        <time>2021-07-11T11:59:48.154Z</time>
      </trkpt>
      <trkpt lat="44.81204" lon="1.29106">
        <ele>106.65259018751</ele>
        <time>2021-07-11T12:00:04.695Z</time>
      </trkpt>
      <trkpt lat="44.81183" lon="1.29111">
        <ele>106.30630906818</ele>
        <time>2021-07-11T12:00:21.240Z</time>
      </trkpt>
      <trkpt lat="44.81169" lon="1.29116">
        <ele>105.8141519009</ele>
        <time>2021-07-11T12:00:37.788Z</time>
      </trkpt>
      <trkpt lat="44.8113" lon="1.29134">
        <ele>105.25183155165</ele>
        <time>2021-07-11T12:00:54.344Z</time>
      </trkpt>
      <trkpt lat="44.81097" lon="1.29156">
        <ele>104.60497812534</ele>
        <time>2021-07-11T12:01:10.907Z</time>
      </trkpt>
      <trkpt lat="44.81069" lon="1.29317">
        <ele>103.14654542451</ele>
        <time>2021-07-11T12:01:27.494Z</time>
      </trkpt>
      <trkpt lat="44.81065" lon="1.29328">
        <ele>102.2291346175</ele>
        <time>2021-07-11T12:01:44.083Z</time>
      </trkpt>
      <trkpt lat="44.81049" lon="1.29352">
        <ele>101.25086881789</ele>
        <time>2021-07-11T12:02:00.676Z</time>
      </trkpt>
      <trkpt lat="44.8102" lon="1.29387">
        <ele>100.23232782371</ele>
        <time>2021-07-11T12:02:17.277Z</time>
      </trkpt>
      <trkpt lat="44.8094" lon="1.29474">
        <ele>99.16538370752</ele>
        <time>2021-07-11T12:02:33.898Z</time>
      </trkpt>
      <trkpt lat="44.80918" lon="1.29506">
        <ele>98.04363117598</ele>
        <time>2021-07-11T12:02:50.525Z</time>
      </trkpt>
      <trkpt lat="44.80904" lon="1.29542">
        <ele>96.91518479759</ele>
        <time>2021-07-11T12:03:07.158Z</time>
      </trkpt>
      <trkpt lat="44.809" lon="1.29562">
        <ele>95.83526569176</ele>
        <time>2021-07-11T12:03:23.794Z</time>
      </trkpt>
      <trkpt lat="44.80895" lon="1.29575">
        <ele>94.83300840351</ele>
        <time>2021-07-11T12:03:40.432Z</time>
      </trkpt>
      <trkpt lat="44.80872" lon="1.29597">
        <ele>93.80785370941</ele>
        <time>2021-07-11T12:03:57.076Z</time>
      </trkpt>
      <trkpt lat="44.80867" lon="1.29609">
        <ele>92.79751078111</ele>
        <time>2021-07-11T12:04:13.722Z</time>
      </trkpt>
      <trkpt lat="44.80863" lon="1.29634">
        <ele>91.7839732698</ele>
        <time>2021-07-11T12:04:30.372Z</time>
      </trkpt>
      <trkpt lat="44.80847" lon="1.29633">
        <ele>90.93348697651</ele>
        <time>2021-07-11T12:04:47.025Z</time>
      </trkpt>
      <trkpt lat="44.80824" lon="1.29626">
        <ele>90.16741311111</ele>
        <time>2021-07-11T12:05:03.683Z</time>
      </trkpt>
      <trkpt lat="44.80811" lon="1.29626">
        <ele>89.47660456269</ele>
        <time>2021-07-11T12:05:20.343Z</time>
      </trkpt>
      <trkpt lat="44.80794" lon="1.29624">
        <ele>88.87765700846</ele>
        <time>2021-07-11T12:05:37.007Z</time>
      </trkpt>
      <trkpt lat="44.80763" lon="1.29615">
        <ele>88.38935227724</ele>
        <time>2021-07-11T12:05:53.677Z</time>
      </trkpt>
      <trkpt lat="44.80735" lon="1.29602">
        <ele>88.02616385776</ele>
        <time>2021-07-11T12:06:10.353Z</time>
      </trkpt>
      <trkpt lat="44.80707" lon="1.29583">
        <ele>87.78435309739</ele>
        <time>2021-07-11T12:06:27.035Z</time>
      </trkpt>
      <trkpt lat="44.80717" lon="1.29655">
        <ele>87.53397949151</ele>
        <time>2021-07-11T12:06:43.728Z</time>
      </trkpt>
      <trkpt lat="44.80712" lon="1.29662">
        <ele>87.52527278677</ele>
        <time>2021-07-11T12:07:00.422Z</time>
      </trkpt>
      <trkpt lat="44.80717" lon="1.29655">
        <ele>87.53397949151</ele>
        <time>2021-07-11T12:07:17.117Z</time>
      </trkpt>
      <trkpt lat="44.80728" lon="1.29732">
        <ele>88.143333126</ele>
        <time>2021-07-11T12:07:33.824Z</time>
      </trkpt>
      <trkpt lat="44.80728" lon="1.29742">
        <ele>88.56088224594</ele>
        <time>2021-07-11T12:07:50.532Z</time>
      </trkpt>
      <trkpt lat="44.80691" lon="1.29728">
        <ele>88.81566147638</ele>
        <time>2021-07-11T12:08:07.248Z</time>
      </trkpt>
      <trkpt lat="44.80668" lon="1.29722">
        <ele>89.25164695641</ele>
        <time>2021-07-11T12:08:23.968Z</time>
      </trkpt>
      <trkpt lat="44.8063" lon="1.29721">
        <ele>89.75972161676</ele>
        <time>2021-07-11T12:08:40.696Z</time>
      </trkpt>
      <trkpt lat="44.80611" lon="1.29725">
        <ele>90.48347345996</ele>
        <time>2021-07-11T12:08:57.428Z</time>
      </trkpt>
      <trkpt lat="44.80599" lon="1.29731">
        <ele>91.36053602298</ele>
        <time>2021-07-11T12:09:14.162Z</time>
      </trkpt>
      <trkpt lat="44.8059" lon="1.29737">
        <ele>92.38328272694</ele>
        <time>2021-07-11T12:09:30.898Z</time>
      </trkpt>
      <trkpt lat="44.80569" lon="1.29761">
        <ele>93.59420544211</ele>
        <time>2021-07-11T12:09:47.640Z</time>
      </trkpt>
      <trkpt lat="44.80524" lon="1.29831">
        <ele>94.73811274272</ele>
        <time>2021-07-11T12:10:04.395Z</time>
      </trkpt>
      <trkpt lat="44.80507" lon="1.29859">
        <ele>96.15614815514</ele>
        <time>2021-07-11T12:10:21.155Z</time>
      </trkpt>
      <trkpt lat="44.80408" lon="1.30075">
        <ele>97.41140417954</ele>
        <time>2021-07-11T12:10:37.952Z</time>
      </trkpt>
      <trkpt lat="44.80416" lon="1.30086">
        <ele>99.00919543217</ele>
        <time>2021-07-11T12:10:54.751Z</time>
      </trkpt>
      <trkpt lat="44.8042" lon="1.30096">
        <ele>100.66890199312</ele>
        <time>2021-07-11T12:11:11.552Z</time>
      </trkpt>
      <trkpt lat="44.80422" lon="1.30108">
        <ele>102.39175699225</ele>
        <time>2021-07-11T12:11:28.355Z</time>
      </trkpt>
      <trkpt lat="44.80419" lon="1.30123">
        <ele>104.12503425559</ele>
        <time>2021-07-11T12:11:45.160Z</time>
      </trkpt>
      <trkpt lat="44.8041" lon="1.30155">
        <ele>105.88803349321</ele>
        <time>2021-07-11T12:12:01.970Z</time>
      </trkpt>
      <trkpt lat="44.80342" lon="1.30454">
        <ele>107.93464682874</ele>
        <time>2021-07-11T12:12:18.825Z</time>
      </trkpt>
      <trkpt lat="44.80296" lon="1.30614">
        <ele>110.02651211014</ele>
        <time>2021-07-11T12:12:35.704Z</time>
      </trkpt>
      <trkpt lat="44.80279" lon="1.30663">
        <ele>112.11912484524</ele>
        <time>2021-07-11T12:12:52.591Z</time>
      </trkpt>
      <trkpt lat="44.80268" lon="1.3068">
        <ele>113.95949824789</ele>
        <time>2021-07-11T12:13:09.481Z</time>
      </trkpt>
      <trkpt lat="44.80256" lon="1.30685">
        <ele>115.54676343455</ele>
        <time>2021-07-11T12:13:26.374Z</time>
      </trkpt>
      <trkpt lat="44.8024" lon="1.30684">
        <ele>116.9350852234</ele>
        <time>2021-07-11T12:13:43.270Z</time>
      </trkpt>
      <trkpt lat="44.80216" lon="1.30677">
        <ele>118.19779376547</ele>
        <time>2021-07-11T12:14:00.171Z</time>
      </trkpt>
      <trkpt lat="44.80158" lon="1.30682">
        <ele>119.28917308573</ele>
        <time>2021-07-11T12:14:17.083Z</time>
      </trkpt>
      <trkpt lat="44.80133" lon="1.30687">
        <ele>120.29786935696</ele>
        <time>2021-07-11T12:14:34.001Z</time>
      </trkpt>
      <trkpt lat="44.80099" lon="1.30706">
        <ele>121.45969679787</ele>
        <time>2021-07-11T12:14:50.926Z</time>
      </trkpt>
      <trkpt lat="44.80055" lon="1.30724">
        <ele>122.20404317158</ele>
        <time>2021-07-11T12:15:07.860Z</time>
      </trkpt>
      <trkpt lat="44.80008" lon="1.3073">
        <ele>122.63815199523</ele>
        <time>2021-07-11T12:15:24.803Z</time>
      </trkpt>
      <trkpt lat="44.79985" lon="1.30738">
        <ele>123.01743618498</ele>
        <time>2021-07-11T12:15:41.751Z</time>
      </trkpt>
      <trkpt lat="44.79975" lon="1.30743">
        <ele>123.24410753623</ele>
        <time>2021-07-11T12:15:58.701Z</time>
      </trkpt>
      <trkpt lat="44.79961" lon="1.30751">
        <ele>123.23085437645</ele>
        <time>2021-07-11T12:16:15.654Z</time>
      </trkpt>
      <trkpt lat="44.79946" lon="1.30764">
        <ele>123.1923534682</ele>
        <time>2021-07-11T12:16:32.611Z</time>
      </trkpt>
      <trkpt lat="44.79927" lon="1.3078">
        <ele>123.17470644597</ele>
        <time>2021-07-11T12:16:49.572Z</time>
      </trkpt>
      <trkpt lat="44.79911" lon="1.30797">
        <ele>122.8260049039</ele>
        <time>2021-07-11T12:17:06.537Z</time>
      </trkpt>
      <trkpt lat="44.79902" lon="1.30809">
        <ele>122.23572681623</ele>
        <time>2021-07-11T12:17:23.505Z</time>
      </trkpt>
      <trkpt lat="44.79889" lon="1.30834">
        <ele>121.46371404146</ele>
        <time>2021-07-11T12:17:40.477Z</time>
      </trkpt>
      <trkpt lat="44.79838" lon="1.30922">
        <ele>119.98470037962</ele>
        <time>2021-07-11T12:17:57.465Z</time>
      </trkpt>
      <trkpt lat="44.79817" lon="1.30953">
        <ele>118.73725761662</ele>
        <time>2021-07-11T12:18:14.459Z</time>
      </trkpt>
      <trkpt lat="44.79797" lon="1.30973">
        <ele>117.4259390059</ele>
        <time>2021-07-11T12:18:31.458Z</time>
      </trkpt>
      <trkpt lat="44.79773" lon="1.30989">
        <ele>116.00338933774</ele>
        <time>2021-07-11T12:18:48.463Z</time>
      </trkpt>
      <trkpt lat="44.79729" lon="1.31006">
        <ele>114.36708227712</ele>
        <time>2021-07-11T12:19:05.477Z</time>
      </trkpt>
      <trkpt lat="44.79591" lon="1.31051">
        <ele>112.66637390345</ele>
        <time>2021-07-11T12:19:22.519Z</time>
      </trkpt>
      <trkpt lat="44.79572" lon="1.31059">
        <ele>111.24005229497</ele>
        <time>2021-07-11T12:19:39.565Z</time>
      </trkpt>
      <trkpt lat="44.79561" lon="1.31066">
        <ele>109.89118028942</ele>
        <time>2021-07-11T12:19:56.613Z</time>
      </trkpt>
      <trkpt lat="44.79547" lon="1.3108">
        <ele>108.6026906447</ele>
        <time>2021-07-11T12:20:13.665Z</time>
      </trkpt>
      <trkpt lat="44.79515" lon="1.3112">
        <ele>107.45731874064</ele>
        <time>2021-07-11T12:20:30.725Z</time>
      </trkpt>
      <trkpt lat="44.79479" lon="1.31211">
        <ele>106.26174356829</ele>
        <time>2021-07-11T12:20:47.800Z</time>
      </trkpt>
      <trkpt lat="44.79452" lon="1.31258">
        <ele>104.98801986211</ele>
        <time>2021-07-11T12:21:04.884Z</time>
      </trkpt>
      <trkpt lat="44.7944" lon="1.31285">
        <ele>104.033158672</ele>
        <time>2021-07-11T12:21:21.972Z</time>
      </trkpt>
      <trkpt lat="44.79434" lon="1.31327">
        <ele>103.16078364831</ele>
        <time>2021-07-11T12:21:39.066Z</time>
      </trkpt>
      <trkpt lat="44.79431" lon="1.31375">
        <ele>102.3749195868</ele>
        <time>2021-07-11T12:21:56.167Z</time>
      </trkpt>
      <trkpt lat="44.79423" lon="1.31452">
        <ele>101.77727563688</ele>
        <time>2021-07-11T12:22:13.279Z</time>
      </trkpt>
      <trkpt lat="44.79413" lon="1.31526">
        <ele>101.37169721377</ele>
        <time>2021-07-11T12:22:30.402Z</time>
      </trkpt>
      <trkpt lat="44.79404" lon="1.31552">
        <ele>100.78788317367</ele>
        <time>2021-07-11T12:22:47.529Z</time>
      </trkpt>
      <trkpt lat="44.79292" lon="1.31809">
        <ele>100.29791616987</ele>
        <time>2021-07-11T12:23:04.699Z</time>
      </trkpt>
      <trkpt lat="44.79267" lon="1.31882">
        <ele>100.10471930414</ele>
        <time>2021-07-11T12:23:21.881Z</time>
      </trkpt>
      <trkpt lat="44.79261" lon="1.31914">
        <ele>99.78967914567</ele>
        <time>2021-07-11T12:23:39.067Z</time>
      </trkpt>
      <trkpt lat="44.7926" lon="1.31944">
        <ele>99.55636685917</ele>
        <time>2021-07-11T12:23:56.258Z</time>
      </trkpt>
      <trkpt lat="44.79263" lon="1.31983">
        <ele>99.41591957165</ele>
        <time>2021-07-11T12:24:13.454Z</time>
      </trkpt>
      <trkpt lat="44.7927" lon="1.3202">
        <ele>99.22899034076</ele>
        <time>2021-07-11T12:24:30.656Z</time>
      </trkpt>
      <trkpt lat="44.79271" lon="1.32072">
        <ele>99.07574791035</ele>
        <time>2021-07-11T12:24:47.865Z</time>
      </trkpt>
      <trkpt lat="44.79273" lon="1.32085">
        <ele>99.02395145289</ele>
        <time>2021-07-11T12:25:05.076Z</time>
      </trkpt>
      <trkpt lat="44.79277" lon="1.32095">
        <ele>99.01319080198</ele>
        <time>2021-07-11T12:25:22.289Z</time>
      </trkpt>
      <trkpt lat="44.79313" lon="1.3214">
        <ele>99.2774144042</ele>
        <time>2021-07-11T12:25:39.511Z</time>
      </trkpt>
      <trkpt lat="44.79318" lon="1.3215">
        <ele>99.39722490095</ele>
        <time>2021-07-11T12:25:56.735Z</time>
      </trkpt>
      <trkpt lat="44.79322" lon="1.32166">
        <ele>99.57799602306</ele>
        <time>2021-07-11T12:26:13.961Z</time>
      </trkpt>
      <trkpt lat="44.79322" lon="1.32176">
        <ele>99.68075989736</ele>
        <time>2021-07-11T12:26:31.189Z</time>
      </trkpt>
      <trkpt lat="44.79313" lon="1.32222">
        <ele>99.68441129698</ele>
        <time>2021-07-11T12:26:48.424Z</time>
      </trkpt>
      <trkpt lat="44.79306" lon="1.32241">
        <ele>99.76998637192</ele>
        <time>2021-07-11T12:27:05.662Z</time>
      </trkpt>
      <trkpt lat="44.79283" lon="1.32285">
        <ele>99.66023971411</ele>
        <time>2021-07-11T12:27:22.908Z</time>
      </trkpt>
      <trkpt lat="44.79247" lon="1.32361">
        <ele>99.87238468727</ele>
        <time>2021-07-11T12:27:40.166Z</time>
      </trkpt>
      <trkpt lat="44.79216" lon="1.32435">
        <ele>99.75591687654</ele>
        <time>2021-07-11T12:27:57.437Z</time>
      </trkpt>
      <trkpt lat="44.79208" lon="1.32449">
        <ele>99.66726445899</ele>
        <time>2021-07-11T12:28:14.710Z</time>
      </trkpt>
      <trkpt lat="44.79207" lon="1.32454">
        <ele>99.67798723952</ele>
        <time>2021-07-11T12:28:31.984Z</time>
      </trkpt>
      <trkpt lat="44.79209" lon="1.32485">
        <ele>99.70757463382</ele>
        <time>2021-07-11T12:28:49.263Z</time>
      </trkpt>
      <trkpt lat="44.79212" lon="1.32505">
        <ele>99.7328522053</ele>
        <time>2021-07-11T12:29:06.544Z</time>
      </trkpt>
      <trkpt lat="44.7927" lon="1.32716">
        <ele>99.77314457394</ele>
        <time>2021-07-11T12:29:23.858Z</time>
      </trkpt>
      <trkpt lat="44.7928" lon="1.32769">
        <ele>99.69204067364</ele>
        <time>2021-07-11T12:29:41.179Z</time>
      </trkpt>
      <trkpt lat="44.79284" lon="1.3278">
        <ele>99.64046607219</ele>
        <time>2021-07-11T12:29:58.502Z</time>
      </trkpt>
      <trkpt lat="44.79295" lon="1.32799">
        <ele>99.62712597503</ele>
        <time>2021-07-11T12:30:15.829Z</time>
      </trkpt>
      <trkpt lat="44.79307" lon="1.32814">
        <ele>99.67044360141</ele>
        <time>2021-07-11T12:30:33.159Z</time>
      </trkpt>
      <trkpt lat="44.79378" lon="1.32869">
        <ele>99.80710918538</ele>
        <time>2021-07-11T12:30:50.505Z</time>
      </trkpt>
      <trkpt lat="44.79401" lon="1.32888">
        <ele>99.80914237825</ele>
        <time>2021-07-11T12:31:07.856Z</time>
      </trkpt>
      <trkpt lat="44.7942" lon="1.32914">
        <ele>99.74731628892</ele>
        <time>2021-07-11T12:31:25.213Z</time>
      </trkpt>
      <trkpt lat="44.79463" lon="1.32999">
        <ele>99.48804955754</ele>
        <time>2021-07-11T12:31:42.585Z</time>
      </trkpt>
      <trkpt lat="44.79474" lon="1.33035">
        <ele>99.57816616214</ele>
        <time>2021-07-11T12:31:59.962Z</time>
      </trkpt>
      <trkpt lat="44.79492" lon="1.33149">
        <ele>99.76258297847</ele>
        <time>2021-07-11T12:32:17.356Z</time>
      </trkpt>
      <trkpt lat="44.79497" lon="1.33216">
        <ele>99.87398656087</ele>
        <time>2021-07-11T12:32:34.759Z</time>
      </trkpt>
      <trkpt lat="44.79496" lon="1.33271">
        <ele>100.14420359752</ele>
        <time>2021-07-11T12:32:52.170Z</time>
      </trkpt>
      <trkpt lat="44.79476" lon="1.33431">
        <ele>100.45197251321</ele>
        <time>2021-07-11T12:33:09.604Z</time>
      </trkpt>
      <trkpt lat="44.79473" lon="1.33444">
        <ele>100.7168211512</ele>
        <time>2021-07-11T12:33:27.040Z</time>
      </trkpt>
      <trkpt lat="44.79464" lon="1.33471">
        <ele>100.98735281424</ele>
        <time>2021-07-11T12:33:44.481Z</time>
      </trkpt>
      <trkpt lat="44.79454" lon="1.33464">
        <ele>101.24305619063</ele>
        <time>2021-07-11T12:34:01.924Z</time>
      </trkpt>
      <trkpt lat="44.79429" lon="1.33438">
        <ele>101.59106834347</ele>
        <time>2021-07-11T12:34:19.373Z</time>
      </trkpt>
      <trkpt lat="44.79421" lon="1.33433">
        <ele>102.06866621979</ele>
        <time>2021-07-11T12:34:36.824Z</time>
      </trkpt>
      <trkpt lat="44.79412" lon="1.33431">
        <ele>102.62046245511</ele>
        <time>2021-07-11T12:34:54.277Z</time>
      </trkpt>
      <trkpt lat="44.79374" lon="1.33426">
        <ele>103.17540644165</ele>
        <time>2021-07-11T12:35:11.737Z</time>
      </trkpt>
      <trkpt lat="44.7937" lon="1.33424">
        <ele>103.88552408077</ele>
        <time>2021-07-11T12:35:29.198Z</time>
      </trkpt>
      <trkpt lat="44.79361" lon="1.33457">
        <ele>104.71676137297</ele>
        <time>2021-07-11T12:35:46.664Z</time>
      </trkpt>
      <trkpt lat="44.79356" lon="1.33465">
        <ele>105.5949269793</ele>
        <time>2021-07-11T12:36:04.132Z</time>
      </trkpt>
      <trkpt lat="44.79351" lon="1.33468">
        <ele>106.57453048999</ele>
        <time>2021-07-11T12:36:21.601Z</time>
      </trkpt>
      <trkpt lat="44.79339" lon="1.33471">
        <ele>107.66101134867</ele>
        <time>2021-07-11T12:36:39.072Z</time>
      </trkpt>
      <trkpt lat="44.79295" lon="1.33472">
        <ele>109.00786674589</ele>
        <time>2021-07-11T12:36:56.552Z</time>
      </trkpt>
      <trkpt lat="44.79244" lon="1.3348">
        <ele>110.34915934412</ele>
        <time>2021-07-11T12:37:14.042Z</time>
      </trkpt>
      <trkpt lat="44.7923" lon="1.33478">
        <ele>111.52147684364</ele>
        <time>2021-07-11T12:37:31.535Z</time>
      </trkpt>
      <trkpt lat="44.79216" lon="1.33467">
        <ele>112.68874629562</ele>
        <time>2021-07-11T12:37:49.031Z</time>
      </trkpt>
      <trkpt lat="44.79207" lon="1.33467">
        <ele>113.88705805803</ele>
        <time>2021-07-11T12:38:06.529Z</time>
      </trkpt>
      <trkpt lat="44.79207" lon="1.33487">
        <ele>115.11016457982</ele>
        <time>2021-07-11T12:38:24.030Z</time>
      </trkpt>
      <trkpt lat="44.7921" lon="1.33503">
        <ele>116.30943364673</ele>
        <time>2021-07-11T12:38:41.533Z</time>
      </trkpt>
      <trkpt lat="44.79209" lon="1.3352">
        <ele>117.53888295599</ele>
        <time>2021-07-11T12:38:59.039Z</time>
      </trkpt>
      <trkpt lat="44.79202" lon="1.3353">
        <ele>118.75653308129</ele>
        <time>2021-07-11T12:39:16.547Z</time>
      </trkpt>
      <trkpt lat="44.79189" lon="1.33582">
        <ele>120.01153630752</ele>
        <time>2021-07-11T12:39:34.062Z</time>
      </trkpt>
      <trkpt lat="44.79178" lon="1.33609">
        <ele>121.09776445307</ele>
        <time>2021-07-11T12:39:51.582Z</time>
      </trkpt>
      <trkpt lat="44.79176" lon="1.33618">
        <ele>122.13561328243</ele>
        <time>2021-07-11T12:40:09.103Z</time>
      </trkpt>
      <trkpt lat="44.79175" lon="1.33628">
        <ele>123.12918079077</ele>
        <time>2021-07-11T12:40:26.626Z</time>
      </trkpt>
      <trkpt lat="44.79177" lon="1.33638">
        <ele>124.05621265927</ele>
        <time>2021-07-11T12:40:44.150Z</time>
      </trkpt>
      <trkpt lat="44.79194" lon="1.3367">
        <ele>124.79284486446</ele>
        <time>2021-07-11T12:41:01.680Z</time>
      </trkpt>
      <trkpt lat="44.79197" lon="1.3368">
        <ele>125.58808874457</ele>
        <time>2021-07-11T12:41:19.211Z</time>
      </trkpt>
      <trkpt lat="44.79198" lon="1.33816">
        <ele>126.73321556764</ele>
        <time>2021-07-11T12:41:36.762Z</time>
      </trkpt>
      <trkpt lat="44.79203" lon="1.33882">
        <ele>127.83480061547</ele>
        <time>2021-07-11T12:41:54.322Z</time>
      </trkpt>
      <trkpt lat="44.79204" lon="1.33911">
        <ele>128.52372098636</ele>
        <time>2021-07-11T12:42:11.886Z</time>
      </trkpt>
      <trkpt lat="44.79202" lon="1.33947">
        <ele>129.02071501119</ele>
        <time>2021-07-11T12:42:29.455Z</time>
      </trkpt>
      <trkpt lat="44.79202" lon="1.33968">
        <ele>129.41978284115</ele>
        <time>2021-07-11T12:42:47.027Z</time>
      </trkpt>
      <trkpt lat="44.79204" lon="1.33977">
        <ele>129.7209407818</ele>
        <time>2021-07-11T12:43:04.601Z</time>
      </trkpt>
      <trkpt lat="44.79206" lon="1.33982">
        <ele>129.92695523334</ele>
        <time>2021-07-11T12:43:22.176Z</time>
      </trkpt>
      <trkpt lat="44.79212" lon="1.33986">
        <ele>130.02735793771</ele>
        <time>2021-07-11T12:43:39.752Z</time>
      </trkpt>
      <trkpt lat="44.79232" lon="1.33991">
        <ele>129.92381015675</ele>
        <time>2021-07-11T12:43:57.332Z</time>
      </trkpt>
      <trkpt lat="44.79239" lon="1.33993">
        <ele>129.84520172636</ele>
        <time>2021-07-11T12:44:14.913Z</time>
      </trkpt>
      <trkpt lat="44.7925" lon="1.34006">
        <ele>129.71565289176</ele>
        <time>2021-07-11T12:44:32.497Z</time>
      </trkpt>
      <trkpt lat="44.79261" lon="1.34022">
        <ele>129.56695887071</ele>
        <time>2021-07-11T12:44:50.084Z</time>
      </trkpt>
      <trkpt lat="44.79268" lon="1.34029">
        <ele>129.32124078151</ele>
        <time>2021-07-11T12:45:07.673Z</time>
      </trkpt>
      <trkpt lat="44.79299" lon="1.34046">
        <ele>128.85881978321</ele>
        <time>2021-07-11T12:45:25.269Z</time>
      </trkpt>
      <trkpt lat="44.79318" lon="1.34066">
        <ele>128.44532467778</ele>
        <time>2021-07-11T12:45:42.870Z</time>
      </trkpt>
      <trkpt lat="44.79362" lon="1.34168">
        <ele>127.8188400147</ele>
        <time>2021-07-11T12:46:00.488Z</time>
      </trkpt>
      <trkpt lat="44.79364" lon="1.34185">
        <ele>127.44106555778</ele>
        <time>2021-07-11T12:46:18.108Z</time>
      </trkpt>
      <trkpt lat="44.79362" lon="1.34198">
        <ele>127.12481506694</ele>
        <time>2021-07-11T12:46:35.730Z</time>
      </trkpt>
      <trkpt lat="44.7935" lon="1.34231">
        <ele>126.95056661232</ele>
        <time>2021-07-11T12:46:53.357Z</time>
      </trkpt>
      <trkpt lat="44.79317" lon="1.34274">
        <ele>126.93679562078</ele>
        <time>2021-07-11T12:47:10.993Z</time>
      </trkpt>
      <trkpt lat="44.79294" lon="1.34319">
        <ele>126.89103098857</ele>
        <time>2021-07-11T12:47:28.637Z</time>
      </trkpt>
      <trkpt lat="44.7928" lon="1.34342">
        <ele>126.60748553058</ele>
        <time>2021-07-11T12:47:46.285Z</time>
      </trkpt>
      <trkpt lat="44.79246" lon="1.34425">
        <ele>126.32475861585</ele>
        <time>2021-07-11T12:48:03.947Z</time>
      </trkpt>
      <trkpt lat="44.79216" lon="1.34511">
        <ele>126.0617237373</ele>
        <time>2021-07-11T12:48:21.623Z</time>
      </trkpt>
      <trkpt lat="44.79204" lon="1.34535">
        <ele>125.73613495836</ele>
        <time>2021-07-11T12:48:39.303Z</time>
      </trkpt>
      <trkpt lat="44.79182" lon="1.3456">
        <ele>125.63111956725</ele>
        <time>2021-07-11T12:48:56.989Z</time>
      </trkpt>
      <trkpt lat="44.79147" lon="1.34574">
        <ele>125.93699848405</ele>
        <time>2021-07-11T12:49:14.682Z</time>
      </trkpt>
      <trkpt lat="44.79105" lon="1.34583">
        <ele>126.31916315378</ele>
        <time>2021-07-11T12:49:32.383Z</time>
      </trkpt>
      <trkpt lat="44.79073" lon="1.34605">
        <ele>126.65041547938</ele>
        <time>2021-07-11T12:49:50.091Z</time>
      </trkpt>
      <trkpt lat="44.79048" lon="1.34631">
        <ele>126.87580704164</ele>
        <time>2021-07-11T12:50:07.806Z</time>
      </trkpt>
      <trkpt lat="44.79033" lon="1.34658">
        <ele>127.17896736531</ele>
        <time>2021-07-11T12:50:25.526Z</time>
      </trkpt>
      <trkpt lat="44.7902" lon="1.34696">
        <ele>127.59557434811</ele>
        <time>2021-07-11T12:50:43.252Z</time>
      </trkpt>
      <trkpt lat="44.79003" lon="1.34718">
        <ele>128.38283815042</ele>
        <time>2021-07-11T12:51:00.982Z</time>
      </trkpt>
      <trkpt lat="44.78976" lon="1.34773">
        <ele>129.23248368684</ele>
        <time>2021-07-11T12:51:18.722Z</time>
      </trkpt>
      <trkpt lat="44.78951" lon="1.34828">
        <ele>129.63915267844</ele>
        <time>2021-07-11T12:51:36.471Z</time>
      </trkpt>
      <trkpt lat="44.78942" lon="1.34833">
        <ele>130.5650415164</ele>
        <time>2021-07-11T12:51:54.222Z</time>
      </trkpt>
      <trkpt lat="44.78885" lon="1.34878">
        <ele>131.69524714455</ele>
        <time>2021-07-11T12:52:11.986Z</time>
      </trkpt>
      <trkpt lat="44.78849" lon="1.3491">
        <ele>132.85487090602</ele>
        <time>2021-07-11T12:52:29.759Z</time>
      </trkpt>
      <trkpt lat="44.78836" lon="1.3493">
        <ele>134.02530760219</ele>
        <time>2021-07-11T12:52:47.535Z</time>
      </trkpt>
      <trkpt lat="44.78798" lon="1.34958">
        <ele>135.40294087174</ele>
        <time>2021-07-11T12:53:05.320Z</time>
      </trkpt>
      <trkpt lat="44.7878" lon="1.34969">
        <ele>136.75037623287</ele>
        <time>2021-07-11T12:53:23.109Z</time>
      </trkpt>
      <trkpt lat="44.78766" lon="1.34981">
        <ele>138.18854829784</ele>
        <time>2021-07-11T12:53:40.901Z</time>
      </trkpt>
      <trkpt lat="44.78762" lon="1.34974">
        <ele>139.73235698963</ele>
        <time>2021-07-11T12:53:58.694Z</time>
      </trkpt>
      <trkpt lat="44.78755" lon="1.34977">
        <ele>141.32533697514</ele>
        <time>2021-07-11T12:54:16.489Z</time>
      </trkpt>
      <trkpt lat="44.78752" lon="1.34967">
        <ele>143.01971285912</ele>
        <time>2021-07-11T12:54:34.285Z</time>
      </trkpt>
      <trkpt lat="44.78736" lon="1.34974">
        <ele>144.79783867898</ele>
        <time>2021-07-11T12:54:52.085Z</time>
      </trkpt>
      <trkpt lat="44.7873" lon="1.34982">
        <ele>146.54963882434</ele>
        <time>2021-07-11T12:55:09.887Z</time>
      </trkpt>
      <trkpt lat="44.78706" lon="1.34992">
        <ele>148.55861093051</ele>
        <time>2021-07-11T12:55:27.694Z</time>
      </trkpt>
      <trkpt lat="44.78698" lon="1.35">
        <ele>150.44742953021</ele>
        <time>2021-07-11T12:55:45.502Z</time>
      </trkpt>
      <trkpt lat="44.78688" lon="1.34994">
        <ele>152.32809698415</ele>
        <time>2021-07-11T12:56:03.313Z</time>
      </trkpt>
      <trkpt lat="44.78665" lon="1.35034">
        <ele>154.39354190372</ele>
        <time>2021-07-11T12:56:21.131Z</time>
      </trkpt>
      <trkpt lat="44.78666" lon="1.35047">
        <ele>156.3552774127</ele>
        <time>2021-07-11T12:56:38.951Z</time>
      </trkpt>
      <trkpt lat="44.78662" lon="1.35069">
        <ele>158.37984646902</ele>
        <time>2021-07-11T12:56:56.774Z</time>
      </trkpt>
      <trkpt lat="44.7865" lon="1.35091">
        <ele>160.43554796018</ele>
        <time>2021-07-11T12:57:14.601Z</time>
      </trkpt>
      <trkpt lat="44.78647" lon="1.35101">
        <ele>162.44085560169</ele>
        <time>2021-07-11T12:57:32.430Z</time>
      </trkpt>
      <trkpt lat="44.78648" lon="1.35112">
        <ele>164.41519394379</ele>
        <time>2021-07-11T12:57:50.260Z</time>
      </trkpt>
      <trkpt lat="44.78635" lon="1.35123">
        <ele>166.45866765016</ele>
        <time>2021-07-11T12:58:08.093Z</time>
      </trkpt>
      <trkpt lat="44.78627" lon="1.35142">
        <ele>168.48577758503</ele>
        <time>2021-07-11T12:58:25.929Z</time>
      </trkpt>
      <trkpt lat="44.78631" lon="1.35154">
        <ele>170.29174285318</ele>
        <time>2021-07-11T12:58:43.767Z</time>
      </trkpt>
      <trkpt lat="44.78632" lon="1.35167">
        <ele>172.07534627529</ele>
        <time>2021-07-11T12:59:01.607Z</time>
      </trkpt>
      <trkpt lat="44.78621" lon="1.35182">
        <ele>173.96803534449</ele>
        <time>2021-07-11T12:59:19.450Z</time>
      </trkpt>
      <trkpt lat="44.78614" lon="1.35201">
        <ele>175.68140774056</ele>
        <time>2021-07-11T12:59:37.296Z</time>
      </trkpt>
      <trkpt lat="44.78602" lon="1.35215">
        <ele>177.29768767957</ele>
        <time>2021-07-11T12:59:55.145Z</time>
      </trkpt>
      <trkpt lat="44.78597" lon="1.35229">
        <ele>178.84323709757</ele>
        <time>2021-07-11T13:00:12.997Z</time>
      </trkpt>
      <trkpt lat="44.78596" lon="1.3524">
        <ele>180.24577508221</ele>
        <time>2021-07-11T13:00:30.850Z</time>
      </trkpt>
      <trkpt lat="44.78581" lon="1.35248">
        <ele>181.55782982436</ele>
        <time>2021-07-11T13:00:48.706Z</time>
      </trkpt>
      <trkpt lat="44.78569" lon="1.3525">
        <ele>182.77091908574</ele>
        <time>2021-07-11T13:01:06.565Z</time>
      </trkpt>
      <trkpt lat="44.7856" lon="1.35244">
        <ele>183.88099483593</ele>
        <time>2021-07-11T13:01:24.426Z</time>
      </trkpt>
      <trkpt lat="44.78533" lon="1.35254">
        <ele>184.94322977136</ele>
        <time>2021-07-11T13:01:42.292Z</time>
      </trkpt>
      <trkpt lat="44.78522" lon="1.35251">
        <ele>185.86910417417</ele>
        <time>2021-07-11T13:02:00.161Z</time>
      </trkpt>
      <trkpt lat="44.78512" lon="1.35271">
        <ele>186.74197173971</ele>
        <time>2021-07-11T13:02:18.033Z</time>
      </trkpt>
      <trkpt lat="44.78494" lon="1.35294">
        <ele>187.44157445857</ele>
        <time>2021-07-11T13:02:35.910Z</time>
      </trkpt>
      <trkpt lat="44.7848" lon="1.35304">
        <ele>188.02056690638</ele>
        <time>2021-07-11T13:02:53.790Z</time>
      </trkpt>
      <trkpt lat="44.78453" lon="1.35334">
        <ele>188.42494462993</ele>
        <time>2021-07-11T13:03:11.677Z</time>
      </trkpt>
      <trkpt lat="44.78437" lon="1.35343">
        <ele>188.97257436379</ele>
        <time>2021-07-11T13:03:29.567Z</time>
      </trkpt>
      <trkpt lat="44.78424" lon="1.35342">
        <ele>189.43031023607</ele>
        <time>2021-07-11T13:03:47.460Z</time>
      </trkpt>
      <trkpt lat="44.78413" lon="1.35336">
        <ele>189.78665071008</ele>
        <time>2021-07-11T13:04:05.355Z</time>
      </trkpt>
      <trkpt lat="44.78404" lon="1.35325">
        <ele>190.03802740501</ele>
        <time>2021-07-11T13:04:23.253Z</time>
      </trkpt>
      <trkpt lat="44.78401" lon="1.35314">
        <ele>190.13588995379</ele>
        <time>2021-07-11T13:04:41.152Z</time>
      </trkpt>
      <trkpt lat="44.7839" lon="1.35306">
        <ele>190.15830363437</ele>
        <time>2021-07-11T13:04:59.054Z</time>
      </trkpt>
      <trkpt lat="44.78382" lon="1.35304">
        <ele>190.03720108387</ele>
        <time>2021-07-11T13:05:16.958Z</time>
      </trkpt>
      <trkpt lat="44.78371" lon="1.35308">
        <ele>189.81249442947</ele>
        <time>2021-07-11T13:05:34.864Z</time>
      </trkpt>
      <trkpt lat="44.78346" lon="1.35376">
        <ele>189.1288090564</ele>
        <time>2021-07-11T13:05:52.781Z</time>
      </trkpt>
      <trkpt lat="44.78328" lon="1.35414">
        <ele>188.51436475319</ele>
        <time>2021-07-11T13:06:10.704Z</time>
      </trkpt>
      <trkpt lat="44.78311" lon="1.3544">
        <ele>187.84607389539</ele>
        <time>2021-07-11T13:06:28.632Z</time>
      </trkpt>
      <trkpt lat="44.78313" lon="1.35463">
        <ele>186.98033719817</ele>
        <time>2021-07-11T13:06:46.564Z</time>
      </trkpt>
      <trkpt lat="44.78307" lon="1.35488">
        <ele>186.07703442768</ele>
        <time>2021-07-11T13:07:04.499Z</time>
      </trkpt>
      <trkpt lat="44.78262" lon="1.35532">
        <ele>185.53583011629</ele>
        <time>2021-07-11T13:07:22.445Z</time>
      </trkpt>
      <trkpt lat="44.78246" lon="1.35551">
        <ele>184.53642435819</ele>
        <time>2021-07-11T13:07:40.395Z</time>
      </trkpt>
      <trkpt lat="44.78214" lon="1.356">
        <ele>183.45385544513</ele>
        <time>2021-07-11T13:07:58.355Z</time>
      </trkpt>
      <trkpt lat="44.78198" lon="1.35605">
        <ele>182.25610847018</ele>
        <time>2021-07-11T13:08:16.318Z</time>
      </trkpt>
      <trkpt lat="44.78183" lon="1.35621">
        <ele>181.0071022771</ele>
        <time>2021-07-11T13:08:34.285Z</time>
      </trkpt>
      <trkpt lat="44.78159" lon="1.35662">
        <ele>179.48318335053</ele>
        <time>2021-07-11T13:08:52.260Z</time>
      </trkpt>
      <trkpt lat="44.78144" lon="1.35691">
        <ele>177.95472868304</ele>
        <time>2021-07-11T13:09:10.240Z</time>
      </trkpt>
      <trkpt lat="44.78128" lon="1.35736">
        <ele>176.21467490863</ele>
        <time>2021-07-11T13:09:28.227Z</time>
      </trkpt>
      <trkpt lat="44.78125" lon="1.35765">
        <ele>174.59491633282</ele>
        <time>2021-07-11T13:09:46.218Z</time>
      </trkpt>
      <trkpt lat="44.78134" lon="1.35813">
        <ele>172.96782023747</ele>
        <time>2021-07-11T13:10:04.216Z</time>
      </trkpt>
      <trkpt lat="44.78129" lon="1.35845">
        <ele>171.26598123469</ele>
        <time>2021-07-11T13:10:22.219Z</time>
      </trkpt>
      <trkpt lat="44.78119" lon="1.35863">
        <ele>169.54321771943</ele>
        <time>2021-07-11T13:10:40.225Z</time>
      </trkpt>
      <trkpt lat="44.78105" lon="1.35882">
        <ele>167.76304409377</ele>
        <time>2021-07-11T13:10:58.235Z</time>
      </trkpt>
      <trkpt lat="44.78088" lon="1.35899">
        <ele>165.96398849947</ele>
        <time>2021-07-11T13:11:16.249Z</time>
      </trkpt>
      <trkpt lat="44.7807" lon="1.35913">
        <ele>164.23121793285</ele>
        <time>2021-07-11T13:11:34.267Z</time>
      </trkpt>
      <trkpt lat="44.7804" lon="1.35955">
        <ele>162.40521899641</ele>
        <time>2021-07-11T13:11:52.294Z</time>
      </trkpt>
      <trkpt lat="44.78017" lon="1.36007">
        <ele>161.00027746522</ele>
        <time>2021-07-11T13:12:10.329Z</time>
      </trkpt>
      <trkpt lat="44.78003" lon="1.36025">
        <ele>159.66996912645</ele>
        <time>2021-07-11T13:12:28.368Z</time>
      </trkpt>
      <trkpt lat="44.77978" lon="1.36043">
        <ele>158.26206923214</ele>
        <time>2021-07-11T13:12:46.413Z</time>
      </trkpt>
      <trkpt lat="44.77961" lon="1.36059">
        <ele>156.96427412663</ele>
        <time>2021-07-11T13:13:04.462Z</time>
      </trkpt>
      <trkpt lat="44.77949" lon="1.36094">
        <ele>155.86141772783</ele>
        <time>2021-07-11T13:13:22.516Z</time>
      </trkpt>
      <trkpt lat="44.77936" lon="1.3611">
        <ele>154.8288706115</ele>
        <time>2021-07-11T13:13:40.574Z</time>
      </trkpt>
      <trkpt lat="44.77922" lon="1.36119">
        <ele>153.86206391703</ele>
        <time>2021-07-11T13:13:58.635Z</time>
      </trkpt>
      <trkpt lat="44.77894" lon="1.36117">
        <ele>152.93516762012</ele>
        <time>2021-07-11T13:14:16.702Z</time>
      </trkpt>
      <trkpt lat="44.77882" lon="1.3612">
        <ele>152.1303543862</ele>
        <time>2021-07-11T13:14:34.771Z</time>
      </trkpt>
      <trkpt lat="44.77879" lon="1.3614">
        <ele>151.45951511967</ele>
        <time>2021-07-11T13:14:52.843Z</time>
      </trkpt>
      <trkpt lat="44.77871" lon="1.36157">
        <ele>150.84335466855</ele>
        <time>2021-07-11T13:15:10.918Z</time>
      </trkpt>
      <trkpt lat="44.77852" lon="1.36228">
        <ele>150.26668879693</ele>
        <time>2021-07-11T13:15:29.004Z</time>
      </trkpt>
      <trkpt lat="44.77841" lon="1.36247">
        <ele>149.75532638648</ele>
        <time>2021-07-11T13:15:47.093Z</time>
      </trkpt>
      <trkpt lat="44.77826" lon="1.36263">
        <ele>149.34332648459</ele>
        <time>2021-07-11T13:16:05.186Z</time>
      </trkpt>
      <trkpt lat="44.7782" lon="1.36275">
        <ele>149.07132414686</ele>
        <time>2021-07-11T13:16:23.281Z</time>
      </trkpt>
      <trkpt lat="44.7778" lon="1.3637">
        <ele>148.68184876702</ele>
        <time>2021-07-11T13:16:41.392Z</time>
      </trkpt>
      <trkpt lat="44.77764" lon="1.36418">
        <ele>148.60714946471</ele>
        <time>2021-07-11T13:16:59.510Z</time>
      </trkpt>
      <trkpt lat="44.77759" lon="1.36426">
        <ele>148.66905093257</ele>
        <time>2021-07-11T13:17:17.630Z</time>
      </trkpt>
      <trkpt lat="44.77747" lon="1.36434">
        <ele>148.82960078334</ele>
        <time>2021-07-11T13:17:35.752Z</time>
      </trkpt>
      <trkpt lat="44.77728" lon="1.36457">
        <ele>149.09881980394</ele>
        <time>2021-07-11T13:17:53.879Z</time>
      </trkpt>
      <trkpt lat="44.77712" lon="1.3646">
        <ele>149.3920652634</ele>
        <time>2021-07-11T13:18:12.010Z</time>
      </trkpt>
      <trkpt lat="44.77692" lon="1.36455">
        <ele>149.68635244176</ele>
        <time>2021-07-11T13:18:30.145Z</time>
      </trkpt>
      <trkpt lat="44.77682" lon="1.36459">
        <ele>149.97921247089</ele>
        <time>2021-07-11T13:18:48.282Z</time>
      </trkpt>
      <trkpt lat="44.77685" lon="1.36511">
        <ele>150.31004723551</ele>
        <time>2021-07-11T13:19:06.426Z</time>
      </trkpt>
      <trkpt lat="44.77685" lon="1.36527">
        <ele>150.62258381559</ele>
        <time>2021-07-11T13:19:24.572Z</time>
      </trkpt>
      <trkpt lat="44.77683" lon="1.36533">
        <ele>150.92140763486</ele>
        <time>2021-07-11T13:19:42.719Z</time>
      </trkpt>
      <trkpt lat="44.77725" lon="1.36607">
        <ele>151.29153442843</ele>
        <time>2021-07-11T13:20:00.880Z</time>
      </trkpt>
      <trkpt lat="44.77742" lon="1.36633">
        <ele>151.5722815517</ele>
        <time>2021-07-11T13:20:19.046Z</time>
      </trkpt>
      <trkpt lat="44.77771" lon="1.36707">
        <ele>152.05330487038</ele>
        <time>2021-07-11T13:20:37.224Z</time>
      </trkpt>
      <trkpt lat="44.77813" lon="1.36792">
        <ele>152.40908560159</ele>
        <time>2021-07-11T13:20:55.417Z</time>
      </trkpt>
      <trkpt lat="44.77822" lon="1.36803">
        <ele>152.37204000505</ele>
        <time>2021-07-11T13:21:13.612Z</time>
      </trkpt>
      <trkpt lat="44.77823" lon="1.3694">
        <ele>152.4172510223</ele>
        <time>2021-07-11T13:21:31.827Z</time>
      </trkpt>
      <trkpt lat="44.77818" lon="1.3699">
        <ele>152.12948337428</ele>
        <time>2021-07-11T13:21:50.049Z</time>
      </trkpt>
      <trkpt lat="44.77817" lon="1.3703">
        <ele>151.66661650387</ele>
        <time>2021-07-11T13:22:08.277Z</time>
      </trkpt>
      <trkpt lat="44.77817" lon="1.37065">
        <ele>151.14070768154</ele>
        <time>2021-07-11T13:22:26.509Z</time>
      </trkpt>
      <trkpt lat="44.7782" lon="1.37095">
        <ele>150.66571857824</ele>
        <time>2021-07-11T13:22:44.746Z</time>
      </trkpt>
      <trkpt lat="44.77852" lon="1.37182">
        <ele>149.88928896604</ele>
        <time>2021-07-11T13:23:02.997Z</time>
      </trkpt>
      <trkpt lat="44.77869" lon="1.37214">
        <ele>149.4301984455</ele>
        <time>2021-07-11T13:23:21.253Z</time>
      </trkpt>
      <trkpt lat="44.77876" lon="1.37217">
        <ele>149.02112469439</ele>
        <time>2021-07-11T13:23:39.511Z</time>
      </trkpt>
      <trkpt lat="44.77883" lon="1.37235">
        <ele>148.5975045305</ele>
        <time>2021-07-11T13:23:57.772Z</time>
      </trkpt>
      <trkpt lat="44.77861" lon="1.37273">
        <ele>148.22327862786</ele>
        <time>2021-07-11T13:24:16.040Z</time>
      </trkpt>
      <trkpt lat="44.77821" lon="1.37325">
        <ele>148.11728355526</ele>
        <time>2021-07-11T13:24:34.319Z</time>
      </trkpt>
      <trkpt lat="44.77777" lon="1.37354">
        <ele>147.96137383809</ele>
        <time>2021-07-11T13:24:52.607Z</time>
      </trkpt>
      <trkpt lat="44.77754" lon="1.37364">
        <ele>147.76002861764</ele>
        <time>2021-07-11T13:25:10.900Z</time>
      </trkpt>
      <trkpt lat="44.77734" lon="1.37378">
        <ele>147.66510927151</ele>
        <time>2021-07-11T13:25:29.198Z</time>
      </trkpt>
      <trkpt lat="44.7766" lon="1.37513">
        <ele>147.25325317188</ele>
        <time>2021-07-11T13:25:47.520Z</time>
      </trkpt>
      <trkpt lat="44.77648" lon="1.37541">
        <ele>147.05898562751</ele>
        <time>2021-07-11T13:26:05.847Z</time>
      </trkpt>
      <trkpt lat="44.7763" lon="1.37563">
        <ele>147.03764498742</ele>
        <time>2021-07-11T13:26:24.178Z</time>
      </trkpt>
      <trkpt lat="44.77609" lon="1.37566">
        <ele>147.3487576422</ele>
        <time>2021-07-11T13:26:42.514Z</time>
      </trkpt>
      <trkpt lat="44.77593" lon="1.37563">
        <ele>147.81384643339</ele>
        <time>2021-07-11T13:27:00.853Z</time>
      </trkpt>
      <trkpt lat="44.77572" lon="1.37632">
        <ele>148.23963353062</ele>
        <time>2021-07-11T13:27:19.203Z</time>
      </trkpt>
      <trkpt lat="44.77561" lon="1.37639">
        <ele>148.97206725003</ele>
        <time>2021-07-11T13:27:37.555Z</time>
      </trkpt>
      <trkpt lat="44.77568" lon="1.37646">
        <ele>149.76085519487</ele>
        <time>2021-07-11T13:27:55.909Z</time>
      </trkpt>
      <trkpt lat="44.7758" lon="1.37664">
        <ele>150.68068695164</ele>
        <time>2021-07-11T13:28:14.266Z</time>
      </trkpt>
      <trkpt lat="44.7757" lon="1.37657">
        <ele>151.84041021805</ele>
        <time>2021-07-11T13:28:32.625Z</time>
      </trkpt>
      <trkpt lat="44.77552" lon="1.3765">
        <ele>153.14528088909</ele>
        <time>2021-07-11T13:28:50.988Z</time>
      </trkpt>
      <trkpt lat="44.77546" lon="1.3765">
        <ele>154.48462711326</ele>
        <time>2021-07-11T13:29:09.352Z</time>
      </trkpt>
      <trkpt lat="44.77528" lon="1.3766">
        <ele>155.96423993513</ele>
        <time>2021-07-11T13:29:27.720Z</time>
      </trkpt>
      <trkpt lat="44.77358" lon="1.37821">
        <ele>158.19012283963</ele>
        <time>2021-07-11T13:29:46.129Z</time>
      </trkpt>
      <trkpt lat="44.77275" lon="1.37914">
        <ele>159.49910538909</ele>
        <time>2021-07-11T13:30:04.560Z</time>
      </trkpt>
      <trkpt lat="44.77236" lon="1.37961">
        <ele>160.7787978152</ele>
        <time>2021-07-11T13:30:23.001Z</time>
      </trkpt>
      <trkpt lat="44.77226" lon="1.37979">
        <ele>161.97461567879</ele>
        <time>2021-07-11T13:30:41.445Z</time>
      </trkpt>
      <trkpt lat="44.77212" lon="1.3804">
        <ele>163.13301704952</ele>
        <time>2021-07-11T13:30:59.898Z</time>
      </trkpt>
      <trkpt lat="44.77204" lon="1.38063">
        <ele>164.15111765578</ele>
        <time>2021-07-11T13:31:18.355Z</time>
      </trkpt>
      <trkpt lat="44.7719" lon="1.38121">
        <ele>165.21943391633</ele>
        <time>2021-07-11T13:31:36.821Z</time>
      </trkpt>
      <trkpt lat="44.77189" lon="1.38187">
        <ele>165.95064811819</ele>
        <time>2021-07-11T13:31:55.296Z</time>
      </trkpt>
      <trkpt lat="44.77185" lon="1.38213">
        <ele>166.34185972961</ele>
        <time>2021-07-11T13:32:13.775Z</time>
      </trkpt>
      <trkpt lat="44.77162" lon="1.38311">
        <ele>166.58924030213</ele>
        <time>2021-07-11T13:32:32.268Z</time>
      </trkpt>
      <trkpt lat="44.77152" lon="1.38374">
        <ele>166.49275704118</ele>
        <time>2021-07-11T13:32:50.771Z</time>
      </trkpt>
      <trkpt lat="44.77144" lon="1.38402">
        <ele>166.43736957598</ele>
        <time>2021-07-11T13:33:09.278Z</time>
      </trkpt>
      <trkpt lat="44.77138" lon="1.38469">
        <ele>165.83157838148</ele>
        <time>2021-07-11T13:33:27.795Z</time>
      </trkpt>
      <trkpt lat="44.77135" lon="1.38484">
        <ele>165.39678219585</ele>
        <time>2021-07-11T13:33:46.314Z</time>
      </trkpt>
      <trkpt lat="44.77125" lon="1.38515">
        <ele>164.89994142072</ele>
        <time>2021-07-11T13:34:04.838Z</time>
      </trkpt>
      <trkpt lat="44.77118" lon="1.38552">
        <ele>164.15585271987</ele>
        <time>2021-07-11T13:34:23.367Z</time>
      </trkpt>
      <trkpt lat="44.77115" lon="1.38603">
        <ele>163.01371549355</ele>
        <time>2021-07-11T13:34:41.903Z</time>
      </trkpt>
      <trkpt lat="44.77106" lon="1.38677">
        <ele>161.82309062885</ele>
        <time>2021-07-11T13:35:00.450Z</time>
      </trkpt>
      <trkpt lat="44.77108" lon="1.38689">
        <ele>161.09860449755</ele>
        <time>2021-07-11T13:35:18.999Z</time>
      </trkpt>
      <trkpt lat="44.77122" lon="1.38728">
        <ele>160.22530226849</ele>
        <time>2021-07-11T13:35:37.554Z</time>
      </trkpt>
      <trkpt lat="44.77124" lon="1.38774">
        <ele>159.59688705353</ele>
        <time>2021-07-11T13:35:56.116Z</time>
      </trkpt>
      <trkpt lat="44.77114" lon="1.38774">
        <ele>158.91764692086</ele>
        <time>2021-07-11T13:36:14.680Z</time>
      </trkpt>
      <trkpt lat="44.77101" lon="1.38778">
        <ele>158.23118930458</ele>
        <time>2021-07-11T13:36:33.246Z</time>
      </trkpt>
      <trkpt lat="44.77088" lon="1.38784">
        <ele>157.54402730511</ele>
        <time>2021-07-11T13:36:51.815Z</time>
      </trkpt>
      <trkpt lat="44.77086" lon="1.38788">
        <ele>156.85027380609</ele>
        <time>2021-07-11T13:37:10.385Z</time>
      </trkpt>
      <trkpt lat="44.77077" lon="1.38819">
        <ele>156.19182959612</ele>
        <time>2021-07-11T13:37:28.959Z</time>
      </trkpt>
      <trkpt lat="44.77077" lon="1.3883">
        <ele>155.53807405071</ele>
        <time>2021-07-11T13:37:47.535Z</time>
      </trkpt>
      <trkpt lat="44.77058" lon="1.38876">
        <ele>154.89838861855</ele>
        <time>2021-07-11T13:38:06.119Z</time>
      </trkpt>
      <trkpt lat="44.77029" lon="1.3898">
        <ele>154.41491624765</ele>
        <time>2021-07-11T13:38:24.719Z</time>
      </trkpt>
      <trkpt lat="44.77035" lon="1.38983">
        <ele>153.76413641827</ele>
        <time>2021-07-11T13:38:43.320Z</time>
      </trkpt>
      <trkpt lat="44.7706" lon="1.39004">
        <ele>153.14244963095</ele>
        <time>2021-07-11T13:39:01.927Z</time>
      </trkpt>
      <trkpt lat="44.77099" lon="1.39031">
        <ele>152.58195495949</ele>
        <time>2021-07-11T13:39:20.542Z</time>
      </trkpt>
      <trkpt lat="44.7711" lon="1.39041">
        <ele>152.10788258133</ele>
        <time>2021-07-11T13:39:39.160Z</time>
      </trkpt>
      <trkpt lat="44.77116" lon="1.39049">
        <ele>151.7182295248</ele>
        <time>2021-07-11T13:39:57.780Z</time>
      </trkpt>
      <trkpt lat="44.77119" lon="1.39067">
        <ele>151.42256783885</ele>
        <time>2021-07-11T13:40:16.402Z</time>
      </trkpt>
      <trkpt lat="44.7711" lon="1.39106">
        <ele>151.23835584238</ele>
        <time>2021-07-11T13:40:35.030Z</time>
      </trkpt>
      <trkpt lat="44.77113" lon="1.39128">
        <ele>151.18681656242</ele>
        <time>2021-07-11T13:40:53.661Z</time>
      </trkpt>
      <trkpt lat="44.77118" lon="1.39147">
        <ele>151.29730601113</ele>
        <time>2021-07-11T13:41:12.295Z</time>
      </trkpt>
      <trkpt lat="44.77125" lon="1.39157">
        <ele>151.59122320945</ele>
        <time>2021-07-11T13:41:30.931Z</time>
      </trkpt>
      <trkpt lat="44.77135" lon="1.39203">
        <ele>152.11318933086</ele>
        <time>2021-07-11T13:41:49.574Z</time>
      </trkpt>
      <trkpt lat="44.77134" lon="1.39219">
        <ele>152.80191629573</ele>
        <time>2021-07-11T13:42:08.219Z</time>
      </trkpt>
      <trkpt lat="44.7713" lon="1.3924">
        <ele>153.71103022679</ele>
        <time>2021-07-11T13:42:26.867Z</time>
      </trkpt>
      <trkpt lat="44.77123" lon="1.3926">
        <ele>154.8445545065</ele>
        <time>2021-07-11T13:42:45.519Z</time>
      </trkpt>
      <trkpt lat="44.7712" lon="1.39277">
        <ele>156.11849512267</ele>
        <time>2021-07-11T13:43:04.173Z</time>
      </trkpt>
      <trkpt lat="44.7712" lon="1.39289">
        <ele>157.55355313832</ele>
        <time>2021-07-11T13:43:22.829Z</time>
      </trkpt>
      <trkpt lat="44.77129" lon="1.3931">
        <ele>159.19481086447</ele>
        <time>2021-07-11T13:43:41.488Z</time>
      </trkpt>
      <trkpt lat="44.77132" lon="1.39321">
        <ele>161.00991926964</ele>
        <time>2021-07-11T13:44:00.149Z</time>
      </trkpt>
      <trkpt lat="44.7713" lon="1.39336">
        <ele>163.07525284501</ele>
        <time>2021-07-11T13:44:18.812Z</time>
      </trkpt>
      <trkpt lat="44.771" lon="1.3946">
        <ele>165.61320684613</ele>
        <time>2021-07-11T13:44:37.494Z</time>
      </trkpt>
      <trkpt lat="44.77066" lon="1.39619">
        <ele>167.66665289062</ele>
        <time>2021-07-11T13:44:56.199Z</time>
      </trkpt>
      <trkpt lat="44.77042" lon="1.39713">
        <ele>169.44358477909</ele>
        <time>2021-07-11T13:45:14.919Z</time>
      </trkpt>
      <trkpt lat="44.77037" lon="1.39742">
        <ele>171.2249285246</ele>
        <time>2021-07-11T13:45:33.643Z</time>
      </trkpt>
      <trkpt lat="44.77026" lon="1.39858">
        <ele>173.26229736904</ele>
        <time>2021-07-11T13:45:52.384Z</time>
      </trkpt>
      <trkpt lat="44.77027" lon="1.39939">
        <ele>174.53260667388</ele>
        <time>2021-07-11T13:46:11.136Z</time>
      </trkpt>
      <trkpt lat="44.77032" lon="1.39946">
        <ele>175.25072536311</ele>
        <time>2021-07-11T13:46:29.890Z</time>
      </trkpt>
      <trkpt lat="44.77038" lon="1.39947">
        <ele>175.68567191214</ele>
        <time>2021-07-11T13:46:48.645Z</time>
      </trkpt>
      <trkpt lat="44.77045" lon="1.39947">
        <ele>175.76745468956</ele>
        <time>2021-07-11T13:47:07.401Z</time>
      </trkpt>
      <trkpt lat="44.77056" lon="1.39943">
        <ele>175.59637273203</ele>
        <time>2021-07-11T13:47:26.159Z</time>
      </trkpt>
      <trkpt lat="44.77126" lon="1.399">
        <ele>174.99293287512</ele>
        <time>2021-07-11T13:47:44.933Z</time>
      </trkpt>
      <trkpt lat="44.77172" lon="1.39866">
        <ele>174.92486652489</ele>
        <time>2021-07-11T13:48:03.717Z</time>
      </trkpt>
      <trkpt lat="44.77175" lon="1.39866">
        <ele>175.17024751143</ele>
        <time>2021-07-11T13:48:22.502Z</time>
      </trkpt>
      <trkpt lat="44.77186" lon="1.39902">
        <ele>175.34010150086</ele>
        <time>2021-07-11T13:48:41.292Z</time>
      </trkpt>
    </trkseg>
  </trk>
</gpx>